<?xml version="1.0" encoding="UTF-8" standalone="no" ?>
<gpx xmlns="http://www.topografix.com/GPX/1/1" xmlns:xsi="http://www.w3.org/2001/XMLSchema-instance" xsi:schemaLocation="http://www.topografix.com/GPX/1/1 http://www.topografix.com/GPX/1/1/gpx.xsd" version="1.1" creator="VisuGPX - https://www.visugpx.com">
  <metadata>
    <name>Les buissières du Larzac</name>
    <desc><![CDATA[Rando VTT sur le Larzac. Des singletracks, pistes et les fameuses buissières dont la féérique de Potensac. Parcours très caussenard !]]></desc>
  </metadata>
  <trk>
    <name><![CDATA[Les buissières du Larzac on GPSies.com]]></name>
    <trkseg>
      <trkpt lat="44.10318" lon="3.08798">
        <ele>356</ele>
        <time>2010-01-01T00:00:00Z</time>
      </trkpt>
      <trkpt lat="44.103" lon="3.08776">
        <ele>357</ele>
        <time>2010-01-01T00:00:09Z</time>
      </trkpt>
      <trkpt lat="44.1028" lon="3.08775">
        <ele>357</ele>
        <time>2010-01-01T00:00:17Z</time>
      </trkpt>
      <trkpt lat="44.10236" lon="3.0874">
        <ele>357</ele>
        <time>2010-01-01T00:00:38Z</time>
      </trkpt>
      <trkpt lat="44.102" lon="3.08721">
        <ele>357</ele>
        <time>2010-01-01T00:00:53Z</time>
      </trkpt>
      <trkpt lat="44.10192" lon="3.08685">
        <ele>356</ele>
        <time>2010-01-01T00:01:04Z</time>
      </trkpt>
      <trkpt lat="44.10186" lon="3.08604">
        <ele>358</ele>
        <time>2010-01-01T00:01:27Z</time>
      </trkpt>
      <trkpt lat="44.10166" lon="3.08604">
        <ele>359</ele>
        <time>2010-01-01T00:01:35Z</time>
      </trkpt>
      <trkpt lat="44.10139" lon="3.0863">
        <ele>359</ele>
        <time>2010-01-01T00:01:48Z</time>
      </trkpt>
      <trkpt lat="44.10068" lon="3.08664">
        <ele>358</ele>
        <time>2010-01-01T00:02:18Z</time>
      </trkpt>
      <trkpt lat="44.10041" lon="3.08686">
        <ele>356</ele>
        <time>2010-01-01T00:02:31Z</time>
      </trkpt>
      <trkpt lat="44.10016" lon="3.08697">
        <ele>354</ele>
        <time>2010-01-01T00:02:41Z</time>
      </trkpt>
      <trkpt lat="44.09982" lon="3.08712">
        <ele>354</ele>
        <time>2010-01-01T00:02:55Z</time>
      </trkpt>
      <trkpt lat="44.09937" lon="3.08733">
        <ele>357</ele>
        <time>2010-01-01T00:03:14Z</time>
      </trkpt>
      <trkpt lat="44.09885" lon="3.08757">
        <ele>358</ele>
        <time>2010-01-01T00:03:36Z</time>
      </trkpt>
      <trkpt lat="44.09842" lon="3.08763">
        <ele>356</ele>
        <time>2010-01-01T00:03:54Z</time>
      </trkpt>
      <trkpt lat="44.09793" lon="3.08769">
        <ele>356</ele>
        <time>2010-01-01T00:04:13Z</time>
      </trkpt>
      <trkpt lat="44.09734" lon="3.08772">
        <ele>357</ele>
        <time>2010-01-01T00:04:37Z</time>
      </trkpt>
      <trkpt lat="44.09683" lon="3.08763">
        <ele>359</ele>
        <time>2010-01-01T00:04:57Z</time>
      </trkpt>
      <trkpt lat="44.09645" lon="3.08754">
        <ele>359</ele>
        <time>2010-01-01T00:05:13Z</time>
      </trkpt>
      <trkpt lat="44.09605" lon="3.08735">
        <ele>359</ele>
        <time>2010-01-01T00:05:30Z</time>
      </trkpt>
      <trkpt lat="44.09548" lon="3.08694">
        <ele>358</ele>
        <time>2010-01-01T00:05:56Z</time>
      </trkpt>
      <trkpt lat="44.09497" lon="3.08641">
        <ele>358</ele>
        <time>2010-01-01T00:06:21Z</time>
      </trkpt>
      <trkpt lat="44.09452" lon="3.08576">
        <ele>358</ele>
        <time>2010-01-01T00:06:47Z</time>
      </trkpt>
      <trkpt lat="44.09401" lon="3.08463">
        <ele>356</ele>
        <time>2010-01-01T00:07:25Z</time>
      </trkpt>
      <trkpt lat="44.09382" lon="3.0838">
        <ele>357</ele>
        <time>2010-01-01T00:07:50Z</time>
      </trkpt>
      <trkpt lat="44.09375" lon="3.08341">
        <ele>357</ele>
        <time>2010-01-01T00:08:02Z</time>
      </trkpt>
      <trkpt lat="44.09377" lon="3.08302">
        <ele>356</ele>
        <time>2010-01-01T00:08:13Z</time>
      </trkpt>
      <trkpt lat="44.09381" lon="3.08265">
        <ele>357</ele>
        <time>2010-01-01T00:08:24Z</time>
      </trkpt>
      <trkpt lat="44.0939" lon="3.08235">
        <ele>358</ele>
        <time>2010-01-01T00:08:33Z</time>
      </trkpt>
      <trkpt lat="44.09402" lon="3.08191">
        <ele>357</ele>
        <time>2010-01-01T00:08:47Z</time>
      </trkpt>
      <trkpt lat="44.09417" lon="3.08141">
        <ele>356</ele>
        <time>2010-01-01T00:09:03Z</time>
      </trkpt>
      <trkpt lat="44.09423" lon="3.08103">
        <ele>357</ele>
        <time>2010-01-01T00:09:14Z</time>
      </trkpt>
      <trkpt lat="44.09392" lon="3.081">
        <ele>354</ele>
        <time>2010-01-01T00:09:26Z</time>
      </trkpt>
      <trkpt lat="44.09366" lon="3.08096">
        <ele>353</ele>
        <time>2010-01-01T00:09:36Z</time>
      </trkpt>
      <trkpt lat="44.09348" lon="3.08086">
        <ele>354</ele>
        <time>2010-01-01T00:09:44Z</time>
      </trkpt>
      <trkpt lat="44.09323" lon="3.0807">
        <ele>357</ele>
        <time>2010-01-01T00:09:55Z</time>
      </trkpt>
      <trkpt lat="44.09329" lon="3.08046">
        <ele>356</ele>
        <time>2010-01-01T00:10:02Z</time>
      </trkpt>
      <trkpt lat="44.09319" lon="3.08037">
        <ele>356</ele>
        <time>2010-01-01T00:10:07Z</time>
      </trkpt>
      <trkpt lat="44.09316" lon="3.07948">
        <ele>355</ele>
        <time>2010-01-01T00:10:33Z</time>
      </trkpt>
      <trkpt lat="44.09314" lon="3.07924">
        <ele>354</ele>
        <time>2010-01-01T00:10:40Z</time>
      </trkpt>
      <trkpt lat="44.09313" lon="3.07895">
        <ele>354</ele>
        <time>2010-01-01T00:10:48Z</time>
      </trkpt>
      <trkpt lat="44.09312" lon="3.07866">
        <ele>354</ele>
        <time>2010-01-01T00:10:56Z</time>
      </trkpt>
      <trkpt lat="44.0931" lon="3.07841">
        <ele>354</ele>
        <time>2010-01-01T00:11:04Z</time>
      </trkpt>
      <trkpt lat="44.09307" lon="3.07811">
        <ele>354</ele>
        <time>2010-01-01T00:11:12Z</time>
      </trkpt>
      <trkpt lat="44.09301" lon="3.07778">
        <ele>354</ele>
        <time>2010-01-01T00:11:22Z</time>
      </trkpt>
      <trkpt lat="44.09293" lon="3.07738">
        <ele>354</ele>
        <time>2010-01-01T00:11:34Z</time>
      </trkpt>
      <trkpt lat="44.09282" lon="3.07708">
        <ele>355</ele>
        <time>2010-01-01T00:11:44Z</time>
      </trkpt>
      <trkpt lat="44.09272" lon="3.0767">
        <ele>355</ele>
        <time>2010-01-01T00:11:56Z</time>
      </trkpt>
      <trkpt lat="44.09256" lon="3.0763">
        <ele>357</ele>
        <time>2010-01-01T00:12:09Z</time>
      </trkpt>
      <trkpt lat="44.0924" lon="3.07599">
        <ele>358</ele>
        <time>2010-01-01T00:12:20Z</time>
      </trkpt>
      <trkpt lat="44.09225" lon="3.07567">
        <ele>357</ele>
        <time>2010-01-01T00:12:31Z</time>
      </trkpt>
      <trkpt lat="44.09216" lon="3.07544">
        <ele>357</ele>
        <time>2010-01-01T00:12:38Z</time>
      </trkpt>
      <trkpt lat="44.09205" lon="3.07516">
        <ele>356</ele>
        <time>2010-01-01T00:12:47Z</time>
      </trkpt>
      <trkpt lat="44.09192" lon="3.07486">
        <ele>355</ele>
        <time>2010-01-01T00:12:57Z</time>
      </trkpt>
      <trkpt lat="44.09177" lon="3.07454">
        <ele>356</ele>
        <time>2010-01-01T00:13:08Z</time>
      </trkpt>
      <trkpt lat="44.09164" lon="3.07424">
        <ele>358</ele>
        <time>2010-01-01T00:13:19Z</time>
      </trkpt>
      <trkpt lat="44.09148" lon="3.07395">
        <ele>359</ele>
        <time>2010-01-01T00:13:29Z</time>
      </trkpt>
      <trkpt lat="44.09124" lon="3.0735">
        <ele>358</ele>
        <time>2010-01-01T00:13:45Z</time>
      </trkpt>
      <trkpt lat="44.09107" lon="3.07312">
        <ele>357</ele>
        <time>2010-01-01T00:13:58Z</time>
      </trkpt>
      <trkpt lat="44.09096" lon="3.07287">
        <ele>357</ele>
        <time>2010-01-01T00:14:07Z</time>
      </trkpt>
      <trkpt lat="44.09084" lon="3.07265">
        <ele>357</ele>
        <time>2010-01-01T00:14:14Z</time>
      </trkpt>
      <trkpt lat="44.09078" lon="3.0724">
        <ele>358</ele>
        <time>2010-01-01T00:14:22Z</time>
      </trkpt>
      <trkpt lat="44.09069" lon="3.07213">
        <ele>358</ele>
        <time>2010-01-01T00:14:30Z</time>
      </trkpt>
      <trkpt lat="44.09063" lon="3.07185">
        <ele>358</ele>
        <time>2010-01-01T00:14:39Z</time>
      </trkpt>
      <trkpt lat="44.09059" lon="3.07164">
        <ele>359</ele>
        <time>2010-01-01T00:14:45Z</time>
      </trkpt>
      <trkpt lat="44.09057" lon="3.07149">
        <ele>358</ele>
        <time>2010-01-01T00:14:49Z</time>
      </trkpt>
      <trkpt lat="44.09055" lon="3.07135">
        <ele>358</ele>
        <time>2010-01-01T00:14:54Z</time>
      </trkpt>
      <trkpt lat="44.09052" lon="3.0712">
        <ele>359</ele>
        <time>2010-01-01T00:14:58Z</time>
      </trkpt>
      <trkpt lat="44.0905" lon="3.07105">
        <ele>359</ele>
        <time>2010-01-01T00:15:02Z</time>
      </trkpt>
      <trkpt lat="44.09048" lon="3.0709">
        <ele>358</ele>
        <time>2010-01-01T00:15:07Z</time>
      </trkpt>
      <trkpt lat="44.09046" lon="3.07075">
        <ele>358</ele>
        <time>2010-01-01T00:15:11Z</time>
      </trkpt>
      <trkpt lat="44.09044" lon="3.0706">
        <ele>358</ele>
        <time>2010-01-01T00:15:15Z</time>
      </trkpt>
      <trkpt lat="44.09044" lon="3.07046">
        <ele>358</ele>
        <time>2010-01-01T00:15:20Z</time>
      </trkpt>
      <trkpt lat="44.09043" lon="3.07031">
        <ele>358</ele>
        <time>2010-01-01T00:15:24Z</time>
      </trkpt>
      <trkpt lat="44.09042" lon="3.07017">
        <ele>359</ele>
        <time>2010-01-01T00:15:28Z</time>
      </trkpt>
      <trkpt lat="44.09041" lon="3.07003">
        <ele>359</ele>
        <time>2010-01-01T00:15:32Z</time>
      </trkpt>
      <trkpt lat="44.09042" lon="3.06991">
        <ele>360</ele>
        <time>2010-01-01T00:15:35Z</time>
      </trkpt>
      <trkpt lat="44.09041" lon="3.06978">
        <ele>361</ele>
        <time>2010-01-01T00:15:39Z</time>
      </trkpt>
      <trkpt lat="44.0904" lon="3.06964">
        <ele>361</ele>
        <time>2010-01-01T00:15:43Z</time>
      </trkpt>
      <trkpt lat="44.09039" lon="3.06949">
        <ele>362</ele>
        <time>2010-01-01T00:15:48Z</time>
      </trkpt>
      <trkpt lat="44.09038" lon="3.06936">
        <ele>361</ele>
        <time>2010-01-01T00:15:51Z</time>
      </trkpt>
      <trkpt lat="44.09037" lon="3.06923">
        <ele>360</ele>
        <time>2010-01-01T00:15:55Z</time>
      </trkpt>
      <trkpt lat="44.09035" lon="3.06909">
        <ele>360</ele>
        <time>2010-01-01T00:15:59Z</time>
      </trkpt>
      <trkpt lat="44.09033" lon="3.06896">
        <ele>359</ele>
        <time>2010-01-01T00:16:03Z</time>
      </trkpt>
      <trkpt lat="44.0903" lon="3.06877">
        <ele>360</ele>
        <time>2010-01-01T00:16:09Z</time>
      </trkpt>
      <trkpt lat="44.09026" lon="3.06852">
        <ele>360</ele>
        <time>2010-01-01T00:16:16Z</time>
      </trkpt>
      <trkpt lat="44.09021" lon="3.06826">
        <ele>361</ele>
        <time>2010-01-01T00:16:24Z</time>
      </trkpt>
      <trkpt lat="44.09017" lon="3.06808">
        <ele>363</ele>
        <time>2010-01-01T00:16:29Z</time>
      </trkpt>
      <trkpt lat="44.09015" lon="3.06796">
        <ele>363</ele>
        <time>2010-01-01T00:16:33Z</time>
      </trkpt>
      <trkpt lat="44.09013" lon="3.06785">
        <ele>363</ele>
        <time>2010-01-01T00:16:36Z</time>
      </trkpt>
      <trkpt lat="44.09009" lon="3.06775">
        <ele>364</ele>
        <time>2010-01-01T00:16:39Z</time>
      </trkpt>
      <trkpt lat="44.09003" lon="3.06765">
        <ele>364</ele>
        <time>2010-01-01T00:16:43Z</time>
      </trkpt>
      <trkpt lat="44.08998" lon="3.06754">
        <ele>365</ele>
        <time>2010-01-01T00:16:47Z</time>
      </trkpt>
      <trkpt lat="44.08995" lon="3.06742">
        <ele>365</ele>
        <time>2010-01-01T00:16:50Z</time>
      </trkpt>
      <trkpt lat="44.08992" lon="3.06731">
        <ele>364</ele>
        <time>2010-01-01T00:16:54Z</time>
      </trkpt>
      <trkpt lat="44.08988" lon="3.0672">
        <ele>364</ele>
        <time>2010-01-01T00:16:57Z</time>
      </trkpt>
      <trkpt lat="44.08984" lon="3.06708">
        <ele>365</ele>
        <time>2010-01-01T00:17:01Z</time>
      </trkpt>
      <trkpt lat="44.08979" lon="3.06696">
        <ele>365</ele>
        <time>2010-01-01T00:17:05Z</time>
      </trkpt>
      <trkpt lat="44.08975" lon="3.06684">
        <ele>365</ele>
        <time>2010-01-01T00:17:09Z</time>
      </trkpt>
      <trkpt lat="44.08971" lon="3.06672">
        <ele>365</ele>
        <time>2010-01-01T00:17:13Z</time>
      </trkpt>
      <trkpt lat="44.08966" lon="3.0666">
        <ele>366</ele>
        <time>2010-01-01T00:17:17Z</time>
      </trkpt>
      <trkpt lat="44.08961" lon="3.06648">
        <ele>366</ele>
        <time>2010-01-01T00:17:21Z</time>
      </trkpt>
      <trkpt lat="44.08956" lon="3.06637">
        <ele>367</ele>
        <time>2010-01-01T00:17:24Z</time>
      </trkpt>
      <trkpt lat="44.08951" lon="3.06625">
        <ele>368</ele>
        <time>2010-01-01T00:17:28Z</time>
      </trkpt>
      <trkpt lat="44.08946" lon="3.06613">
        <ele>369</ele>
        <time>2010-01-01T00:17:32Z</time>
      </trkpt>
      <trkpt lat="44.0894" lon="3.06602">
        <ele>371</ele>
        <time>2010-01-01T00:17:36Z</time>
      </trkpt>
      <trkpt lat="44.08935" lon="3.0659">
        <ele>372</ele>
        <time>2010-01-01T00:17:40Z</time>
      </trkpt>
      <trkpt lat="44.08929" lon="3.06579">
        <ele>373</ele>
        <time>2010-01-01T00:17:44Z</time>
      </trkpt>
      <trkpt lat="44.08924" lon="3.06568">
        <ele>373</ele>
        <time>2010-01-01T00:17:48Z</time>
      </trkpt>
      <trkpt lat="44.08918" lon="3.06557">
        <ele>374</ele>
        <time>2010-01-01T00:17:52Z</time>
      </trkpt>
      <trkpt lat="44.08912" lon="3.06546">
        <ele>373</ele>
        <time>2010-01-01T00:17:56Z</time>
      </trkpt>
      <trkpt lat="44.08906" lon="3.06534">
        <ele>373</ele>
        <time>2010-01-01T00:18:00Z</time>
      </trkpt>
      <trkpt lat="44.08898" lon="3.06522">
        <ele>372</ele>
        <time>2010-01-01T00:18:05Z</time>
      </trkpt>
      <trkpt lat="44.08891" lon="3.06511">
        <ele>371</ele>
        <time>2010-01-01T00:18:09Z</time>
      </trkpt>
      <trkpt lat="44.08885" lon="3.06499">
        <ele>370</ele>
        <time>2010-01-01T00:18:13Z</time>
      </trkpt>
      <trkpt lat="44.08878" lon="3.06488">
        <ele>369</ele>
        <time>2010-01-01T00:18:17Z</time>
      </trkpt>
      <trkpt lat="44.08869" lon="3.06478">
        <ele>369</ele>
        <time>2010-01-01T00:18:22Z</time>
      </trkpt>
      <trkpt lat="44.08862" lon="3.06467">
        <ele>368</ele>
        <time>2010-01-01T00:18:26Z</time>
      </trkpt>
      <trkpt lat="44.08854" lon="3.06457">
        <ele>369</ele>
        <time>2010-01-01T00:18:30Z</time>
      </trkpt>
      <trkpt lat="44.08847" lon="3.06447">
        <ele>369</ele>
        <time>2010-01-01T00:18:35Z</time>
      </trkpt>
      <trkpt lat="44.08839" lon="3.06436">
        <ele>368</ele>
        <time>2010-01-01T00:18:39Z</time>
      </trkpt>
      <trkpt lat="44.08831" lon="3.06427">
        <ele>368</ele>
        <time>2010-01-01T00:18:43Z</time>
      </trkpt>
      <trkpt lat="44.08822" lon="3.06417">
        <ele>367</ele>
        <time>2010-01-01T00:18:48Z</time>
      </trkpt>
      <trkpt lat="44.08814" lon="3.06407">
        <ele>367</ele>
        <time>2010-01-01T00:18:52Z</time>
      </trkpt>
      <trkpt lat="44.08806" lon="3.06398">
        <ele>367</ele>
        <time>2010-01-01T00:18:56Z</time>
      </trkpt>
      <trkpt lat="44.08798" lon="3.06388">
        <ele>367</ele>
        <time>2010-01-01T00:19:01Z</time>
      </trkpt>
      <trkpt lat="44.0879" lon="3.06378">
        <ele>368</ele>
        <time>2010-01-01T00:19:05Z</time>
      </trkpt>
      <trkpt lat="44.08783" lon="3.06369">
        <ele>368</ele>
        <time>2010-01-01T00:19:09Z</time>
      </trkpt>
      <trkpt lat="44.08775" lon="3.06361">
        <ele>369</ele>
        <time>2010-01-01T00:19:12Z</time>
      </trkpt>
      <trkpt lat="44.08768" lon="3.06353">
        <ele>370</ele>
        <time>2010-01-01T00:19:16Z</time>
      </trkpt>
      <trkpt lat="44.0876" lon="3.06346">
        <ele>371</ele>
        <time>2010-01-01T00:19:20Z</time>
      </trkpt>
      <trkpt lat="44.08752" lon="3.0634">
        <ele>372</ele>
        <time>2010-01-01T00:19:24Z</time>
      </trkpt>
      <trkpt lat="44.08744" lon="3.06334">
        <ele>373</ele>
        <time>2010-01-01T00:19:27Z</time>
      </trkpt>
      <trkpt lat="44.08736" lon="3.06328">
        <ele>374</ele>
        <time>2010-01-01T00:19:31Z</time>
      </trkpt>
      <trkpt lat="44.08727" lon="3.06323">
        <ele>374</ele>
        <time>2010-01-01T00:19:35Z</time>
      </trkpt>
      <trkpt lat="44.08719" lon="3.06318">
        <ele>374</ele>
        <time>2010-01-01T00:19:38Z</time>
      </trkpt>
      <trkpt lat="44.08711" lon="3.06312">
        <ele>374</ele>
        <time>2010-01-01T00:19:42Z</time>
      </trkpt>
      <trkpt lat="44.08703" lon="3.06307">
        <ele>373</ele>
        <time>2010-01-01T00:19:45Z</time>
      </trkpt>
      <trkpt lat="44.08695" lon="3.06301">
        <ele>373</ele>
        <time>2010-01-01T00:19:49Z</time>
      </trkpt>
      <trkpt lat="44.08688" lon="3.06295">
        <ele>373</ele>
        <time>2010-01-01T00:19:52Z</time>
      </trkpt>
      <trkpt lat="44.08682" lon="3.06289">
        <ele>373</ele>
        <time>2010-01-01T00:19:55Z</time>
      </trkpt>
      <trkpt lat="44.08676" lon="3.06281">
        <ele>373</ele>
        <time>2010-01-01T00:19:59Z</time>
      </trkpt>
      <trkpt lat="44.08671" lon="3.06273">
        <ele>373</ele>
        <time>2010-01-01T00:20:02Z</time>
      </trkpt>
      <trkpt lat="44.08665" lon="3.06266">
        <ele>375</ele>
        <time>2010-01-01T00:20:05Z</time>
      </trkpt>
      <trkpt lat="44.0866" lon="3.06256">
        <ele>375</ele>
        <time>2010-01-01T00:20:08Z</time>
      </trkpt>
      <trkpt lat="44.08656" lon="3.06247">
        <ele>376</ele>
        <time>2010-01-01T00:20:11Z</time>
      </trkpt>
      <trkpt lat="44.0865" lon="3.06237">
        <ele>377</ele>
        <time>2010-01-01T00:20:15Z</time>
      </trkpt>
      <trkpt lat="44.08644" lon="3.06227">
        <ele>378</ele>
        <time>2010-01-01T00:20:19Z</time>
      </trkpt>
      <trkpt lat="44.08639" lon="3.06219">
        <ele>378</ele>
        <time>2010-01-01T00:20:22Z</time>
      </trkpt>
      <trkpt lat="44.08632" lon="3.06211">
        <ele>380</ele>
        <time>2010-01-01T00:20:25Z</time>
      </trkpt>
      <trkpt lat="44.08624" lon="3.06204">
        <ele>381</ele>
        <time>2010-01-01T00:20:29Z</time>
      </trkpt>
      <trkpt lat="44.08616" lon="3.06198">
        <ele>383</ele>
        <time>2010-01-01T00:20:33Z</time>
      </trkpt>
      <trkpt lat="44.08608" lon="3.06192">
        <ele>385</ele>
        <time>2010-01-01T00:20:36Z</time>
      </trkpt>
      <trkpt lat="44.086" lon="3.06187">
        <ele>385</ele>
        <time>2010-01-01T00:20:40Z</time>
      </trkpt>
      <trkpt lat="44.08592" lon="3.06181">
        <ele>386</ele>
        <time>2010-01-01T00:20:44Z</time>
      </trkpt>
      <trkpt lat="44.0858" lon="3.06173">
        <ele>386</ele>
        <time>2010-01-01T00:20:49Z</time>
      </trkpt>
      <trkpt lat="44.08571" lon="3.06167">
        <ele>385</ele>
        <time>2010-01-01T00:20:53Z</time>
      </trkpt>
      <trkpt lat="44.08562" lon="3.06158">
        <ele>383</ele>
        <time>2010-01-01T00:20:57Z</time>
      </trkpt>
      <trkpt lat="44.0855" lon="3.06142">
        <ele>382</ele>
        <time>2010-01-01T00:21:04Z</time>
      </trkpt>
      <trkpt lat="44.08547" lon="3.06127">
        <ele>382</ele>
        <time>2010-01-01T00:21:08Z</time>
      </trkpt>
      <trkpt lat="44.08546" lon="3.0611">
        <ele>382</ele>
        <time>2010-01-01T00:21:13Z</time>
      </trkpt>
      <trkpt lat="44.08545" lon="3.06092">
        <ele>382</ele>
        <time>2010-01-01T00:21:19Z</time>
      </trkpt>
      <trkpt lat="44.08542" lon="3.06077">
        <ele>381</ele>
        <time>2010-01-01T00:21:23Z</time>
      </trkpt>
      <trkpt lat="44.08537" lon="3.06061">
        <ele>381</ele>
        <time>2010-01-01T00:21:28Z</time>
      </trkpt>
      <trkpt lat="44.08532" lon="3.06064">
        <ele>381</ele>
        <time>2010-01-01T00:21:30Z</time>
      </trkpt>
      <trkpt lat="44.08523" lon="3.06065">
        <ele>381</ele>
        <time>2010-01-01T00:21:34Z</time>
      </trkpt>
      <trkpt lat="44.08518" lon="3.06071">
        <ele>382</ele>
        <time>2010-01-01T00:21:36Z</time>
      </trkpt>
      <trkpt lat="44.08514" lon="3.06074">
        <ele>382</ele>
        <time>2010-01-01T00:21:38Z</time>
      </trkpt>
      <trkpt lat="44.08511" lon="3.06072">
        <ele>382</ele>
        <time>2010-01-01T00:21:39Z</time>
      </trkpt>
      <trkpt lat="44.0851" lon="3.06072">
        <ele>382</ele>
        <time>2010-01-01T00:21:40Z</time>
      </trkpt>
      <trkpt lat="44.08507" lon="3.06069">
        <ele>383</ele>
        <time>2010-01-01T00:21:41Z</time>
      </trkpt>
      <trkpt lat="44.08504" lon="3.06066">
        <ele>383</ele>
        <time>2010-01-01T00:21:43Z</time>
      </trkpt>
      <trkpt lat="44.08501" lon="3.06064">
        <ele>383</ele>
        <time>2010-01-01T00:21:44Z</time>
      </trkpt>
      <trkpt lat="44.08499" lon="3.06063">
        <ele>383</ele>
        <time>2010-01-01T00:21:45Z</time>
      </trkpt>
      <trkpt lat="44.08496" lon="3.06062">
        <ele>384</ele>
        <time>2010-01-01T00:21:46Z</time>
      </trkpt>
      <trkpt lat="44.08494" lon="3.0606">
        <ele>384</ele>
        <time>2010-01-01T00:21:47Z</time>
      </trkpt>
      <trkpt lat="44.08492" lon="3.06061">
        <ele>384</ele>
        <time>2010-01-01T00:21:48Z</time>
      </trkpt>
      <trkpt lat="44.08489" lon="3.06061">
        <ele>384</ele>
        <time>2010-01-01T00:21:49Z</time>
      </trkpt>
      <trkpt lat="44.08485" lon="3.06059">
        <ele>384</ele>
        <time>2010-01-01T00:21:51Z</time>
      </trkpt>
      <trkpt lat="44.08483" lon="3.0606">
        <ele>385</ele>
        <time>2010-01-01T00:21:52Z</time>
      </trkpt>
      <trkpt lat="44.0848" lon="3.0606">
        <ele>385</ele>
        <time>2010-01-01T00:21:53Z</time>
      </trkpt>
      <trkpt lat="44.08478" lon="3.0606">
        <ele>385</ele>
        <time>2010-01-01T00:21:54Z</time>
      </trkpt>
      <trkpt lat="44.08475" lon="3.06059">
        <ele>385</ele>
        <time>2010-01-01T00:21:55Z</time>
      </trkpt>
      <trkpt lat="44.08472" lon="3.06057">
        <ele>386</ele>
        <time>2010-01-01T00:21:56Z</time>
      </trkpt>
      <trkpt lat="44.08468" lon="3.06054">
        <ele>386</ele>
        <time>2010-01-01T00:21:58Z</time>
      </trkpt>
      <trkpt lat="44.08466" lon="3.06053">
        <ele>387</ele>
        <time>2010-01-01T00:21:59Z</time>
      </trkpt>
      <trkpt lat="44.08463" lon="3.06051">
        <ele>387</ele>
        <time>2010-01-01T00:22:00Z</time>
      </trkpt>
      <trkpt lat="44.0846" lon="3.06047">
        <ele>388</ele>
        <time>2010-01-01T00:22:02Z</time>
      </trkpt>
      <trkpt lat="44.08457" lon="3.06043">
        <ele>389</ele>
        <time>2010-01-01T00:22:03Z</time>
      </trkpt>
      <trkpt lat="44.08455" lon="3.0604">
        <ele>389</ele>
        <time>2010-01-01T00:22:05Z</time>
      </trkpt>
      <trkpt lat="44.08453" lon="3.06037">
        <ele>390</ele>
        <time>2010-01-01T00:22:06Z</time>
      </trkpt>
      <trkpt lat="44.08451" lon="3.06034">
        <ele>390</ele>
        <time>2010-01-01T00:22:07Z</time>
      </trkpt>
      <trkpt lat="44.08449" lon="3.06031">
        <ele>391</ele>
        <time>2010-01-01T00:22:08Z</time>
      </trkpt>
      <trkpt lat="44.08447" lon="3.06029">
        <ele>391</ele>
        <time>2010-01-01T00:22:09Z</time>
      </trkpt>
      <trkpt lat="44.08445" lon="3.06027">
        <ele>391</ele>
        <time>2010-01-01T00:22:10Z</time>
      </trkpt>
      <trkpt lat="44.08443" lon="3.06027">
        <ele>392</ele>
        <time>2010-01-01T00:22:11Z</time>
      </trkpt>
      <trkpt lat="44.0844" lon="3.06028">
        <ele>392</ele>
        <time>2010-01-01T00:22:12Z</time>
      </trkpt>
      <trkpt lat="44.08437" lon="3.0603">
        <ele>393</ele>
        <time>2010-01-01T00:22:14Z</time>
      </trkpt>
      <trkpt lat="44.08434" lon="3.06031">
        <ele>393</ele>
        <time>2010-01-01T00:22:15Z</time>
      </trkpt>
      <trkpt lat="44.08431" lon="3.06032">
        <ele>394</ele>
        <time>2010-01-01T00:22:16Z</time>
      </trkpt>
      <trkpt lat="44.08427" lon="3.06032">
        <ele>394</ele>
        <time>2010-01-01T00:22:17Z</time>
      </trkpt>
      <trkpt lat="44.08425" lon="3.06033">
        <ele>395</ele>
        <time>2010-01-01T00:22:19Z</time>
      </trkpt>
      <trkpt lat="44.08422" lon="3.06034">
        <ele>395</ele>
        <time>2010-01-01T00:22:20Z</time>
      </trkpt>
      <trkpt lat="44.08419" lon="3.06034">
        <ele>396</ele>
        <time>2010-01-01T00:22:21Z</time>
      </trkpt>
      <trkpt lat="44.08417" lon="3.06036">
        <ele>396</ele>
        <time>2010-01-01T00:22:22Z</time>
      </trkpt>
      <trkpt lat="44.08412" lon="3.06038">
        <ele>397</ele>
        <time>2010-01-01T00:22:24Z</time>
      </trkpt>
      <trkpt lat="44.08408" lon="3.06041">
        <ele>398</ele>
        <time>2010-01-01T00:22:26Z</time>
      </trkpt>
      <trkpt lat="44.08405" lon="3.06043">
        <ele>399</ele>
        <time>2010-01-01T00:22:27Z</time>
      </trkpt>
      <trkpt lat="44.08405" lon="3.06045">
        <ele>399</ele>
        <time>2010-01-01T00:22:28Z</time>
      </trkpt>
      <trkpt lat="44.08402" lon="3.06048">
        <ele>399</ele>
        <time>2010-01-01T00:22:29Z</time>
      </trkpt>
      <trkpt lat="44.08403" lon="3.06051">
        <ele>399</ele>
        <time>2010-01-01T00:22:30Z</time>
      </trkpt>
      <trkpt lat="44.08401" lon="3.06053">
        <ele>399</ele>
        <time>2010-01-01T00:22:31Z</time>
      </trkpt>
      <trkpt lat="44.08398" lon="3.06053">
        <ele>400</ele>
        <time>2010-01-01T00:22:32Z</time>
      </trkpt>
      <trkpt lat="44.08397" lon="3.0605">
        <ele>400</ele>
        <time>2010-01-01T00:22:33Z</time>
      </trkpt>
      <trkpt lat="44.08397" lon="3.06046">
        <ele>401</ele>
        <time>2010-01-01T00:22:34Z</time>
      </trkpt>
      <trkpt lat="44.08397" lon="3.06042">
        <ele>401</ele>
        <time>2010-01-01T00:22:35Z</time>
      </trkpt>
      <trkpt lat="44.08397" lon="3.06039">
        <ele>401</ele>
        <time>2010-01-01T00:22:36Z</time>
      </trkpt>
      <trkpt lat="44.08397" lon="3.06036">
        <ele>401</ele>
        <time>2010-01-01T00:22:37Z</time>
      </trkpt>
      <trkpt lat="44.08395" lon="3.06031">
        <ele>401</ele>
        <time>2010-01-01T00:22:38Z</time>
      </trkpt>
      <trkpt lat="44.08395" lon="3.06027">
        <ele>401</ele>
        <time>2010-01-01T00:22:39Z</time>
      </trkpt>
      <trkpt lat="44.08395" lon="3.06025">
        <ele>401</ele>
        <time>2010-01-01T00:22:40Z</time>
      </trkpt>
      <trkpt lat="44.08396" lon="3.06021">
        <ele>401</ele>
        <time>2010-01-01T00:22:41Z</time>
      </trkpt>
      <trkpt lat="44.08395" lon="3.06018">
        <ele>401</ele>
        <time>2010-01-01T00:22:42Z</time>
      </trkpt>
      <trkpt lat="44.08395" lon="3.06014">
        <ele>401</ele>
        <time>2010-01-01T00:22:44Z</time>
      </trkpt>
      <trkpt lat="44.08395" lon="3.0601">
        <ele>401</ele>
        <time>2010-01-01T00:22:45Z</time>
      </trkpt>
      <trkpt lat="44.08394" lon="3.06006">
        <ele>401</ele>
        <time>2010-01-01T00:22:46Z</time>
      </trkpt>
      <trkpt lat="44.08394" lon="3.06002">
        <ele>401</ele>
        <time>2010-01-01T00:22:47Z</time>
      </trkpt>
      <trkpt lat="44.08394" lon="3.05998">
        <ele>401</ele>
        <time>2010-01-01T00:22:48Z</time>
      </trkpt>
      <trkpt lat="44.08395" lon="3.05994">
        <ele>401</ele>
        <time>2010-01-01T00:22:49Z</time>
      </trkpt>
      <trkpt lat="44.08396" lon="3.05989">
        <ele>401</ele>
        <time>2010-01-01T00:22:51Z</time>
      </trkpt>
      <trkpt lat="44.08396" lon="3.05984">
        <ele>401</ele>
        <time>2010-01-01T00:22:52Z</time>
      </trkpt>
      <trkpt lat="44.08397" lon="3.05979">
        <ele>401</ele>
        <time>2010-01-01T00:22:54Z</time>
      </trkpt>
      <trkpt lat="44.08397" lon="3.05974">
        <ele>401</ele>
        <time>2010-01-01T00:22:55Z</time>
      </trkpt>
      <trkpt lat="44.08397" lon="3.05969">
        <ele>401</ele>
        <time>2010-01-01T00:22:56Z</time>
      </trkpt>
      <trkpt lat="44.08397" lon="3.05964">
        <ele>401</ele>
        <time>2010-01-01T00:22:58Z</time>
      </trkpt>
      <trkpt lat="44.08398" lon="3.05959">
        <ele>402</ele>
        <time>2010-01-01T00:22:59Z</time>
      </trkpt>
      <trkpt lat="44.08398" lon="3.05954">
        <ele>402</ele>
        <time>2010-01-01T00:23:01Z</time>
      </trkpt>
      <trkpt lat="44.08399" lon="3.05949">
        <ele>402</ele>
        <time>2010-01-01T00:23:02Z</time>
      </trkpt>
      <trkpt lat="44.08398" lon="3.05945">
        <ele>402</ele>
        <time>2010-01-01T00:23:04Z</time>
      </trkpt>
      <trkpt lat="44.08397" lon="3.0594">
        <ele>403</ele>
        <time>2010-01-01T00:23:05Z</time>
      </trkpt>
      <trkpt lat="44.08397" lon="3.05935">
        <ele>403</ele>
        <time>2010-01-01T00:23:07Z</time>
      </trkpt>
      <trkpt lat="44.08397" lon="3.0593">
        <ele>404</ele>
        <time>2010-01-01T00:23:08Z</time>
      </trkpt>
      <trkpt lat="44.08397" lon="3.05925">
        <ele>404</ele>
        <time>2010-01-01T00:23:09Z</time>
      </trkpt>
      <trkpt lat="44.08396" lon="3.0592">
        <ele>405</ele>
        <time>2010-01-01T00:23:11Z</time>
      </trkpt>
      <trkpt lat="44.08397" lon="3.05915">
        <ele>405</ele>
        <time>2010-01-01T00:23:12Z</time>
      </trkpt>
      <trkpt lat="44.08397" lon="3.05911">
        <ele>406</ele>
        <time>2010-01-01T00:23:13Z</time>
      </trkpt>
      <trkpt lat="44.08397" lon="3.05906">
        <ele>406</ele>
        <time>2010-01-01T00:23:15Z</time>
      </trkpt>
      <trkpt lat="44.08399" lon="3.05901">
        <ele>406</ele>
        <time>2010-01-01T00:23:16Z</time>
      </trkpt>
      <trkpt lat="44.08399" lon="3.05896">
        <ele>406</ele>
        <time>2010-01-01T00:23:18Z</time>
      </trkpt>
      <trkpt lat="44.084" lon="3.05892">
        <ele>406</ele>
        <time>2010-01-01T00:23:19Z</time>
      </trkpt>
      <trkpt lat="44.08399" lon="3.05885">
        <ele>407</ele>
        <time>2010-01-01T00:23:21Z</time>
      </trkpt>
      <trkpt lat="44.084" lon="3.05878">
        <ele>407</ele>
        <time>2010-01-01T00:23:23Z</time>
      </trkpt>
      <trkpt lat="44.084" lon="3.05873">
        <ele>407</ele>
        <time>2010-01-01T00:23:25Z</time>
      </trkpt>
      <trkpt lat="44.08401" lon="3.05868">
        <ele>407</ele>
        <time>2010-01-01T00:23:26Z</time>
      </trkpt>
      <trkpt lat="44.084" lon="3.05864">
        <ele>407</ele>
        <time>2010-01-01T00:23:27Z</time>
      </trkpt>
      <trkpt lat="44.084" lon="3.0586">
        <ele>407</ele>
        <time>2010-01-01T00:23:28Z</time>
      </trkpt>
      <trkpt lat="44.08399" lon="3.05855">
        <ele>407</ele>
        <time>2010-01-01T00:23:30Z</time>
      </trkpt>
      <trkpt lat="44.08398" lon="3.0585">
        <ele>408</ele>
        <time>2010-01-01T00:23:31Z</time>
      </trkpt>
      <trkpt lat="44.08397" lon="3.05845">
        <ele>408</ele>
        <time>2010-01-01T00:23:33Z</time>
      </trkpt>
      <trkpt lat="44.08396" lon="3.05841">
        <ele>408</ele>
        <time>2010-01-01T00:23:34Z</time>
      </trkpt>
      <trkpt lat="44.08395" lon="3.05838">
        <ele>409</ele>
        <time>2010-01-01T00:23:35Z</time>
      </trkpt>
      <trkpt lat="44.08394" lon="3.05832">
        <ele>409</ele>
        <time>2010-01-01T00:23:37Z</time>
      </trkpt>
      <trkpt lat="44.08392" lon="3.05828">
        <ele>409</ele>
        <time>2010-01-01T00:23:38Z</time>
      </trkpt>
      <trkpt lat="44.08391" lon="3.05824">
        <ele>410</ele>
        <time>2010-01-01T00:23:40Z</time>
      </trkpt>
      <trkpt lat="44.08391" lon="3.0582">
        <ele>410</ele>
        <time>2010-01-01T00:23:41Z</time>
      </trkpt>
      <trkpt lat="44.0839" lon="3.05815">
        <ele>410</ele>
        <time>2010-01-01T00:23:42Z</time>
      </trkpt>
      <trkpt lat="44.08388" lon="3.05811">
        <ele>410</ele>
        <time>2010-01-01T00:23:43Z</time>
      </trkpt>
      <trkpt lat="44.08387" lon="3.05807">
        <ele>410</ele>
        <time>2010-01-01T00:23:45Z</time>
      </trkpt>
      <trkpt lat="44.08385" lon="3.05803">
        <ele>411</ele>
        <time>2010-01-01T00:23:46Z</time>
      </trkpt>
      <trkpt lat="44.08384" lon="3.05799">
        <ele>411</ele>
        <time>2010-01-01T00:23:47Z</time>
      </trkpt>
      <trkpt lat="44.08383" lon="3.05796">
        <ele>411</ele>
        <time>2010-01-01T00:23:48Z</time>
      </trkpt>
      <trkpt lat="44.08382" lon="3.05793">
        <ele>412</ele>
        <time>2010-01-01T00:23:49Z</time>
      </trkpt>
      <trkpt lat="44.08381" lon="3.05788">
        <ele>411</ele>
        <time>2010-01-01T00:23:51Z</time>
      </trkpt>
      <trkpt lat="44.0838" lon="3.05783">
        <ele>411</ele>
        <time>2010-01-01T00:23:52Z</time>
      </trkpt>
      <trkpt lat="44.08377" lon="3.05778">
        <ele>412</ele>
        <time>2010-01-01T00:23:54Z</time>
      </trkpt>
      <trkpt lat="44.08374" lon="3.05773">
        <ele>413</ele>
        <time>2010-01-01T00:23:56Z</time>
      </trkpt>
      <trkpt lat="44.08372" lon="3.05768">
        <ele>413</ele>
        <time>2010-01-01T00:23:57Z</time>
      </trkpt>
      <trkpt lat="44.0837" lon="3.05763">
        <ele>413</ele>
        <time>2010-01-01T00:23:59Z</time>
      </trkpt>
      <trkpt lat="44.08369" lon="3.05759">
        <ele>412</ele>
        <time>2010-01-01T00:24:00Z</time>
      </trkpt>
      <trkpt lat="44.08368" lon="3.05756">
        <ele>413</ele>
        <time>2010-01-01T00:24:02Z</time>
      </trkpt>
      <trkpt lat="44.08365" lon="3.05752">
        <ele>413</ele>
        <time>2010-01-01T00:24:03Z</time>
      </trkpt>
      <trkpt lat="44.08361" lon="3.05747">
        <ele>414</ele>
        <time>2010-01-01T00:24:05Z</time>
      </trkpt>
      <trkpt lat="44.08359" lon="3.05743">
        <ele>414</ele>
        <time>2010-01-01T00:24:07Z</time>
      </trkpt>
      <trkpt lat="44.08358" lon="3.05739">
        <ele>414</ele>
        <time>2010-01-01T00:24:08Z</time>
      </trkpt>
      <trkpt lat="44.08355" lon="3.05733">
        <ele>414</ele>
        <time>2010-01-01T00:24:10Z</time>
      </trkpt>
      <trkpt lat="44.08352" lon="3.05728">
        <ele>414</ele>
        <time>2010-01-01T00:24:12Z</time>
      </trkpt>
      <trkpt lat="44.08349" lon="3.05723">
        <ele>415</ele>
        <time>2010-01-01T00:24:14Z</time>
      </trkpt>
      <trkpt lat="44.08347" lon="3.05717">
        <ele>415</ele>
        <time>2010-01-01T00:24:16Z</time>
      </trkpt>
      <trkpt lat="44.08343" lon="3.05712">
        <ele>416</ele>
        <time>2010-01-01T00:24:18Z</time>
      </trkpt>
      <trkpt lat="44.0834" lon="3.05704">
        <ele>416</ele>
        <time>2010-01-01T00:24:20Z</time>
      </trkpt>
      <trkpt lat="44.0834" lon="3.05696">
        <ele>415</ele>
        <time>2010-01-01T00:24:23Z</time>
      </trkpt>
      <trkpt lat="44.08341" lon="3.0569">
        <ele>414</ele>
        <time>2010-01-01T00:24:24Z</time>
      </trkpt>
      <trkpt lat="44.08342" lon="3.05683">
        <ele>414</ele>
        <time>2010-01-01T00:24:26Z</time>
      </trkpt>
      <trkpt lat="44.08342" lon="3.05676">
        <ele>414</ele>
        <time>2010-01-01T00:24:28Z</time>
      </trkpt>
      <trkpt lat="44.08342" lon="3.0567">
        <ele>414</ele>
        <time>2010-01-01T00:24:30Z</time>
      </trkpt>
      <trkpt lat="44.08342" lon="3.05665">
        <ele>413</ele>
        <time>2010-01-01T00:24:32Z</time>
      </trkpt>
      <trkpt lat="44.08342" lon="3.05659">
        <ele>414</ele>
        <time>2010-01-01T00:24:33Z</time>
      </trkpt>
      <trkpt lat="44.08343" lon="3.05653">
        <ele>413</ele>
        <time>2010-01-01T00:24:35Z</time>
      </trkpt>
      <trkpt lat="44.08343" lon="3.05648">
        <ele>414</ele>
        <time>2010-01-01T00:24:36Z</time>
      </trkpt>
      <trkpt lat="44.08344" lon="3.05643">
        <ele>413</ele>
        <time>2010-01-01T00:24:38Z</time>
      </trkpt>
      <trkpt lat="44.08346" lon="3.05637">
        <ele>413</ele>
        <time>2010-01-01T00:24:40Z</time>
      </trkpt>
      <trkpt lat="44.08348" lon="3.05632">
        <ele>412</ele>
        <time>2010-01-01T00:24:42Z</time>
      </trkpt>
      <trkpt lat="44.0835" lon="3.05627">
        <ele>412</ele>
        <time>2010-01-01T00:24:43Z</time>
      </trkpt>
      <trkpt lat="44.08351" lon="3.05622">
        <ele>411</ele>
        <time>2010-01-01T00:24:45Z</time>
      </trkpt>
      <trkpt lat="44.08353" lon="3.05617">
        <ele>411</ele>
        <time>2010-01-01T00:24:46Z</time>
      </trkpt>
      <trkpt lat="44.08354" lon="3.05612">
        <ele>410</ele>
        <time>2010-01-01T00:24:48Z</time>
      </trkpt>
      <trkpt lat="44.08356" lon="3.05606">
        <ele>410</ele>
        <time>2010-01-01T00:24:50Z</time>
      </trkpt>
      <trkpt lat="44.08355" lon="3.056">
        <ele>410</ele>
        <time>2010-01-01T00:24:51Z</time>
      </trkpt>
      <trkpt lat="44.08355" lon="3.05595">
        <ele>411</ele>
        <time>2010-01-01T00:24:53Z</time>
      </trkpt>
      <trkpt lat="44.08355" lon="3.05589">
        <ele>411</ele>
        <time>2010-01-01T00:24:55Z</time>
      </trkpt>
      <trkpt lat="44.08355" lon="3.05583">
        <ele>411</ele>
        <time>2010-01-01T00:24:56Z</time>
      </trkpt>
      <trkpt lat="44.08356" lon="3.05577">
        <ele>411</ele>
        <time>2010-01-01T00:24:58Z</time>
      </trkpt>
      <trkpt lat="44.08356" lon="3.05572">
        <ele>411</ele>
        <time>2010-01-01T00:24:59Z</time>
      </trkpt>
      <trkpt lat="44.08356" lon="3.05567">
        <ele>411</ele>
        <time>2010-01-01T00:25:01Z</time>
      </trkpt>
      <trkpt lat="44.08356" lon="3.05562">
        <ele>412</ele>
        <time>2010-01-01T00:25:03Z</time>
      </trkpt>
      <trkpt lat="44.08355" lon="3.05557">
        <ele>412</ele>
        <time>2010-01-01T00:25:04Z</time>
      </trkpt>
      <trkpt lat="44.08354" lon="3.05552">
        <ele>413</ele>
        <time>2010-01-01T00:25:05Z</time>
      </trkpt>
      <trkpt lat="44.08354" lon="3.05547">
        <ele>414</ele>
        <time>2010-01-01T00:25:07Z</time>
      </trkpt>
      <trkpt lat="44.08353" lon="3.05542">
        <ele>414</ele>
        <time>2010-01-01T00:25:08Z</time>
      </trkpt>
      <trkpt lat="44.08352" lon="3.05536">
        <ele>415</ele>
        <time>2010-01-01T00:25:10Z</time>
      </trkpt>
      <trkpt lat="44.08351" lon="3.05531">
        <ele>416</ele>
        <time>2010-01-01T00:25:12Z</time>
      </trkpt>
      <trkpt lat="44.0835" lon="3.05527">
        <ele>417</ele>
        <time>2010-01-01T00:25:13Z</time>
      </trkpt>
      <trkpt lat="44.08348" lon="3.05522">
        <ele>417</ele>
        <time>2010-01-01T00:25:15Z</time>
      </trkpt>
      <trkpt lat="44.08346" lon="3.05517">
        <ele>418</ele>
        <time>2010-01-01T00:25:16Z</time>
      </trkpt>
      <trkpt lat="44.08344" lon="3.05512">
        <ele>419</ele>
        <time>2010-01-01T00:25:18Z</time>
      </trkpt>
      <trkpt lat="44.08342" lon="3.05507">
        <ele>419</ele>
        <time>2010-01-01T00:25:19Z</time>
      </trkpt>
      <trkpt lat="44.0834" lon="3.05503">
        <ele>420</ele>
        <time>2010-01-01T00:25:21Z</time>
      </trkpt>
      <trkpt lat="44.08338" lon="3.05498">
        <ele>421</ele>
        <time>2010-01-01T00:25:23Z</time>
      </trkpt>
      <trkpt lat="44.08336" lon="3.05493">
        <ele>422</ele>
        <time>2010-01-01T00:25:24Z</time>
      </trkpt>
      <trkpt lat="44.08335" lon="3.05487">
        <ele>423</ele>
        <time>2010-01-01T00:25:26Z</time>
      </trkpt>
      <trkpt lat="44.08332" lon="3.05483">
        <ele>425</ele>
        <time>2010-01-01T00:25:27Z</time>
      </trkpt>
      <trkpt lat="44.0833" lon="3.05479">
        <ele>426</ele>
        <time>2010-01-01T00:25:29Z</time>
      </trkpt>
      <trkpt lat="44.08329" lon="3.05474">
        <ele>426</ele>
        <time>2010-01-01T00:25:30Z</time>
      </trkpt>
      <trkpt lat="44.0833" lon="3.05472">
        <ele>426</ele>
        <time>2010-01-01T00:25:31Z</time>
      </trkpt>
      <trkpt lat="44.08331" lon="3.0547">
        <ele>426</ele>
        <time>2010-01-01T00:25:32Z</time>
      </trkpt>
      <trkpt lat="44.08333" lon="3.05468">
        <ele>426</ele>
        <time>2010-01-01T00:25:33Z</time>
      </trkpt>
      <trkpt lat="44.08335" lon="3.05466">
        <ele>425</ele>
        <time>2010-01-01T00:25:34Z</time>
      </trkpt>
      <trkpt lat="44.08337" lon="3.05462">
        <ele>425</ele>
        <time>2010-01-01T00:25:35Z</time>
      </trkpt>
      <trkpt lat="44.08339" lon="3.05458">
        <ele>424</ele>
        <time>2010-01-01T00:25:37Z</time>
      </trkpt>
      <trkpt lat="44.08341" lon="3.05455">
        <ele>424</ele>
        <time>2010-01-01T00:25:38Z</time>
      </trkpt>
      <trkpt lat="44.08342" lon="3.05451">
        <ele>424</ele>
        <time>2010-01-01T00:25:39Z</time>
      </trkpt>
      <trkpt lat="44.08345" lon="3.05447">
        <ele>423</ele>
        <time>2010-01-01T00:25:40Z</time>
      </trkpt>
      <trkpt lat="44.08347" lon="3.05442">
        <ele>422</ele>
        <time>2010-01-01T00:25:42Z</time>
      </trkpt>
      <trkpt lat="44.08348" lon="3.05438">
        <ele>422</ele>
        <time>2010-01-01T00:25:44Z</time>
      </trkpt>
      <trkpt lat="44.0835" lon="3.05433">
        <ele>422</ele>
        <time>2010-01-01T00:25:45Z</time>
      </trkpt>
      <trkpt lat="44.08351" lon="3.05429">
        <ele>422</ele>
        <time>2010-01-01T00:25:46Z</time>
      </trkpt>
      <trkpt lat="44.08352" lon="3.05426">
        <ele>421</ele>
        <time>2010-01-01T00:25:47Z</time>
      </trkpt>
      <trkpt lat="44.08355" lon="3.05422">
        <ele>421</ele>
        <time>2010-01-01T00:25:49Z</time>
      </trkpt>
      <trkpt lat="44.08357" lon="3.05417">
        <ele>420</ele>
        <time>2010-01-01T00:25:51Z</time>
      </trkpt>
      <trkpt lat="44.08359" lon="3.05412">
        <ele>420</ele>
        <time>2010-01-01T00:25:52Z</time>
      </trkpt>
      <trkpt lat="44.08359" lon="3.05407">
        <ele>421</ele>
        <time>2010-01-01T00:25:54Z</time>
      </trkpt>
      <trkpt lat="44.0836" lon="3.05402">
        <ele>422</ele>
        <time>2010-01-01T00:25:55Z</time>
      </trkpt>
      <trkpt lat="44.08361" lon="3.05396">
        <ele>422</ele>
        <time>2010-01-01T00:25:57Z</time>
      </trkpt>
      <trkpt lat="44.08363" lon="3.05391">
        <ele>422</ele>
        <time>2010-01-01T00:25:59Z</time>
      </trkpt>
      <trkpt lat="44.08364" lon="3.05386">
        <ele>423</ele>
        <time>2010-01-01T00:26:00Z</time>
      </trkpt>
      <trkpt lat="44.08364" lon="3.0538">
        <ele>423</ele>
        <time>2010-01-01T00:26:01Z</time>
      </trkpt>
      <trkpt lat="44.08363" lon="3.05376">
        <ele>425</ele>
        <time>2010-01-01T00:26:03Z</time>
      </trkpt>
      <trkpt lat="44.08363" lon="3.05373">
        <ele>425</ele>
        <time>2010-01-01T00:26:04Z</time>
      </trkpt>
      <trkpt lat="44.08362" lon="3.0537">
        <ele>426</ele>
        <time>2010-01-01T00:26:05Z</time>
      </trkpt>
      <trkpt lat="44.08362" lon="3.05366">
        <ele>426</ele>
        <time>2010-01-01T00:26:06Z</time>
      </trkpt>
      <trkpt lat="44.08363" lon="3.05363">
        <ele>426</ele>
        <time>2010-01-01T00:26:07Z</time>
      </trkpt>
      <trkpt lat="44.08362" lon="3.05359">
        <ele>427</ele>
        <time>2010-01-01T00:26:08Z</time>
      </trkpt>
      <trkpt lat="44.0836" lon="3.05355">
        <ele>428</ele>
        <time>2010-01-01T00:26:09Z</time>
      </trkpt>
      <trkpt lat="44.08358" lon="3.05351">
        <ele>429</ele>
        <time>2010-01-01T00:26:11Z</time>
      </trkpt>
      <trkpt lat="44.08357" lon="3.05347">
        <ele>430</ele>
        <time>2010-01-01T00:26:12Z</time>
      </trkpt>
      <trkpt lat="44.08355" lon="3.05344">
        <ele>430</ele>
        <time>2010-01-01T00:26:13Z</time>
      </trkpt>
      <trkpt lat="44.08353" lon="3.05341">
        <ele>431</ele>
        <time>2010-01-01T00:26:14Z</time>
      </trkpt>
      <trkpt lat="44.0835" lon="3.05339">
        <ele>432</ele>
        <time>2010-01-01T00:26:16Z</time>
      </trkpt>
      <trkpt lat="44.08347" lon="3.05337">
        <ele>432</ele>
        <time>2010-01-01T00:26:17Z</time>
      </trkpt>
      <trkpt lat="44.08344" lon="3.05336">
        <ele>433</ele>
        <time>2010-01-01T00:26:18Z</time>
      </trkpt>
      <trkpt lat="44.08342" lon="3.05336">
        <ele>434</ele>
        <time>2010-01-01T00:26:19Z</time>
      </trkpt>
      <trkpt lat="44.08338" lon="3.05336">
        <ele>434</ele>
        <time>2010-01-01T00:26:21Z</time>
      </trkpt>
      <trkpt lat="44.08336" lon="3.05339">
        <ele>435</ele>
        <time>2010-01-01T00:26:22Z</time>
      </trkpt>
      <trkpt lat="44.08334" lon="3.05343">
        <ele>435</ele>
        <time>2010-01-01T00:26:23Z</time>
      </trkpt>
      <trkpt lat="44.08333" lon="3.05347">
        <ele>436</ele>
        <time>2010-01-01T00:26:24Z</time>
      </trkpt>
      <trkpt lat="44.08332" lon="3.05352">
        <ele>436</ele>
        <time>2010-01-01T00:26:26Z</time>
      </trkpt>
      <trkpt lat="44.08332" lon="3.05356">
        <ele>436</ele>
        <time>2010-01-01T00:26:27Z</time>
      </trkpt>
      <trkpt lat="44.08331" lon="3.05361">
        <ele>436</ele>
        <time>2010-01-01T00:26:28Z</time>
      </trkpt>
      <trkpt lat="44.0833" lon="3.05366">
        <ele>436</ele>
        <time>2010-01-01T00:26:30Z</time>
      </trkpt>
      <trkpt lat="44.0833" lon="3.05371">
        <ele>436</ele>
        <time>2010-01-01T00:26:31Z</time>
      </trkpt>
      <trkpt lat="44.08329" lon="3.05376">
        <ele>436</ele>
        <time>2010-01-01T00:26:33Z</time>
      </trkpt>
      <trkpt lat="44.08327" lon="3.05382">
        <ele>436</ele>
        <time>2010-01-01T00:26:35Z</time>
      </trkpt>
      <trkpt lat="44.08325" lon="3.05387">
        <ele>436</ele>
        <time>2010-01-01T00:26:36Z</time>
      </trkpt>
      <trkpt lat="44.08322" lon="3.05391">
        <ele>436</ele>
        <time>2010-01-01T00:26:38Z</time>
      </trkpt>
      <trkpt lat="44.08318" lon="3.05394">
        <ele>437</ele>
        <time>2010-01-01T00:26:40Z</time>
      </trkpt>
      <trkpt lat="44.08314" lon="3.05396">
        <ele>437</ele>
        <time>2010-01-01T00:26:42Z</time>
      </trkpt>
      <trkpt lat="44.08309" lon="3.05398">
        <ele>438</ele>
        <time>2010-01-01T00:26:44Z</time>
      </trkpt>
      <trkpt lat="44.08305" lon="3.054">
        <ele>439</ele>
        <time>2010-01-01T00:26:45Z</time>
      </trkpt>
      <trkpt lat="44.08301" lon="3.05401">
        <ele>439</ele>
        <time>2010-01-01T00:26:47Z</time>
      </trkpt>
      <trkpt lat="44.08296" lon="3.05403">
        <ele>439</ele>
        <time>2010-01-01T00:26:49Z</time>
      </trkpt>
      <trkpt lat="44.08292" lon="3.05406">
        <ele>439</ele>
        <time>2010-01-01T00:26:51Z</time>
      </trkpt>
      <trkpt lat="44.08288" lon="3.05409">
        <ele>440</ele>
        <time>2010-01-01T00:26:53Z</time>
      </trkpt>
      <trkpt lat="44.08284" lon="3.05412">
        <ele>440</ele>
        <time>2010-01-01T00:26:54Z</time>
      </trkpt>
      <trkpt lat="44.0828" lon="3.05415">
        <ele>440</ele>
        <time>2010-01-01T00:26:56Z</time>
      </trkpt>
      <trkpt lat="44.08276" lon="3.05418">
        <ele>441</ele>
        <time>2010-01-01T00:26:58Z</time>
      </trkpt>
      <trkpt lat="44.08272" lon="3.05421">
        <ele>441</ele>
        <time>2010-01-01T00:27:00Z</time>
      </trkpt>
      <trkpt lat="44.08268" lon="3.05423">
        <ele>441</ele>
        <time>2010-01-01T00:27:02Z</time>
      </trkpt>
      <trkpt lat="44.08264" lon="3.05427">
        <ele>441</ele>
        <time>2010-01-01T00:27:03Z</time>
      </trkpt>
      <trkpt lat="44.0826" lon="3.0543">
        <ele>442</ele>
        <time>2010-01-01T00:27:05Z</time>
      </trkpt>
      <trkpt lat="44.08256" lon="3.05433">
        <ele>442</ele>
        <time>2010-01-01T00:27:07Z</time>
      </trkpt>
      <trkpt lat="44.08252" lon="3.05437">
        <ele>442</ele>
        <time>2010-01-01T00:27:09Z</time>
      </trkpt>
      <trkpt lat="44.08248" lon="3.05441">
        <ele>443</ele>
        <time>2010-01-01T00:27:11Z</time>
      </trkpt>
      <trkpt lat="44.08245" lon="3.05444">
        <ele>443</ele>
        <time>2010-01-01T00:27:13Z</time>
      </trkpt>
      <trkpt lat="44.0824" lon="3.05447">
        <ele>443</ele>
        <time>2010-01-01T00:27:15Z</time>
      </trkpt>
      <trkpt lat="44.08236" lon="3.05451">
        <ele>444</ele>
        <time>2010-01-01T00:27:17Z</time>
      </trkpt>
      <trkpt lat="44.08232" lon="3.05455">
        <ele>444</ele>
        <time>2010-01-01T00:27:19Z</time>
      </trkpt>
      <trkpt lat="44.08229" lon="3.0546">
        <ele>444</ele>
        <time>2010-01-01T00:27:21Z</time>
      </trkpt>
      <trkpt lat="44.08226" lon="3.05464">
        <ele>445</ele>
        <time>2010-01-01T00:27:22Z</time>
      </trkpt>
      <trkpt lat="44.08222" lon="3.05469">
        <ele>445</ele>
        <time>2010-01-01T00:27:24Z</time>
      </trkpt>
      <trkpt lat="44.08219" lon="3.05473">
        <ele>446</ele>
        <time>2010-01-01T00:27:26Z</time>
      </trkpt>
      <trkpt lat="44.08216" lon="3.05477">
        <ele>446</ele>
        <time>2010-01-01T00:27:28Z</time>
      </trkpt>
      <trkpt lat="44.08214" lon="3.05482">
        <ele>447</ele>
        <time>2010-01-01T00:27:30Z</time>
      </trkpt>
      <trkpt lat="44.08211" lon="3.05487">
        <ele>447</ele>
        <time>2010-01-01T00:27:31Z</time>
      </trkpt>
      <trkpt lat="44.08209" lon="3.05491">
        <ele>447</ele>
        <time>2010-01-01T00:27:33Z</time>
      </trkpt>
      <trkpt lat="44.08207" lon="3.05496">
        <ele>448</ele>
        <time>2010-01-01T00:27:35Z</time>
      </trkpt>
      <trkpt lat="44.08204" lon="3.05501">
        <ele>448</ele>
        <time>2010-01-01T00:27:36Z</time>
      </trkpt>
      <trkpt lat="44.08202" lon="3.05506">
        <ele>449</ele>
        <time>2010-01-01T00:27:38Z</time>
      </trkpt>
      <trkpt lat="44.082" lon="3.0551">
        <ele>450</ele>
        <time>2010-01-01T00:27:39Z</time>
      </trkpt>
      <trkpt lat="44.08198" lon="3.05515">
        <ele>451</ele>
        <time>2010-01-01T00:27:41Z</time>
      </trkpt>
      <trkpt lat="44.08196" lon="3.0552">
        <ele>452</ele>
        <time>2010-01-01T00:27:43Z</time>
      </trkpt>
      <trkpt lat="44.08194" lon="3.05525">
        <ele>453</ele>
        <time>2010-01-01T00:27:44Z</time>
      </trkpt>
      <trkpt lat="44.08191" lon="3.05529">
        <ele>454</ele>
        <time>2010-01-01T00:27:46Z</time>
      </trkpt>
      <trkpt lat="44.08188" lon="3.05533">
        <ele>455</ele>
        <time>2010-01-01T00:27:47Z</time>
      </trkpt>
      <trkpt lat="44.08184" lon="3.05536">
        <ele>455</ele>
        <time>2010-01-01T00:27:49Z</time>
      </trkpt>
      <trkpt lat="44.08181" lon="3.05539">
        <ele>456</ele>
        <time>2010-01-01T00:27:51Z</time>
      </trkpt>
      <trkpt lat="44.08177" lon="3.05541">
        <ele>457</ele>
        <time>2010-01-01T00:27:52Z</time>
      </trkpt>
      <trkpt lat="44.08173" lon="3.05542">
        <ele>457</ele>
        <time>2010-01-01T00:27:54Z</time>
      </trkpt>
      <trkpt lat="44.08169" lon="3.05544">
        <ele>458</ele>
        <time>2010-01-01T00:27:56Z</time>
      </trkpt>
      <trkpt lat="44.08165" lon="3.05546">
        <ele>458</ele>
        <time>2010-01-01T00:27:58Z</time>
      </trkpt>
      <trkpt lat="44.0816" lon="3.05548">
        <ele>459</ele>
        <time>2010-01-01T00:27:59Z</time>
      </trkpt>
      <trkpt lat="44.08156" lon="3.0555">
        <ele>459</ele>
        <time>2010-01-01T00:28:01Z</time>
      </trkpt>
      <trkpt lat="44.08152" lon="3.05552">
        <ele>460</ele>
        <time>2010-01-01T00:28:03Z</time>
      </trkpt>
      <trkpt lat="44.08148" lon="3.05554">
        <ele>460</ele>
        <time>2010-01-01T00:28:05Z</time>
      </trkpt>
      <trkpt lat="44.08143" lon="3.05557">
        <ele>461</ele>
        <time>2010-01-01T00:28:07Z</time>
      </trkpt>
      <trkpt lat="44.08139" lon="3.05559">
        <ele>461</ele>
        <time>2010-01-01T00:28:08Z</time>
      </trkpt>
      <trkpt lat="44.08135" lon="3.05561">
        <ele>461</ele>
        <time>2010-01-01T00:28:10Z</time>
      </trkpt>
      <trkpt lat="44.08131" lon="3.05563">
        <ele>462</ele>
        <time>2010-01-01T00:28:12Z</time>
      </trkpt>
      <trkpt lat="44.08127" lon="3.05564">
        <ele>462</ele>
        <time>2010-01-01T00:28:14Z</time>
      </trkpt>
      <trkpt lat="44.08123" lon="3.05566">
        <ele>462</ele>
        <time>2010-01-01T00:28:15Z</time>
      </trkpt>
      <trkpt lat="44.08118" lon="3.05568">
        <ele>463</ele>
        <time>2010-01-01T00:28:17Z</time>
      </trkpt>
      <trkpt lat="44.08114" lon="3.0557">
        <ele>463</ele>
        <time>2010-01-01T00:28:19Z</time>
      </trkpt>
      <trkpt lat="44.08111" lon="3.05573">
        <ele>463</ele>
        <time>2010-01-01T00:28:21Z</time>
      </trkpt>
      <trkpt lat="44.08107" lon="3.05576">
        <ele>464</ele>
        <time>2010-01-01T00:28:22Z</time>
      </trkpt>
      <trkpt lat="44.08103" lon="3.05578">
        <ele>464</ele>
        <time>2010-01-01T00:28:24Z</time>
      </trkpt>
      <trkpt lat="44.081" lon="3.05582">
        <ele>465</ele>
        <time>2010-01-01T00:28:26Z</time>
      </trkpt>
      <trkpt lat="44.08096" lon="3.05585">
        <ele>465</ele>
        <time>2010-01-01T00:28:27Z</time>
      </trkpt>
      <trkpt lat="44.08093" lon="3.05588">
        <ele>466</ele>
        <time>2010-01-01T00:28:29Z</time>
      </trkpt>
      <trkpt lat="44.0809" lon="3.05592">
        <ele>466</ele>
        <time>2010-01-01T00:28:31Z</time>
      </trkpt>
      <trkpt lat="44.08087" lon="3.05597">
        <ele>467</ele>
        <time>2010-01-01T00:28:32Z</time>
      </trkpt>
      <trkpt lat="44.08085" lon="3.05601">
        <ele>468</ele>
        <time>2010-01-01T00:28:34Z</time>
      </trkpt>
      <trkpt lat="44.08082" lon="3.05606">
        <ele>469</ele>
        <time>2010-01-01T00:28:36Z</time>
      </trkpt>
      <trkpt lat="44.08079" lon="3.0561">
        <ele>469</ele>
        <time>2010-01-01T00:28:37Z</time>
      </trkpt>
      <trkpt lat="44.08075" lon="3.05614">
        <ele>470</ele>
        <time>2010-01-01T00:28:39Z</time>
      </trkpt>
      <trkpt lat="44.08072" lon="3.05618">
        <ele>470</ele>
        <time>2010-01-01T00:28:41Z</time>
      </trkpt>
      <trkpt lat="44.08069" lon="3.05622">
        <ele>470</ele>
        <time>2010-01-01T00:28:43Z</time>
      </trkpt>
      <trkpt lat="44.08066" lon="3.05627">
        <ele>471</ele>
        <time>2010-01-01T00:28:45Z</time>
      </trkpt>
      <trkpt lat="44.08062" lon="3.05631">
        <ele>471</ele>
        <time>2010-01-01T00:28:46Z</time>
      </trkpt>
      <trkpt lat="44.08059" lon="3.05634">
        <ele>471</ele>
        <time>2010-01-01T00:28:48Z</time>
      </trkpt>
      <trkpt lat="44.08056" lon="3.05638">
        <ele>471</ele>
        <time>2010-01-01T00:28:50Z</time>
      </trkpt>
      <trkpt lat="44.08052" lon="3.05641">
        <ele>472</ele>
        <time>2010-01-01T00:28:51Z</time>
      </trkpt>
      <trkpt lat="44.08049" lon="3.05645">
        <ele>472</ele>
        <time>2010-01-01T00:28:53Z</time>
      </trkpt>
      <trkpt lat="44.08046" lon="3.05649">
        <ele>472</ele>
        <time>2010-01-01T00:28:55Z</time>
      </trkpt>
      <trkpt lat="44.08043" lon="3.05654">
        <ele>472</ele>
        <time>2010-01-01T00:28:57Z</time>
      </trkpt>
      <trkpt lat="44.0804" lon="3.05659">
        <ele>473</ele>
        <time>2010-01-01T00:28:58Z</time>
      </trkpt>
      <trkpt lat="44.08037" lon="3.05664">
        <ele>473</ele>
        <time>2010-01-01T00:29:00Z</time>
      </trkpt>
      <trkpt lat="44.08036" lon="3.0567">
        <ele>473</ele>
        <time>2010-01-01T00:29:02Z</time>
      </trkpt>
      <trkpt lat="44.08034" lon="3.05676">
        <ele>473</ele>
        <time>2010-01-01T00:29:04Z</time>
      </trkpt>
      <trkpt lat="44.08032" lon="3.05683">
        <ele>473</ele>
        <time>2010-01-01T00:29:06Z</time>
      </trkpt>
      <trkpt lat="44.0803" lon="3.0569">
        <ele>473</ele>
        <time>2010-01-01T00:29:08Z</time>
      </trkpt>
      <trkpt lat="44.08029" lon="3.05697">
        <ele>474</ele>
        <time>2010-01-01T00:29:10Z</time>
      </trkpt>
      <trkpt lat="44.08028" lon="3.05705">
        <ele>473</ele>
        <time>2010-01-01T00:29:13Z</time>
      </trkpt>
      <trkpt lat="44.08026" lon="3.05712">
        <ele>473</ele>
        <time>2010-01-01T00:29:15Z</time>
      </trkpt>
      <trkpt lat="44.08025" lon="3.05721">
        <ele>473</ele>
        <time>2010-01-01T00:29:17Z</time>
      </trkpt>
      <trkpt lat="44.08023" lon="3.05729">
        <ele>473</ele>
        <time>2010-01-01T00:29:20Z</time>
      </trkpt>
      <trkpt lat="44.08021" lon="3.05738">
        <ele>473</ele>
        <time>2010-01-01T00:29:23Z</time>
      </trkpt>
      <trkpt lat="44.08017" lon="3.05747">
        <ele>473</ele>
        <time>2010-01-01T00:29:26Z</time>
      </trkpt>
      <trkpt lat="44.08012" lon="3.05756">
        <ele>473</ele>
        <time>2010-01-01T00:29:29Z</time>
      </trkpt>
      <trkpt lat="44.08007" lon="3.05762">
        <ele>473</ele>
        <time>2010-01-01T00:29:31Z</time>
      </trkpt>
      <trkpt lat="44.08001" lon="3.05765">
        <ele>472</ele>
        <time>2010-01-01T00:29:34Z</time>
      </trkpt>
      <trkpt lat="44.07995" lon="3.05769">
        <ele>473</ele>
        <time>2010-01-01T00:29:37Z</time>
      </trkpt>
      <trkpt lat="44.07989" lon="3.05772">
        <ele>473</ele>
        <time>2010-01-01T00:29:39Z</time>
      </trkpt>
      <trkpt lat="44.07982" lon="3.05775">
        <ele>473</ele>
        <time>2010-01-01T00:29:42Z</time>
      </trkpt>
      <trkpt lat="44.07975" lon="3.05778">
        <ele>473</ele>
        <time>2010-01-01T00:29:45Z</time>
      </trkpt>
      <trkpt lat="44.07969" lon="3.05781">
        <ele>474</ele>
        <time>2010-01-01T00:29:48Z</time>
      </trkpt>
      <trkpt lat="44.07962" lon="3.05784">
        <ele>474</ele>
        <time>2010-01-01T00:29:50Z</time>
      </trkpt>
      <trkpt lat="44.07956" lon="3.05786">
        <ele>474</ele>
        <time>2010-01-01T00:29:53Z</time>
      </trkpt>
      <trkpt lat="44.0795" lon="3.05788">
        <ele>474</ele>
        <time>2010-01-01T00:29:56Z</time>
      </trkpt>
      <trkpt lat="44.07943" lon="3.05791">
        <ele>475</ele>
        <time>2010-01-01T00:29:58Z</time>
      </trkpt>
      <trkpt lat="44.07937" lon="3.05792">
        <ele>475</ele>
        <time>2010-01-01T00:30:01Z</time>
      </trkpt>
      <trkpt lat="44.07931" lon="3.05794">
        <ele>475</ele>
        <time>2010-01-01T00:30:03Z</time>
      </trkpt>
      <trkpt lat="44.07925" lon="3.05795">
        <ele>475</ele>
        <time>2010-01-01T00:30:06Z</time>
      </trkpt>
      <trkpt lat="44.07918" lon="3.05797">
        <ele>475</ele>
        <time>2010-01-01T00:30:08Z</time>
      </trkpt>
      <trkpt lat="44.07912" lon="3.058">
        <ele>475</ele>
        <time>2010-01-01T00:30:11Z</time>
      </trkpt>
      <trkpt lat="44.07907" lon="3.05803">
        <ele>475</ele>
        <time>2010-01-01T00:30:14Z</time>
      </trkpt>
      <trkpt lat="44.07901" lon="3.05806">
        <ele>476</ele>
        <time>2010-01-01T00:30:16Z</time>
      </trkpt>
      <trkpt lat="44.07895" lon="3.0581">
        <ele>476</ele>
        <time>2010-01-01T00:30:19Z</time>
      </trkpt>
      <trkpt lat="44.07889" lon="3.05814">
        <ele>476</ele>
        <time>2010-01-01T00:30:21Z</time>
      </trkpt>
      <trkpt lat="44.07883" lon="3.05817">
        <ele>476</ele>
        <time>2010-01-01T00:30:24Z</time>
      </trkpt>
      <trkpt lat="44.07877" lon="3.0582">
        <ele>476</ele>
        <time>2010-01-01T00:30:26Z</time>
      </trkpt>
      <trkpt lat="44.07871" lon="3.05823">
        <ele>477</ele>
        <time>2010-01-01T00:30:29Z</time>
      </trkpt>
      <trkpt lat="44.07865" lon="3.05825">
        <ele>477</ele>
        <time>2010-01-01T00:30:31Z</time>
      </trkpt>
      <trkpt lat="44.0786" lon="3.05827">
        <ele>477</ele>
        <time>2010-01-01T00:30:34Z</time>
      </trkpt>
      <trkpt lat="44.07854" lon="3.05828">
        <ele>477</ele>
        <time>2010-01-01T00:30:36Z</time>
      </trkpt>
      <trkpt lat="44.07848" lon="3.05829">
        <ele>477</ele>
        <time>2010-01-01T00:30:38Z</time>
      </trkpt>
      <trkpt lat="44.07843" lon="3.0583">
        <ele>477</ele>
        <time>2010-01-01T00:30:40Z</time>
      </trkpt>
      <trkpt lat="44.07838" lon="3.0583">
        <ele>477</ele>
        <time>2010-01-01T00:30:42Z</time>
      </trkpt>
      <trkpt lat="44.07833" lon="3.0583">
        <ele>477</ele>
        <time>2010-01-01T00:30:44Z</time>
      </trkpt>
      <trkpt lat="44.07828" lon="3.0583">
        <ele>477</ele>
        <time>2010-01-01T00:30:46Z</time>
      </trkpt>
      <trkpt lat="44.07823" lon="3.05831">
        <ele>478</ele>
        <time>2010-01-01T00:30:48Z</time>
      </trkpt>
      <trkpt lat="44.07818" lon="3.05831">
        <ele>478</ele>
        <time>2010-01-01T00:30:50Z</time>
      </trkpt>
      <trkpt lat="44.07813" lon="3.05832">
        <ele>479</ele>
        <time>2010-01-01T00:30:52Z</time>
      </trkpt>
      <trkpt lat="44.07808" lon="3.05832">
        <ele>479</ele>
        <time>2010-01-01T00:30:54Z</time>
      </trkpt>
      <trkpt lat="44.07803" lon="3.05832">
        <ele>480</ele>
        <time>2010-01-01T00:30:56Z</time>
      </trkpt>
      <trkpt lat="44.07798" lon="3.05831">
        <ele>481</ele>
        <time>2010-01-01T00:30:58Z</time>
      </trkpt>
      <trkpt lat="44.07794" lon="3.0583">
        <ele>481</ele>
        <time>2010-01-01T00:31:00Z</time>
      </trkpt>
      <trkpt lat="44.07789" lon="3.05829">
        <ele>482</ele>
        <time>2010-01-01T00:31:02Z</time>
      </trkpt>
      <trkpt lat="44.07785" lon="3.05829">
        <ele>483</ele>
        <time>2010-01-01T00:31:04Z</time>
      </trkpt>
      <trkpt lat="44.0778" lon="3.05829">
        <ele>483</ele>
        <time>2010-01-01T00:31:06Z</time>
      </trkpt>
      <trkpt lat="44.07776" lon="3.05829">
        <ele>484</ele>
        <time>2010-01-01T00:31:07Z</time>
      </trkpt>
      <trkpt lat="44.07771" lon="3.05829">
        <ele>485</ele>
        <time>2010-01-01T00:31:09Z</time>
      </trkpt>
      <trkpt lat="44.07767" lon="3.0583">
        <ele>485</ele>
        <time>2010-01-01T00:31:11Z</time>
      </trkpt>
      <trkpt lat="44.07763" lon="3.05831">
        <ele>486</ele>
        <time>2010-01-01T00:31:12Z</time>
      </trkpt>
      <trkpt lat="44.07759" lon="3.05832">
        <ele>486</ele>
        <time>2010-01-01T00:31:14Z</time>
      </trkpt>
      <trkpt lat="44.07755" lon="3.05834">
        <ele>487</ele>
        <time>2010-01-01T00:31:16Z</time>
      </trkpt>
      <trkpt lat="44.07751" lon="3.05836">
        <ele>487</ele>
        <time>2010-01-01T00:31:18Z</time>
      </trkpt>
      <trkpt lat="44.07747" lon="3.05839">
        <ele>488</ele>
        <time>2010-01-01T00:31:19Z</time>
      </trkpt>
      <trkpt lat="44.07743" lon="3.05842">
        <ele>489</ele>
        <time>2010-01-01T00:31:21Z</time>
      </trkpt>
      <trkpt lat="44.0774" lon="3.05846">
        <ele>489</ele>
        <time>2010-01-01T00:31:23Z</time>
      </trkpt>
      <trkpt lat="44.07737" lon="3.0585">
        <ele>489</ele>
        <time>2010-01-01T00:31:24Z</time>
      </trkpt>
      <trkpt lat="44.07734" lon="3.05854">
        <ele>490</ele>
        <time>2010-01-01T00:31:26Z</time>
      </trkpt>
      <trkpt lat="44.0773" lon="3.05858">
        <ele>490</ele>
        <time>2010-01-01T00:31:28Z</time>
      </trkpt>
      <trkpt lat="44.07727" lon="3.05863">
        <ele>491</ele>
        <time>2010-01-01T00:31:30Z</time>
      </trkpt>
      <trkpt lat="44.07724" lon="3.05867">
        <ele>491</ele>
        <time>2010-01-01T00:31:32Z</time>
      </trkpt>
      <trkpt lat="44.07721" lon="3.05871">
        <ele>491</ele>
        <time>2010-01-01T00:31:33Z</time>
      </trkpt>
      <trkpt lat="44.07718" lon="3.05876">
        <ele>491</ele>
        <time>2010-01-01T00:31:35Z</time>
      </trkpt>
      <trkpt lat="44.07715" lon="3.0588">
        <ele>492</ele>
        <time>2010-01-01T00:31:37Z</time>
      </trkpt>
      <trkpt lat="44.07712" lon="3.05885">
        <ele>492</ele>
        <time>2010-01-01T00:31:39Z</time>
      </trkpt>
      <trkpt lat="44.0771" lon="3.0589">
        <ele>493</ele>
        <time>2010-01-01T00:31:40Z</time>
      </trkpt>
      <trkpt lat="44.07707" lon="3.05895">
        <ele>493</ele>
        <time>2010-01-01T00:31:42Z</time>
      </trkpt>
      <trkpt lat="44.07705" lon="3.059">
        <ele>494</ele>
        <time>2010-01-01T00:31:44Z</time>
      </trkpt>
      <trkpt lat="44.07703" lon="3.05904">
        <ele>494</ele>
        <time>2010-01-01T00:31:45Z</time>
      </trkpt>
      <trkpt lat="44.07701" lon="3.05908">
        <ele>494</ele>
        <time>2010-01-01T00:31:46Z</time>
      </trkpt>
      <trkpt lat="44.077" lon="3.05912">
        <ele>494</ele>
        <time>2010-01-01T00:31:48Z</time>
      </trkpt>
      <trkpt lat="44.07698" lon="3.05917">
        <ele>495</ele>
        <time>2010-01-01T00:31:49Z</time>
      </trkpt>
      <trkpt lat="44.07697" lon="3.05922">
        <ele>495</ele>
        <time>2010-01-01T00:31:51Z</time>
      </trkpt>
      <trkpt lat="44.07695" lon="3.05927">
        <ele>496</ele>
        <time>2010-01-01T00:31:52Z</time>
      </trkpt>
      <trkpt lat="44.07693" lon="3.05931">
        <ele>497</ele>
        <time>2010-01-01T00:31:54Z</time>
      </trkpt>
      <trkpt lat="44.07692" lon="3.05937">
        <ele>498</ele>
        <time>2010-01-01T00:31:56Z</time>
      </trkpt>
      <trkpt lat="44.07691" lon="3.05942">
        <ele>499</ele>
        <time>2010-01-01T00:31:57Z</time>
      </trkpt>
      <trkpt lat="44.0769" lon="3.05947">
        <ele>500</ele>
        <time>2010-01-01T00:31:59Z</time>
      </trkpt>
      <trkpt lat="44.07688" lon="3.05951">
        <ele>501</ele>
        <time>2010-01-01T00:32:00Z</time>
      </trkpt>
      <trkpt lat="44.07687" lon="3.05957">
        <ele>501</ele>
        <time>2010-01-01T00:32:02Z</time>
      </trkpt>
      <trkpt lat="44.07686" lon="3.05962">
        <ele>502</ele>
        <time>2010-01-01T00:32:03Z</time>
      </trkpt>
      <trkpt lat="44.07686" lon="3.05967">
        <ele>503</ele>
        <time>2010-01-01T00:32:05Z</time>
      </trkpt>
      <trkpt lat="44.07685" lon="3.05972">
        <ele>504</ele>
        <time>2010-01-01T00:32:06Z</time>
      </trkpt>
      <trkpt lat="44.07684" lon="3.05977">
        <ele>504</ele>
        <time>2010-01-01T00:32:08Z</time>
      </trkpt>
      <trkpt lat="44.07683" lon="3.05982">
        <ele>505</ele>
        <time>2010-01-01T00:32:09Z</time>
      </trkpt>
      <trkpt lat="44.07682" lon="3.05987">
        <ele>505</ele>
        <time>2010-01-01T00:32:11Z</time>
      </trkpt>
      <trkpt lat="44.07681" lon="3.05991">
        <ele>506</ele>
        <time>2010-01-01T00:32:12Z</time>
      </trkpt>
      <trkpt lat="44.0768" lon="3.05996">
        <ele>507</ele>
        <time>2010-01-01T00:32:13Z</time>
      </trkpt>
      <trkpt lat="44.07678" lon="3.06">
        <ele>507</ele>
        <time>2010-01-01T00:32:15Z</time>
      </trkpt>
      <trkpt lat="44.07677" lon="3.06005">
        <ele>508</ele>
        <time>2010-01-01T00:32:16Z</time>
      </trkpt>
      <trkpt lat="44.07676" lon="3.06009">
        <ele>508</ele>
        <time>2010-01-01T00:32:17Z</time>
      </trkpt>
      <trkpt lat="44.07675" lon="3.06014">
        <ele>508</ele>
        <time>2010-01-01T00:32:19Z</time>
      </trkpt>
      <trkpt lat="44.07675" lon="3.06019">
        <ele>508</ele>
        <time>2010-01-01T00:32:20Z</time>
      </trkpt>
      <trkpt lat="44.07674" lon="3.06025">
        <ele>508</ele>
        <time>2010-01-01T00:32:22Z</time>
      </trkpt>
      <trkpt lat="44.07674" lon="3.0603">
        <ele>509</ele>
        <time>2010-01-01T00:32:23Z</time>
      </trkpt>
      <trkpt lat="44.07673" lon="3.06036">
        <ele>509</ele>
        <time>2010-01-01T00:32:25Z</time>
      </trkpt>
      <trkpt lat="44.07673" lon="3.06041">
        <ele>509</ele>
        <time>2010-01-01T00:32:27Z</time>
      </trkpt>
      <trkpt lat="44.07672" lon="3.06046">
        <ele>509</ele>
        <time>2010-01-01T00:32:28Z</time>
      </trkpt>
      <trkpt lat="44.07672" lon="3.06052">
        <ele>510</ele>
        <time>2010-01-01T00:32:30Z</time>
      </trkpt>
      <trkpt lat="44.07672" lon="3.06057">
        <ele>510</ele>
        <time>2010-01-01T00:32:31Z</time>
      </trkpt>
      <trkpt lat="44.07672" lon="3.06062">
        <ele>510</ele>
        <time>2010-01-01T00:32:33Z</time>
      </trkpt>
      <trkpt lat="44.07672" lon="3.06068">
        <ele>510</ele>
        <time>2010-01-01T00:32:34Z</time>
      </trkpt>
      <trkpt lat="44.07673" lon="3.06073">
        <ele>510</ele>
        <time>2010-01-01T00:32:36Z</time>
      </trkpt>
      <trkpt lat="44.07674" lon="3.06079">
        <ele>510</ele>
        <time>2010-01-01T00:32:38Z</time>
      </trkpt>
      <trkpt lat="44.07675" lon="3.06084">
        <ele>509</ele>
        <time>2010-01-01T00:32:39Z</time>
      </trkpt>
      <trkpt lat="44.07676" lon="3.06089">
        <ele>509</ele>
        <time>2010-01-01T00:32:41Z</time>
      </trkpt>
      <trkpt lat="44.07677" lon="3.06094">
        <ele>509</ele>
        <time>2010-01-01T00:32:42Z</time>
      </trkpt>
      <trkpt lat="44.07678" lon="3.06099">
        <ele>509</ele>
        <time>2010-01-01T00:32:44Z</time>
      </trkpt>
      <trkpt lat="44.0768" lon="3.06104">
        <ele>509</ele>
        <time>2010-01-01T00:32:45Z</time>
      </trkpt>
      <trkpt lat="44.07682" lon="3.06109">
        <ele>509</ele>
        <time>2010-01-01T00:32:47Z</time>
      </trkpt>
      <trkpt lat="44.07683" lon="3.06114">
        <ele>509</ele>
        <time>2010-01-01T00:32:49Z</time>
      </trkpt>
      <trkpt lat="44.07684" lon="3.06119">
        <ele>509</ele>
        <time>2010-01-01T00:32:50Z</time>
      </trkpt>
      <trkpt lat="44.07685" lon="3.06125">
        <ele>509</ele>
        <time>2010-01-01T00:32:52Z</time>
      </trkpt>
      <trkpt lat="44.07686" lon="3.0613">
        <ele>509</ele>
        <time>2010-01-01T00:32:53Z</time>
      </trkpt>
      <trkpt lat="44.07688" lon="3.06135">
        <ele>510</ele>
        <time>2010-01-01T00:32:55Z</time>
      </trkpt>
      <trkpt lat="44.07689" lon="3.0614">
        <ele>510</ele>
        <time>2010-01-01T00:32:56Z</time>
      </trkpt>
      <trkpt lat="44.0769" lon="3.06145">
        <ele>511</ele>
        <time>2010-01-01T00:32:58Z</time>
      </trkpt>
      <trkpt lat="44.07691" lon="3.06151">
        <ele>511</ele>
        <time>2010-01-01T00:32:59Z</time>
      </trkpt>
      <trkpt lat="44.07693" lon="3.06156">
        <ele>511</ele>
        <time>2010-01-01T00:33:01Z</time>
      </trkpt>
      <trkpt lat="44.07695" lon="3.06161">
        <ele>512</ele>
        <time>2010-01-01T00:33:03Z</time>
      </trkpt>
      <trkpt lat="44.07697" lon="3.06166">
        <ele>512</ele>
        <time>2010-01-01T00:33:04Z</time>
      </trkpt>
      <trkpt lat="44.07698" lon="3.06171">
        <ele>512</ele>
        <time>2010-01-01T00:33:06Z</time>
      </trkpt>
      <trkpt lat="44.07697" lon="3.06176">
        <ele>513</ele>
        <time>2010-01-01T00:33:07Z</time>
      </trkpt>
      <trkpt lat="44.07694" lon="3.06179">
        <ele>514</ele>
        <time>2010-01-01T00:33:09Z</time>
      </trkpt>
      <trkpt lat="44.0769" lon="3.06178">
        <ele>515</ele>
        <time>2010-01-01T00:33:11Z</time>
      </trkpt>
      <trkpt lat="44.07687" lon="3.06174">
        <ele>516</ele>
        <time>2010-01-01T00:33:12Z</time>
      </trkpt>
      <trkpt lat="44.07684" lon="3.0617">
        <ele>516</ele>
        <time>2010-01-01T00:33:14Z</time>
      </trkpt>
      <trkpt lat="44.07682" lon="3.06166">
        <ele>516</ele>
        <time>2010-01-01T00:33:15Z</time>
      </trkpt>
      <trkpt lat="44.07679" lon="3.06161">
        <ele>516</ele>
        <time>2010-01-01T00:33:17Z</time>
      </trkpt>
      <trkpt lat="44.07676" lon="3.06157">
        <ele>516</ele>
        <time>2010-01-01T00:33:19Z</time>
      </trkpt>
      <trkpt lat="44.07674" lon="3.06152">
        <ele>516</ele>
        <time>2010-01-01T00:33:20Z</time>
      </trkpt>
      <trkpt lat="44.07671" lon="3.06148">
        <ele>516</ele>
        <time>2010-01-01T00:33:22Z</time>
      </trkpt>
      <trkpt lat="44.07669" lon="3.06143">
        <ele>516</ele>
        <time>2010-01-01T00:33:24Z</time>
      </trkpt>
      <trkpt lat="44.07667" lon="3.06138">
        <ele>515</ele>
        <time>2010-01-01T00:33:25Z</time>
      </trkpt>
      <trkpt lat="44.07665" lon="3.06133">
        <ele>516</ele>
        <time>2010-01-01T00:33:27Z</time>
      </trkpt>
      <trkpt lat="44.07663" lon="3.06128">
        <ele>517</ele>
        <time>2010-01-01T00:33:29Z</time>
      </trkpt>
      <trkpt lat="44.07661" lon="3.06123">
        <ele>517</ele>
        <time>2010-01-01T00:33:30Z</time>
      </trkpt>
      <trkpt lat="44.07659" lon="3.06119">
        <ele>518</ele>
        <time>2010-01-01T00:33:32Z</time>
      </trkpt>
      <trkpt lat="44.07656" lon="3.06114">
        <ele>518</ele>
        <time>2010-01-01T00:33:33Z</time>
      </trkpt>
      <trkpt lat="44.07654" lon="3.0611">
        <ele>519</ele>
        <time>2010-01-01T00:33:35Z</time>
      </trkpt>
      <trkpt lat="44.07651" lon="3.06106">
        <ele>520</ele>
        <time>2010-01-01T00:33:37Z</time>
      </trkpt>
      <trkpt lat="44.07648" lon="3.06102">
        <ele>522</ele>
        <time>2010-01-01T00:33:38Z</time>
      </trkpt>
      <trkpt lat="44.07646" lon="3.06098">
        <ele>523</ele>
        <time>2010-01-01T00:33:40Z</time>
      </trkpt>
      <trkpt lat="44.07643" lon="3.06094">
        <ele>524</ele>
        <time>2010-01-01T00:33:41Z</time>
      </trkpt>
      <trkpt lat="44.07641" lon="3.06089">
        <ele>525</ele>
        <time>2010-01-01T00:33:43Z</time>
      </trkpt>
      <trkpt lat="44.07639" lon="3.06084">
        <ele>526</ele>
        <time>2010-01-01T00:33:45Z</time>
      </trkpt>
      <trkpt lat="44.07637" lon="3.06079">
        <ele>527</ele>
        <time>2010-01-01T00:33:46Z</time>
      </trkpt>
      <trkpt lat="44.07636" lon="3.06075">
        <ele>528</ele>
        <time>2010-01-01T00:33:47Z</time>
      </trkpt>
      <trkpt lat="44.07635" lon="3.0607">
        <ele>529</ele>
        <time>2010-01-01T00:33:49Z</time>
      </trkpt>
      <trkpt lat="44.07633" lon="3.06065">
        <ele>529</ele>
        <time>2010-01-01T00:33:50Z</time>
      </trkpt>
      <trkpt lat="44.07632" lon="3.0606">
        <ele>530</ele>
        <time>2010-01-01T00:33:52Z</time>
      </trkpt>
      <trkpt lat="44.07631" lon="3.06055">
        <ele>530</ele>
        <time>2010-01-01T00:33:54Z</time>
      </trkpt>
      <trkpt lat="44.0763" lon="3.0605">
        <ele>530</ele>
        <time>2010-01-01T00:33:55Z</time>
      </trkpt>
      <trkpt lat="44.07629" lon="3.06045">
        <ele>530</ele>
        <time>2010-01-01T00:33:57Z</time>
      </trkpt>
      <trkpt lat="44.07627" lon="3.0604">
        <ele>530</ele>
        <time>2010-01-01T00:33:58Z</time>
      </trkpt>
      <trkpt lat="44.07626" lon="3.06035">
        <ele>531</ele>
        <time>2010-01-01T00:34:00Z</time>
      </trkpt>
      <trkpt lat="44.07625" lon="3.0603">
        <ele>531</ele>
        <time>2010-01-01T00:34:01Z</time>
      </trkpt>
      <trkpt lat="44.07624" lon="3.06025">
        <ele>531</ele>
        <time>2010-01-01T00:34:03Z</time>
      </trkpt>
      <trkpt lat="44.07622" lon="3.06021">
        <ele>531</ele>
        <time>2010-01-01T00:34:04Z</time>
      </trkpt>
      <trkpt lat="44.0762" lon="3.06017">
        <ele>532</ele>
        <time>2010-01-01T00:34:05Z</time>
      </trkpt>
      <trkpt lat="44.07618" lon="3.06013">
        <ele>532</ele>
        <time>2010-01-01T00:34:07Z</time>
      </trkpt>
      <trkpt lat="44.07615" lon="3.06009">
        <ele>533</ele>
        <time>2010-01-01T00:34:08Z</time>
      </trkpt>
      <trkpt lat="44.07614" lon="3.06004">
        <ele>533</ele>
        <time>2010-01-01T00:34:10Z</time>
      </trkpt>
      <trkpt lat="44.07612" lon="3.06">
        <ele>533</ele>
        <time>2010-01-01T00:34:11Z</time>
      </trkpt>
      <trkpt lat="44.07609" lon="3.05997">
        <ele>533</ele>
        <time>2010-01-01T00:34:13Z</time>
      </trkpt>
      <trkpt lat="44.07607" lon="3.05993">
        <ele>534</ele>
        <time>2010-01-01T00:34:14Z</time>
      </trkpt>
      <trkpt lat="44.07605" lon="3.0599">
        <ele>534</ele>
        <time>2010-01-01T00:34:15Z</time>
      </trkpt>
      <trkpt lat="44.07602" lon="3.05987">
        <ele>534</ele>
        <time>2010-01-01T00:34:17Z</time>
      </trkpt>
      <trkpt lat="44.076" lon="3.05983">
        <ele>535</ele>
        <time>2010-01-01T00:34:18Z</time>
      </trkpt>
      <trkpt lat="44.07597" lon="3.0598">
        <ele>535</ele>
        <time>2010-01-01T00:34:19Z</time>
      </trkpt>
      <trkpt lat="44.07595" lon="3.05977">
        <ele>536</ele>
        <time>2010-01-01T00:34:21Z</time>
      </trkpt>
      <trkpt lat="44.07592" lon="3.05975">
        <ele>537</ele>
        <time>2010-01-01T00:34:22Z</time>
      </trkpt>
      <trkpt lat="44.07588" lon="3.05972">
        <ele>538</ele>
        <time>2010-01-01T00:34:24Z</time>
      </trkpt>
      <trkpt lat="44.07586" lon="3.05971">
        <ele>539</ele>
        <time>2010-01-01T00:34:25Z</time>
      </trkpt>
      <trkpt lat="44.07584" lon="3.05971">
        <ele>540</ele>
        <time>2010-01-01T00:34:26Z</time>
      </trkpt>
      <trkpt lat="44.07583" lon="3.05973">
        <ele>541</ele>
        <time>2010-01-01T00:34:26Z</time>
      </trkpt>
      <trkpt lat="44.07585" lon="3.05976">
        <ele>541</ele>
        <time>2010-01-01T00:34:27Z</time>
      </trkpt>
      <trkpt lat="44.07586" lon="3.05979">
        <ele>541</ele>
        <time>2010-01-01T00:34:28Z</time>
      </trkpt>
      <trkpt lat="44.07586" lon="3.0598">
        <ele>541</ele>
        <time>2010-01-01T00:34:29Z</time>
      </trkpt>
      <trkpt lat="44.07586" lon="3.0598">
        <ele>541</ele>
        <time>2010-01-01T00:34:29Z</time>
      </trkpt>
      <trkpt lat="44.07586" lon="3.0598">
        <ele>541</ele>
        <time>2010-01-01T00:34:29Z</time>
      </trkpt>
      <trkpt lat="44.07587" lon="3.0598">
        <ele>541</ele>
        <time>2010-01-01T00:34:29Z</time>
      </trkpt>
      <trkpt lat="44.07589" lon="3.05987">
        <ele>541</ele>
        <time>2010-01-01T00:34:31Z</time>
      </trkpt>
      <trkpt lat="44.07591" lon="3.0599">
        <ele>541</ele>
        <time>2010-01-01T00:34:32Z</time>
      </trkpt>
      <trkpt lat="44.07592" lon="3.05994">
        <ele>541</ele>
        <time>2010-01-01T00:34:34Z</time>
      </trkpt>
      <trkpt lat="44.07592" lon="3.05997">
        <ele>542</ele>
        <time>2010-01-01T00:34:35Z</time>
      </trkpt>
      <trkpt lat="44.07592" lon="3.06">
        <ele>542</ele>
        <time>2010-01-01T00:34:36Z</time>
      </trkpt>
      <trkpt lat="44.07593" lon="3.06003">
        <ele>543</ele>
        <time>2010-01-01T00:34:36Z</time>
      </trkpt>
      <trkpt lat="44.07593" lon="3.06006">
        <ele>543</ele>
        <time>2010-01-01T00:34:37Z</time>
      </trkpt>
      <trkpt lat="44.07594" lon="3.06008">
        <ele>543</ele>
        <time>2010-01-01T00:34:38Z</time>
      </trkpt>
      <trkpt lat="44.07594" lon="3.0601">
        <ele>543</ele>
        <time>2010-01-01T00:34:39Z</time>
      </trkpt>
      <trkpt lat="44.07595" lon="3.06015">
        <ele>543</ele>
        <time>2010-01-01T00:34:40Z</time>
      </trkpt>
      <trkpt lat="44.07594" lon="3.06018">
        <ele>544</ele>
        <time>2010-01-01T00:34:41Z</time>
      </trkpt>
      <trkpt lat="44.07594" lon="3.06021">
        <ele>545</ele>
        <time>2010-01-01T00:34:42Z</time>
      </trkpt>
      <trkpt lat="44.07594" lon="3.06024">
        <ele>545</ele>
        <time>2010-01-01T00:34:43Z</time>
      </trkpt>
      <trkpt lat="44.07594" lon="3.06028">
        <ele>545</ele>
        <time>2010-01-01T00:34:44Z</time>
      </trkpt>
      <trkpt lat="44.07595" lon="3.06031">
        <ele>545</ele>
        <time>2010-01-01T00:34:45Z</time>
      </trkpt>
      <trkpt lat="44.07594" lon="3.06034">
        <ele>546</ele>
        <time>2010-01-01T00:34:46Z</time>
      </trkpt>
      <trkpt lat="44.07594" lon="3.06038">
        <ele>547</ele>
        <time>2010-01-01T00:34:47Z</time>
      </trkpt>
      <trkpt lat="44.07595" lon="3.06042">
        <ele>547</ele>
        <time>2010-01-01T00:34:48Z</time>
      </trkpt>
      <trkpt lat="44.07596" lon="3.06045">
        <ele>547</ele>
        <time>2010-01-01T00:34:49Z</time>
      </trkpt>
      <trkpt lat="44.07597" lon="3.0605">
        <ele>547</ele>
        <time>2010-01-01T00:34:50Z</time>
      </trkpt>
      <trkpt lat="44.07598" lon="3.06052">
        <ele>547</ele>
        <time>2010-01-01T00:34:51Z</time>
      </trkpt>
      <trkpt lat="44.07597" lon="3.06055">
        <ele>548</ele>
        <time>2010-01-01T00:34:52Z</time>
      </trkpt>
      <trkpt lat="44.07597" lon="3.06058">
        <ele>548</ele>
        <time>2010-01-01T00:34:53Z</time>
      </trkpt>
      <trkpt lat="44.07596" lon="3.06061">
        <ele>549</ele>
        <time>2010-01-01T00:34:54Z</time>
      </trkpt>
      <trkpt lat="44.07596" lon="3.06064">
        <ele>549</ele>
        <time>2010-01-01T00:34:55Z</time>
      </trkpt>
      <trkpt lat="44.07595" lon="3.06067">
        <ele>550</ele>
        <time>2010-01-01T00:34:55Z</time>
      </trkpt>
      <trkpt lat="44.07595" lon="3.0607">
        <ele>550</ele>
        <time>2010-01-01T00:34:56Z</time>
      </trkpt>
      <trkpt lat="44.07595" lon="3.06074">
        <ele>551</ele>
        <time>2010-01-01T00:34:58Z</time>
      </trkpt>
      <trkpt lat="44.07593" lon="3.06077">
        <ele>552</ele>
        <time>2010-01-01T00:34:59Z</time>
      </trkpt>
      <trkpt lat="44.07594" lon="3.06081">
        <ele>552</ele>
        <time>2010-01-01T00:35:00Z</time>
      </trkpt>
      <trkpt lat="44.07595" lon="3.06085">
        <ele>552</ele>
        <time>2010-01-01T00:35:01Z</time>
      </trkpt>
      <trkpt lat="44.07595" lon="3.06089">
        <ele>552</ele>
        <time>2010-01-01T00:35:02Z</time>
      </trkpt>
      <trkpt lat="44.07595" lon="3.06092">
        <ele>552</ele>
        <time>2010-01-01T00:35:03Z</time>
      </trkpt>
      <trkpt lat="44.07595" lon="3.06095">
        <ele>552</ele>
        <time>2010-01-01T00:35:04Z</time>
      </trkpt>
      <trkpt lat="44.07594" lon="3.06098">
        <ele>553</ele>
        <time>2010-01-01T00:35:05Z</time>
      </trkpt>
      <trkpt lat="44.07593" lon="3.061">
        <ele>553</ele>
        <time>2010-01-01T00:35:06Z</time>
      </trkpt>
      <trkpt lat="44.07593" lon="3.06104">
        <ele>553</ele>
        <time>2010-01-01T00:35:07Z</time>
      </trkpt>
      <trkpt lat="44.07593" lon="3.06107">
        <ele>553</ele>
        <time>2010-01-01T00:35:08Z</time>
      </trkpt>
      <trkpt lat="44.07593" lon="3.06111">
        <ele>554</ele>
        <time>2010-01-01T00:35:09Z</time>
      </trkpt>
      <trkpt lat="44.07593" lon="3.06114">
        <ele>553</ele>
        <time>2010-01-01T00:35:10Z</time>
      </trkpt>
      <trkpt lat="44.07592" lon="3.06118">
        <ele>554</ele>
        <time>2010-01-01T00:35:11Z</time>
      </trkpt>
      <trkpt lat="44.07591" lon="3.06122">
        <ele>555</ele>
        <time>2010-01-01T00:35:12Z</time>
      </trkpt>
      <trkpt lat="44.07591" lon="3.06125">
        <ele>555</ele>
        <time>2010-01-01T00:35:13Z</time>
      </trkpt>
      <trkpt lat="44.07591" lon="3.06129">
        <ele>555</ele>
        <time>2010-01-01T00:35:14Z</time>
      </trkpt>
      <trkpt lat="44.07591" lon="3.06133">
        <ele>555</ele>
        <time>2010-01-01T00:35:15Z</time>
      </trkpt>
      <trkpt lat="44.07591" lon="3.06136">
        <ele>555</ele>
        <time>2010-01-01T00:35:16Z</time>
      </trkpt>
      <trkpt lat="44.0759" lon="3.0614">
        <ele>555</ele>
        <time>2010-01-01T00:35:17Z</time>
      </trkpt>
      <trkpt lat="44.0759" lon="3.06143">
        <ele>556</ele>
        <time>2010-01-01T00:35:18Z</time>
      </trkpt>
      <trkpt lat="44.07589" lon="3.06147">
        <ele>556</ele>
        <time>2010-01-01T00:35:19Z</time>
      </trkpt>
      <trkpt lat="44.07589" lon="3.0615">
        <ele>557</ele>
        <time>2010-01-01T00:35:20Z</time>
      </trkpt>
      <trkpt lat="44.07589" lon="3.06154">
        <ele>557</ele>
        <time>2010-01-01T00:35:21Z</time>
      </trkpt>
      <trkpt lat="44.07588" lon="3.06157">
        <ele>557</ele>
        <time>2010-01-01T00:35:22Z</time>
      </trkpt>
      <trkpt lat="44.07588" lon="3.0616">
        <ele>558</ele>
        <time>2010-01-01T00:35:23Z</time>
      </trkpt>
      <trkpt lat="44.07588" lon="3.06164">
        <ele>558</ele>
        <time>2010-01-01T00:35:24Z</time>
      </trkpt>
      <trkpt lat="44.07587" lon="3.06168">
        <ele>558</ele>
        <time>2010-01-01T00:35:25Z</time>
      </trkpt>
      <trkpt lat="44.07587" lon="3.06171">
        <ele>559</ele>
        <time>2010-01-01T00:35:26Z</time>
      </trkpt>
      <trkpt lat="44.07586" lon="3.06174">
        <ele>559</ele>
        <time>2010-01-01T00:35:27Z</time>
      </trkpt>
      <trkpt lat="44.07585" lon="3.06177">
        <ele>560</ele>
        <time>2010-01-01T00:35:28Z</time>
      </trkpt>
      <trkpt lat="44.07584" lon="3.0618">
        <ele>561</ele>
        <time>2010-01-01T00:35:29Z</time>
      </trkpt>
      <trkpt lat="44.07583" lon="3.06183">
        <ele>561</ele>
        <time>2010-01-01T00:35:30Z</time>
      </trkpt>
      <trkpt lat="44.07583" lon="3.06187">
        <ele>561</ele>
        <time>2010-01-01T00:35:31Z</time>
      </trkpt>
      <trkpt lat="44.07582" lon="3.0619">
        <ele>562</ele>
        <time>2010-01-01T00:35:32Z</time>
      </trkpt>
      <trkpt lat="44.07581" lon="3.06194">
        <ele>562</ele>
        <time>2010-01-01T00:35:33Z</time>
      </trkpt>
      <trkpt lat="44.07581" lon="3.06197">
        <ele>563</ele>
        <time>2010-01-01T00:35:34Z</time>
      </trkpt>
      <trkpt lat="44.0758" lon="3.06201">
        <ele>563</ele>
        <time>2010-01-01T00:35:35Z</time>
      </trkpt>
      <trkpt lat="44.07578" lon="3.06204">
        <ele>564</ele>
        <time>2010-01-01T00:35:36Z</time>
      </trkpt>
      <trkpt lat="44.07577" lon="3.06207">
        <ele>564</ele>
        <time>2010-01-01T00:35:37Z</time>
      </trkpt>
      <trkpt lat="44.07576" lon="3.0621">
        <ele>564</ele>
        <time>2010-01-01T00:35:38Z</time>
      </trkpt>
      <trkpt lat="44.07576" lon="3.06214">
        <ele>565</ele>
        <time>2010-01-01T00:35:39Z</time>
      </trkpt>
      <trkpt lat="44.07575" lon="3.06217">
        <ele>565</ele>
        <time>2010-01-01T00:35:40Z</time>
      </trkpt>
      <trkpt lat="44.07574" lon="3.06221">
        <ele>565</ele>
        <time>2010-01-01T00:35:42Z</time>
      </trkpt>
      <trkpt lat="44.07573" lon="3.06224">
        <ele>566</ele>
        <time>2010-01-01T00:35:43Z</time>
      </trkpt>
      <trkpt lat="44.07572" lon="3.06227">
        <ele>567</ele>
        <time>2010-01-01T00:35:44Z</time>
      </trkpt>
      <trkpt lat="44.07571" lon="3.06231">
        <ele>567</ele>
        <time>2010-01-01T00:35:45Z</time>
      </trkpt>
      <trkpt lat="44.07571" lon="3.06235">
        <ele>567</ele>
        <time>2010-01-01T00:35:46Z</time>
      </trkpt>
      <trkpt lat="44.07571" lon="3.06239">
        <ele>568</ele>
        <time>2010-01-01T00:35:47Z</time>
      </trkpt>
      <trkpt lat="44.07571" lon="3.06243">
        <ele>568</ele>
        <time>2010-01-01T00:35:48Z</time>
      </trkpt>
      <trkpt lat="44.0757" lon="3.06246">
        <ele>568</ele>
        <time>2010-01-01T00:35:49Z</time>
      </trkpt>
      <trkpt lat="44.0757" lon="3.0625">
        <ele>569</ele>
        <time>2010-01-01T00:35:50Z</time>
      </trkpt>
      <trkpt lat="44.0757" lon="3.06254">
        <ele>569</ele>
        <time>2010-01-01T00:35:51Z</time>
      </trkpt>
      <trkpt lat="44.0757" lon="3.06258">
        <ele>570</ele>
        <time>2010-01-01T00:35:52Z</time>
      </trkpt>
      <trkpt lat="44.07569" lon="3.06262">
        <ele>571</ele>
        <time>2010-01-01T00:35:54Z</time>
      </trkpt>
      <trkpt lat="44.07569" lon="3.06266">
        <ele>572</ele>
        <time>2010-01-01T00:35:55Z</time>
      </trkpt>
      <trkpt lat="44.07569" lon="3.06269">
        <ele>572</ele>
        <time>2010-01-01T00:35:56Z</time>
      </trkpt>
      <trkpt lat="44.07569" lon="3.06273">
        <ele>573</ele>
        <time>2010-01-01T00:35:57Z</time>
      </trkpt>
      <trkpt lat="44.0757" lon="3.06276">
        <ele>573</ele>
        <time>2010-01-01T00:35:58Z</time>
      </trkpt>
      <trkpt lat="44.07572" lon="3.0628">
        <ele>572</ele>
        <time>2010-01-01T00:35:59Z</time>
      </trkpt>
      <trkpt lat="44.07573" lon="3.06282">
        <ele>572</ele>
        <time>2010-01-01T00:36:00Z</time>
      </trkpt>
      <trkpt lat="44.07575" lon="3.06285">
        <ele>572</ele>
        <time>2010-01-01T00:36:01Z</time>
      </trkpt>
      <trkpt lat="44.07577" lon="3.06287">
        <ele>571</ele>
        <time>2010-01-01T00:36:02Z</time>
      </trkpt>
      <trkpt lat="44.07579" lon="3.06289">
        <ele>571</ele>
        <time>2010-01-01T00:36:03Z</time>
      </trkpt>
      <trkpt lat="44.07581" lon="3.06291">
        <ele>570</ele>
        <time>2010-01-01T00:36:04Z</time>
      </trkpt>
      <trkpt lat="44.07583" lon="3.06293">
        <ele>570</ele>
        <time>2010-01-01T00:36:05Z</time>
      </trkpt>
      <trkpt lat="44.07585" lon="3.06296">
        <ele>569</ele>
        <time>2010-01-01T00:36:06Z</time>
      </trkpt>
      <trkpt lat="44.07587" lon="3.06298">
        <ele>569</ele>
        <time>2010-01-01T00:36:07Z</time>
      </trkpt>
      <trkpt lat="44.07587" lon="3.06302">
        <ele>569</ele>
        <time>2010-01-01T00:36:08Z</time>
      </trkpt>
      <trkpt lat="44.07588" lon="3.06306">
        <ele>570</ele>
        <time>2010-01-01T00:36:09Z</time>
      </trkpt>
      <trkpt lat="44.07589" lon="3.06309">
        <ele>570</ele>
        <time>2010-01-01T00:36:10Z</time>
      </trkpt>
      <trkpt lat="44.07589" lon="3.06313">
        <ele>570</ele>
        <time>2010-01-01T00:36:12Z</time>
      </trkpt>
      <trkpt lat="44.07589" lon="3.06317">
        <ele>570</ele>
        <time>2010-01-01T00:36:13Z</time>
      </trkpt>
      <trkpt lat="44.07589" lon="3.06321">
        <ele>570</ele>
        <time>2010-01-01T00:36:14Z</time>
      </trkpt>
      <trkpt lat="44.07589" lon="3.06324">
        <ele>571</ele>
        <time>2010-01-01T00:36:15Z</time>
      </trkpt>
      <trkpt lat="44.07589" lon="3.06327">
        <ele>571</ele>
        <time>2010-01-01T00:36:16Z</time>
      </trkpt>
      <trkpt lat="44.07588" lon="3.06331">
        <ele>572</ele>
        <time>2010-01-01T00:36:17Z</time>
      </trkpt>
      <trkpt lat="44.07587" lon="3.06334">
        <ele>573</ele>
        <time>2010-01-01T00:36:18Z</time>
      </trkpt>
      <trkpt lat="44.07586" lon="3.06338">
        <ele>573</ele>
        <time>2010-01-01T00:36:19Z</time>
      </trkpt>
      <trkpt lat="44.07585" lon="3.06341">
        <ele>574</ele>
        <time>2010-01-01T00:36:20Z</time>
      </trkpt>
      <trkpt lat="44.07584" lon="3.06345">
        <ele>574</ele>
        <time>2010-01-01T00:36:21Z</time>
      </trkpt>
      <trkpt lat="44.07583" lon="3.06349">
        <ele>575</ele>
        <time>2010-01-01T00:36:22Z</time>
      </trkpt>
      <trkpt lat="44.07582" lon="3.06352">
        <ele>575</ele>
        <time>2010-01-01T00:36:23Z</time>
      </trkpt>
      <trkpt lat="44.07581" lon="3.06356">
        <ele>576</ele>
        <time>2010-01-01T00:36:25Z</time>
      </trkpt>
      <trkpt lat="44.0758" lon="3.0636">
        <ele>576</ele>
        <time>2010-01-01T00:36:26Z</time>
      </trkpt>
      <trkpt lat="44.07579" lon="3.06363">
        <ele>576</ele>
        <time>2010-01-01T00:36:27Z</time>
      </trkpt>
      <trkpt lat="44.07577" lon="3.06366">
        <ele>577</ele>
        <time>2010-01-01T00:36:28Z</time>
      </trkpt>
      <trkpt lat="44.07576" lon="3.0637">
        <ele>577</ele>
        <time>2010-01-01T00:36:29Z</time>
      </trkpt>
      <trkpt lat="44.07575" lon="3.06373">
        <ele>578</ele>
        <time>2010-01-01T00:36:30Z</time>
      </trkpt>
      <trkpt lat="44.07574" lon="3.06376">
        <ele>579</ele>
        <time>2010-01-01T00:36:31Z</time>
      </trkpt>
      <trkpt lat="44.07572" lon="3.06379">
        <ele>579</ele>
        <time>2010-01-01T00:36:32Z</time>
      </trkpt>
      <trkpt lat="44.07571" lon="3.06382">
        <ele>580</ele>
        <time>2010-01-01T00:36:33Z</time>
      </trkpt>
      <trkpt lat="44.0757" lon="3.06385">
        <ele>581</ele>
        <time>2010-01-01T00:36:34Z</time>
      </trkpt>
      <trkpt lat="44.07569" lon="3.06388">
        <ele>582</ele>
        <time>2010-01-01T00:36:35Z</time>
      </trkpt>
      <trkpt lat="44.07568" lon="3.06391">
        <ele>582</ele>
        <time>2010-01-01T00:36:36Z</time>
      </trkpt>
      <trkpt lat="44.07566" lon="3.06394">
        <ele>583</ele>
        <time>2010-01-01T00:36:37Z</time>
      </trkpt>
      <trkpt lat="44.07565" lon="3.06397">
        <ele>584</ele>
        <time>2010-01-01T00:36:38Z</time>
      </trkpt>
      <trkpt lat="44.07564" lon="3.064">
        <ele>585</ele>
        <time>2010-01-01T00:36:39Z</time>
      </trkpt>
      <trkpt lat="44.07563" lon="3.06402">
        <ele>586</ele>
        <time>2010-01-01T00:36:40Z</time>
      </trkpt>
      <trkpt lat="44.07561" lon="3.06405">
        <ele>587</ele>
        <time>2010-01-01T00:36:41Z</time>
      </trkpt>
      <trkpt lat="44.0756" lon="3.06408">
        <ele>588</ele>
        <time>2010-01-01T00:36:42Z</time>
      </trkpt>
      <trkpt lat="44.07558" lon="3.0641">
        <ele>589</ele>
        <time>2010-01-01T00:36:43Z</time>
      </trkpt>
      <trkpt lat="44.07557" lon="3.06414">
        <ele>590</ele>
        <time>2010-01-01T00:36:44Z</time>
      </trkpt>
      <trkpt lat="44.07556" lon="3.06416">
        <ele>590</ele>
        <time>2010-01-01T00:36:45Z</time>
      </trkpt>
      <trkpt lat="44.07554" lon="3.0642">
        <ele>591</ele>
        <time>2010-01-01T00:36:46Z</time>
      </trkpt>
      <trkpt lat="44.07553" lon="3.06423">
        <ele>592</ele>
        <time>2010-01-01T00:36:47Z</time>
      </trkpt>
      <trkpt lat="44.07552" lon="3.06427">
        <ele>592</ele>
        <time>2010-01-01T00:36:48Z</time>
      </trkpt>
      <trkpt lat="44.07552" lon="3.06431">
        <ele>593</ele>
        <time>2010-01-01T00:36:49Z</time>
      </trkpt>
      <trkpt lat="44.07552" lon="3.06434">
        <ele>593</ele>
        <time>2010-01-01T00:36:50Z</time>
      </trkpt>
      <trkpt lat="44.07551" lon="3.06438">
        <ele>593</ele>
        <time>2010-01-01T00:36:51Z</time>
      </trkpt>
      <trkpt lat="44.07551" lon="3.06441">
        <ele>593</ele>
        <time>2010-01-01T00:36:52Z</time>
      </trkpt>
      <trkpt lat="44.0755" lon="3.06444">
        <ele>593</ele>
        <time>2010-01-01T00:36:53Z</time>
      </trkpt>
      <trkpt lat="44.0755" lon="3.06448">
        <ele>594</ele>
        <time>2010-01-01T00:36:54Z</time>
      </trkpt>
      <trkpt lat="44.07549" lon="3.06451">
        <ele>595</ele>
        <time>2010-01-01T00:36:55Z</time>
      </trkpt>
      <trkpt lat="44.07549" lon="3.06455">
        <ele>595</ele>
        <time>2010-01-01T00:36:56Z</time>
      </trkpt>
      <trkpt lat="44.07549" lon="3.06458">
        <ele>595</ele>
        <time>2010-01-01T00:36:57Z</time>
      </trkpt>
      <trkpt lat="44.07549" lon="3.06461">
        <ele>596</ele>
        <time>2010-01-01T00:36:58Z</time>
      </trkpt>
      <trkpt lat="44.07548" lon="3.06464">
        <ele>596</ele>
        <time>2010-01-01T00:36:59Z</time>
      </trkpt>
      <trkpt lat="44.07549" lon="3.06468">
        <ele>596</ele>
        <time>2010-01-01T00:37:00Z</time>
      </trkpt>
      <trkpt lat="44.07549" lon="3.06472">
        <ele>596</ele>
        <time>2010-01-01T00:37:01Z</time>
      </trkpt>
      <trkpt lat="44.07549" lon="3.06475">
        <ele>597</ele>
        <time>2010-01-01T00:37:02Z</time>
      </trkpt>
      <trkpt lat="44.07548" lon="3.06478">
        <ele>597</ele>
        <time>2010-01-01T00:37:03Z</time>
      </trkpt>
      <trkpt lat="44.07548" lon="3.06481">
        <ele>598</ele>
        <time>2010-01-01T00:37:04Z</time>
      </trkpt>
      <trkpt lat="44.07548" lon="3.06485">
        <ele>598</ele>
        <time>2010-01-01T00:37:05Z</time>
      </trkpt>
      <trkpt lat="44.07547" lon="3.06488">
        <ele>599</ele>
        <time>2010-01-01T00:37:06Z</time>
      </trkpt>
      <trkpt lat="44.07547" lon="3.06492">
        <ele>599</ele>
        <time>2010-01-01T00:37:07Z</time>
      </trkpt>
      <trkpt lat="44.07546" lon="3.06495">
        <ele>600</ele>
        <time>2010-01-01T00:37:08Z</time>
      </trkpt>
      <trkpt lat="44.07546" lon="3.06498">
        <ele>601</ele>
        <time>2010-01-01T00:37:09Z</time>
      </trkpt>
      <trkpt lat="44.07545" lon="3.06502">
        <ele>602</ele>
        <time>2010-01-01T00:37:10Z</time>
      </trkpt>
      <trkpt lat="44.07546" lon="3.06505">
        <ele>602</ele>
        <time>2010-01-01T00:37:11Z</time>
      </trkpt>
      <trkpt lat="44.07546" lon="3.06509">
        <ele>603</ele>
        <time>2010-01-01T00:37:12Z</time>
      </trkpt>
      <trkpt lat="44.07547" lon="3.06512">
        <ele>603</ele>
        <time>2010-01-01T00:37:13Z</time>
      </trkpt>
      <trkpt lat="44.07548" lon="3.06515">
        <ele>603</ele>
        <time>2010-01-01T00:37:14Z</time>
      </trkpt>
      <trkpt lat="44.07548" lon="3.06518">
        <ele>604</ele>
        <time>2010-01-01T00:37:15Z</time>
      </trkpt>
      <trkpt lat="44.07547" lon="3.06521">
        <ele>605</ele>
        <time>2010-01-01T00:37:16Z</time>
      </trkpt>
      <trkpt lat="44.07547" lon="3.06525">
        <ele>605</ele>
        <time>2010-01-01T00:37:17Z</time>
      </trkpt>
      <trkpt lat="44.07547" lon="3.06528">
        <ele>606</ele>
        <time>2010-01-01T00:37:18Z</time>
      </trkpt>
      <trkpt lat="44.07548" lon="3.06531">
        <ele>606</ele>
        <time>2010-01-01T00:37:19Z</time>
      </trkpt>
      <trkpt lat="44.07549" lon="3.06535">
        <ele>607</ele>
        <time>2010-01-01T00:37:20Z</time>
      </trkpt>
      <trkpt lat="44.07549" lon="3.06538">
        <ele>607</ele>
        <time>2010-01-01T00:37:21Z</time>
      </trkpt>
      <trkpt lat="44.0755" lon="3.06542">
        <ele>608</ele>
        <time>2010-01-01T00:37:22Z</time>
      </trkpt>
      <trkpt lat="44.0755" lon="3.06545">
        <ele>608</ele>
        <time>2010-01-01T00:37:23Z</time>
      </trkpt>
      <trkpt lat="44.07552" lon="3.06548">
        <ele>608</ele>
        <time>2010-01-01T00:37:24Z</time>
      </trkpt>
      <trkpt lat="44.07553" lon="3.06551">
        <ele>608</ele>
        <time>2010-01-01T00:37:25Z</time>
      </trkpt>
      <trkpt lat="44.07555" lon="3.06553">
        <ele>608</ele>
        <time>2010-01-01T00:37:26Z</time>
      </trkpt>
      <trkpt lat="44.07558" lon="3.06554">
        <ele>608</ele>
        <time>2010-01-01T00:37:27Z</time>
      </trkpt>
      <trkpt lat="44.0756" lon="3.06555">
        <ele>607</ele>
        <time>2010-01-01T00:37:28Z</time>
      </trkpt>
      <trkpt lat="44.07563" lon="3.06556">
        <ele>607</ele>
        <time>2010-01-01T00:37:29Z</time>
      </trkpt>
      <trkpt lat="44.07565" lon="3.06556">
        <ele>607</ele>
        <time>2010-01-01T00:37:30Z</time>
      </trkpt>
      <trkpt lat="44.07568" lon="3.06557">
        <ele>607</ele>
        <time>2010-01-01T00:37:31Z</time>
      </trkpt>
      <trkpt lat="44.0757" lon="3.06558">
        <ele>607</ele>
        <time>2010-01-01T00:37:32Z</time>
      </trkpt>
      <trkpt lat="44.07572" lon="3.06559">
        <ele>607</ele>
        <time>2010-01-01T00:37:33Z</time>
      </trkpt>
      <trkpt lat="44.07575" lon="3.06559">
        <ele>606</ele>
        <time>2010-01-01T00:37:34Z</time>
      </trkpt>
      <trkpt lat="44.07577" lon="3.0656">
        <ele>606</ele>
        <time>2010-01-01T00:37:35Z</time>
      </trkpt>
      <trkpt lat="44.0758" lon="3.06561">
        <ele>606</ele>
        <time>2010-01-01T00:37:36Z</time>
      </trkpt>
      <trkpt lat="44.07582" lon="3.06562">
        <ele>606</ele>
        <time>2010-01-01T00:37:37Z</time>
      </trkpt>
      <trkpt lat="44.07584" lon="3.06564">
        <ele>607</ele>
        <time>2010-01-01T00:37:38Z</time>
      </trkpt>
      <trkpt lat="44.07586" lon="3.06565">
        <ele>608</ele>
        <time>2010-01-01T00:37:39Z</time>
      </trkpt>
      <trkpt lat="44.07588" lon="3.06566">
        <ele>609</ele>
        <time>2010-01-01T00:37:40Z</time>
      </trkpt>
      <trkpt lat="44.07591" lon="3.06569">
        <ele>610</ele>
        <time>2010-01-01T00:37:41Z</time>
      </trkpt>
      <trkpt lat="44.07593" lon="3.0657">
        <ele>611</ele>
        <time>2010-01-01T00:37:42Z</time>
      </trkpt>
      <trkpt lat="44.07596" lon="3.0657">
        <ele>612</ele>
        <time>2010-01-01T00:37:43Z</time>
      </trkpt>
      <trkpt lat="44.07599" lon="3.06569">
        <ele>612</ele>
        <time>2010-01-01T00:37:44Z</time>
      </trkpt>
      <trkpt lat="44.07602" lon="3.0657">
        <ele>613</ele>
        <time>2010-01-01T00:37:45Z</time>
      </trkpt>
      <trkpt lat="44.07605" lon="3.0657">
        <ele>614</ele>
        <time>2010-01-01T00:37:47Z</time>
      </trkpt>
      <trkpt lat="44.07607" lon="3.0657">
        <ele>614</ele>
        <time>2010-01-01T00:37:48Z</time>
      </trkpt>
      <trkpt lat="44.0761" lon="3.06569">
        <ele>615</ele>
        <time>2010-01-01T00:37:49Z</time>
      </trkpt>
      <trkpt lat="44.07612" lon="3.06569">
        <ele>615</ele>
        <time>2010-01-01T00:37:50Z</time>
      </trkpt>
      <trkpt lat="44.07615" lon="3.06569">
        <ele>616</ele>
        <time>2010-01-01T00:37:50Z</time>
      </trkpt>
      <trkpt lat="44.07617" lon="3.06568">
        <ele>616</ele>
        <time>2010-01-01T00:37:51Z</time>
      </trkpt>
      <trkpt lat="44.07619" lon="3.06568">
        <ele>616</ele>
        <time>2010-01-01T00:37:52Z</time>
      </trkpt>
      <trkpt lat="44.07621" lon="3.06566">
        <ele>616</ele>
        <time>2010-01-01T00:37:53Z</time>
      </trkpt>
      <trkpt lat="44.07624" lon="3.06565">
        <ele>616</ele>
        <time>2010-01-01T00:37:54Z</time>
      </trkpt>
      <trkpt lat="44.07626" lon="3.06564">
        <ele>617</ele>
        <time>2010-01-01T00:37:55Z</time>
      </trkpt>
      <trkpt lat="44.07628" lon="3.06563">
        <ele>617</ele>
        <time>2010-01-01T00:37:56Z</time>
      </trkpt>
      <trkpt lat="44.0763" lon="3.06563">
        <ele>617</ele>
        <time>2010-01-01T00:37:57Z</time>
      </trkpt>
      <trkpt lat="44.07632" lon="3.06562">
        <ele>617</ele>
        <time>2010-01-01T00:37:58Z</time>
      </trkpt>
      <trkpt lat="44.07635" lon="3.0656">
        <ele>618</ele>
        <time>2010-01-01T00:37:59Z</time>
      </trkpt>
      <trkpt lat="44.07637" lon="3.06557">
        <ele>617</ele>
        <time>2010-01-01T00:38:00Z</time>
      </trkpt>
      <trkpt lat="44.07639" lon="3.06556">
        <ele>618</ele>
        <time>2010-01-01T00:38:01Z</time>
      </trkpt>
      <trkpt lat="44.07642" lon="3.06555">
        <ele>618</ele>
        <time>2010-01-01T00:38:02Z</time>
      </trkpt>
      <trkpt lat="44.07644" lon="3.06554">
        <ele>618</ele>
        <time>2010-01-01T00:38:03Z</time>
      </trkpt>
      <trkpt lat="44.07647" lon="3.06553">
        <ele>618</ele>
        <time>2010-01-01T00:38:04Z</time>
      </trkpt>
      <trkpt lat="44.07649" lon="3.06552">
        <ele>618</ele>
        <time>2010-01-01T00:38:05Z</time>
      </trkpt>
      <trkpt lat="44.07652" lon="3.06551">
        <ele>619</ele>
        <time>2010-01-01T00:38:06Z</time>
      </trkpt>
      <trkpt lat="44.07654" lon="3.0655">
        <ele>619</ele>
        <time>2010-01-01T00:38:07Z</time>
      </trkpt>
      <trkpt lat="44.07656" lon="3.06549">
        <ele>619</ele>
        <time>2010-01-01T00:38:08Z</time>
      </trkpt>
      <trkpt lat="44.07659" lon="3.06548">
        <ele>619</ele>
        <time>2010-01-01T00:38:09Z</time>
      </trkpt>
      <trkpt lat="44.07661" lon="3.06547">
        <ele>619</ele>
        <time>2010-01-01T00:38:10Z</time>
      </trkpt>
      <trkpt lat="44.07664" lon="3.06546">
        <ele>619</ele>
        <time>2010-01-01T00:38:11Z</time>
      </trkpt>
      <trkpt lat="44.07666" lon="3.06545">
        <ele>619</ele>
        <time>2010-01-01T00:38:12Z</time>
      </trkpt>
      <trkpt lat="44.07668" lon="3.06544">
        <ele>619</ele>
        <time>2010-01-01T00:38:13Z</time>
      </trkpt>
      <trkpt lat="44.07671" lon="3.06543">
        <ele>620</ele>
        <time>2010-01-01T00:38:14Z</time>
      </trkpt>
      <trkpt lat="44.07673" lon="3.06542">
        <ele>621</ele>
        <time>2010-01-01T00:38:15Z</time>
      </trkpt>
      <trkpt lat="44.07676" lon="3.06542">
        <ele>621</ele>
        <time>2010-01-01T00:38:16Z</time>
      </trkpt>
      <trkpt lat="44.07679" lon="3.06541">
        <ele>622</ele>
        <time>2010-01-01T00:38:18Z</time>
      </trkpt>
      <trkpt lat="44.07681" lon="3.0654">
        <ele>622</ele>
        <time>2010-01-01T00:38:19Z</time>
      </trkpt>
      <trkpt lat="44.07684" lon="3.06538">
        <ele>622</ele>
        <time>2010-01-01T00:38:20Z</time>
      </trkpt>
      <trkpt lat="44.07686" lon="3.06537">
        <ele>623</ele>
        <time>2010-01-01T00:38:21Z</time>
      </trkpt>
      <trkpt lat="44.07688" lon="3.06536">
        <ele>623</ele>
        <time>2010-01-01T00:38:22Z</time>
      </trkpt>
      <trkpt lat="44.07691" lon="3.06534">
        <ele>623</ele>
        <time>2010-01-01T00:38:23Z</time>
      </trkpt>
      <trkpt lat="44.07693" lon="3.06532">
        <ele>624</ele>
        <time>2010-01-01T00:38:24Z</time>
      </trkpt>
      <trkpt lat="44.07696" lon="3.06531">
        <ele>624</ele>
        <time>2010-01-01T00:38:25Z</time>
      </trkpt>
      <trkpt lat="44.07698" lon="3.06529">
        <ele>624</ele>
        <time>2010-01-01T00:38:26Z</time>
      </trkpt>
      <trkpt lat="44.077" lon="3.06528">
        <ele>624</ele>
        <time>2010-01-01T00:38:27Z</time>
      </trkpt>
      <trkpt lat="44.07702" lon="3.06527">
        <ele>624</ele>
        <time>2010-01-01T00:38:28Z</time>
      </trkpt>
      <trkpt lat="44.07705" lon="3.06526">
        <ele>624</ele>
        <time>2010-01-01T00:38:29Z</time>
      </trkpt>
      <trkpt lat="44.07708" lon="3.06525">
        <ele>625</ele>
        <time>2010-01-01T00:38:30Z</time>
      </trkpt>
      <trkpt lat="44.0771" lon="3.06525">
        <ele>625</ele>
        <time>2010-01-01T00:38:31Z</time>
      </trkpt>
      <trkpt lat="44.07713" lon="3.06524">
        <ele>625</ele>
        <time>2010-01-01T00:38:32Z</time>
      </trkpt>
      <trkpt lat="44.07715" lon="3.06523">
        <ele>626</ele>
        <time>2010-01-01T00:38:33Z</time>
      </trkpt>
      <trkpt lat="44.07718" lon="3.06523">
        <ele>626</ele>
        <time>2010-01-01T00:38:34Z</time>
      </trkpt>
      <trkpt lat="44.07721" lon="3.06523">
        <ele>627</ele>
        <time>2010-01-01T00:38:35Z</time>
      </trkpt>
      <trkpt lat="44.07723" lon="3.06523">
        <ele>628</ele>
        <time>2010-01-01T00:38:36Z</time>
      </trkpt>
      <trkpt lat="44.07725" lon="3.06522">
        <ele>627</ele>
        <time>2010-01-01T00:38:37Z</time>
      </trkpt>
      <trkpt lat="44.07727" lon="3.0652">
        <ele>627</ele>
        <time>2010-01-01T00:38:38Z</time>
      </trkpt>
      <trkpt lat="44.0773" lon="3.06519">
        <ele>627</ele>
        <time>2010-01-01T00:38:39Z</time>
      </trkpt>
      <trkpt lat="44.07733" lon="3.06519">
        <ele>627</ele>
        <time>2010-01-01T00:38:40Z</time>
      </trkpt>
      <trkpt lat="44.07735" lon="3.06519">
        <ele>627</ele>
        <time>2010-01-01T00:38:41Z</time>
      </trkpt>
      <trkpt lat="44.07737" lon="3.06518">
        <ele>627</ele>
        <time>2010-01-01T00:38:42Z</time>
      </trkpt>
      <trkpt lat="44.07739" lon="3.06518">
        <ele>627</ele>
        <time>2010-01-01T00:38:43Z</time>
      </trkpt>
      <trkpt lat="44.07742" lon="3.06517">
        <ele>628</ele>
        <time>2010-01-01T00:38:44Z</time>
      </trkpt>
      <trkpt lat="44.07744" lon="3.06517">
        <ele>628</ele>
        <time>2010-01-01T00:38:45Z</time>
      </trkpt>
      <trkpt lat="44.07747" lon="3.06516">
        <ele>628</ele>
        <time>2010-01-01T00:38:46Z</time>
      </trkpt>
      <trkpt lat="44.0775" lon="3.06516">
        <ele>628</ele>
        <time>2010-01-01T00:38:47Z</time>
      </trkpt>
      <trkpt lat="44.07752" lon="3.06516">
        <ele>628</ele>
        <time>2010-01-01T00:38:48Z</time>
      </trkpt>
      <trkpt lat="44.07755" lon="3.06515">
        <ele>628</ele>
        <time>2010-01-01T00:38:49Z</time>
      </trkpt>
      <trkpt lat="44.07757" lon="3.06516">
        <ele>629</ele>
        <time>2010-01-01T00:38:50Z</time>
      </trkpt>
      <trkpt lat="44.07758" lon="3.06518">
        <ele>630</ele>
        <time>2010-01-01T00:38:51Z</time>
      </trkpt>
      <trkpt lat="44.07757" lon="3.0652">
        <ele>630</ele>
        <time>2010-01-01T00:38:52Z</time>
      </trkpt>
      <trkpt lat="44.07756" lon="3.06523">
        <ele>631</ele>
        <time>2010-01-01T00:38:53Z</time>
      </trkpt>
      <trkpt lat="44.07754" lon="3.06525">
        <ele>631</ele>
        <time>2010-01-01T00:38:54Z</time>
      </trkpt>
      <trkpt lat="44.07751" lon="3.06526">
        <ele>631</ele>
        <time>2010-01-01T00:38:55Z</time>
      </trkpt>
      <trkpt lat="44.07749" lon="3.06529">
        <ele>632</ele>
        <time>2010-01-01T00:38:56Z</time>
      </trkpt>
      <trkpt lat="44.07747" lon="3.06532">
        <ele>633</ele>
        <time>2010-01-01T00:38:57Z</time>
      </trkpt>
      <trkpt lat="44.07745" lon="3.06535">
        <ele>634</ele>
        <time>2010-01-01T00:38:58Z</time>
      </trkpt>
      <trkpt lat="44.07744" lon="3.06537">
        <ele>634</ele>
        <time>2010-01-01T00:38:59Z</time>
      </trkpt>
      <trkpt lat="44.07742" lon="3.0654">
        <ele>635</ele>
        <time>2010-01-01T00:39:00Z</time>
      </trkpt>
      <trkpt lat="44.0774" lon="3.06544">
        <ele>636</ele>
        <time>2010-01-01T00:39:01Z</time>
      </trkpt>
      <trkpt lat="44.07739" lon="3.06547">
        <ele>637</ele>
        <time>2010-01-01T00:39:02Z</time>
      </trkpt>
      <trkpt lat="44.07737" lon="3.0655">
        <ele>638</ele>
        <time>2010-01-01T00:39:03Z</time>
      </trkpt>
      <trkpt lat="44.07736" lon="3.06552">
        <ele>638</ele>
        <time>2010-01-01T00:39:04Z</time>
      </trkpt>
      <trkpt lat="44.07734" lon="3.06555">
        <ele>639</ele>
        <time>2010-01-01T00:39:05Z</time>
      </trkpt>
      <trkpt lat="44.07732" lon="3.06558">
        <ele>639</ele>
        <time>2010-01-01T00:39:06Z</time>
      </trkpt>
      <trkpt lat="44.07731" lon="3.0656">
        <ele>640</ele>
        <time>2010-01-01T00:39:07Z</time>
      </trkpt>
      <trkpt lat="44.07729" lon="3.06563">
        <ele>640</ele>
        <time>2010-01-01T00:39:08Z</time>
      </trkpt>
      <trkpt lat="44.07728" lon="3.06566">
        <ele>641</ele>
        <time>2010-01-01T00:39:10Z</time>
      </trkpt>
      <trkpt lat="44.07726" lon="3.06569">
        <ele>642</ele>
        <time>2010-01-01T00:39:11Z</time>
      </trkpt>
      <trkpt lat="44.07724" lon="3.06572">
        <ele>642</ele>
        <time>2010-01-01T00:39:12Z</time>
      </trkpt>
      <trkpt lat="44.07722" lon="3.06575">
        <ele>642</ele>
        <time>2010-01-01T00:39:13Z</time>
      </trkpt>
      <trkpt lat="44.07721" lon="3.06578">
        <ele>643</ele>
        <time>2010-01-01T00:39:14Z</time>
      </trkpt>
      <trkpt lat="44.07719" lon="3.06581">
        <ele>644</ele>
        <time>2010-01-01T00:39:15Z</time>
      </trkpt>
      <trkpt lat="44.07718" lon="3.06584">
        <ele>644</ele>
        <time>2010-01-01T00:39:16Z</time>
      </trkpt>
      <trkpt lat="44.07717" lon="3.06587">
        <ele>645</ele>
        <time>2010-01-01T00:39:17Z</time>
      </trkpt>
      <trkpt lat="44.07715" lon="3.0659">
        <ele>645</ele>
        <time>2010-01-01T00:39:18Z</time>
      </trkpt>
      <trkpt lat="44.07713" lon="3.06592">
        <ele>646</ele>
        <time>2010-01-01T00:39:19Z</time>
      </trkpt>
      <trkpt lat="44.07711" lon="3.06594">
        <ele>646</ele>
        <time>2010-01-01T00:39:20Z</time>
      </trkpt>
      <trkpt lat="44.07709" lon="3.06596">
        <ele>646</ele>
        <time>2010-01-01T00:39:21Z</time>
      </trkpt>
      <trkpt lat="44.07708" lon="3.06599">
        <ele>647</ele>
        <time>2010-01-01T00:39:22Z</time>
      </trkpt>
      <trkpt lat="44.07707" lon="3.06602">
        <ele>647</ele>
        <time>2010-01-01T00:39:23Z</time>
      </trkpt>
      <trkpt lat="44.07705" lon="3.06604">
        <ele>648</ele>
        <time>2010-01-01T00:39:24Z</time>
      </trkpt>
      <trkpt lat="44.07703" lon="3.06607">
        <ele>649</ele>
        <time>2010-01-01T00:39:25Z</time>
      </trkpt>
      <trkpt lat="44.07702" lon="3.06611">
        <ele>649</ele>
        <time>2010-01-01T00:39:26Z</time>
      </trkpt>
      <trkpt lat="44.077" lon="3.06613">
        <ele>650</ele>
        <time>2010-01-01T00:39:27Z</time>
      </trkpt>
      <trkpt lat="44.07698" lon="3.06615">
        <ele>651</ele>
        <time>2010-01-01T00:39:28Z</time>
      </trkpt>
      <trkpt lat="44.07695" lon="3.06618">
        <ele>651</ele>
        <time>2010-01-01T00:39:30Z</time>
      </trkpt>
      <trkpt lat="44.07694" lon="3.06621">
        <ele>652</ele>
        <time>2010-01-01T00:39:31Z</time>
      </trkpt>
      <trkpt lat="44.07692" lon="3.06624">
        <ele>653</ele>
        <time>2010-01-01T00:39:32Z</time>
      </trkpt>
      <trkpt lat="44.0769" lon="3.06627">
        <ele>653</ele>
        <time>2010-01-01T00:39:33Z</time>
      </trkpt>
      <trkpt lat="44.07688" lon="3.0663">
        <ele>654</ele>
        <time>2010-01-01T00:39:34Z</time>
      </trkpt>
      <trkpt lat="44.07687" lon="3.06633">
        <ele>654</ele>
        <time>2010-01-01T00:39:35Z</time>
      </trkpt>
      <trkpt lat="44.07685" lon="3.06635">
        <ele>655</ele>
        <time>2010-01-01T00:39:36Z</time>
      </trkpt>
      <trkpt lat="44.07683" lon="3.06637">
        <ele>655</ele>
        <time>2010-01-01T00:39:37Z</time>
      </trkpt>
      <trkpt lat="44.07681" lon="3.0664">
        <ele>656</ele>
        <time>2010-01-01T00:39:38Z</time>
      </trkpt>
      <trkpt lat="44.07679" lon="3.06643">
        <ele>656</ele>
        <time>2010-01-01T00:39:39Z</time>
      </trkpt>
      <trkpt lat="44.07677" lon="3.06645">
        <ele>656</ele>
        <time>2010-01-01T00:39:40Z</time>
      </trkpt>
      <trkpt lat="44.07676" lon="3.06648">
        <ele>656</ele>
        <time>2010-01-01T00:39:41Z</time>
      </trkpt>
      <trkpt lat="44.07674" lon="3.0665">
        <ele>657</ele>
        <time>2010-01-01T00:39:42Z</time>
      </trkpt>
      <trkpt lat="44.07672" lon="3.06653">
        <ele>657</ele>
        <time>2010-01-01T00:39:43Z</time>
      </trkpt>
      <trkpt lat="44.0767" lon="3.06655">
        <ele>657</ele>
        <time>2010-01-01T00:39:44Z</time>
      </trkpt>
      <trkpt lat="44.07668" lon="3.06657">
        <ele>657</ele>
        <time>2010-01-01T00:39:45Z</time>
      </trkpt>
      <trkpt lat="44.07667" lon="3.0666">
        <ele>658</ele>
        <time>2010-01-01T00:39:46Z</time>
      </trkpt>
      <trkpt lat="44.07666" lon="3.06662">
        <ele>658</ele>
        <time>2010-01-01T00:39:47Z</time>
      </trkpt>
      <trkpt lat="44.07664" lon="3.06664">
        <ele>658</ele>
        <time>2010-01-01T00:39:48Z</time>
      </trkpt>
      <trkpt lat="44.07662" lon="3.06666">
        <ele>658</ele>
        <time>2010-01-01T00:39:49Z</time>
      </trkpt>
      <trkpt lat="44.0766" lon="3.06668">
        <ele>658</ele>
        <time>2010-01-01T00:39:50Z</time>
      </trkpt>
      <trkpt lat="44.07658" lon="3.0667">
        <ele>659</ele>
        <time>2010-01-01T00:39:51Z</time>
      </trkpt>
      <trkpt lat="44.07656" lon="3.06671">
        <ele>659</ele>
        <time>2010-01-01T00:39:52Z</time>
      </trkpt>
      <trkpt lat="44.07653" lon="3.06673">
        <ele>659</ele>
        <time>2010-01-01T00:39:53Z</time>
      </trkpt>
      <trkpt lat="44.07651" lon="3.06675">
        <ele>659</ele>
        <time>2010-01-01T00:39:54Z</time>
      </trkpt>
      <trkpt lat="44.07649" lon="3.06677">
        <ele>659</ele>
        <time>2010-01-01T00:39:55Z</time>
      </trkpt>
      <trkpt lat="44.07646" lon="3.06679">
        <ele>659</ele>
        <time>2010-01-01T00:39:56Z</time>
      </trkpt>
      <trkpt lat="44.07644" lon="3.06681">
        <ele>659</ele>
        <time>2010-01-01T00:39:57Z</time>
      </trkpt>
      <trkpt lat="44.07641" lon="3.06683">
        <ele>659</ele>
        <time>2010-01-01T00:39:59Z</time>
      </trkpt>
      <trkpt lat="44.07637" lon="3.06686">
        <ele>660</ele>
        <time>2010-01-01T00:40:00Z</time>
      </trkpt>
      <trkpt lat="44.07634" lon="3.0669">
        <ele>662</ele>
        <time>2010-01-01T00:40:02Z</time>
      </trkpt>
      <trkpt lat="44.07633" lon="3.06694">
        <ele>664</ele>
        <time>2010-01-01T00:40:03Z</time>
      </trkpt>
      <trkpt lat="44.07631" lon="3.06696">
        <ele>665</ele>
        <time>2010-01-01T00:40:04Z</time>
      </trkpt>
      <trkpt lat="44.07627" lon="3.06696">
        <ele>665</ele>
        <time>2010-01-01T00:40:06Z</time>
      </trkpt>
      <trkpt lat="44.07624" lon="3.06696">
        <ele>665</ele>
        <time>2010-01-01T00:40:07Z</time>
      </trkpt>
      <trkpt lat="44.0762" lon="3.06695">
        <ele>665</ele>
        <time>2010-01-01T00:40:09Z</time>
      </trkpt>
      <trkpt lat="44.07617" lon="3.06694">
        <ele>665</ele>
        <time>2010-01-01T00:40:10Z</time>
      </trkpt>
      <trkpt lat="44.07614" lon="3.06694">
        <ele>665</ele>
        <time>2010-01-01T00:40:11Z</time>
      </trkpt>
      <trkpt lat="44.07611" lon="3.06695">
        <ele>666</ele>
        <time>2010-01-01T00:40:12Z</time>
      </trkpt>
      <trkpt lat="44.07608" lon="3.06695">
        <ele>666</ele>
        <time>2010-01-01T00:40:13Z</time>
      </trkpt>
      <trkpt lat="44.07605" lon="3.06695">
        <ele>665</ele>
        <time>2010-01-01T00:40:14Z</time>
      </trkpt>
      <trkpt lat="44.07603" lon="3.06696">
        <ele>665</ele>
        <time>2010-01-01T00:40:15Z</time>
      </trkpt>
      <trkpt lat="44.076" lon="3.06695">
        <ele>665</ele>
        <time>2010-01-01T00:40:17Z</time>
      </trkpt>
      <trkpt lat="44.07597" lon="3.06695">
        <ele>664</ele>
        <time>2010-01-01T00:40:18Z</time>
      </trkpt>
      <trkpt lat="44.07594" lon="3.06695">
        <ele>664</ele>
        <time>2010-01-01T00:40:19Z</time>
      </trkpt>
      <trkpt lat="44.07593" lon="3.06696">
        <ele>664</ele>
        <time>2010-01-01T00:40:20Z</time>
      </trkpt>
      <trkpt lat="44.07592" lon="3.06697">
        <ele>665</ele>
        <time>2010-01-01T00:40:20Z</time>
      </trkpt>
      <trkpt lat="44.07589" lon="3.06697">
        <ele>664</ele>
        <time>2010-01-01T00:40:21Z</time>
      </trkpt>
      <trkpt lat="44.07587" lon="3.06697">
        <ele>664</ele>
        <time>2010-01-01T00:40:22Z</time>
      </trkpt>
      <trkpt lat="44.07584" lon="3.06697">
        <ele>664</ele>
        <time>2010-01-01T00:40:23Z</time>
      </trkpt>
      <trkpt lat="44.07581" lon="3.06697">
        <ele>664</ele>
        <time>2010-01-01T00:40:24Z</time>
      </trkpt>
      <trkpt lat="44.07578" lon="3.06697">
        <ele>663</ele>
        <time>2010-01-01T00:40:26Z</time>
      </trkpt>
      <trkpt lat="44.07575" lon="3.06697">
        <ele>663</ele>
        <time>2010-01-01T00:40:27Z</time>
      </trkpt>
      <trkpt lat="44.07572" lon="3.06698">
        <ele>663</ele>
        <time>2010-01-01T00:40:28Z</time>
      </trkpt>
      <trkpt lat="44.07569" lon="3.06698">
        <ele>662</ele>
        <time>2010-01-01T00:40:29Z</time>
      </trkpt>
      <trkpt lat="44.07567" lon="3.06697">
        <ele>661</ele>
        <time>2010-01-01T00:40:30Z</time>
      </trkpt>
      <trkpt lat="44.07563" lon="3.06697">
        <ele>661</ele>
        <time>2010-01-01T00:40:31Z</time>
      </trkpt>
      <trkpt lat="44.07561" lon="3.06697">
        <ele>661</ele>
        <time>2010-01-01T00:40:33Z</time>
      </trkpt>
      <trkpt lat="44.07558" lon="3.06698">
        <ele>660</ele>
        <time>2010-01-01T00:40:34Z</time>
      </trkpt>
      <trkpt lat="44.07554" lon="3.06698">
        <ele>660</ele>
        <time>2010-01-01T00:40:35Z</time>
      </trkpt>
      <trkpt lat="44.07551" lon="3.06698">
        <ele>660</ele>
        <time>2010-01-01T00:40:36Z</time>
      </trkpt>
      <trkpt lat="44.07548" lon="3.06699">
        <ele>660</ele>
        <time>2010-01-01T00:40:38Z</time>
      </trkpt>
      <trkpt lat="44.07546" lon="3.067">
        <ele>660</ele>
        <time>2010-01-01T00:40:39Z</time>
      </trkpt>
      <trkpt lat="44.07543" lon="3.06701">
        <ele>660</ele>
        <time>2010-01-01T00:40:40Z</time>
      </trkpt>
      <trkpt lat="44.0754" lon="3.06702">
        <ele>661</ele>
        <time>2010-01-01T00:40:41Z</time>
      </trkpt>
      <trkpt lat="44.07537" lon="3.06703">
        <ele>661</ele>
        <time>2010-01-01T00:40:42Z</time>
      </trkpt>
      <trkpt lat="44.07534" lon="3.06703">
        <ele>661</ele>
        <time>2010-01-01T00:40:43Z</time>
      </trkpt>
      <trkpt lat="44.07531" lon="3.06704">
        <ele>661</ele>
        <time>2010-01-01T00:40:45Z</time>
      </trkpt>
      <trkpt lat="44.07527" lon="3.06705">
        <ele>662</ele>
        <time>2010-01-01T00:40:46Z</time>
      </trkpt>
      <trkpt lat="44.07525" lon="3.06706">
        <ele>663</ele>
        <time>2010-01-01T00:40:47Z</time>
      </trkpt>
      <trkpt lat="44.07522" lon="3.06707">
        <ele>663</ele>
        <time>2010-01-01T00:40:48Z</time>
      </trkpt>
      <trkpt lat="44.07519" lon="3.06708">
        <ele>664</ele>
        <time>2010-01-01T00:40:50Z</time>
      </trkpt>
      <trkpt lat="44.07515" lon="3.06709">
        <ele>664</ele>
        <time>2010-01-01T00:40:51Z</time>
      </trkpt>
      <trkpt lat="44.07513" lon="3.06711">
        <ele>665</ele>
        <time>2010-01-01T00:40:52Z</time>
      </trkpt>
      <trkpt lat="44.0751" lon="3.06712">
        <ele>665</ele>
        <time>2010-01-01T00:40:53Z</time>
      </trkpt>
      <trkpt lat="44.07506" lon="3.06713">
        <ele>666</ele>
        <time>2010-01-01T00:40:55Z</time>
      </trkpt>
      <trkpt lat="44.07503" lon="3.06713">
        <ele>666</ele>
        <time>2010-01-01T00:40:56Z</time>
      </trkpt>
      <trkpt lat="44.075" lon="3.06714">
        <ele>666</ele>
        <time>2010-01-01T00:40:57Z</time>
      </trkpt>
      <trkpt lat="44.07497" lon="3.06715">
        <ele>667</ele>
        <time>2010-01-01T00:40:59Z</time>
      </trkpt>
      <trkpt lat="44.07494" lon="3.06716">
        <ele>667</ele>
        <time>2010-01-01T00:41:00Z</time>
      </trkpt>
      <trkpt lat="44.0749" lon="3.06717">
        <ele>667</ele>
        <time>2010-01-01T00:41:01Z</time>
      </trkpt>
      <trkpt lat="44.07487" lon="3.06717">
        <ele>667</ele>
        <time>2010-01-01T00:41:03Z</time>
      </trkpt>
      <trkpt lat="44.07484" lon="3.06718">
        <ele>667</ele>
        <time>2010-01-01T00:41:04Z</time>
      </trkpt>
      <trkpt lat="44.0748" lon="3.0672">
        <ele>668</ele>
        <time>2010-01-01T00:41:06Z</time>
      </trkpt>
      <trkpt lat="44.07477" lon="3.06722">
        <ele>669</ele>
        <time>2010-01-01T00:41:07Z</time>
      </trkpt>
      <trkpt lat="44.07474" lon="3.06723">
        <ele>669</ele>
        <time>2010-01-01T00:41:08Z</time>
      </trkpt>
      <trkpt lat="44.07471" lon="3.06725">
        <ele>670</ele>
        <time>2010-01-01T00:41:10Z</time>
      </trkpt>
      <trkpt lat="44.07469" lon="3.06727">
        <ele>671</ele>
        <time>2010-01-01T00:41:11Z</time>
      </trkpt>
      <trkpt lat="44.07467" lon="3.0673">
        <ele>672</ele>
        <time>2010-01-01T00:41:12Z</time>
      </trkpt>
      <trkpt lat="44.07464" lon="3.06732">
        <ele>673</ele>
        <time>2010-01-01T00:41:13Z</time>
      </trkpt>
      <trkpt lat="44.07461" lon="3.06734">
        <ele>674</ele>
        <time>2010-01-01T00:41:14Z</time>
      </trkpt>
      <trkpt lat="44.07459" lon="3.06735">
        <ele>675</ele>
        <time>2010-01-01T00:41:15Z</time>
      </trkpt>
      <trkpt lat="44.07458" lon="3.06735">
        <ele>675</ele>
        <time>2010-01-01T00:41:16Z</time>
      </trkpt>
      <trkpt lat="44.07456" lon="3.06737">
        <ele>676</ele>
        <time>2010-01-01T00:41:17Z</time>
      </trkpt>
      <trkpt lat="44.07453" lon="3.06738">
        <ele>676</ele>
        <time>2010-01-01T00:41:18Z</time>
      </trkpt>
      <trkpt lat="44.07451" lon="3.06741">
        <ele>677</ele>
        <time>2010-01-01T00:41:19Z</time>
      </trkpt>
      <trkpt lat="44.07449" lon="3.06742">
        <ele>678</ele>
        <time>2010-01-01T00:41:20Z</time>
      </trkpt>
      <trkpt lat="44.07448" lon="3.06744">
        <ele>678</ele>
        <time>2010-01-01T00:41:21Z</time>
      </trkpt>
      <trkpt lat="44.07447" lon="3.06745">
        <ele>678</ele>
        <time>2010-01-01T00:41:21Z</time>
      </trkpt>
      <trkpt lat="44.07446" lon="3.06746">
        <ele>678</ele>
        <time>2010-01-01T00:41:21Z</time>
      </trkpt>
      <trkpt lat="44.07445" lon="3.06747">
        <ele>679</ele>
        <time>2010-01-01T00:41:22Z</time>
      </trkpt>
      <trkpt lat="44.07444" lon="3.0675">
        <ele>679</ele>
        <time>2010-01-01T00:41:23Z</time>
      </trkpt>
      <trkpt lat="44.07444" lon="3.06751">
        <ele>680</ele>
        <time>2010-01-01T00:41:23Z</time>
      </trkpt>
      <trkpt lat="44.07443" lon="3.06754">
        <ele>680</ele>
        <time>2010-01-01T00:41:24Z</time>
      </trkpt>
      <trkpt lat="44.07443" lon="3.06756">
        <ele>681</ele>
        <time>2010-01-01T00:41:25Z</time>
      </trkpt>
      <trkpt lat="44.07442" lon="3.06759">
        <ele>681</ele>
        <time>2010-01-01T00:41:26Z</time>
      </trkpt>
      <trkpt lat="44.07442" lon="3.06761">
        <ele>682</ele>
        <time>2010-01-01T00:41:26Z</time>
      </trkpt>
      <trkpt lat="44.07442" lon="3.06764">
        <ele>682</ele>
        <time>2010-01-01T00:41:27Z</time>
      </trkpt>
      <trkpt lat="44.07442" lon="3.06766">
        <ele>682</ele>
        <time>2010-01-01T00:41:27Z</time>
      </trkpt>
      <trkpt lat="44.07442" lon="3.06768">
        <ele>683</ele>
        <time>2010-01-01T00:41:28Z</time>
      </trkpt>
      <trkpt lat="44.07442" lon="3.06771">
        <ele>683</ele>
        <time>2010-01-01T00:41:29Z</time>
      </trkpt>
      <trkpt lat="44.07443" lon="3.06773">
        <ele>683</ele>
        <time>2010-01-01T00:41:30Z</time>
      </trkpt>
      <trkpt lat="44.07443" lon="3.06775">
        <ele>683</ele>
        <time>2010-01-01T00:41:30Z</time>
      </trkpt>
      <trkpt lat="44.07444" lon="3.06777">
        <ele>683</ele>
        <time>2010-01-01T00:41:31Z</time>
      </trkpt>
      <trkpt lat="44.07445" lon="3.06779">
        <ele>684</ele>
        <time>2010-01-01T00:41:32Z</time>
      </trkpt>
      <trkpt lat="44.07445" lon="3.06781">
        <ele>684</ele>
        <time>2010-01-01T00:41:32Z</time>
      </trkpt>
      <trkpt lat="44.07447" lon="3.06783">
        <ele>685</ele>
        <time>2010-01-01T00:41:33Z</time>
      </trkpt>
      <trkpt lat="44.07447" lon="3.06785">
        <ele>685</ele>
        <time>2010-01-01T00:41:34Z</time>
      </trkpt>
      <trkpt lat="44.07449" lon="3.06787">
        <ele>685</ele>
        <time>2010-01-01T00:41:34Z</time>
      </trkpt>
      <trkpt lat="44.0745" lon="3.06789">
        <ele>686</ele>
        <time>2010-01-01T00:41:35Z</time>
      </trkpt>
      <trkpt lat="44.0745" lon="3.06791">
        <ele>686</ele>
        <time>2010-01-01T00:41:36Z</time>
      </trkpt>
      <trkpt lat="44.07451" lon="3.06791">
        <ele>686</ele>
        <time>2010-01-01T00:41:36Z</time>
      </trkpt>
      <trkpt lat="44.07451" lon="3.06791">
        <ele>686</ele>
        <time>2010-01-01T00:41:36Z</time>
      </trkpt>
      <trkpt lat="44.07455" lon="3.06798">
        <ele>688</ele>
        <time>2010-01-01T00:41:38Z</time>
      </trkpt>
      <trkpt lat="44.07457" lon="3.06801">
        <ele>688</ele>
        <time>2010-01-01T00:41:39Z</time>
      </trkpt>
      <trkpt lat="44.07459" lon="3.06803">
        <ele>689</ele>
        <time>2010-01-01T00:41:41Z</time>
      </trkpt>
      <trkpt lat="44.07461" lon="3.06806">
        <ele>689</ele>
        <time>2010-01-01T00:41:42Z</time>
      </trkpt>
      <trkpt lat="44.07463" lon="3.06808">
        <ele>690</ele>
        <time>2010-01-01T00:41:43Z</time>
      </trkpt>
      <trkpt lat="44.07465" lon="3.06811">
        <ele>691</ele>
        <time>2010-01-01T00:41:44Z</time>
      </trkpt>
      <trkpt lat="44.07468" lon="3.06813">
        <ele>691</ele>
        <time>2010-01-01T00:41:45Z</time>
      </trkpt>
      <trkpt lat="44.0747" lon="3.06816">
        <ele>692</ele>
        <time>2010-01-01T00:41:46Z</time>
      </trkpt>
      <trkpt lat="44.07472" lon="3.06819">
        <ele>692</ele>
        <time>2010-01-01T00:41:48Z</time>
      </trkpt>
      <trkpt lat="44.07474" lon="3.06823">
        <ele>693</ele>
        <time>2010-01-01T00:41:49Z</time>
      </trkpt>
      <trkpt lat="44.07475" lon="3.06827">
        <ele>694</ele>
        <time>2010-01-01T00:41:50Z</time>
      </trkpt>
      <trkpt lat="44.07477" lon="3.06829">
        <ele>695</ele>
        <time>2010-01-01T00:41:51Z</time>
      </trkpt>
      <trkpt lat="44.07478" lon="3.0683">
        <ele>695</ele>
        <time>2010-01-01T00:41:52Z</time>
      </trkpt>
      <trkpt lat="44.07479" lon="3.06832">
        <ele>696</ele>
        <time>2010-01-01T00:41:52Z</time>
      </trkpt>
      <trkpt lat="44.0748" lon="3.06835">
        <ele>696</ele>
        <time>2010-01-01T00:41:53Z</time>
      </trkpt>
      <trkpt lat="44.0748" lon="3.06839">
        <ele>697</ele>
        <time>2010-01-01T00:41:54Z</time>
      </trkpt>
      <trkpt lat="44.0748" lon="3.06843">
        <ele>698</ele>
        <time>2010-01-01T00:41:55Z</time>
      </trkpt>
      <trkpt lat="44.0748" lon="3.06845">
        <ele>698</ele>
        <time>2010-01-01T00:41:56Z</time>
      </trkpt>
      <trkpt lat="44.0748" lon="3.06848">
        <ele>699</ele>
        <time>2010-01-01T00:41:57Z</time>
      </trkpt>
      <trkpt lat="44.07481" lon="3.06852">
        <ele>699</ele>
        <time>2010-01-01T00:41:58Z</time>
      </trkpt>
      <trkpt lat="44.07482" lon="3.06855">
        <ele>700</ele>
        <time>2010-01-01T00:41:59Z</time>
      </trkpt>
      <trkpt lat="44.07482" lon="3.06855">
        <ele>700</ele>
        <time>2010-01-01T00:41:59Z</time>
      </trkpt>
      <trkpt lat="44.07482" lon="3.06855">
        <ele>700</ele>
        <time>2010-01-01T00:41:59Z</time>
      </trkpt>
      <trkpt lat="44.07483" lon="3.06861">
        <ele>701</ele>
        <time>2010-01-01T00:42:01Z</time>
      </trkpt>
      <trkpt lat="44.07482" lon="3.06864">
        <ele>701</ele>
        <time>2010-01-01T00:42:02Z</time>
      </trkpt>
      <trkpt lat="44.07481" lon="3.06867">
        <ele>702</ele>
        <time>2010-01-01T00:42:03Z</time>
      </trkpt>
      <trkpt lat="44.07481" lon="3.0687">
        <ele>702</ele>
        <time>2010-01-01T00:42:04Z</time>
      </trkpt>
      <trkpt lat="44.07481" lon="3.06874">
        <ele>702</ele>
        <time>2010-01-01T00:42:05Z</time>
      </trkpt>
      <trkpt lat="44.07481" lon="3.06877">
        <ele>703</ele>
        <time>2010-01-01T00:42:06Z</time>
      </trkpt>
      <trkpt lat="44.07481" lon="3.0688">
        <ele>703</ele>
        <time>2010-01-01T00:42:06Z</time>
      </trkpt>
      <trkpt lat="44.0748" lon="3.06882">
        <ele>703</ele>
        <time>2010-01-01T00:42:07Z</time>
      </trkpt>
      <trkpt lat="44.07479" lon="3.06885">
        <ele>703</ele>
        <time>2010-01-01T00:42:08Z</time>
      </trkpt>
      <trkpt lat="44.07478" lon="3.06888">
        <ele>704</ele>
        <time>2010-01-01T00:42:09Z</time>
      </trkpt>
      <trkpt lat="44.07476" lon="3.0689">
        <ele>704</ele>
        <time>2010-01-01T00:42:10Z</time>
      </trkpt>
      <trkpt lat="44.07475" lon="3.06892">
        <ele>704</ele>
        <time>2010-01-01T00:42:11Z</time>
      </trkpt>
      <trkpt lat="44.07473" lon="3.06894">
        <ele>704</ele>
        <time>2010-01-01T00:42:12Z</time>
      </trkpt>
      <trkpt lat="44.07472" lon="3.06897">
        <ele>704</ele>
        <time>2010-01-01T00:42:13Z</time>
      </trkpt>
      <trkpt lat="44.07472" lon="3.069">
        <ele>705</ele>
        <time>2010-01-01T00:42:13Z</time>
      </trkpt>
      <trkpt lat="44.07473" lon="3.06901">
        <ele>705</ele>
        <time>2010-01-01T00:42:14Z</time>
      </trkpt>
      <trkpt lat="44.07475" lon="3.069">
        <ele>705</ele>
        <time>2010-01-01T00:42:15Z</time>
      </trkpt>
      <trkpt lat="44.07476" lon="3.06899">
        <ele>705</ele>
        <time>2010-01-01T00:42:15Z</time>
      </trkpt>
      <trkpt lat="44.07478" lon="3.06897">
        <ele>705</ele>
        <time>2010-01-01T00:42:16Z</time>
      </trkpt>
      <trkpt lat="44.0748" lon="3.06896">
        <ele>705</ele>
        <time>2010-01-01T00:42:17Z</time>
      </trkpt>
      <trkpt lat="44.07483" lon="3.06895">
        <ele>705</ele>
        <time>2010-01-01T00:42:18Z</time>
      </trkpt>
      <trkpt lat="44.07484" lon="3.06893">
        <ele>705</ele>
        <time>2010-01-01T00:42:19Z</time>
      </trkpt>
      <trkpt lat="44.07486" lon="3.06893">
        <ele>705</ele>
        <time>2010-01-01T00:42:20Z</time>
      </trkpt>
      <trkpt lat="44.07487" lon="3.06891">
        <ele>705</ele>
        <time>2010-01-01T00:42:20Z</time>
      </trkpt>
      <trkpt lat="44.07489" lon="3.0689">
        <ele>705</ele>
        <time>2010-01-01T00:42:21Z</time>
      </trkpt>
      <trkpt lat="44.07491" lon="3.06888">
        <ele>705</ele>
        <time>2010-01-01T00:42:22Z</time>
      </trkpt>
      <trkpt lat="44.07492" lon="3.06885">
        <ele>705</ele>
        <time>2010-01-01T00:42:23Z</time>
      </trkpt>
      <trkpt lat="44.07494" lon="3.06882">
        <ele>704</ele>
        <time>2010-01-01T00:42:24Z</time>
      </trkpt>
      <trkpt lat="44.07495" lon="3.06879">
        <ele>704</ele>
        <time>2010-01-01T00:42:25Z</time>
      </trkpt>
      <trkpt lat="44.07496" lon="3.06876">
        <ele>704</ele>
        <time>2010-01-01T00:42:26Z</time>
      </trkpt>
      <trkpt lat="44.07498" lon="3.06873">
        <ele>704</ele>
        <time>2010-01-01T00:42:27Z</time>
      </trkpt>
      <trkpt lat="44.07499" lon="3.0687">
        <ele>704</ele>
        <time>2010-01-01T00:42:28Z</time>
      </trkpt>
      <trkpt lat="44.075" lon="3.06868">
        <ele>704</ele>
        <time>2010-01-01T00:42:29Z</time>
      </trkpt>
      <trkpt lat="44.07501" lon="3.06866">
        <ele>704</ele>
        <time>2010-01-01T00:42:30Z</time>
      </trkpt>
      <trkpt lat="44.07503" lon="3.06864">
        <ele>704</ele>
        <time>2010-01-01T00:42:31Z</time>
      </trkpt>
      <trkpt lat="44.07503" lon="3.06861">
        <ele>704</ele>
        <time>2010-01-01T00:42:31Z</time>
      </trkpt>
      <trkpt lat="44.07503" lon="3.06858">
        <ele>704</ele>
        <time>2010-01-01T00:42:32Z</time>
      </trkpt>
      <trkpt lat="44.07504" lon="3.06855">
        <ele>704</ele>
        <time>2010-01-01T00:42:33Z</time>
      </trkpt>
      <trkpt lat="44.07504" lon="3.06852">
        <ele>703</ele>
        <time>2010-01-01T00:42:34Z</time>
      </trkpt>
      <trkpt lat="44.07505" lon="3.06849">
        <ele>703</ele>
        <time>2010-01-01T00:42:35Z</time>
      </trkpt>
      <trkpt lat="44.07505" lon="3.06846">
        <ele>703</ele>
        <time>2010-01-01T00:42:36Z</time>
      </trkpt>
      <trkpt lat="44.07506" lon="3.06843">
        <ele>703</ele>
        <time>2010-01-01T00:42:37Z</time>
      </trkpt>
      <trkpt lat="44.07507" lon="3.0684">
        <ele>703</ele>
        <time>2010-01-01T00:42:38Z</time>
      </trkpt>
      <trkpt lat="44.07508" lon="3.06837">
        <ele>703</ele>
        <time>2010-01-01T00:42:39Z</time>
      </trkpt>
      <trkpt lat="44.07509" lon="3.06835">
        <ele>703</ele>
        <time>2010-01-01T00:42:39Z</time>
      </trkpt>
      <trkpt lat="44.07509" lon="3.06832">
        <ele>703</ele>
        <time>2010-01-01T00:42:40Z</time>
      </trkpt>
      <trkpt lat="44.0751" lon="3.0683">
        <ele>703</ele>
        <time>2010-01-01T00:42:41Z</time>
      </trkpt>
      <trkpt lat="44.07511" lon="3.06828">
        <ele>703</ele>
        <time>2010-01-01T00:42:42Z</time>
      </trkpt>
      <trkpt lat="44.07512" lon="3.06826">
        <ele>703</ele>
        <time>2010-01-01T00:42:42Z</time>
      </trkpt>
      <trkpt lat="44.07513" lon="3.06824">
        <ele>703</ele>
        <time>2010-01-01T00:42:43Z</time>
      </trkpt>
      <trkpt lat="44.07514" lon="3.06822">
        <ele>703</ele>
        <time>2010-01-01T00:42:44Z</time>
      </trkpt>
      <trkpt lat="44.07515" lon="3.06818">
        <ele>703</ele>
        <time>2010-01-01T00:42:45Z</time>
      </trkpt>
      <trkpt lat="44.07516" lon="3.06815">
        <ele>703</ele>
        <time>2010-01-01T00:42:46Z</time>
      </trkpt>
      <trkpt lat="44.07517" lon="3.06811">
        <ele>703</ele>
        <time>2010-01-01T00:42:47Z</time>
      </trkpt>
      <trkpt lat="44.07518" lon="3.06807">
        <ele>703</ele>
        <time>2010-01-01T00:42:48Z</time>
      </trkpt>
      <trkpt lat="44.0752" lon="3.06804">
        <ele>703</ele>
        <time>2010-01-01T00:42:49Z</time>
      </trkpt>
      <trkpt lat="44.07522" lon="3.06801">
        <ele>703</ele>
        <time>2010-01-01T00:42:51Z</time>
      </trkpt>
      <trkpt lat="44.07525" lon="3.06798">
        <ele>703</ele>
        <time>2010-01-01T00:42:52Z</time>
      </trkpt>
      <trkpt lat="44.07528" lon="3.06796">
        <ele>703</ele>
        <time>2010-01-01T00:42:53Z</time>
      </trkpt>
      <trkpt lat="44.07531" lon="3.06794">
        <ele>703</ele>
        <time>2010-01-01T00:42:55Z</time>
      </trkpt>
      <trkpt lat="44.07534" lon="3.06792">
        <ele>703</ele>
        <time>2010-01-01T00:42:56Z</time>
      </trkpt>
      <trkpt lat="44.07537" lon="3.0679">
        <ele>703</ele>
        <time>2010-01-01T00:42:57Z</time>
      </trkpt>
      <trkpt lat="44.07541" lon="3.06788">
        <ele>702</ele>
        <time>2010-01-01T00:42:59Z</time>
      </trkpt>
      <trkpt lat="44.07545" lon="3.06786">
        <ele>702</ele>
        <time>2010-01-01T00:43:01Z</time>
      </trkpt>
      <trkpt lat="44.07549" lon="3.06784">
        <ele>702</ele>
        <time>2010-01-01T00:43:02Z</time>
      </trkpt>
      <trkpt lat="44.07553" lon="3.06782">
        <ele>701</ele>
        <time>2010-01-01T00:43:04Z</time>
      </trkpt>
      <trkpt lat="44.07558" lon="3.0678">
        <ele>701</ele>
        <time>2010-01-01T00:43:06Z</time>
      </trkpt>
      <trkpt lat="44.07564" lon="3.06778">
        <ele>700</ele>
        <time>2010-01-01T00:43:09Z</time>
      </trkpt>
      <trkpt lat="44.0757" lon="3.06778">
        <ele>700</ele>
        <time>2010-01-01T00:43:11Z</time>
      </trkpt>
      <trkpt lat="44.07578" lon="3.06777">
        <ele>700</ele>
        <time>2010-01-01T00:43:14Z</time>
      </trkpt>
      <trkpt lat="44.07588" lon="3.06779">
        <ele>700</ele>
        <time>2010-01-01T00:43:18Z</time>
      </trkpt>
      <trkpt lat="44.07601" lon="3.06786">
        <ele>703</ele>
        <time>2010-01-01T00:43:24Z</time>
      </trkpt>
      <trkpt lat="44.07614" lon="3.06795">
        <ele>707</ele>
        <time>2010-01-01T00:43:30Z</time>
      </trkpt>
      <trkpt lat="44.07625" lon="3.06806">
        <ele>711</ele>
        <time>2010-01-01T00:43:35Z</time>
      </trkpt>
      <trkpt lat="44.07635" lon="3.06812">
        <ele>711</ele>
        <time>2010-01-01T00:43:39Z</time>
      </trkpt>
      <trkpt lat="44.07642" lon="3.06817">
        <ele>712</ele>
        <time>2010-01-01T00:43:43Z</time>
      </trkpt>
      <trkpt lat="44.07646" lon="3.06818">
        <ele>712</ele>
        <time>2010-01-01T00:43:44Z</time>
      </trkpt>
      <trkpt lat="44.0765" lon="3.06818">
        <ele>712</ele>
        <time>2010-01-01T00:43:46Z</time>
      </trkpt>
      <trkpt lat="44.07654" lon="3.06818">
        <ele>713</ele>
        <time>2010-01-01T00:43:47Z</time>
      </trkpt>
      <trkpt lat="44.07658" lon="3.06818">
        <ele>713</ele>
        <time>2010-01-01T00:43:49Z</time>
      </trkpt>
      <trkpt lat="44.07662" lon="3.06817">
        <ele>713</ele>
        <time>2010-01-01T00:43:51Z</time>
      </trkpt>
      <trkpt lat="44.07665" lon="3.06816">
        <ele>713</ele>
        <time>2010-01-01T00:43:52Z</time>
      </trkpt>
      <trkpt lat="44.07669" lon="3.06814">
        <ele>713</ele>
        <time>2010-01-01T00:43:53Z</time>
      </trkpt>
      <trkpt lat="44.07673" lon="3.06814">
        <ele>713</ele>
        <time>2010-01-01T00:43:55Z</time>
      </trkpt>
      <trkpt lat="44.07676" lon="3.06812">
        <ele>714</ele>
        <time>2010-01-01T00:43:56Z</time>
      </trkpt>
      <trkpt lat="44.07679" lon="3.0681">
        <ele>714</ele>
        <time>2010-01-01T00:43:58Z</time>
      </trkpt>
      <trkpt lat="44.07681" lon="3.06807">
        <ele>714</ele>
        <time>2010-01-01T00:43:59Z</time>
      </trkpt>
      <trkpt lat="44.07684" lon="3.06803">
        <ele>713</ele>
        <time>2010-01-01T00:44:01Z</time>
      </trkpt>
      <trkpt lat="44.07686" lon="3.068">
        <ele>713</ele>
        <time>2010-01-01T00:44:02Z</time>
      </trkpt>
      <trkpt lat="44.07688" lon="3.06796">
        <ele>713</ele>
        <time>2010-01-01T00:44:03Z</time>
      </trkpt>
      <trkpt lat="44.07691" lon="3.06793">
        <ele>713</ele>
        <time>2010-01-01T00:44:05Z</time>
      </trkpt>
      <trkpt lat="44.07693" lon="3.0679">
        <ele>712</ele>
        <time>2010-01-01T00:44:06Z</time>
      </trkpt>
      <trkpt lat="44.07695" lon="3.06787">
        <ele>712</ele>
        <time>2010-01-01T00:44:07Z</time>
      </trkpt>
      <trkpt lat="44.07698" lon="3.06783">
        <ele>712</ele>
        <time>2010-01-01T00:44:09Z</time>
      </trkpt>
      <trkpt lat="44.077" lon="3.0678">
        <ele>712</ele>
        <time>2010-01-01T00:44:10Z</time>
      </trkpt>
      <trkpt lat="44.07702" lon="3.06776">
        <ele>711</ele>
        <time>2010-01-01T00:44:11Z</time>
      </trkpt>
      <trkpt lat="44.07705" lon="3.06773">
        <ele>711</ele>
        <time>2010-01-01T00:44:13Z</time>
      </trkpt>
      <trkpt lat="44.07707" lon="3.0677">
        <ele>711</ele>
        <time>2010-01-01T00:44:14Z</time>
      </trkpt>
      <trkpt lat="44.0771" lon="3.06768">
        <ele>711</ele>
        <time>2010-01-01T00:44:15Z</time>
      </trkpt>
      <trkpt lat="44.07712" lon="3.06765">
        <ele>711</ele>
        <time>2010-01-01T00:44:17Z</time>
      </trkpt>
      <trkpt lat="44.07715" lon="3.06763">
        <ele>711</ele>
        <time>2010-01-01T00:44:18Z</time>
      </trkpt>
      <trkpt lat="44.07718" lon="3.06761">
        <ele>711</ele>
        <time>2010-01-01T00:44:19Z</time>
      </trkpt>
      <trkpt lat="44.07721" lon="3.0676">
        <ele>712</ele>
        <time>2010-01-01T00:44:20Z</time>
      </trkpt>
      <trkpt lat="44.07725" lon="3.06759">
        <ele>713</ele>
        <time>2010-01-01T00:44:22Z</time>
      </trkpt>
      <trkpt lat="44.07728" lon="3.06759">
        <ele>713</ele>
        <time>2010-01-01T00:44:23Z</time>
      </trkpt>
      <trkpt lat="44.0773" lon="3.06758">
        <ele>713</ele>
        <time>2010-01-01T00:44:24Z</time>
      </trkpt>
      <trkpt lat="44.07733" lon="3.06757">
        <ele>714</ele>
        <time>2010-01-01T00:44:25Z</time>
      </trkpt>
      <trkpt lat="44.07736" lon="3.06756">
        <ele>714</ele>
        <time>2010-01-01T00:44:26Z</time>
      </trkpt>
      <trkpt lat="44.07739" lon="3.06755">
        <ele>714</ele>
        <time>2010-01-01T00:44:28Z</time>
      </trkpt>
      <trkpt lat="44.07743" lon="3.06754">
        <ele>715</ele>
        <time>2010-01-01T00:44:29Z</time>
      </trkpt>
      <trkpt lat="44.07745" lon="3.06752">
        <ele>715</ele>
        <time>2010-01-01T00:44:30Z</time>
      </trkpt>
      <trkpt lat="44.07748" lon="3.0675">
        <ele>715</ele>
        <time>2010-01-01T00:44:32Z</time>
      </trkpt>
      <trkpt lat="44.07751" lon="3.06748">
        <ele>715</ele>
        <time>2010-01-01T00:44:33Z</time>
      </trkpt>
      <trkpt lat="44.07755" lon="3.06747">
        <ele>715</ele>
        <time>2010-01-01T00:44:35Z</time>
      </trkpt>
      <trkpt lat="44.07758" lon="3.06746">
        <ele>715</ele>
        <time>2010-01-01T00:44:36Z</time>
      </trkpt>
      <trkpt lat="44.07761" lon="3.06746">
        <ele>716</ele>
        <time>2010-01-01T00:44:37Z</time>
      </trkpt>
      <trkpt lat="44.07765" lon="3.06744">
        <ele>716</ele>
        <time>2010-01-01T00:44:38Z</time>
      </trkpt>
      <trkpt lat="44.07768" lon="3.06744">
        <ele>716</ele>
        <time>2010-01-01T00:44:40Z</time>
      </trkpt>
      <trkpt lat="44.07771" lon="3.06744">
        <ele>716</ele>
        <time>2010-01-01T00:44:41Z</time>
      </trkpt>
      <trkpt lat="44.07774" lon="3.06745">
        <ele>717</ele>
        <time>2010-01-01T00:44:42Z</time>
      </trkpt>
      <trkpt lat="44.07777" lon="3.06746">
        <ele>717</ele>
        <time>2010-01-01T00:44:44Z</time>
      </trkpt>
      <trkpt lat="44.0778" lon="3.06748">
        <ele>718</ele>
        <time>2010-01-01T00:44:45Z</time>
      </trkpt>
      <trkpt lat="44.07783" lon="3.0675">
        <ele>719</ele>
        <time>2010-01-01T00:44:46Z</time>
      </trkpt>
      <trkpt lat="44.07786" lon="3.06752">
        <ele>720</ele>
        <time>2010-01-01T00:44:48Z</time>
      </trkpt>
      <trkpt lat="44.07789" lon="3.06754">
        <ele>720</ele>
        <time>2010-01-01T00:44:49Z</time>
      </trkpt>
      <trkpt lat="44.07792" lon="3.06756">
        <ele>721</ele>
        <time>2010-01-01T00:44:50Z</time>
      </trkpt>
      <trkpt lat="44.07795" lon="3.06757">
        <ele>721</ele>
        <time>2010-01-01T00:44:52Z</time>
      </trkpt>
      <trkpt lat="44.07798" lon="3.06759">
        <ele>722</ele>
        <time>2010-01-01T00:44:53Z</time>
      </trkpt>
      <trkpt lat="44.07801" lon="3.0676">
        <ele>722</ele>
        <time>2010-01-01T00:44:54Z</time>
      </trkpt>
      <trkpt lat="44.07804" lon="3.06762">
        <ele>723</ele>
        <time>2010-01-01T00:44:55Z</time>
      </trkpt>
      <trkpt lat="44.07806" lon="3.06763">
        <ele>723</ele>
        <time>2010-01-01T00:44:56Z</time>
      </trkpt>
      <trkpt lat="44.07809" lon="3.06764">
        <ele>723</ele>
        <time>2010-01-01T00:44:57Z</time>
      </trkpt>
      <trkpt lat="44.07812" lon="3.06766">
        <ele>724</ele>
        <time>2010-01-01T00:44:59Z</time>
      </trkpt>
      <trkpt lat="44.07815" lon="3.06766">
        <ele>724</ele>
        <time>2010-01-01T00:45:00Z</time>
      </trkpt>
      <trkpt lat="44.07818" lon="3.06765">
        <ele>724</ele>
        <time>2010-01-01T00:45:01Z</time>
      </trkpt>
      <trkpt lat="44.07821" lon="3.06765">
        <ele>724</ele>
        <time>2010-01-01T00:45:02Z</time>
      </trkpt>
      <trkpt lat="44.07824" lon="3.06764">
        <ele>724</ele>
        <time>2010-01-01T00:45:03Z</time>
      </trkpt>
      <trkpt lat="44.07826" lon="3.06764">
        <ele>725</ele>
        <time>2010-01-01T00:45:04Z</time>
      </trkpt>
      <trkpt lat="44.07829" lon="3.06766">
        <ele>725</ele>
        <time>2010-01-01T00:45:06Z</time>
      </trkpt>
      <trkpt lat="44.07832" lon="3.06768">
        <ele>726</ele>
        <time>2010-01-01T00:45:07Z</time>
      </trkpt>
      <trkpt lat="44.07835" lon="3.06768">
        <ele>725</ele>
        <time>2010-01-01T00:45:08Z</time>
      </trkpt>
      <trkpt lat="44.07838" lon="3.06768">
        <ele>725</ele>
        <time>2010-01-01T00:45:09Z</time>
      </trkpt>
      <trkpt lat="44.07841" lon="3.06769">
        <ele>725</ele>
        <time>2010-01-01T00:45:10Z</time>
      </trkpt>
      <trkpt lat="44.07843" lon="3.0677">
        <ele>725</ele>
        <time>2010-01-01T00:45:12Z</time>
      </trkpt>
      <trkpt lat="44.07846" lon="3.06771">
        <ele>725</ele>
        <time>2010-01-01T00:45:13Z</time>
      </trkpt>
      <trkpt lat="44.07849" lon="3.06772">
        <ele>725</ele>
        <time>2010-01-01T00:45:14Z</time>
      </trkpt>
      <trkpt lat="44.07851" lon="3.06774">
        <ele>725</ele>
        <time>2010-01-01T00:45:15Z</time>
      </trkpt>
      <trkpt lat="44.07854" lon="3.06777">
        <ele>725</ele>
        <time>2010-01-01T00:45:16Z</time>
      </trkpt>
      <trkpt lat="44.07857" lon="3.06779">
        <ele>725</ele>
        <time>2010-01-01T00:45:18Z</time>
      </trkpt>
      <trkpt lat="44.07859" lon="3.0678">
        <ele>725</ele>
        <time>2010-01-01T00:45:19Z</time>
      </trkpt>
      <trkpt lat="44.07862" lon="3.06783">
        <ele>725</ele>
        <time>2010-01-01T00:45:20Z</time>
      </trkpt>
      <trkpt lat="44.07864" lon="3.06785">
        <ele>725</ele>
        <time>2010-01-01T00:45:21Z</time>
      </trkpt>
      <trkpt lat="44.07866" lon="3.06787">
        <ele>724</ele>
        <time>2010-01-01T00:45:22Z</time>
      </trkpt>
      <trkpt lat="44.07868" lon="3.0679">
        <ele>724</ele>
        <time>2010-01-01T00:45:23Z</time>
      </trkpt>
      <trkpt lat="44.0787" lon="3.06793">
        <ele>724</ele>
        <time>2010-01-01T00:45:24Z</time>
      </trkpt>
      <trkpt lat="44.07872" lon="3.06796">
        <ele>724</ele>
        <time>2010-01-01T00:45:26Z</time>
      </trkpt>
      <trkpt lat="44.07874" lon="3.06799">
        <ele>724</ele>
        <time>2010-01-01T00:45:27Z</time>
      </trkpt>
      <trkpt lat="44.07876" lon="3.06802">
        <ele>724</ele>
        <time>2010-01-01T00:45:28Z</time>
      </trkpt>
      <trkpt lat="44.07877" lon="3.06805">
        <ele>724</ele>
        <time>2010-01-01T00:45:29Z</time>
      </trkpt>
      <trkpt lat="44.07879" lon="3.06808">
        <ele>723</ele>
        <time>2010-01-01T00:45:30Z</time>
      </trkpt>
      <trkpt lat="44.07881" lon="3.06811">
        <ele>723</ele>
        <time>2010-01-01T00:45:31Z</time>
      </trkpt>
      <trkpt lat="44.07883" lon="3.06815">
        <ele>724</ele>
        <time>2010-01-01T00:45:32Z</time>
      </trkpt>
      <trkpt lat="44.07885" lon="3.06818">
        <ele>724</ele>
        <time>2010-01-01T00:45:34Z</time>
      </trkpt>
      <trkpt lat="44.07887" lon="3.06821">
        <ele>724</ele>
        <time>2010-01-01T00:45:35Z</time>
      </trkpt>
      <trkpt lat="44.07889" lon="3.06824">
        <ele>724</ele>
        <time>2010-01-01T00:45:36Z</time>
      </trkpt>
      <trkpt lat="44.07891" lon="3.06827">
        <ele>724</ele>
        <time>2010-01-01T00:45:37Z</time>
      </trkpt>
      <trkpt lat="44.07892" lon="3.06831">
        <ele>725</ele>
        <time>2010-01-01T00:45:39Z</time>
      </trkpt>
      <trkpt lat="44.07893" lon="3.06836">
        <ele>726</ele>
        <time>2010-01-01T00:45:40Z</time>
      </trkpt>
      <trkpt lat="44.07893" lon="3.0684">
        <ele>726</ele>
        <time>2010-01-01T00:45:41Z</time>
      </trkpt>
      <trkpt lat="44.07892" lon="3.06844">
        <ele>727</ele>
        <time>2010-01-01T00:45:42Z</time>
      </trkpt>
      <trkpt lat="44.07891" lon="3.06848">
        <ele>729</ele>
        <time>2010-01-01T00:45:44Z</time>
      </trkpt>
      <trkpt lat="44.07889" lon="3.06852">
        <ele>730</ele>
        <time>2010-01-01T00:45:45Z</time>
      </trkpt>
      <trkpt lat="44.07888" lon="3.06856">
        <ele>731</ele>
        <time>2010-01-01T00:45:46Z</time>
      </trkpt>
      <trkpt lat="44.07887" lon="3.06861">
        <ele>732</ele>
        <time>2010-01-01T00:45:48Z</time>
      </trkpt>
      <trkpt lat="44.07886" lon="3.06866">
        <ele>732</ele>
        <time>2010-01-01T00:45:49Z</time>
      </trkpt>
      <trkpt lat="44.07886" lon="3.0687">
        <ele>732</ele>
        <time>2010-01-01T00:45:50Z</time>
      </trkpt>
      <trkpt lat="44.07885" lon="3.06874">
        <ele>732</ele>
        <time>2010-01-01T00:45:52Z</time>
      </trkpt>
      <trkpt lat="44.07885" lon="3.06879">
        <ele>733</ele>
        <time>2010-01-01T00:45:53Z</time>
      </trkpt>
      <trkpt lat="44.07885" lon="3.06884">
        <ele>733</ele>
        <time>2010-01-01T00:45:54Z</time>
      </trkpt>
      <trkpt lat="44.07885" lon="3.06889">
        <ele>733</ele>
        <time>2010-01-01T00:45:56Z</time>
      </trkpt>
      <trkpt lat="44.07885" lon="3.06894">
        <ele>733</ele>
        <time>2010-01-01T00:45:57Z</time>
      </trkpt>
      <trkpt lat="44.07885" lon="3.06899">
        <ele>732</ele>
        <time>2010-01-01T00:45:59Z</time>
      </trkpt>
      <trkpt lat="44.07885" lon="3.06904">
        <ele>732</ele>
        <time>2010-01-01T00:46:00Z</time>
      </trkpt>
      <trkpt lat="44.07885" lon="3.06909">
        <ele>732</ele>
        <time>2010-01-01T00:46:02Z</time>
      </trkpt>
      <trkpt lat="44.07885" lon="3.06914">
        <ele>731</ele>
        <time>2010-01-01T00:46:03Z</time>
      </trkpt>
      <trkpt lat="44.07885" lon="3.06919">
        <ele>731</ele>
        <time>2010-01-01T00:46:04Z</time>
      </trkpt>
      <trkpt lat="44.07885" lon="3.06923">
        <ele>732</ele>
        <time>2010-01-01T00:46:06Z</time>
      </trkpt>
      <trkpt lat="44.07884" lon="3.06928">
        <ele>732</ele>
        <time>2010-01-01T00:46:07Z</time>
      </trkpt>
      <trkpt lat="44.07883" lon="3.06932">
        <ele>732</ele>
        <time>2010-01-01T00:46:08Z</time>
      </trkpt>
      <trkpt lat="44.07883" lon="3.06937">
        <ele>732</ele>
        <time>2010-01-01T00:46:10Z</time>
      </trkpt>
      <trkpt lat="44.07883" lon="3.06941">
        <ele>732</ele>
        <time>2010-01-01T00:46:11Z</time>
      </trkpt>
      <trkpt lat="44.07883" lon="3.06947">
        <ele>733</ele>
        <time>2010-01-01T00:46:12Z</time>
      </trkpt>
      <trkpt lat="44.07883" lon="3.06954">
        <ele>733</ele>
        <time>2010-01-01T00:46:14Z</time>
      </trkpt>
      <trkpt lat="44.07883" lon="3.06963">
        <ele>734</ele>
        <time>2010-01-01T00:46:17Z</time>
      </trkpt>
      <trkpt lat="44.07883" lon="3.06975">
        <ele>734</ele>
        <time>2010-01-01T00:46:21Z</time>
      </trkpt>
      <trkpt lat="44.07884" lon="3.06989">
        <ele>734</ele>
        <time>2010-01-01T00:46:24Z</time>
      </trkpt>
      <trkpt lat="44.07885" lon="3.07003">
        <ele>733</ele>
        <time>2010-01-01T00:46:29Z</time>
      </trkpt>
      <trkpt lat="44.07888" lon="3.07018">
        <ele>732</ele>
        <time>2010-01-01T00:46:33Z</time>
      </trkpt>
      <trkpt lat="44.07891" lon="3.07032">
        <ele>730</ele>
        <time>2010-01-01T00:46:37Z</time>
      </trkpt>
      <trkpt lat="44.07894" lon="3.07044">
        <ele>729</ele>
        <time>2010-01-01T00:46:41Z</time>
      </trkpt>
      <trkpt lat="44.07896" lon="3.07054">
        <ele>727</ele>
        <time>2010-01-01T00:46:44Z</time>
      </trkpt>
      <trkpt lat="44.07898" lon="3.07062">
        <ele>727</ele>
        <time>2010-01-01T00:46:46Z</time>
      </trkpt>
      <trkpt lat="44.07899" lon="3.0707">
        <ele>727</ele>
        <time>2010-01-01T00:46:49Z</time>
      </trkpt>
      <trkpt lat="44.079" lon="3.07079">
        <ele>727</ele>
        <time>2010-01-01T00:46:51Z</time>
      </trkpt>
      <trkpt lat="44.07902" lon="3.07087">
        <ele>727</ele>
        <time>2010-01-01T00:46:54Z</time>
      </trkpt>
      <trkpt lat="44.07905" lon="3.07095">
        <ele>728</ele>
        <time>2010-01-01T00:46:56Z</time>
      </trkpt>
      <trkpt lat="44.07908" lon="3.07102">
        <ele>728</ele>
        <time>2010-01-01T00:46:59Z</time>
      </trkpt>
      <trkpt lat="44.0791" lon="3.0711">
        <ele>729</ele>
        <time>2010-01-01T00:47:01Z</time>
      </trkpt>
      <trkpt lat="44.07912" lon="3.07117">
        <ele>730</ele>
        <time>2010-01-01T00:47:03Z</time>
      </trkpt>
      <trkpt lat="44.07914" lon="3.07124">
        <ele>730</ele>
        <time>2010-01-01T00:47:06Z</time>
      </trkpt>
      <trkpt lat="44.07915" lon="3.07131">
        <ele>731</ele>
        <time>2010-01-01T00:47:07Z</time>
      </trkpt>
      <trkpt lat="44.07917" lon="3.07137">
        <ele>732</ele>
        <time>2010-01-01T00:47:09Z</time>
      </trkpt>
      <trkpt lat="44.0792" lon="3.07142">
        <ele>732</ele>
        <time>2010-01-01T00:47:11Z</time>
      </trkpt>
      <trkpt lat="44.07922" lon="3.07148">
        <ele>732</ele>
        <time>2010-01-01T00:47:13Z</time>
      </trkpt>
      <trkpt lat="44.07924" lon="3.07154">
        <ele>733</ele>
        <time>2010-01-01T00:47:15Z</time>
      </trkpt>
      <trkpt lat="44.07926" lon="3.0716">
        <ele>733</ele>
        <time>2010-01-01T00:47:17Z</time>
      </trkpt>
      <trkpt lat="44.07931" lon="3.07168">
        <ele>734</ele>
        <time>2010-01-01T00:47:20Z</time>
      </trkpt>
      <trkpt lat="44.07935" lon="3.07176">
        <ele>734</ele>
        <time>2010-01-01T00:47:23Z</time>
      </trkpt>
      <trkpt lat="44.07938" lon="3.07182">
        <ele>735</ele>
        <time>2010-01-01T00:47:25Z</time>
      </trkpt>
      <trkpt lat="44.0794" lon="3.07188">
        <ele>736</ele>
        <time>2010-01-01T00:47:27Z</time>
      </trkpt>
      <trkpt lat="44.07943" lon="3.07193">
        <ele>736</ele>
        <time>2010-01-01T00:47:29Z</time>
      </trkpt>
      <trkpt lat="44.07946" lon="3.07198">
        <ele>737</ele>
        <time>2010-01-01T00:47:30Z</time>
      </trkpt>
      <trkpt lat="44.07949" lon="3.07202">
        <ele>737</ele>
        <time>2010-01-01T00:47:32Z</time>
      </trkpt>
      <trkpt lat="44.07951" lon="3.07206">
        <ele>737</ele>
        <time>2010-01-01T00:47:34Z</time>
      </trkpt>
      <trkpt lat="44.07954" lon="3.0721">
        <ele>737</ele>
        <time>2010-01-01T00:47:35Z</time>
      </trkpt>
      <trkpt lat="44.07957" lon="3.07215">
        <ele>737</ele>
        <time>2010-01-01T00:47:37Z</time>
      </trkpt>
      <trkpt lat="44.0796" lon="3.07218">
        <ele>738</ele>
        <time>2010-01-01T00:47:38Z</time>
      </trkpt>
      <trkpt lat="44.07962" lon="3.07223">
        <ele>738</ele>
        <time>2010-01-01T00:47:40Z</time>
      </trkpt>
      <trkpt lat="44.07965" lon="3.07227">
        <ele>738</ele>
        <time>2010-01-01T00:47:42Z</time>
      </trkpt>
      <trkpt lat="44.07968" lon="3.0723">
        <ele>738</ele>
        <time>2010-01-01T00:47:43Z</time>
      </trkpt>
      <trkpt lat="44.07971" lon="3.07233">
        <ele>738</ele>
        <time>2010-01-01T00:47:45Z</time>
      </trkpt>
      <trkpt lat="44.07974" lon="3.07237">
        <ele>738</ele>
        <time>2010-01-01T00:47:46Z</time>
      </trkpt>
      <trkpt lat="44.07977" lon="3.0724">
        <ele>738</ele>
        <time>2010-01-01T00:47:48Z</time>
      </trkpt>
      <trkpt lat="44.07979" lon="3.07244">
        <ele>738</ele>
        <time>2010-01-01T00:47:49Z</time>
      </trkpt>
      <trkpt lat="44.07982" lon="3.07247">
        <ele>738</ele>
        <time>2010-01-01T00:47:51Z</time>
      </trkpt>
      <trkpt lat="44.07985" lon="3.0725">
        <ele>738</ele>
        <time>2010-01-01T00:47:52Z</time>
      </trkpt>
      <trkpt lat="44.07988" lon="3.07253">
        <ele>738</ele>
        <time>2010-01-01T00:47:54Z</time>
      </trkpt>
      <trkpt lat="44.07991" lon="3.07256">
        <ele>738</ele>
        <time>2010-01-01T00:47:55Z</time>
      </trkpt>
      <trkpt lat="44.07993" lon="3.07259">
        <ele>738</ele>
        <time>2010-01-01T00:47:56Z</time>
      </trkpt>
      <trkpt lat="44.07995" lon="3.07264">
        <ele>739</ele>
        <time>2010-01-01T00:47:58Z</time>
      </trkpt>
      <trkpt lat="44.07996" lon="3.07269">
        <ele>740</ele>
        <time>2010-01-01T00:47:59Z</time>
      </trkpt>
      <trkpt lat="44.07995" lon="3.07274">
        <ele>741</ele>
        <time>2010-01-01T00:48:01Z</time>
      </trkpt>
      <trkpt lat="44.07995" lon="3.07279">
        <ele>742</ele>
        <time>2010-01-01T00:48:02Z</time>
      </trkpt>
      <trkpt lat="44.07995" lon="3.07284">
        <ele>743</ele>
        <time>2010-01-01T00:48:04Z</time>
      </trkpt>
      <trkpt lat="44.07995" lon="3.07289">
        <ele>744</ele>
        <time>2010-01-01T00:48:05Z</time>
      </trkpt>
      <trkpt lat="44.07995" lon="3.07294">
        <ele>744</ele>
        <time>2010-01-01T00:48:07Z</time>
      </trkpt>
      <trkpt lat="44.07996" lon="3.07299">
        <ele>745</ele>
        <time>2010-01-01T00:48:08Z</time>
      </trkpt>
      <trkpt lat="44.07996" lon="3.07304">
        <ele>746</ele>
        <time>2010-01-01T00:48:09Z</time>
      </trkpt>
      <trkpt lat="44.07997" lon="3.07309">
        <ele>746</ele>
        <time>2010-01-01T00:48:11Z</time>
      </trkpt>
      <trkpt lat="44.07998" lon="3.07313">
        <ele>746</ele>
        <time>2010-01-01T00:48:12Z</time>
      </trkpt>
      <trkpt lat="44.07999" lon="3.07317">
        <ele>746</ele>
        <time>2010-01-01T00:48:13Z</time>
      </trkpt>
      <trkpt lat="44.08001" lon="3.0732">
        <ele>746</ele>
        <time>2010-01-01T00:48:15Z</time>
      </trkpt>
      <trkpt lat="44.08004" lon="3.07323">
        <ele>745</ele>
        <time>2010-01-01T00:48:16Z</time>
      </trkpt>
      <trkpt lat="44.08007" lon="3.07326">
        <ele>745</ele>
        <time>2010-01-01T00:48:17Z</time>
      </trkpt>
      <trkpt lat="44.08009" lon="3.0733">
        <ele>745</ele>
        <time>2010-01-01T00:48:19Z</time>
      </trkpt>
      <trkpt lat="44.08012" lon="3.07333">
        <ele>745</ele>
        <time>2010-01-01T00:48:20Z</time>
      </trkpt>
      <trkpt lat="44.08015" lon="3.07335">
        <ele>745</ele>
        <time>2010-01-01T00:48:22Z</time>
      </trkpt>
      <trkpt lat="44.08018" lon="3.07338">
        <ele>744</ele>
        <time>2010-01-01T00:48:23Z</time>
      </trkpt>
      <trkpt lat="44.08021" lon="3.0734">
        <ele>744</ele>
        <time>2010-01-01T00:48:24Z</time>
      </trkpt>
      <trkpt lat="44.08024" lon="3.07342">
        <ele>744</ele>
        <time>2010-01-01T00:48:26Z</time>
      </trkpt>
      <trkpt lat="44.08027" lon="3.07345">
        <ele>744</ele>
        <time>2010-01-01T00:48:27Z</time>
      </trkpt>
      <trkpt lat="44.0803" lon="3.07347">
        <ele>743</ele>
        <time>2010-01-01T00:48:29Z</time>
      </trkpt>
      <trkpt lat="44.08033" lon="3.07351">
        <ele>743</ele>
        <time>2010-01-01T00:48:30Z</time>
      </trkpt>
      <trkpt lat="44.08036" lon="3.07354">
        <ele>743</ele>
        <time>2010-01-01T00:48:32Z</time>
      </trkpt>
      <trkpt lat="44.08039" lon="3.07358">
        <ele>742</ele>
        <time>2010-01-01T00:48:33Z</time>
      </trkpt>
      <trkpt lat="44.08042" lon="3.07361">
        <ele>743</ele>
        <time>2010-01-01T00:48:35Z</time>
      </trkpt>
      <trkpt lat="44.08044" lon="3.07366">
        <ele>743</ele>
        <time>2010-01-01T00:48:36Z</time>
      </trkpt>
      <trkpt lat="44.08046" lon="3.0737">
        <ele>743</ele>
        <time>2010-01-01T00:48:38Z</time>
      </trkpt>
      <trkpt lat="44.08048" lon="3.07374">
        <ele>743</ele>
        <time>2010-01-01T00:48:39Z</time>
      </trkpt>
      <trkpt lat="44.0805" lon="3.07378">
        <ele>744</ele>
        <time>2010-01-01T00:48:41Z</time>
      </trkpt>
      <trkpt lat="44.08052" lon="3.07383">
        <ele>744</ele>
        <time>2010-01-01T00:48:42Z</time>
      </trkpt>
      <trkpt lat="44.08053" lon="3.07388">
        <ele>745</ele>
        <time>2010-01-01T00:48:44Z</time>
      </trkpt>
      <trkpt lat="44.08056" lon="3.07393">
        <ele>745</ele>
        <time>2010-01-01T00:48:45Z</time>
      </trkpt>
      <trkpt lat="44.08058" lon="3.07397">
        <ele>745</ele>
        <time>2010-01-01T00:48:47Z</time>
      </trkpt>
      <trkpt lat="44.0806" lon="3.07401">
        <ele>745</ele>
        <time>2010-01-01T00:48:48Z</time>
      </trkpt>
      <trkpt lat="44.08062" lon="3.07405">
        <ele>744</ele>
        <time>2010-01-01T00:48:50Z</time>
      </trkpt>
      <trkpt lat="44.08065" lon="3.0741">
        <ele>744</ele>
        <time>2010-01-01T00:48:51Z</time>
      </trkpt>
      <trkpt lat="44.08066" lon="3.07415">
        <ele>744</ele>
        <time>2010-01-01T00:48:53Z</time>
      </trkpt>
      <trkpt lat="44.08067" lon="3.07424">
        <ele>745</ele>
        <time>2010-01-01T00:48:56Z</time>
      </trkpt>
      <trkpt lat="44.08068" lon="3.07432">
        <ele>745</ele>
        <time>2010-01-01T00:48:58Z</time>
      </trkpt>
      <trkpt lat="44.08073" lon="3.0744">
        <ele>744</ele>
        <time>2010-01-01T00:49:01Z</time>
      </trkpt>
      <trkpt lat="44.08075" lon="3.07451">
        <ele>744</ele>
        <time>2010-01-01T00:49:04Z</time>
      </trkpt>
      <trkpt lat="44.08077" lon="3.07459">
        <ele>745</ele>
        <time>2010-01-01T00:49:07Z</time>
      </trkpt>
      <trkpt lat="44.08078" lon="3.07463">
        <ele>745</ele>
        <time>2010-01-01T00:49:08Z</time>
      </trkpt>
      <trkpt lat="44.08079" lon="3.07467">
        <ele>745</ele>
        <time>2010-01-01T00:49:09Z</time>
      </trkpt>
      <trkpt lat="44.0808" lon="3.07471">
        <ele>745</ele>
        <time>2010-01-01T00:49:10Z</time>
      </trkpt>
      <trkpt lat="44.08081" lon="3.07474">
        <ele>745</ele>
        <time>2010-01-01T00:49:12Z</time>
      </trkpt>
      <trkpt lat="44.08083" lon="3.07478">
        <ele>745</ele>
        <time>2010-01-01T00:49:13Z</time>
      </trkpt>
      <trkpt lat="44.08084" lon="3.07481">
        <ele>746</ele>
        <time>2010-01-01T00:49:14Z</time>
      </trkpt>
      <trkpt lat="44.08084" lon="3.07485">
        <ele>746</ele>
        <time>2010-01-01T00:49:15Z</time>
      </trkpt>
      <trkpt lat="44.08085" lon="3.07488">
        <ele>746</ele>
        <time>2010-01-01T00:49:16Z</time>
      </trkpt>
      <trkpt lat="44.08086" lon="3.07491">
        <ele>746</ele>
        <time>2010-01-01T00:49:17Z</time>
      </trkpt>
      <trkpt lat="44.08087" lon="3.07495">
        <ele>746</ele>
        <time>2010-01-01T00:49:18Z</time>
      </trkpt>
      <trkpt lat="44.08087" lon="3.07499">
        <ele>747</ele>
        <time>2010-01-01T00:49:19Z</time>
      </trkpt>
      <trkpt lat="44.08088" lon="3.07502">
        <ele>747</ele>
        <time>2010-01-01T00:49:20Z</time>
      </trkpt>
      <trkpt lat="44.08088" lon="3.07506">
        <ele>747</ele>
        <time>2010-01-01T00:49:21Z</time>
      </trkpt>
      <trkpt lat="44.08089" lon="3.07509">
        <ele>748</ele>
        <time>2010-01-01T00:49:22Z</time>
      </trkpt>
      <trkpt lat="44.08089" lon="3.07513">
        <ele>748</ele>
        <time>2010-01-01T00:49:23Z</time>
      </trkpt>
      <trkpt lat="44.0809" lon="3.07516">
        <ele>748</ele>
        <time>2010-01-01T00:49:24Z</time>
      </trkpt>
      <trkpt lat="44.08091" lon="3.07519">
        <ele>748</ele>
        <time>2010-01-01T00:49:25Z</time>
      </trkpt>
      <trkpt lat="44.08093" lon="3.07522">
        <ele>748</ele>
        <time>2010-01-01T00:49:26Z</time>
      </trkpt>
      <trkpt lat="44.08095" lon="3.07525">
        <ele>748</ele>
        <time>2010-01-01T00:49:27Z</time>
      </trkpt>
      <trkpt lat="44.08096" lon="3.07528">
        <ele>748</ele>
        <time>2010-01-01T00:49:28Z</time>
      </trkpt>
      <trkpt lat="44.08098" lon="3.07531">
        <ele>749</ele>
        <time>2010-01-01T00:49:30Z</time>
      </trkpt>
      <trkpt lat="44.08099" lon="3.07534">
        <ele>749</ele>
        <time>2010-01-01T00:49:31Z</time>
      </trkpt>
      <trkpt lat="44.08099" lon="3.07538">
        <ele>749</ele>
        <time>2010-01-01T00:49:32Z</time>
      </trkpt>
      <trkpt lat="44.08099" lon="3.07541">
        <ele>750</ele>
        <time>2010-01-01T00:49:33Z</time>
      </trkpt>
      <trkpt lat="44.081" lon="3.07545">
        <ele>751</ele>
        <time>2010-01-01T00:49:34Z</time>
      </trkpt>
      <trkpt lat="44.081" lon="3.07548">
        <ele>751</ele>
        <time>2010-01-01T00:49:35Z</time>
      </trkpt>
      <trkpt lat="44.08101" lon="3.07552">
        <ele>752</ele>
        <time>2010-01-01T00:49:36Z</time>
      </trkpt>
      <trkpt lat="44.08103" lon="3.07555">
        <ele>752</ele>
        <time>2010-01-01T00:49:37Z</time>
      </trkpt>
      <trkpt lat="44.08103" lon="3.07559">
        <ele>753</ele>
        <time>2010-01-01T00:49:38Z</time>
      </trkpt>
      <trkpt lat="44.08104" lon="3.07564">
        <ele>753</ele>
        <time>2010-01-01T00:49:39Z</time>
      </trkpt>
      <trkpt lat="44.08104" lon="3.07568">
        <ele>753</ele>
        <time>2010-01-01T00:49:41Z</time>
      </trkpt>
      <trkpt lat="44.08105" lon="3.07571">
        <ele>754</ele>
        <time>2010-01-01T00:49:42Z</time>
      </trkpt>
      <trkpt lat="44.08107" lon="3.07575">
        <ele>754</ele>
        <time>2010-01-01T00:49:43Z</time>
      </trkpt>
      <trkpt lat="44.08107" lon="3.07578">
        <ele>754</ele>
        <time>2010-01-01T00:49:44Z</time>
      </trkpt>
      <trkpt lat="44.08108" lon="3.07582">
        <ele>755</ele>
        <time>2010-01-01T00:49:45Z</time>
      </trkpt>
      <trkpt lat="44.08109" lon="3.07586">
        <ele>755</ele>
        <time>2010-01-01T00:49:46Z</time>
      </trkpt>
      <trkpt lat="44.08109" lon="3.07589">
        <ele>755</ele>
        <time>2010-01-01T00:49:47Z</time>
      </trkpt>
      <trkpt lat="44.08109" lon="3.07592">
        <ele>756</ele>
        <time>2010-01-01T00:49:48Z</time>
      </trkpt>
      <trkpt lat="44.08109" lon="3.07596">
        <ele>756</ele>
        <time>2010-01-01T00:49:49Z</time>
      </trkpt>
      <trkpt lat="44.0811" lon="3.07599">
        <ele>757</ele>
        <time>2010-01-01T00:49:50Z</time>
      </trkpt>
      <trkpt lat="44.0811" lon="3.07601">
        <ele>757</ele>
        <time>2010-01-01T00:49:50Z</time>
      </trkpt>
      <trkpt lat="44.08112" lon="3.07604">
        <ele>757</ele>
        <time>2010-01-01T00:49:52Z</time>
      </trkpt>
      <trkpt lat="44.08114" lon="3.07607">
        <ele>757</ele>
        <time>2010-01-01T00:49:53Z</time>
      </trkpt>
      <trkpt lat="44.08115" lon="3.07611">
        <ele>758</ele>
        <time>2010-01-01T00:49:54Z</time>
      </trkpt>
      <trkpt lat="44.08115" lon="3.07616">
        <ele>758</ele>
        <time>2010-01-01T00:49:55Z</time>
      </trkpt>
      <trkpt lat="44.08115" lon="3.0762">
        <ele>758</ele>
        <time>2010-01-01T00:49:56Z</time>
      </trkpt>
      <trkpt lat="44.08115" lon="3.07624">
        <ele>759</ele>
        <time>2010-01-01T00:49:57Z</time>
      </trkpt>
      <trkpt lat="44.08116" lon="3.07627">
        <ele>759</ele>
        <time>2010-01-01T00:49:59Z</time>
      </trkpt>
      <trkpt lat="44.08118" lon="3.0763">
        <ele>759</ele>
        <time>2010-01-01T00:50:00Z</time>
      </trkpt>
      <trkpt lat="44.08119" lon="3.07634">
        <ele>759</ele>
        <time>2010-01-01T00:50:01Z</time>
      </trkpt>
      <trkpt lat="44.08121" lon="3.07636">
        <ele>759</ele>
        <time>2010-01-01T00:50:02Z</time>
      </trkpt>
      <trkpt lat="44.08123" lon="3.07639">
        <ele>760</ele>
        <time>2010-01-01T00:50:03Z</time>
      </trkpt>
      <trkpt lat="44.08124" lon="3.07641">
        <ele>760</ele>
        <time>2010-01-01T00:50:04Z</time>
      </trkpt>
      <trkpt lat="44.08126" lon="3.07645">
        <ele>760</ele>
        <time>2010-01-01T00:50:05Z</time>
      </trkpt>
      <trkpt lat="44.08127" lon="3.07648">
        <ele>761</ele>
        <time>2010-01-01T00:50:06Z</time>
      </trkpt>
      <trkpt lat="44.08128" lon="3.07652">
        <ele>761</ele>
        <time>2010-01-01T00:50:07Z</time>
      </trkpt>
      <trkpt lat="44.08129" lon="3.07656">
        <ele>762</ele>
        <time>2010-01-01T00:50:08Z</time>
      </trkpt>
      <trkpt lat="44.0813" lon="3.0766">
        <ele>762</ele>
        <time>2010-01-01T00:50:10Z</time>
      </trkpt>
      <trkpt lat="44.08131" lon="3.07664">
        <ele>763</ele>
        <time>2010-01-01T00:50:11Z</time>
      </trkpt>
      <trkpt lat="44.08131" lon="3.07668">
        <ele>763</ele>
        <time>2010-01-01T00:50:12Z</time>
      </trkpt>
      <trkpt lat="44.08132" lon="3.07671">
        <ele>764</ele>
        <time>2010-01-01T00:50:13Z</time>
      </trkpt>
      <trkpt lat="44.08133" lon="3.07675">
        <ele>764</ele>
        <time>2010-01-01T00:50:14Z</time>
      </trkpt>
      <trkpt lat="44.08134" lon="3.07678">
        <ele>764</ele>
        <time>2010-01-01T00:50:15Z</time>
      </trkpt>
      <trkpt lat="44.08134" lon="3.07682">
        <ele>765</ele>
        <time>2010-01-01T00:50:16Z</time>
      </trkpt>
      <trkpt lat="44.08136" lon="3.07685">
        <ele>765</ele>
        <time>2010-01-01T00:50:17Z</time>
      </trkpt>
      <trkpt lat="44.08137" lon="3.07689">
        <ele>766</ele>
        <time>2010-01-01T00:50:19Z</time>
      </trkpt>
      <trkpt lat="44.08138" lon="3.07693">
        <ele>766</ele>
        <time>2010-01-01T00:50:20Z</time>
      </trkpt>
      <trkpt lat="44.08139" lon="3.07696">
        <ele>767</ele>
        <time>2010-01-01T00:50:21Z</time>
      </trkpt>
      <trkpt lat="44.0814" lon="3.077">
        <ele>767</ele>
        <time>2010-01-01T00:50:22Z</time>
      </trkpt>
      <trkpt lat="44.08141" lon="3.07703">
        <ele>767</ele>
        <time>2010-01-01T00:50:23Z</time>
      </trkpt>
      <trkpt lat="44.08143" lon="3.07706">
        <ele>767</ele>
        <time>2010-01-01T00:50:24Z</time>
      </trkpt>
      <trkpt lat="44.08144" lon="3.07709">
        <ele>767</ele>
        <time>2010-01-01T00:50:25Z</time>
      </trkpt>
      <trkpt lat="44.08146" lon="3.07712">
        <ele>768</ele>
        <time>2010-01-01T00:50:26Z</time>
      </trkpt>
      <trkpt lat="44.08148" lon="3.07715">
        <ele>768</ele>
        <time>2010-01-01T00:50:27Z</time>
      </trkpt>
      <trkpt lat="44.08149" lon="3.07718">
        <ele>768</ele>
        <time>2010-01-01T00:50:28Z</time>
      </trkpt>
      <trkpt lat="44.08151" lon="3.07721">
        <ele>769</ele>
        <time>2010-01-01T00:50:29Z</time>
      </trkpt>
      <trkpt lat="44.08152" lon="3.07724">
        <ele>769</ele>
        <time>2010-01-01T00:50:30Z</time>
      </trkpt>
      <trkpt lat="44.08153" lon="3.07728">
        <ele>769</ele>
        <time>2010-01-01T00:50:31Z</time>
      </trkpt>
      <trkpt lat="44.08154" lon="3.07731">
        <ele>769</ele>
        <time>2010-01-01T00:50:33Z</time>
      </trkpt>
      <trkpt lat="44.08155" lon="3.07735">
        <ele>770</ele>
        <time>2010-01-01T00:50:34Z</time>
      </trkpt>
      <trkpt lat="44.08156" lon="3.07739">
        <ele>770</ele>
        <time>2010-01-01T00:50:35Z</time>
      </trkpt>
      <trkpt lat="44.08156" lon="3.07743">
        <ele>771</ele>
        <time>2010-01-01T00:50:36Z</time>
      </trkpt>
      <trkpt lat="44.08157" lon="3.07747">
        <ele>771</ele>
        <time>2010-01-01T00:50:37Z</time>
      </trkpt>
      <trkpt lat="44.08157" lon="3.07751">
        <ele>772</ele>
        <time>2010-01-01T00:50:38Z</time>
      </trkpt>
      <trkpt lat="44.08157" lon="3.07755">
        <ele>772</ele>
        <time>2010-01-01T00:50:40Z</time>
      </trkpt>
      <trkpt lat="44.08157" lon="3.07759">
        <ele>772</ele>
        <time>2010-01-01T00:50:41Z</time>
      </trkpt>
      <trkpt lat="44.08159" lon="3.07763">
        <ele>773</ele>
        <time>2010-01-01T00:50:42Z</time>
      </trkpt>
      <trkpt lat="44.0816" lon="3.07766">
        <ele>773</ele>
        <time>2010-01-01T00:50:43Z</time>
      </trkpt>
      <trkpt lat="44.08161" lon="3.07769">
        <ele>773</ele>
        <time>2010-01-01T00:50:44Z</time>
      </trkpt>
      <trkpt lat="44.08163" lon="3.07773">
        <ele>774</ele>
        <time>2010-01-01T00:50:45Z</time>
      </trkpt>
      <trkpt lat="44.08164" lon="3.07777">
        <ele>774</ele>
        <time>2010-01-01T00:50:46Z</time>
      </trkpt>
      <trkpt lat="44.08166" lon="3.0778">
        <ele>775</ele>
        <time>2010-01-01T00:50:48Z</time>
      </trkpt>
      <trkpt lat="44.08168" lon="3.07783">
        <ele>775</ele>
        <time>2010-01-01T00:50:49Z</time>
      </trkpt>
      <trkpt lat="44.0817" lon="3.07786">
        <ele>775</ele>
        <time>2010-01-01T00:50:50Z</time>
      </trkpt>
      <trkpt lat="44.08171" lon="3.07789">
        <ele>775</ele>
        <time>2010-01-01T00:50:51Z</time>
      </trkpt>
      <trkpt lat="44.08173" lon="3.07792">
        <ele>775</ele>
        <time>2010-01-01T00:50:52Z</time>
      </trkpt>
      <trkpt lat="44.08175" lon="3.07796">
        <ele>775</ele>
        <time>2010-01-01T00:50:54Z</time>
      </trkpt>
      <trkpt lat="44.08177" lon="3.078">
        <ele>775</ele>
        <time>2010-01-01T00:50:55Z</time>
      </trkpt>
      <trkpt lat="44.08179" lon="3.07804">
        <ele>775</ele>
        <time>2010-01-01T00:50:56Z</time>
      </trkpt>
      <trkpt lat="44.08181" lon="3.07807">
        <ele>776</ele>
        <time>2010-01-01T00:50:57Z</time>
      </trkpt>
      <trkpt lat="44.08181" lon="3.07811">
        <ele>776</ele>
        <time>2010-01-01T00:50:59Z</time>
      </trkpt>
      <trkpt lat="44.08182" lon="3.07815">
        <ele>776</ele>
        <time>2010-01-01T00:51:00Z</time>
      </trkpt>
      <trkpt lat="44.08184" lon="3.07819">
        <ele>776</ele>
        <time>2010-01-01T00:51:01Z</time>
      </trkpt>
      <trkpt lat="44.08185" lon="3.07823">
        <ele>776</ele>
        <time>2010-01-01T00:51:03Z</time>
      </trkpt>
      <trkpt lat="44.08186" lon="3.07827">
        <ele>777</ele>
        <time>2010-01-01T00:51:04Z</time>
      </trkpt>
      <trkpt lat="44.08188" lon="3.07831">
        <ele>777</ele>
        <time>2010-01-01T00:51:05Z</time>
      </trkpt>
      <trkpt lat="44.08189" lon="3.07836">
        <ele>777</ele>
        <time>2010-01-01T00:51:06Z</time>
      </trkpt>
      <trkpt lat="44.08191" lon="3.0784">
        <ele>777</ele>
        <time>2010-01-01T00:51:08Z</time>
      </trkpt>
      <trkpt lat="44.08192" lon="3.07844">
        <ele>777</ele>
        <time>2010-01-01T00:51:09Z</time>
      </trkpt>
      <trkpt lat="44.08194" lon="3.07848">
        <ele>778</ele>
        <time>2010-01-01T00:51:10Z</time>
      </trkpt>
      <trkpt lat="44.08195" lon="3.07852">
        <ele>778</ele>
        <time>2010-01-01T00:51:12Z</time>
      </trkpt>
      <trkpt lat="44.08197" lon="3.07856">
        <ele>777</ele>
        <time>2010-01-01T00:51:13Z</time>
      </trkpt>
      <trkpt lat="44.08198" lon="3.0786">
        <ele>777</ele>
        <time>2010-01-01T00:51:14Z</time>
      </trkpt>
      <trkpt lat="44.082" lon="3.07864">
        <ele>777</ele>
        <time>2010-01-01T00:51:16Z</time>
      </trkpt>
      <trkpt lat="44.08201" lon="3.07868">
        <ele>777</ele>
        <time>2010-01-01T00:51:17Z</time>
      </trkpt>
      <trkpt lat="44.08203" lon="3.07872">
        <ele>777</ele>
        <time>2010-01-01T00:51:18Z</time>
      </trkpt>
      <trkpt lat="44.08204" lon="3.07877">
        <ele>777</ele>
        <time>2010-01-01T00:51:20Z</time>
      </trkpt>
      <trkpt lat="44.08206" lon="3.07881">
        <ele>777</ele>
        <time>2010-01-01T00:51:21Z</time>
      </trkpt>
      <trkpt lat="44.08207" lon="3.07885">
        <ele>776</ele>
        <time>2010-01-01T00:51:22Z</time>
      </trkpt>
      <trkpt lat="44.08209" lon="3.0789">
        <ele>776</ele>
        <time>2010-01-01T00:51:24Z</time>
      </trkpt>
      <trkpt lat="44.08211" lon="3.07894">
        <ele>776</ele>
        <time>2010-01-01T00:51:25Z</time>
      </trkpt>
      <trkpt lat="44.08212" lon="3.07898">
        <ele>776</ele>
        <time>2010-01-01T00:51:27Z</time>
      </trkpt>
      <trkpt lat="44.08214" lon="3.07903">
        <ele>776</ele>
        <time>2010-01-01T00:51:28Z</time>
      </trkpt>
      <trkpt lat="44.08215" lon="3.07908">
        <ele>776</ele>
        <time>2010-01-01T00:51:30Z</time>
      </trkpt>
      <trkpt lat="44.08216" lon="3.07913">
        <ele>777</ele>
        <time>2010-01-01T00:51:31Z</time>
      </trkpt>
      <trkpt lat="44.08217" lon="3.07919">
        <ele>777</ele>
        <time>2010-01-01T00:51:33Z</time>
      </trkpt>
      <trkpt lat="44.08219" lon="3.07926">
        <ele>777</ele>
        <time>2010-01-01T00:51:35Z</time>
      </trkpt>
      <trkpt lat="44.08219" lon="3.07932">
        <ele>778</ele>
        <time>2010-01-01T00:51:37Z</time>
      </trkpt>
      <trkpt lat="44.08218" lon="3.07938">
        <ele>779</ele>
        <time>2010-01-01T00:51:39Z</time>
      </trkpt>
      <trkpt lat="44.08215" lon="3.07943">
        <ele>780</ele>
        <time>2010-01-01T00:51:40Z</time>
      </trkpt>
      <trkpt lat="44.08212" lon="3.07947">
        <ele>781</ele>
        <time>2010-01-01T00:51:42Z</time>
      </trkpt>
      <trkpt lat="44.08209" lon="3.0795">
        <ele>781</ele>
        <time>2010-01-01T00:51:44Z</time>
      </trkpt>
      <trkpt lat="44.08208" lon="3.07955">
        <ele>782</ele>
        <time>2010-01-01T00:51:45Z</time>
      </trkpt>
      <trkpt lat="44.08209" lon="3.0796">
        <ele>782</ele>
        <time>2010-01-01T00:51:46Z</time>
      </trkpt>
      <trkpt lat="44.08209" lon="3.07965">
        <ele>782</ele>
        <time>2010-01-01T00:51:48Z</time>
      </trkpt>
      <trkpt lat="44.0821" lon="3.07971">
        <ele>782</ele>
        <time>2010-01-01T00:51:50Z</time>
      </trkpt>
      <trkpt lat="44.0821" lon="3.07978">
        <ele>782</ele>
        <time>2010-01-01T00:51:52Z</time>
      </trkpt>
      <trkpt lat="44.0821" lon="3.07984">
        <ele>782</ele>
        <time>2010-01-01T00:51:53Z</time>
      </trkpt>
      <trkpt lat="44.0821" lon="3.0799">
        <ele>783</ele>
        <time>2010-01-01T00:51:55Z</time>
      </trkpt>
      <trkpt lat="44.0821" lon="3.07996">
        <ele>783</ele>
        <time>2010-01-01T00:51:57Z</time>
      </trkpt>
      <trkpt lat="44.08209" lon="3.08002">
        <ele>783</ele>
        <time>2010-01-01T00:51:59Z</time>
      </trkpt>
      <trkpt lat="44.08208" lon="3.08007">
        <ele>784</ele>
        <time>2010-01-01T00:52:00Z</time>
      </trkpt>
      <trkpt lat="44.08208" lon="3.08013">
        <ele>785</ele>
        <time>2010-01-01T00:52:02Z</time>
      </trkpt>
      <trkpt lat="44.08208" lon="3.08018">
        <ele>785</ele>
        <time>2010-01-01T00:52:03Z</time>
      </trkpt>
      <trkpt lat="44.08208" lon="3.08024">
        <ele>785</ele>
        <time>2010-01-01T00:52:05Z</time>
      </trkpt>
      <trkpt lat="44.08209" lon="3.0803">
        <ele>786</ele>
        <time>2010-01-01T00:52:07Z</time>
      </trkpt>
      <trkpt lat="44.0821" lon="3.08035">
        <ele>786</ele>
        <time>2010-01-01T00:52:08Z</time>
      </trkpt>
      <trkpt lat="44.0821" lon="3.0804">
        <ele>786</ele>
        <time>2010-01-01T00:52:10Z</time>
      </trkpt>
      <trkpt lat="44.08209" lon="3.08045">
        <ele>787</ele>
        <time>2010-01-01T00:52:11Z</time>
      </trkpt>
      <trkpt lat="44.08207" lon="3.0805">
        <ele>788</ele>
        <time>2010-01-01T00:52:13Z</time>
      </trkpt>
      <trkpt lat="44.08204" lon="3.08054">
        <ele>789</ele>
        <time>2010-01-01T00:52:14Z</time>
      </trkpt>
      <trkpt lat="44.08202" lon="3.08059">
        <ele>789</ele>
        <time>2010-01-01T00:52:16Z</time>
      </trkpt>
      <trkpt lat="44.082" lon="3.08063">
        <ele>790</ele>
        <time>2010-01-01T00:52:18Z</time>
      </trkpt>
      <trkpt lat="44.08199" lon="3.08069">
        <ele>791</ele>
        <time>2010-01-01T00:52:19Z</time>
      </trkpt>
      <trkpt lat="44.08198" lon="3.08074">
        <ele>791</ele>
        <time>2010-01-01T00:52:21Z</time>
      </trkpt>
      <trkpt lat="44.08196" lon="3.08079">
        <ele>792</ele>
        <time>2010-01-01T00:52:22Z</time>
      </trkpt>
      <trkpt lat="44.08194" lon="3.08083">
        <ele>793</ele>
        <time>2010-01-01T00:52:24Z</time>
      </trkpt>
      <trkpt lat="44.08192" lon="3.08088">
        <ele>793</ele>
        <time>2010-01-01T00:52:25Z</time>
      </trkpt>
      <trkpt lat="44.08189" lon="3.08091">
        <ele>793</ele>
        <time>2010-01-01T00:52:27Z</time>
      </trkpt>
      <trkpt lat="44.08186" lon="3.08094">
        <ele>793</ele>
        <time>2010-01-01T00:52:28Z</time>
      </trkpt>
      <trkpt lat="44.08184" lon="3.08097">
        <ele>793</ele>
        <time>2010-01-01T00:52:30Z</time>
      </trkpt>
      <trkpt lat="44.08182" lon="3.081">
        <ele>794</ele>
        <time>2010-01-01T00:52:31Z</time>
      </trkpt>
      <trkpt lat="44.0818" lon="3.08105">
        <ele>794</ele>
        <time>2010-01-01T00:52:32Z</time>
      </trkpt>
      <trkpt lat="44.08179" lon="3.08109">
        <ele>794</ele>
        <time>2010-01-01T00:52:34Z</time>
      </trkpt>
      <trkpt lat="44.08179" lon="3.08113">
        <ele>794</ele>
        <time>2010-01-01T00:52:35Z</time>
      </trkpt>
      <trkpt lat="44.08179" lon="3.08117">
        <ele>794</ele>
        <time>2010-01-01T00:52:36Z</time>
      </trkpt>
      <trkpt lat="44.08178" lon="3.08122">
        <ele>795</ele>
        <time>2010-01-01T00:52:37Z</time>
      </trkpt>
      <trkpt lat="44.08176" lon="3.08126">
        <ele>795</ele>
        <time>2010-01-01T00:52:39Z</time>
      </trkpt>
      <trkpt lat="44.08173" lon="3.0813">
        <ele>795</ele>
        <time>2010-01-01T00:52:40Z</time>
      </trkpt>
      <trkpt lat="44.08172" lon="3.08134">
        <ele>796</ele>
        <time>2010-01-01T00:52:42Z</time>
      </trkpt>
      <trkpt lat="44.08171" lon="3.08138">
        <ele>796</ele>
        <time>2010-01-01T00:52:43Z</time>
      </trkpt>
      <trkpt lat="44.08172" lon="3.08143">
        <ele>796</ele>
        <time>2010-01-01T00:52:44Z</time>
      </trkpt>
      <trkpt lat="44.08173" lon="3.08147">
        <ele>796</ele>
        <time>2010-01-01T00:52:46Z</time>
      </trkpt>
      <trkpt lat="44.08174" lon="3.08151">
        <ele>796</ele>
        <time>2010-01-01T00:52:47Z</time>
      </trkpt>
      <trkpt lat="44.08175" lon="3.08155">
        <ele>795</ele>
        <time>2010-01-01T00:52:48Z</time>
      </trkpt>
      <trkpt lat="44.08176" lon="3.0816">
        <ele>795</ele>
        <time>2010-01-01T00:52:50Z</time>
      </trkpt>
      <trkpt lat="44.08175" lon="3.08165">
        <ele>795</ele>
        <time>2010-01-01T00:52:51Z</time>
      </trkpt>
      <trkpt lat="44.08173" lon="3.08169">
        <ele>795</ele>
        <time>2010-01-01T00:52:53Z</time>
      </trkpt>
      <trkpt lat="44.08173" lon="3.08174">
        <ele>795</ele>
        <time>2010-01-01T00:52:54Z</time>
      </trkpt>
      <trkpt lat="44.08173" lon="3.08179">
        <ele>795</ele>
        <time>2010-01-01T00:52:55Z</time>
      </trkpt>
      <trkpt lat="44.08172" lon="3.08184">
        <ele>795</ele>
        <time>2010-01-01T00:52:57Z</time>
      </trkpt>
      <trkpt lat="44.08172" lon="3.08189">
        <ele>794</ele>
        <time>2010-01-01T00:52:58Z</time>
      </trkpt>
      <trkpt lat="44.08172" lon="3.08194">
        <ele>794</ele>
        <time>2010-01-01T00:53:00Z</time>
      </trkpt>
      <trkpt lat="44.08173" lon="3.08199">
        <ele>794</ele>
        <time>2010-01-01T00:53:01Z</time>
      </trkpt>
      <trkpt lat="44.08173" lon="3.08205">
        <ele>793</ele>
        <time>2010-01-01T00:53:03Z</time>
      </trkpt>
      <trkpt lat="44.08174" lon="3.08211">
        <ele>793</ele>
        <time>2010-01-01T00:53:04Z</time>
      </trkpt>
      <trkpt lat="44.08174" lon="3.08217">
        <ele>793</ele>
        <time>2010-01-01T00:53:06Z</time>
      </trkpt>
      <trkpt lat="44.08172" lon="3.08223">
        <ele>793</ele>
        <time>2010-01-01T00:53:08Z</time>
      </trkpt>
      <trkpt lat="44.08169" lon="3.08229">
        <ele>794</ele>
        <time>2010-01-01T00:53:10Z</time>
      </trkpt>
      <trkpt lat="44.08166" lon="3.08234">
        <ele>795</ele>
        <time>2010-01-01T00:53:12Z</time>
      </trkpt>
      <trkpt lat="44.08163" lon="3.08239">
        <ele>795</ele>
        <time>2010-01-01T00:53:14Z</time>
      </trkpt>
      <trkpt lat="44.08161" lon="3.08245">
        <ele>795</ele>
        <time>2010-01-01T00:53:16Z</time>
      </trkpt>
      <trkpt lat="44.08158" lon="3.08251">
        <ele>796</ele>
        <time>2010-01-01T00:53:18Z</time>
      </trkpt>
      <trkpt lat="44.08156" lon="3.08258">
        <ele>796</ele>
        <time>2010-01-01T00:53:20Z</time>
      </trkpt>
      <trkpt lat="44.08154" lon="3.08266">
        <ele>796</ele>
        <time>2010-01-01T00:53:23Z</time>
      </trkpt>
      <trkpt lat="44.08152" lon="3.08275">
        <ele>796</ele>
        <time>2010-01-01T00:53:25Z</time>
      </trkpt>
      <trkpt lat="44.0815" lon="3.08285">
        <ele>796</ele>
        <time>2010-01-01T00:53:28Z</time>
      </trkpt>
      <trkpt lat="44.08146" lon="3.08296">
        <ele>796</ele>
        <time>2010-01-01T00:53:32Z</time>
      </trkpt>
      <trkpt lat="44.08142" lon="3.08306">
        <ele>797</ele>
        <time>2010-01-01T00:53:35Z</time>
      </trkpt>
      <trkpt lat="44.08139" lon="3.08315">
        <ele>796</ele>
        <time>2010-01-01T00:53:38Z</time>
      </trkpt>
      <trkpt lat="44.08136" lon="3.08324">
        <ele>796</ele>
        <time>2010-01-01T00:53:41Z</time>
      </trkpt>
      <trkpt lat="44.08132" lon="3.08333">
        <ele>795</ele>
        <time>2010-01-01T00:53:44Z</time>
      </trkpt>
      <trkpt lat="44.08127" lon="3.08341">
        <ele>795</ele>
        <time>2010-01-01T00:53:47Z</time>
      </trkpt>
      <trkpt lat="44.08122" lon="3.08349">
        <ele>794</ele>
        <time>2010-01-01T00:53:50Z</time>
      </trkpt>
      <trkpt lat="44.08119" lon="3.08357">
        <ele>794</ele>
        <time>2010-01-01T00:53:52Z</time>
      </trkpt>
      <trkpt lat="44.08115" lon="3.08363">
        <ele>794</ele>
        <time>2010-01-01T00:53:55Z</time>
      </trkpt>
      <trkpt lat="44.08111" lon="3.08368">
        <ele>794</ele>
        <time>2010-01-01T00:53:57Z</time>
      </trkpt>
      <trkpt lat="44.08109" lon="3.08375">
        <ele>794</ele>
        <time>2010-01-01T00:53:59Z</time>
      </trkpt>
      <trkpt lat="44.08105" lon="3.08384">
        <ele>793</ele>
        <time>2010-01-01T00:54:02Z</time>
      </trkpt>
      <trkpt lat="44.08102" lon="3.08394">
        <ele>793</ele>
        <time>2010-01-01T00:54:05Z</time>
      </trkpt>
      <trkpt lat="44.08099" lon="3.08402">
        <ele>792</ele>
        <time>2010-01-01T00:54:08Z</time>
      </trkpt>
      <trkpt lat="44.08096" lon="3.08411">
        <ele>792</ele>
        <time>2010-01-01T00:54:11Z</time>
      </trkpt>
      <trkpt lat="44.08091" lon="3.0842">
        <ele>791</ele>
        <time>2010-01-01T00:54:14Z</time>
      </trkpt>
      <trkpt lat="44.08087" lon="3.08425">
        <ele>791</ele>
        <time>2010-01-01T00:54:16Z</time>
      </trkpt>
      <trkpt lat="44.08084" lon="3.08431">
        <ele>790</ele>
        <time>2010-01-01T00:54:18Z</time>
      </trkpt>
      <trkpt lat="44.08082" lon="3.08438">
        <ele>790</ele>
        <time>2010-01-01T00:54:20Z</time>
      </trkpt>
      <trkpt lat="44.08079" lon="3.08446">
        <ele>789</ele>
        <time>2010-01-01T00:54:23Z</time>
      </trkpt>
      <trkpt lat="44.08076" lon="3.08454">
        <ele>789</ele>
        <time>2010-01-01T00:54:26Z</time>
      </trkpt>
      <trkpt lat="44.08073" lon="3.08461">
        <ele>789</ele>
        <time>2010-01-01T00:54:28Z</time>
      </trkpt>
      <trkpt lat="44.08071" lon="3.08466">
        <ele>789</ele>
        <time>2010-01-01T00:54:30Z</time>
      </trkpt>
      <trkpt lat="44.08069" lon="3.08472">
        <ele>789</ele>
        <time>2010-01-01T00:54:31Z</time>
      </trkpt>
      <trkpt lat="44.08067" lon="3.08479">
        <ele>789</ele>
        <time>2010-01-01T00:54:34Z</time>
      </trkpt>
      <trkpt lat="44.08065" lon="3.08486">
        <ele>789</ele>
        <time>2010-01-01T00:54:36Z</time>
      </trkpt>
      <trkpt lat="44.08064" lon="3.08494">
        <ele>789</ele>
        <time>2010-01-01T00:54:38Z</time>
      </trkpt>
      <trkpt lat="44.08063" lon="3.08504">
        <ele>789</ele>
        <time>2010-01-01T00:54:41Z</time>
      </trkpt>
      <trkpt lat="44.08062" lon="3.08515">
        <ele>788</ele>
        <time>2010-01-01T00:54:44Z</time>
      </trkpt>
      <trkpt lat="44.08061" lon="3.08527">
        <ele>788</ele>
        <time>2010-01-01T00:54:48Z</time>
      </trkpt>
      <trkpt lat="44.0806" lon="3.08541">
        <ele>788</ele>
        <time>2010-01-01T00:54:52Z</time>
      </trkpt>
      <trkpt lat="44.0806" lon="3.08556">
        <ele>787</ele>
        <time>2010-01-01T00:54:56Z</time>
      </trkpt>
      <trkpt lat="44.08059" lon="3.08569">
        <ele>786</ele>
        <time>2010-01-01T00:55:00Z</time>
      </trkpt>
      <trkpt lat="44.08061" lon="3.08578">
        <ele>785</ele>
        <time>2010-01-01T00:55:03Z</time>
      </trkpt>
      <trkpt lat="44.08063" lon="3.08585">
        <ele>784</ele>
        <time>2010-01-01T00:55:05Z</time>
      </trkpt>
      <trkpt lat="44.08064" lon="3.08595">
        <ele>783</ele>
        <time>2010-01-01T00:55:08Z</time>
      </trkpt>
      <trkpt lat="44.08066" lon="3.08606">
        <ele>782</ele>
        <time>2010-01-01T00:55:11Z</time>
      </trkpt>
      <trkpt lat="44.08066" lon="3.08616">
        <ele>781</ele>
        <time>2010-01-01T00:55:14Z</time>
      </trkpt>
      <trkpt lat="44.08068" lon="3.08626">
        <ele>781</ele>
        <time>2010-01-01T00:55:17Z</time>
      </trkpt>
      <trkpt lat="44.08069" lon="3.08637">
        <ele>780</ele>
        <time>2010-01-01T00:55:20Z</time>
      </trkpt>
      <trkpt lat="44.08066" lon="3.08647">
        <ele>780</ele>
        <time>2010-01-01T00:55:23Z</time>
      </trkpt>
      <trkpt lat="44.08062" lon="3.08656">
        <ele>780</ele>
        <time>2010-01-01T00:55:26Z</time>
      </trkpt>
      <trkpt lat="44.08058" lon="3.08667">
        <ele>779</ele>
        <time>2010-01-01T00:55:29Z</time>
      </trkpt>
      <trkpt lat="44.08054" lon="3.08678">
        <ele>778</ele>
        <time>2010-01-01T00:55:33Z</time>
      </trkpt>
      <trkpt lat="44.0805" lon="3.0869">
        <ele>777</ele>
        <time>2010-01-01T00:55:37Z</time>
      </trkpt>
      <trkpt lat="44.08048" lon="3.08699">
        <ele>777</ele>
        <time>2010-01-01T00:55:39Z</time>
      </trkpt>
      <trkpt lat="44.08047" lon="3.0871">
        <ele>775</ele>
        <time>2010-01-01T00:55:43Z</time>
      </trkpt>
      <trkpt lat="44.08042" lon="3.08721">
        <ele>774</ele>
        <time>2010-01-01T00:55:47Z</time>
      </trkpt>
      <trkpt lat="44.08036" lon="3.08733">
        <ele>772</ele>
        <time>2010-01-01T00:55:51Z</time>
      </trkpt>
      <trkpt lat="44.08029" lon="3.08743">
        <ele>771</ele>
        <time>2010-01-01T00:55:55Z</time>
      </trkpt>
      <trkpt lat="44.08024" lon="3.08751">
        <ele>770</ele>
        <time>2010-01-01T00:55:58Z</time>
      </trkpt>
      <trkpt lat="44.08021" lon="3.08757">
        <ele>769</ele>
        <time>2010-01-01T00:56:00Z</time>
      </trkpt>
      <trkpt lat="44.08018" lon="3.08764">
        <ele>768</ele>
        <time>2010-01-01T00:56:02Z</time>
      </trkpt>
      <trkpt lat="44.08015" lon="3.08768">
        <ele>768</ele>
        <time>2010-01-01T00:56:04Z</time>
      </trkpt>
      <trkpt lat="44.08014" lon="3.08774">
        <ele>767</ele>
        <time>2010-01-01T00:56:06Z</time>
      </trkpt>
      <trkpt lat="44.08012" lon="3.08778">
        <ele>766</ele>
        <time>2010-01-01T00:56:07Z</time>
      </trkpt>
      <trkpt lat="44.08011" lon="3.08784">
        <ele>765</ele>
        <time>2010-01-01T00:56:09Z</time>
      </trkpt>
      <trkpt lat="44.08012" lon="3.08791">
        <ele>764</ele>
        <time>2010-01-01T00:56:11Z</time>
      </trkpt>
      <trkpt lat="44.08012" lon="3.08799">
        <ele>763</ele>
        <time>2010-01-01T00:56:13Z</time>
      </trkpt>
      <trkpt lat="44.0801" lon="3.08806">
        <ele>762</ele>
        <time>2010-01-01T00:56:15Z</time>
      </trkpt>
      <trkpt lat="44.08011" lon="3.08812">
        <ele>762</ele>
        <time>2010-01-01T00:56:17Z</time>
      </trkpt>
      <trkpt lat="44.08012" lon="3.08818">
        <ele>761</ele>
        <time>2010-01-01T00:56:19Z</time>
      </trkpt>
      <trkpt lat="44.08011" lon="3.08824">
        <ele>760</ele>
        <time>2010-01-01T00:56:21Z</time>
      </trkpt>
      <trkpt lat="44.08011" lon="3.0883">
        <ele>759</ele>
        <time>2010-01-01T00:56:22Z</time>
      </trkpt>
      <trkpt lat="44.08012" lon="3.08835">
        <ele>759</ele>
        <time>2010-01-01T00:56:24Z</time>
      </trkpt>
      <trkpt lat="44.08011" lon="3.0884">
        <ele>758</ele>
        <time>2010-01-01T00:56:25Z</time>
      </trkpt>
      <trkpt lat="44.08013" lon="3.08846">
        <ele>757</ele>
        <time>2010-01-01T00:56:27Z</time>
      </trkpt>
      <trkpt lat="44.08013" lon="3.08853">
        <ele>756</ele>
        <time>2010-01-01T00:56:29Z</time>
      </trkpt>
      <trkpt lat="44.08013" lon="3.08862">
        <ele>755</ele>
        <time>2010-01-01T00:56:32Z</time>
      </trkpt>
      <trkpt lat="44.08008" lon="3.08872">
        <ele>754</ele>
        <time>2010-01-01T00:56:35Z</time>
      </trkpt>
      <trkpt lat="44.08003" lon="3.08883">
        <ele>754</ele>
        <time>2010-01-01T00:56:39Z</time>
      </trkpt>
      <trkpt lat="44.07998" lon="3.08893">
        <ele>753</ele>
        <time>2010-01-01T00:56:42Z</time>
      </trkpt>
      <trkpt lat="44.07992" lon="3.08906">
        <ele>752</ele>
        <time>2010-01-01T00:56:47Z</time>
      </trkpt>
      <trkpt lat="44.07985" lon="3.08917">
        <ele>752</ele>
        <time>2010-01-01T00:56:51Z</time>
      </trkpt>
      <trkpt lat="44.07979" lon="3.0893">
        <ele>751</ele>
        <time>2010-01-01T00:56:55Z</time>
      </trkpt>
      <trkpt lat="44.07972" lon="3.08944">
        <ele>751</ele>
        <time>2010-01-01T00:57:00Z</time>
      </trkpt>
      <trkpt lat="44.07966" lon="3.08959">
        <ele>750</ele>
        <time>2010-01-01T00:57:05Z</time>
      </trkpt>
      <trkpt lat="44.0796" lon="3.08975">
        <ele>749</ele>
        <time>2010-01-01T00:57:10Z</time>
      </trkpt>
      <trkpt lat="44.07954" lon="3.0899">
        <ele>748</ele>
        <time>2010-01-01T00:57:15Z</time>
      </trkpt>
      <trkpt lat="44.0795" lon="3.09005">
        <ele>748</ele>
        <time>2010-01-01T00:57:20Z</time>
      </trkpt>
      <trkpt lat="44.07947" lon="3.0902">
        <ele>747</ele>
        <time>2010-01-01T00:57:24Z</time>
      </trkpt>
      <trkpt lat="44.07943" lon="3.09035">
        <ele>746</ele>
        <time>2010-01-01T00:57:29Z</time>
      </trkpt>
      <trkpt lat="44.07939" lon="3.09047">
        <ele>746</ele>
        <time>2010-01-01T00:57:33Z</time>
      </trkpt>
      <trkpt lat="44.07934" lon="3.09061">
        <ele>746</ele>
        <time>2010-01-01T00:57:37Z</time>
      </trkpt>
      <trkpt lat="44.07929" lon="3.09076">
        <ele>745</ele>
        <time>2010-01-01T00:57:42Z</time>
      </trkpt>
      <trkpt lat="44.07922" lon="3.09091">
        <ele>744</ele>
        <time>2010-01-01T00:57:47Z</time>
      </trkpt>
      <trkpt lat="44.07915" lon="3.09105">
        <ele>743</ele>
        <time>2010-01-01T00:57:52Z</time>
      </trkpt>
      <trkpt lat="44.07907" lon="3.09118">
        <ele>741</ele>
        <time>2010-01-01T00:57:57Z</time>
      </trkpt>
      <trkpt lat="44.07899" lon="3.09129">
        <ele>740</ele>
        <time>2010-01-01T00:58:02Z</time>
      </trkpt>
      <trkpt lat="44.07891" lon="3.09139">
        <ele>739</ele>
        <time>2010-01-01T00:58:06Z</time>
      </trkpt>
      <trkpt lat="44.07883" lon="3.09144">
        <ele>738</ele>
        <time>2010-01-01T00:58:09Z</time>
      </trkpt>
      <trkpt lat="44.07877" lon="3.09144">
        <ele>738</ele>
        <time>2010-01-01T00:58:12Z</time>
      </trkpt>
      <trkpt lat="44.07877" lon="3.09144">
        <ele>738</ele>
        <time>2010-01-01T00:58:12Z</time>
      </trkpt>
      <trkpt lat="44.07876" lon="3.09144">
        <ele>738</ele>
        <time>2010-01-01T00:58:12Z</time>
      </trkpt>
      <trkpt lat="44.07876" lon="3.09147">
        <ele>738</ele>
        <time>2010-01-01T00:58:13Z</time>
      </trkpt>
      <trkpt lat="44.07876" lon="3.09151">
        <ele>737</ele>
        <time>2010-01-01T00:58:14Z</time>
      </trkpt>
      <trkpt lat="44.07874" lon="3.09154">
        <ele>737</ele>
        <time>2010-01-01T00:58:15Z</time>
      </trkpt>
      <trkpt lat="44.07871" lon="3.09159">
        <ele>737</ele>
        <time>2010-01-01T00:58:17Z</time>
      </trkpt>
      <trkpt lat="44.07866" lon="3.09163">
        <ele>736</ele>
        <time>2010-01-01T00:58:19Z</time>
      </trkpt>
      <trkpt lat="44.07859" lon="3.09167">
        <ele>736</ele>
        <time>2010-01-01T00:58:22Z</time>
      </trkpt>
      <trkpt lat="44.07852" lon="3.09174">
        <ele>736</ele>
        <time>2010-01-01T00:58:26Z</time>
      </trkpt>
      <trkpt lat="44.07848" lon="3.09182">
        <ele>736</ele>
        <time>2010-01-01T00:58:29Z</time>
      </trkpt>
      <trkpt lat="44.07846" lon="3.0919">
        <ele>735</ele>
        <time>2010-01-01T00:58:31Z</time>
      </trkpt>
      <trkpt lat="44.07846" lon="3.09196">
        <ele>735</ele>
        <time>2010-01-01T00:58:33Z</time>
      </trkpt>
      <trkpt lat="44.07845" lon="3.09203">
        <ele>735</ele>
        <time>2010-01-01T00:58:35Z</time>
      </trkpt>
      <trkpt lat="44.07845" lon="3.0921">
        <ele>735</ele>
        <time>2010-01-01T00:58:37Z</time>
      </trkpt>
      <trkpt lat="44.07845" lon="3.09217">
        <ele>735</ele>
        <time>2010-01-01T00:58:39Z</time>
      </trkpt>
      <trkpt lat="44.07847" lon="3.09222">
        <ele>734</ele>
        <time>2010-01-01T00:58:40Z</time>
      </trkpt>
      <trkpt lat="44.0785" lon="3.09225">
        <ele>734</ele>
        <time>2010-01-01T00:58:42Z</time>
      </trkpt>
      <trkpt lat="44.07854" lon="3.09232">
        <ele>733</ele>
        <time>2010-01-01T00:58:45Z</time>
      </trkpt>
      <trkpt lat="44.07859" lon="3.0924">
        <ele>732</ele>
        <time>2010-01-01T00:58:47Z</time>
      </trkpt>
      <trkpt lat="44.07864" lon="3.09249">
        <ele>731</ele>
        <time>2010-01-01T00:58:51Z</time>
      </trkpt>
      <trkpt lat="44.07871" lon="3.09253">
        <ele>730</ele>
        <time>2010-01-01T00:58:54Z</time>
      </trkpt>
      <trkpt lat="44.07881" lon="3.09258">
        <ele>730</ele>
        <time>2010-01-01T00:58:58Z</time>
      </trkpt>
      <trkpt lat="44.07893" lon="3.09268">
        <ele>729</ele>
        <time>2010-01-01T00:59:04Z</time>
      </trkpt>
      <trkpt lat="44.07901" lon="3.09273">
        <ele>729</ele>
        <time>2010-01-01T00:59:07Z</time>
      </trkpt>
      <trkpt lat="44.07909" lon="3.0928">
        <ele>729</ele>
        <time>2010-01-01T00:59:11Z</time>
      </trkpt>
      <trkpt lat="44.07916" lon="3.09286">
        <ele>729</ele>
        <time>2010-01-01T00:59:14Z</time>
      </trkpt>
      <trkpt lat="44.07919" lon="3.0929">
        <ele>729</ele>
        <time>2010-01-01T00:59:16Z</time>
      </trkpt>
      <trkpt lat="44.07922" lon="3.09294">
        <ele>729</ele>
        <time>2010-01-01T00:59:18Z</time>
      </trkpt>
      <trkpt lat="44.07925" lon="3.09298">
        <ele>729</ele>
        <time>2010-01-01T00:59:19Z</time>
      </trkpt>
      <trkpt lat="44.07929" lon="3.09302">
        <ele>729</ele>
        <time>2010-01-01T00:59:21Z</time>
      </trkpt>
      <trkpt lat="44.07933" lon="3.09305">
        <ele>729</ele>
        <time>2010-01-01T00:59:23Z</time>
      </trkpt>
      <trkpt lat="44.07937" lon="3.09306">
        <ele>729</ele>
        <time>2010-01-01T00:59:25Z</time>
      </trkpt>
      <trkpt lat="44.07942" lon="3.09306">
        <ele>728</ele>
        <time>2010-01-01T00:59:27Z</time>
      </trkpt>
      <trkpt lat="44.07947" lon="3.09306">
        <ele>727</ele>
        <time>2010-01-01T00:59:29Z</time>
      </trkpt>
      <trkpt lat="44.07953" lon="3.09307">
        <ele>727</ele>
        <time>2010-01-01T00:59:31Z</time>
      </trkpt>
      <trkpt lat="44.07959" lon="3.09308">
        <ele>727</ele>
        <time>2010-01-01T00:59:34Z</time>
      </trkpt>
      <trkpt lat="44.07965" lon="3.0931">
        <ele>728</ele>
        <time>2010-01-01T00:59:36Z</time>
      </trkpt>
      <trkpt lat="44.0797" lon="3.09311">
        <ele>728</ele>
        <time>2010-01-01T00:59:38Z</time>
      </trkpt>
      <trkpt lat="44.07975" lon="3.09313">
        <ele>728</ele>
        <time>2010-01-01T00:59:40Z</time>
      </trkpt>
      <trkpt lat="44.07981" lon="3.09314">
        <ele>729</ele>
        <time>2010-01-01T00:59:42Z</time>
      </trkpt>
      <trkpt lat="44.07986" lon="3.09317">
        <ele>730</ele>
        <time>2010-01-01T00:59:45Z</time>
      </trkpt>
      <trkpt lat="44.0799" lon="3.0932">
        <ele>731</ele>
        <time>2010-01-01T00:59:46Z</time>
      </trkpt>
      <trkpt lat="44.07993" lon="3.09322">
        <ele>732</ele>
        <time>2010-01-01T00:59:48Z</time>
      </trkpt>
      <trkpt lat="44.07999" lon="3.09322">
        <ele>732</ele>
        <time>2010-01-01T00:59:50Z</time>
      </trkpt>
      <trkpt lat="44.08005" lon="3.0932">
        <ele>732</ele>
        <time>2010-01-01T00:59:53Z</time>
      </trkpt>
      <trkpt lat="44.08012" lon="3.09318">
        <ele>732</ele>
        <time>2010-01-01T00:59:56Z</time>
      </trkpt>
      <trkpt lat="44.08021" lon="3.09316">
        <ele>732</ele>
        <time>2010-01-01T00:59:59Z</time>
      </trkpt>
      <trkpt lat="44.0803" lon="3.09312">
        <ele>731</ele>
        <time>2010-01-01T01:00:03Z</time>
      </trkpt>
      <trkpt lat="44.0804" lon="3.09308">
        <ele>731</ele>
        <time>2010-01-01T01:00:07Z</time>
      </trkpt>
      <trkpt lat="44.0805" lon="3.09302">
        <ele>730</ele>
        <time>2010-01-01T01:00:11Z</time>
      </trkpt>
      <trkpt lat="44.08058" lon="3.09293">
        <ele>728</ele>
        <time>2010-01-01T01:00:16Z</time>
      </trkpt>
      <trkpt lat="44.08066" lon="3.09287">
        <ele>727</ele>
        <time>2010-01-01T01:00:19Z</time>
      </trkpt>
      <trkpt lat="44.08074" lon="3.09284">
        <ele>726</ele>
        <time>2010-01-01T01:00:23Z</time>
      </trkpt>
      <trkpt lat="44.0808" lon="3.09282">
        <ele>726</ele>
        <time>2010-01-01T01:00:25Z</time>
      </trkpt>
      <trkpt lat="44.08084" lon="3.09282">
        <ele>726</ele>
        <time>2010-01-01T01:00:27Z</time>
      </trkpt>
      <trkpt lat="44.08088" lon="3.09281">
        <ele>726</ele>
        <time>2010-01-01T01:00:28Z</time>
      </trkpt>
      <trkpt lat="44.08092" lon="3.09281">
        <ele>726</ele>
        <time>2010-01-01T01:00:30Z</time>
      </trkpt>
      <trkpt lat="44.08095" lon="3.09281">
        <ele>726</ele>
        <time>2010-01-01T01:00:31Z</time>
      </trkpt>
      <trkpt lat="44.08098" lon="3.09279">
        <ele>726</ele>
        <time>2010-01-01T01:00:32Z</time>
      </trkpt>
      <trkpt lat="44.08103" lon="3.09277">
        <ele>726</ele>
        <time>2010-01-01T01:00:34Z</time>
      </trkpt>
      <trkpt lat="44.08107" lon="3.09275">
        <ele>725</ele>
        <time>2010-01-01T01:00:36Z</time>
      </trkpt>
      <trkpt lat="44.08112" lon="3.09273">
        <ele>725</ele>
        <time>2010-01-01T01:00:38Z</time>
      </trkpt>
      <trkpt lat="44.08117" lon="3.0927">
        <ele>724</ele>
        <time>2010-01-01T01:00:40Z</time>
      </trkpt>
      <trkpt lat="44.08122" lon="3.09268">
        <ele>724</ele>
        <time>2010-01-01T01:00:42Z</time>
      </trkpt>
      <trkpt lat="44.08126" lon="3.09265">
        <ele>723</ele>
        <time>2010-01-01T01:00:44Z</time>
      </trkpt>
      <trkpt lat="44.0813" lon="3.09263">
        <ele>723</ele>
        <time>2010-01-01T01:00:46Z</time>
      </trkpt>
      <trkpt lat="44.08134" lon="3.09261">
        <ele>723</ele>
        <time>2010-01-01T01:00:48Z</time>
      </trkpt>
      <trkpt lat="44.08137" lon="3.09262">
        <ele>723</ele>
        <time>2010-01-01T01:00:49Z</time>
      </trkpt>
      <trkpt lat="44.08138" lon="3.09266">
        <ele>725</ele>
        <time>2010-01-01T01:00:50Z</time>
      </trkpt>
      <trkpt lat="44.08137" lon="3.0927">
        <ele>726</ele>
        <time>2010-01-01T01:00:51Z</time>
      </trkpt>
      <trkpt lat="44.08137" lon="3.09274">
        <ele>727</ele>
        <time>2010-01-01T01:00:52Z</time>
      </trkpt>
      <trkpt lat="44.08139" lon="3.09277">
        <ele>728</ele>
        <time>2010-01-01T01:00:53Z</time>
      </trkpt>
      <trkpt lat="44.08139" lon="3.09281">
        <ele>729</ele>
        <time>2010-01-01T01:00:54Z</time>
      </trkpt>
      <trkpt lat="44.0814" lon="3.09285">
        <ele>730</ele>
        <time>2010-01-01T01:00:56Z</time>
      </trkpt>
      <trkpt lat="44.0814" lon="3.09288">
        <ele>730</ele>
        <time>2010-01-01T01:00:56Z</time>
      </trkpt>
      <trkpt lat="44.08141" lon="3.0929">
        <ele>730</ele>
        <time>2010-01-01T01:00:57Z</time>
      </trkpt>
      <trkpt lat="44.08141" lon="3.09293">
        <ele>731</ele>
        <time>2010-01-01T01:00:58Z</time>
      </trkpt>
      <trkpt lat="44.08141" lon="3.09297">
        <ele>731</ele>
        <time>2010-01-01T01:00:59Z</time>
      </trkpt>
      <trkpt lat="44.08142" lon="3.093">
        <ele>732</ele>
        <time>2010-01-01T01:01:00Z</time>
      </trkpt>
      <trkpt lat="44.08141" lon="3.09304">
        <ele>732</ele>
        <time>2010-01-01T01:01:01Z</time>
      </trkpt>
      <trkpt lat="44.0814" lon="3.09307">
        <ele>733</ele>
        <time>2010-01-01T01:01:02Z</time>
      </trkpt>
      <trkpt lat="44.08139" lon="3.0931">
        <ele>734</ele>
        <time>2010-01-01T01:01:03Z</time>
      </trkpt>
      <trkpt lat="44.08138" lon="3.09314">
        <ele>735</ele>
        <time>2010-01-01T01:01:04Z</time>
      </trkpt>
      <trkpt lat="44.08137" lon="3.09317">
        <ele>735</ele>
        <time>2010-01-01T01:01:05Z</time>
      </trkpt>
      <trkpt lat="44.08137" lon="3.0932">
        <ele>736</ele>
        <time>2010-01-01T01:01:06Z</time>
      </trkpt>
      <trkpt lat="44.08137" lon="3.09323">
        <ele>736</ele>
        <time>2010-01-01T01:01:07Z</time>
      </trkpt>
      <trkpt lat="44.08137" lon="3.09327">
        <ele>737</ele>
        <time>2010-01-01T01:01:08Z</time>
      </trkpt>
      <trkpt lat="44.08137" lon="3.0933">
        <ele>737</ele>
        <time>2010-01-01T01:01:09Z</time>
      </trkpt>
      <trkpt lat="44.08136" lon="3.09334">
        <ele>738</ele>
        <time>2010-01-01T01:01:10Z</time>
      </trkpt>
      <trkpt lat="44.08136" lon="3.09336">
        <ele>738</ele>
        <time>2010-01-01T01:01:11Z</time>
      </trkpt>
      <trkpt lat="44.08136" lon="3.09337">
        <ele>738</ele>
        <time>2010-01-01T01:01:11Z</time>
      </trkpt>
      <trkpt lat="44.08136" lon="3.09339">
        <ele>738</ele>
        <time>2010-01-01T01:01:12Z</time>
      </trkpt>
      <trkpt lat="44.08136" lon="3.09341">
        <ele>738</ele>
        <time>2010-01-01T01:01:12Z</time>
      </trkpt>
      <trkpt lat="44.08136" lon="3.09343">
        <ele>738</ele>
        <time>2010-01-01T01:01:13Z</time>
      </trkpt>
      <trkpt lat="44.08136" lon="3.09345">
        <ele>738</ele>
        <time>2010-01-01T01:01:14Z</time>
      </trkpt>
      <trkpt lat="44.08137" lon="3.09348">
        <ele>738</ele>
        <time>2010-01-01T01:01:15Z</time>
      </trkpt>
      <trkpt lat="44.08136" lon="3.09351">
        <ele>738</ele>
        <time>2010-01-01T01:01:15Z</time>
      </trkpt>
      <trkpt lat="44.08136" lon="3.09354">
        <ele>738</ele>
        <time>2010-01-01T01:01:16Z</time>
      </trkpt>
      <trkpt lat="44.08136" lon="3.09357">
        <ele>739</ele>
        <time>2010-01-01T01:01:17Z</time>
      </trkpt>
      <trkpt lat="44.08136" lon="3.0936">
        <ele>739</ele>
        <time>2010-01-01T01:01:18Z</time>
      </trkpt>
      <trkpt lat="44.08136" lon="3.09363">
        <ele>739</ele>
        <time>2010-01-01T01:01:19Z</time>
      </trkpt>
      <trkpt lat="44.08136" lon="3.09365">
        <ele>739</ele>
        <time>2010-01-01T01:01:19Z</time>
      </trkpt>
      <trkpt lat="44.08136" lon="3.09368">
        <ele>739</ele>
        <time>2010-01-01T01:01:20Z</time>
      </trkpt>
      <trkpt lat="44.08136" lon="3.0937">
        <ele>739</ele>
        <time>2010-01-01T01:01:21Z</time>
      </trkpt>
      <trkpt lat="44.08136" lon="3.09375">
        <ele>739</ele>
        <time>2010-01-01T01:01:22Z</time>
      </trkpt>
      <trkpt lat="44.08136" lon="3.09378">
        <ele>740</ele>
        <time>2010-01-01T01:01:23Z</time>
      </trkpt>
      <trkpt lat="44.08135" lon="3.0938">
        <ele>740</ele>
        <time>2010-01-01T01:01:24Z</time>
      </trkpt>
      <trkpt lat="44.08135" lon="3.09383">
        <ele>740</ele>
        <time>2010-01-01T01:01:24Z</time>
      </trkpt>
      <trkpt lat="44.08135" lon="3.09385">
        <ele>740</ele>
        <time>2010-01-01T01:01:25Z</time>
      </trkpt>
      <trkpt lat="44.08136" lon="3.09388">
        <ele>740</ele>
        <time>2010-01-01T01:01:26Z</time>
      </trkpt>
      <trkpt lat="44.08135" lon="3.0939">
        <ele>740</ele>
        <time>2010-01-01T01:01:27Z</time>
      </trkpt>
      <trkpt lat="44.08135" lon="3.09392">
        <ele>740</ele>
        <time>2010-01-01T01:01:27Z</time>
      </trkpt>
      <trkpt lat="44.08134" lon="3.09395">
        <ele>740</ele>
        <time>2010-01-01T01:01:28Z</time>
      </trkpt>
      <trkpt lat="44.08134" lon="3.09398">
        <ele>740</ele>
        <time>2010-01-01T01:01:29Z</time>
      </trkpt>
      <trkpt lat="44.08135" lon="3.09401">
        <ele>740</ele>
        <time>2010-01-01T01:01:30Z</time>
      </trkpt>
      <trkpt lat="44.08135" lon="3.09403">
        <ele>740</ele>
        <time>2010-01-01T01:01:31Z</time>
      </trkpt>
      <trkpt lat="44.08136" lon="3.09405">
        <ele>740</ele>
        <time>2010-01-01T01:01:31Z</time>
      </trkpt>
      <trkpt lat="44.08136" lon="3.09406">
        <ele>740</ele>
        <time>2010-01-01T01:01:31Z</time>
      </trkpt>
      <trkpt lat="44.08138" lon="3.09408">
        <ele>740</ele>
        <time>2010-01-01T01:01:32Z</time>
      </trkpt>
      <trkpt lat="44.08138" lon="3.09411">
        <ele>740</ele>
        <time>2010-01-01T01:01:33Z</time>
      </trkpt>
      <trkpt lat="44.08138" lon="3.09414">
        <ele>740</ele>
        <time>2010-01-01T01:01:34Z</time>
      </trkpt>
      <trkpt lat="44.08139" lon="3.09418">
        <ele>740</ele>
        <time>2010-01-01T01:01:35Z</time>
      </trkpt>
      <trkpt lat="44.08139" lon="3.09422">
        <ele>740</ele>
        <time>2010-01-01T01:01:36Z</time>
      </trkpt>
      <trkpt lat="44.0814" lon="3.09427">
        <ele>740</ele>
        <time>2010-01-01T01:01:38Z</time>
      </trkpt>
      <trkpt lat="44.08141" lon="3.09432">
        <ele>740</ele>
        <time>2010-01-01T01:01:39Z</time>
      </trkpt>
      <trkpt lat="44.08141" lon="3.09437">
        <ele>740</ele>
        <time>2010-01-01T01:01:41Z</time>
      </trkpt>
      <trkpt lat="44.08141" lon="3.09442">
        <ele>741</ele>
        <time>2010-01-01T01:01:42Z</time>
      </trkpt>
      <trkpt lat="44.0814" lon="3.09447">
        <ele>741</ele>
        <time>2010-01-01T01:01:44Z</time>
      </trkpt>
      <trkpt lat="44.0814" lon="3.09452">
        <ele>741</ele>
        <time>2010-01-01T01:01:45Z</time>
      </trkpt>
      <trkpt lat="44.08139" lon="3.09458">
        <ele>741</ele>
        <time>2010-01-01T01:01:47Z</time>
      </trkpt>
      <trkpt lat="44.08139" lon="3.09463">
        <ele>742</ele>
        <time>2010-01-01T01:01:48Z</time>
      </trkpt>
      <trkpt lat="44.08138" lon="3.0947">
        <ele>742</ele>
        <time>2010-01-01T01:01:50Z</time>
      </trkpt>
      <trkpt lat="44.08137" lon="3.09476">
        <ele>742</ele>
        <time>2010-01-01T01:01:52Z</time>
      </trkpt>
      <trkpt lat="44.08137" lon="3.09483">
        <ele>742</ele>
        <time>2010-01-01T01:01:54Z</time>
      </trkpt>
      <trkpt lat="44.08135" lon="3.0949">
        <ele>743</ele>
        <time>2010-01-01T01:01:56Z</time>
      </trkpt>
      <trkpt lat="44.08133" lon="3.09498">
        <ele>744</ele>
        <time>2010-01-01T01:01:58Z</time>
      </trkpt>
      <trkpt lat="44.0813" lon="3.09505">
        <ele>745</ele>
        <time>2010-01-01T01:02:01Z</time>
      </trkpt>
      <trkpt lat="44.08128" lon="3.09512">
        <ele>745</ele>
        <time>2010-01-01T01:02:03Z</time>
      </trkpt>
      <trkpt lat="44.08125" lon="3.09519">
        <ele>746</ele>
        <time>2010-01-01T01:02:06Z</time>
      </trkpt>
      <trkpt lat="44.08122" lon="3.09527">
        <ele>747</ele>
        <time>2010-01-01T01:02:08Z</time>
      </trkpt>
      <trkpt lat="44.08121" lon="3.09536">
        <ele>747</ele>
        <time>2010-01-01T01:02:10Z</time>
      </trkpt>
      <trkpt lat="44.0812" lon="3.09544">
        <ele>747</ele>
        <time>2010-01-01T01:02:13Z</time>
      </trkpt>
      <trkpt lat="44.08119" lon="3.09551">
        <ele>747</ele>
        <time>2010-01-01T01:02:15Z</time>
      </trkpt>
      <trkpt lat="44.08119" lon="3.09559">
        <ele>747</ele>
        <time>2010-01-01T01:02:17Z</time>
      </trkpt>
      <trkpt lat="44.08118" lon="3.09566">
        <ele>748</ele>
        <time>2010-01-01T01:02:19Z</time>
      </trkpt>
      <trkpt lat="44.08117" lon="3.09574">
        <ele>748</ele>
        <time>2010-01-01T01:02:22Z</time>
      </trkpt>
      <trkpt lat="44.08117" lon="3.0958">
        <ele>749</ele>
        <time>2010-01-01T01:02:23Z</time>
      </trkpt>
      <trkpt lat="44.08115" lon="3.09588">
        <ele>749</ele>
        <time>2010-01-01T01:02:26Z</time>
      </trkpt>
      <trkpt lat="44.08113" lon="3.09595">
        <ele>750</ele>
        <time>2010-01-01T01:02:28Z</time>
      </trkpt>
      <trkpt lat="44.08111" lon="3.09603">
        <ele>750</ele>
        <time>2010-01-01T01:02:30Z</time>
      </trkpt>
      <trkpt lat="44.08111" lon="3.0961">
        <ele>751</ele>
        <time>2010-01-01T01:02:32Z</time>
      </trkpt>
      <trkpt lat="44.0811" lon="3.09617">
        <ele>750</ele>
        <time>2010-01-01T01:02:34Z</time>
      </trkpt>
      <trkpt lat="44.0811" lon="3.09624">
        <ele>750</ele>
        <time>2010-01-01T01:02:36Z</time>
      </trkpt>
      <trkpt lat="44.08109" lon="3.09631">
        <ele>750</ele>
        <time>2010-01-01T01:02:38Z</time>
      </trkpt>
      <trkpt lat="44.08108" lon="3.09638">
        <ele>750</ele>
        <time>2010-01-01T01:02:40Z</time>
      </trkpt>
      <trkpt lat="44.08107" lon="3.09646">
        <ele>749</ele>
        <time>2010-01-01T01:02:43Z</time>
      </trkpt>
      <trkpt lat="44.08106" lon="3.09654">
        <ele>749</ele>
        <time>2010-01-01T01:02:45Z</time>
      </trkpt>
      <trkpt lat="44.08107" lon="3.09661">
        <ele>749</ele>
        <time>2010-01-01T01:02:47Z</time>
      </trkpt>
      <trkpt lat="44.08107" lon="3.09669">
        <ele>749</ele>
        <time>2010-01-01T01:02:50Z</time>
      </trkpt>
      <trkpt lat="44.08108" lon="3.09677">
        <ele>749</ele>
        <time>2010-01-01T01:02:52Z</time>
      </trkpt>
      <trkpt lat="44.08108" lon="3.09685">
        <ele>749</ele>
        <time>2010-01-01T01:02:54Z</time>
      </trkpt>
      <trkpt lat="44.08107" lon="3.09694">
        <ele>749</ele>
        <time>2010-01-01T01:02:57Z</time>
      </trkpt>
      <trkpt lat="44.08106" lon="3.09703">
        <ele>749</ele>
        <time>2010-01-01T01:02:59Z</time>
      </trkpt>
      <trkpt lat="44.08107" lon="3.09711">
        <ele>749</ele>
        <time>2010-01-01T01:03:02Z</time>
      </trkpt>
      <trkpt lat="44.08108" lon="3.09718">
        <ele>749</ele>
        <time>2010-01-01T01:03:04Z</time>
      </trkpt>
      <trkpt lat="44.08109" lon="3.09726">
        <ele>749</ele>
        <time>2010-01-01T01:03:06Z</time>
      </trkpt>
      <trkpt lat="44.08108" lon="3.09734">
        <ele>749</ele>
        <time>2010-01-01T01:03:08Z</time>
      </trkpt>
      <trkpt lat="44.08107" lon="3.09742">
        <ele>749</ele>
        <time>2010-01-01T01:03:11Z</time>
      </trkpt>
      <trkpt lat="44.08106" lon="3.09749">
        <ele>750</ele>
        <time>2010-01-01T01:03:13Z</time>
      </trkpt>
      <trkpt lat="44.08106" lon="3.09757">
        <ele>750</ele>
        <time>2010-01-01T01:03:15Z</time>
      </trkpt>
      <trkpt lat="44.08108" lon="3.09764">
        <ele>751</ele>
        <time>2010-01-01T01:03:17Z</time>
      </trkpt>
      <trkpt lat="44.08109" lon="3.0977">
        <ele>751</ele>
        <time>2010-01-01T01:03:19Z</time>
      </trkpt>
      <trkpt lat="44.08111" lon="3.09777">
        <ele>751</ele>
        <time>2010-01-01T01:03:21Z</time>
      </trkpt>
      <trkpt lat="44.08112" lon="3.09783">
        <ele>752</ele>
        <time>2010-01-01T01:03:23Z</time>
      </trkpt>
      <trkpt lat="44.08114" lon="3.0979">
        <ele>752</ele>
        <time>2010-01-01T01:03:25Z</time>
      </trkpt>
      <trkpt lat="44.08116" lon="3.09796">
        <ele>753</ele>
        <time>2010-01-01T01:03:27Z</time>
      </trkpt>
      <trkpt lat="44.08117" lon="3.09803">
        <ele>753</ele>
        <time>2010-01-01T01:03:29Z</time>
      </trkpt>
      <trkpt lat="44.08118" lon="3.0981">
        <ele>754</ele>
        <time>2010-01-01T01:03:31Z</time>
      </trkpt>
      <trkpt lat="44.08119" lon="3.09817">
        <ele>754</ele>
        <time>2010-01-01T01:03:33Z</time>
      </trkpt>
      <trkpt lat="44.08122" lon="3.09823">
        <ele>754</ele>
        <time>2010-01-01T01:03:35Z</time>
      </trkpt>
      <trkpt lat="44.08123" lon="3.09829">
        <ele>754</ele>
        <time>2010-01-01T01:03:37Z</time>
      </trkpt>
      <trkpt lat="44.08125" lon="3.09834">
        <ele>754</ele>
        <time>2010-01-01T01:03:39Z</time>
      </trkpt>
      <trkpt lat="44.08125" lon="3.09839">
        <ele>754</ele>
        <time>2010-01-01T01:03:40Z</time>
      </trkpt>
      <trkpt lat="44.08126" lon="3.09843">
        <ele>754</ele>
        <time>2010-01-01T01:03:41Z</time>
      </trkpt>
      <trkpt lat="44.08126" lon="3.09846">
        <ele>754</ele>
        <time>2010-01-01T01:03:42Z</time>
      </trkpt>
      <trkpt lat="44.08126" lon="3.09846">
        <ele>754</ele>
        <time>2010-01-01T01:03:42Z</time>
      </trkpt>
      <trkpt lat="44.08126" lon="3.09846">
        <ele>754</ele>
        <time>2010-01-01T01:03:42Z</time>
      </trkpt>
      <trkpt lat="44.08127" lon="3.09851">
        <ele>754</ele>
        <time>2010-01-01T01:03:44Z</time>
      </trkpt>
      <trkpt lat="44.08128" lon="3.09857">
        <ele>754</ele>
        <time>2010-01-01T01:03:46Z</time>
      </trkpt>
      <trkpt lat="44.0813" lon="3.09863">
        <ele>754</ele>
        <time>2010-01-01T01:03:47Z</time>
      </trkpt>
      <trkpt lat="44.08132" lon="3.09869">
        <ele>754</ele>
        <time>2010-01-01T01:03:49Z</time>
      </trkpt>
      <trkpt lat="44.08134" lon="3.09875">
        <ele>754</ele>
        <time>2010-01-01T01:03:51Z</time>
      </trkpt>
      <trkpt lat="44.08135" lon="3.09881">
        <ele>754</ele>
        <time>2010-01-01T01:03:53Z</time>
      </trkpt>
      <trkpt lat="44.08136" lon="3.09886">
        <ele>755</ele>
        <time>2010-01-01T01:03:55Z</time>
      </trkpt>
      <trkpt lat="44.08136" lon="3.09891">
        <ele>755</ele>
        <time>2010-01-01T01:03:56Z</time>
      </trkpt>
      <trkpt lat="44.08136" lon="3.09896">
        <ele>756</ele>
        <time>2010-01-01T01:03:57Z</time>
      </trkpt>
      <trkpt lat="44.08137" lon="3.099">
        <ele>757</ele>
        <time>2010-01-01T01:03:59Z</time>
      </trkpt>
      <trkpt lat="44.08138" lon="3.09904">
        <ele>757</ele>
        <time>2010-01-01T01:04:00Z</time>
      </trkpt>
      <trkpt lat="44.08139" lon="3.09908">
        <ele>758</ele>
        <time>2010-01-01T01:04:01Z</time>
      </trkpt>
      <trkpt lat="44.0814" lon="3.09911">
        <ele>758</ele>
        <time>2010-01-01T01:04:02Z</time>
      </trkpt>
      <trkpt lat="44.08141" lon="3.09914">
        <ele>758</ele>
        <time>2010-01-01T01:04:03Z</time>
      </trkpt>
      <trkpt lat="44.08141" lon="3.09918">
        <ele>758</ele>
        <time>2010-01-01T01:04:04Z</time>
      </trkpt>
      <trkpt lat="44.08143" lon="3.09921">
        <ele>758</ele>
        <time>2010-01-01T01:04:05Z</time>
      </trkpt>
      <trkpt lat="44.08144" lon="3.09926">
        <ele>758</ele>
        <time>2010-01-01T01:04:06Z</time>
      </trkpt>
      <trkpt lat="44.08145" lon="3.0993">
        <ele>758</ele>
        <time>2010-01-01T01:04:08Z</time>
      </trkpt>
      <trkpt lat="44.08145" lon="3.09934">
        <ele>759</ele>
        <time>2010-01-01T01:04:09Z</time>
      </trkpt>
      <trkpt lat="44.08146" lon="3.09937">
        <ele>759</ele>
        <time>2010-01-01T01:04:10Z</time>
      </trkpt>
      <trkpt lat="44.08147" lon="3.09941">
        <ele>759</ele>
        <time>2010-01-01T01:04:11Z</time>
      </trkpt>
      <trkpt lat="44.08148" lon="3.09945">
        <ele>759</ele>
        <time>2010-01-01T01:04:12Z</time>
      </trkpt>
      <trkpt lat="44.08149" lon="3.09949">
        <ele>759</ele>
        <time>2010-01-01T01:04:14Z</time>
      </trkpt>
      <trkpt lat="44.0815" lon="3.09954">
        <ele>759</ele>
        <time>2010-01-01T01:04:15Z</time>
      </trkpt>
      <trkpt lat="44.08151" lon="3.09959">
        <ele>760</ele>
        <time>2010-01-01T01:04:16Z</time>
      </trkpt>
      <trkpt lat="44.08151" lon="3.09964">
        <ele>760</ele>
        <time>2010-01-01T01:04:18Z</time>
      </trkpt>
      <trkpt lat="44.08153" lon="3.09969">
        <ele>761</ele>
        <time>2010-01-01T01:04:20Z</time>
      </trkpt>
      <trkpt lat="44.08154" lon="3.09975">
        <ele>761</ele>
        <time>2010-01-01T01:04:21Z</time>
      </trkpt>
      <trkpt lat="44.08155" lon="3.09981">
        <ele>761</ele>
        <time>2010-01-01T01:04:23Z</time>
      </trkpt>
      <trkpt lat="44.08156" lon="3.09988">
        <ele>761</ele>
        <time>2010-01-01T01:04:25Z</time>
      </trkpt>
      <trkpt lat="44.08158" lon="3.09995">
        <ele>761</ele>
        <time>2010-01-01T01:04:27Z</time>
      </trkpt>
      <trkpt lat="44.08159" lon="3.10002">
        <ele>761</ele>
        <time>2010-01-01T01:04:29Z</time>
      </trkpt>
      <trkpt lat="44.0816" lon="3.1001">
        <ele>760</ele>
        <time>2010-01-01T01:04:32Z</time>
      </trkpt>
      <trkpt lat="44.08162" lon="3.10017">
        <ele>759</ele>
        <time>2010-01-01T01:04:34Z</time>
      </trkpt>
      <trkpt lat="44.08163" lon="3.10025">
        <ele>759</ele>
        <time>2010-01-01T01:04:36Z</time>
      </trkpt>
      <trkpt lat="44.08164" lon="3.10032">
        <ele>758</ele>
        <time>2010-01-01T01:04:38Z</time>
      </trkpt>
      <trkpt lat="44.08166" lon="3.1004">
        <ele>758</ele>
        <time>2010-01-01T01:04:41Z</time>
      </trkpt>
      <trkpt lat="44.08168" lon="3.10049">
        <ele>757</ele>
        <time>2010-01-01T01:04:43Z</time>
      </trkpt>
      <trkpt lat="44.08169" lon="3.10057">
        <ele>757</ele>
        <time>2010-01-01T01:04:46Z</time>
      </trkpt>
      <trkpt lat="44.0817" lon="3.10065">
        <ele>757</ele>
        <time>2010-01-01T01:04:48Z</time>
      </trkpt>
      <trkpt lat="44.08172" lon="3.10072">
        <ele>757</ele>
        <time>2010-01-01T01:04:50Z</time>
      </trkpt>
      <trkpt lat="44.08175" lon="3.1008">
        <ele>756</ele>
        <time>2010-01-01T01:04:53Z</time>
      </trkpt>
      <trkpt lat="44.08178" lon="3.10086">
        <ele>755</ele>
        <time>2010-01-01T01:04:55Z</time>
      </trkpt>
      <trkpt lat="44.08181" lon="3.10093">
        <ele>755</ele>
        <time>2010-01-01T01:04:57Z</time>
      </trkpt>
      <trkpt lat="44.08183" lon="3.10101">
        <ele>755</ele>
        <time>2010-01-01T01:05:00Z</time>
      </trkpt>
      <trkpt lat="44.08185" lon="3.10109">
        <ele>756</ele>
        <time>2010-01-01T01:05:02Z</time>
      </trkpt>
      <trkpt lat="44.08186" lon="3.10118">
        <ele>756</ele>
        <time>2010-01-01T01:05:04Z</time>
      </trkpt>
      <trkpt lat="44.08187" lon="3.10127">
        <ele>757</ele>
        <time>2010-01-01T01:05:07Z</time>
      </trkpt>
      <trkpt lat="44.08187" lon="3.10136">
        <ele>759</ele>
        <time>2010-01-01T01:05:10Z</time>
      </trkpt>
      <trkpt lat="44.08187" lon="3.10145">
        <ele>760</ele>
        <time>2010-01-01T01:05:12Z</time>
      </trkpt>
      <trkpt lat="44.08189" lon="3.10154">
        <ele>760</ele>
        <time>2010-01-01T01:05:15Z</time>
      </trkpt>
      <trkpt lat="44.0819" lon="3.10163">
        <ele>761</ele>
        <time>2010-01-01T01:05:18Z</time>
      </trkpt>
      <trkpt lat="44.08191" lon="3.10173">
        <ele>761</ele>
        <time>2010-01-01T01:05:21Z</time>
      </trkpt>
      <trkpt lat="44.08193" lon="3.10183">
        <ele>762</ele>
        <time>2010-01-01T01:05:24Z</time>
      </trkpt>
      <trkpt lat="44.08194" lon="3.10193">
        <ele>762</ele>
        <time>2010-01-01T01:05:27Z</time>
      </trkpt>
      <trkpt lat="44.08196" lon="3.10203">
        <ele>762</ele>
        <time>2010-01-01T01:05:29Z</time>
      </trkpt>
      <trkpt lat="44.08198" lon="3.10212">
        <ele>762</ele>
        <time>2010-01-01T01:05:32Z</time>
      </trkpt>
      <trkpt lat="44.08199" lon="3.10223">
        <ele>762</ele>
        <time>2010-01-01T01:05:35Z</time>
      </trkpt>
      <trkpt lat="44.082" lon="3.10234">
        <ele>761</ele>
        <time>2010-01-01T01:05:39Z</time>
      </trkpt>
      <trkpt lat="44.08201" lon="3.10246">
        <ele>761</ele>
        <time>2010-01-01T01:05:42Z</time>
      </trkpt>
      <trkpt lat="44.08202" lon="3.10257">
        <ele>760</ele>
        <time>2010-01-01T01:05:45Z</time>
      </trkpt>
      <trkpt lat="44.08203" lon="3.10267">
        <ele>760</ele>
        <time>2010-01-01T01:05:48Z</time>
      </trkpt>
      <trkpt lat="44.08204" lon="3.10278">
        <ele>760</ele>
        <time>2010-01-01T01:05:51Z</time>
      </trkpt>
      <trkpt lat="44.08205" lon="3.1029">
        <ele>759</ele>
        <time>2010-01-01T01:05:55Z</time>
      </trkpt>
      <trkpt lat="44.08205" lon="3.10302">
        <ele>760</ele>
        <time>2010-01-01T01:05:58Z</time>
      </trkpt>
      <trkpt lat="44.08206" lon="3.10315">
        <ele>760</ele>
        <time>2010-01-01T01:06:02Z</time>
      </trkpt>
      <trkpt lat="44.08207" lon="3.10328">
        <ele>760</ele>
        <time>2010-01-01T01:06:06Z</time>
      </trkpt>
      <trkpt lat="44.08209" lon="3.10342">
        <ele>761</ele>
        <time>2010-01-01T01:06:10Z</time>
      </trkpt>
      <trkpt lat="44.0821" lon="3.10355">
        <ele>761</ele>
        <time>2010-01-01T01:06:14Z</time>
      </trkpt>
      <trkpt lat="44.08212" lon="3.10369">
        <ele>761</ele>
        <time>2010-01-01T01:06:18Z</time>
      </trkpt>
      <trkpt lat="44.08213" lon="3.10381">
        <ele>761</ele>
        <time>2010-01-01T01:06:21Z</time>
      </trkpt>
      <trkpt lat="44.08214" lon="3.10392">
        <ele>761</ele>
        <time>2010-01-01T01:06:24Z</time>
      </trkpt>
      <trkpt lat="44.08216" lon="3.10403">
        <ele>761</ele>
        <time>2010-01-01T01:06:28Z</time>
      </trkpt>
      <trkpt lat="44.08219" lon="3.10414">
        <ele>761</ele>
        <time>2010-01-01T01:06:31Z</time>
      </trkpt>
      <trkpt lat="44.08221" lon="3.10423">
        <ele>761</ele>
        <time>2010-01-01T01:06:34Z</time>
      </trkpt>
      <trkpt lat="44.08223" lon="3.1043">
        <ele>760</ele>
        <time>2010-01-01T01:06:36Z</time>
      </trkpt>
      <trkpt lat="44.08224" lon="3.10437">
        <ele>760</ele>
        <time>2010-01-01T01:06:38Z</time>
      </trkpt>
      <trkpt lat="44.08227" lon="3.10445">
        <ele>759</ele>
        <time>2010-01-01T01:06:40Z</time>
      </trkpt>
      <trkpt lat="44.0823" lon="3.10454">
        <ele>758</ele>
        <time>2010-01-01T01:06:43Z</time>
      </trkpt>
      <trkpt lat="44.08233" lon="3.10464">
        <ele>758</ele>
        <time>2010-01-01T01:06:46Z</time>
      </trkpt>
      <trkpt lat="44.08236" lon="3.10474">
        <ele>758</ele>
        <time>2010-01-01T01:06:50Z</time>
      </trkpt>
      <trkpt lat="44.08239" lon="3.10486">
        <ele>757</ele>
        <time>2010-01-01T01:06:53Z</time>
      </trkpt>
      <trkpt lat="44.08242" lon="3.10497">
        <ele>757</ele>
        <time>2010-01-01T01:06:57Z</time>
      </trkpt>
      <trkpt lat="44.08245" lon="3.1051">
        <ele>758</ele>
        <time>2010-01-01T01:07:01Z</time>
      </trkpt>
      <trkpt lat="44.08247" lon="3.10522">
        <ele>759</ele>
        <time>2010-01-01T01:07:04Z</time>
      </trkpt>
      <trkpt lat="44.08249" lon="3.10534">
        <ele>760</ele>
        <time>2010-01-01T01:07:08Z</time>
      </trkpt>
      <trkpt lat="44.08252" lon="3.10544">
        <ele>761</ele>
        <time>2010-01-01T01:07:11Z</time>
      </trkpt>
      <trkpt lat="44.08254" lon="3.10554">
        <ele>761</ele>
        <time>2010-01-01T01:07:14Z</time>
      </trkpt>
      <trkpt lat="44.08256" lon="3.10564">
        <ele>762</ele>
        <time>2010-01-01T01:07:17Z</time>
      </trkpt>
      <trkpt lat="44.08257" lon="3.10574">
        <ele>762</ele>
        <time>2010-01-01T01:07:20Z</time>
      </trkpt>
      <trkpt lat="44.08259" lon="3.10583">
        <ele>763</ele>
        <time>2010-01-01T01:07:22Z</time>
      </trkpt>
      <trkpt lat="44.08263" lon="3.1059">
        <ele>762</ele>
        <time>2010-01-01T01:07:25Z</time>
      </trkpt>
      <trkpt lat="44.08269" lon="3.10595">
        <ele>762</ele>
        <time>2010-01-01T01:07:28Z</time>
      </trkpt>
      <trkpt lat="44.08274" lon="3.106">
        <ele>762</ele>
        <time>2010-01-01T01:07:30Z</time>
      </trkpt>
      <trkpt lat="44.0828" lon="3.10606">
        <ele>762</ele>
        <time>2010-01-01T01:07:33Z</time>
      </trkpt>
      <trkpt lat="44.08287" lon="3.10615">
        <ele>762</ele>
        <time>2010-01-01T01:07:37Z</time>
      </trkpt>
      <trkpt lat="44.08292" lon="3.10628">
        <ele>762</ele>
        <time>2010-01-01T01:07:41Z</time>
      </trkpt>
      <trkpt lat="44.08296" lon="3.1064">
        <ele>763</ele>
        <time>2010-01-01T01:07:45Z</time>
      </trkpt>
      <trkpt lat="44.08298" lon="3.10649">
        <ele>763</ele>
        <time>2010-01-01T01:07:48Z</time>
      </trkpt>
      <trkpt lat="44.08295" lon="3.10655">
        <ele>764</ele>
        <time>2010-01-01T01:07:50Z</time>
      </trkpt>
      <trkpt lat="44.08293" lon="3.10659">
        <ele>764</ele>
        <time>2010-01-01T01:07:51Z</time>
      </trkpt>
      <trkpt lat="44.08291" lon="3.10662">
        <ele>764</ele>
        <time>2010-01-01T01:07:52Z</time>
      </trkpt>
      <trkpt lat="44.08287" lon="3.10666">
        <ele>764</ele>
        <time>2010-01-01T01:07:54Z</time>
      </trkpt>
      <trkpt lat="44.08284" lon="3.10669">
        <ele>764</ele>
        <time>2010-01-01T01:07:56Z</time>
      </trkpt>
      <trkpt lat="44.08279" lon="3.10671">
        <ele>764</ele>
        <time>2010-01-01T01:07:58Z</time>
      </trkpt>
      <trkpt lat="44.08276" lon="3.10676">
        <ele>764</ele>
        <time>2010-01-01T01:08:00Z</time>
      </trkpt>
      <trkpt lat="44.08272" lon="3.10681">
        <ele>764</ele>
        <time>2010-01-01T01:08:02Z</time>
      </trkpt>
      <trkpt lat="44.08269" lon="3.10685">
        <ele>764</ele>
        <time>2010-01-01T01:08:03Z</time>
      </trkpt>
      <trkpt lat="44.08265" lon="3.1069">
        <ele>764</ele>
        <time>2010-01-01T01:08:05Z</time>
      </trkpt>
      <trkpt lat="44.08262" lon="3.10695">
        <ele>764</ele>
        <time>2010-01-01T01:08:07Z</time>
      </trkpt>
      <trkpt lat="44.08259" lon="3.10699">
        <ele>764</ele>
        <time>2010-01-01T01:08:09Z</time>
      </trkpt>
      <trkpt lat="44.08256" lon="3.10702">
        <ele>764</ele>
        <time>2010-01-01T01:08:11Z</time>
      </trkpt>
      <trkpt lat="44.08252" lon="3.10707">
        <ele>764</ele>
        <time>2010-01-01T01:08:12Z</time>
      </trkpt>
      <trkpt lat="44.08248" lon="3.1071">
        <ele>764</ele>
        <time>2010-01-01T01:08:14Z</time>
      </trkpt>
      <trkpt lat="44.08246" lon="3.10715">
        <ele>764</ele>
        <time>2010-01-01T01:08:16Z</time>
      </trkpt>
      <trkpt lat="44.08243" lon="3.10719">
        <ele>764</ele>
        <time>2010-01-01T01:08:18Z</time>
      </trkpt>
      <trkpt lat="44.08239" lon="3.10724">
        <ele>764</ele>
        <time>2010-01-01T01:08:20Z</time>
      </trkpt>
      <trkpt lat="44.08237" lon="3.10729">
        <ele>764</ele>
        <time>2010-01-01T01:08:22Z</time>
      </trkpt>
      <trkpt lat="44.08234" lon="3.10733">
        <ele>765</ele>
        <time>2010-01-01T01:08:23Z</time>
      </trkpt>
      <trkpt lat="44.08231" lon="3.10738">
        <ele>765</ele>
        <time>2010-01-01T01:08:25Z</time>
      </trkpt>
      <trkpt lat="44.08228" lon="3.10742">
        <ele>765</ele>
        <time>2010-01-01T01:08:27Z</time>
      </trkpt>
      <trkpt lat="44.08226" lon="3.10745">
        <ele>765</ele>
        <time>2010-01-01T01:08:28Z</time>
      </trkpt>
      <trkpt lat="44.08224" lon="3.1075">
        <ele>765</ele>
        <time>2010-01-01T01:08:30Z</time>
      </trkpt>
      <trkpt lat="44.08221" lon="3.10755">
        <ele>766</ele>
        <time>2010-01-01T01:08:31Z</time>
      </trkpt>
      <trkpt lat="44.08219" lon="3.1076">
        <ele>766</ele>
        <time>2010-01-01T01:08:33Z</time>
      </trkpt>
      <trkpt lat="44.08217" lon="3.10763">
        <ele>766</ele>
        <time>2010-01-01T01:08:34Z</time>
      </trkpt>
      <trkpt lat="44.08215" lon="3.10765">
        <ele>766</ele>
        <time>2010-01-01T01:08:35Z</time>
      </trkpt>
      <trkpt lat="44.08214" lon="3.10769">
        <ele>766</ele>
        <time>2010-01-01T01:08:36Z</time>
      </trkpt>
      <trkpt lat="44.08213" lon="3.10771">
        <ele>766</ele>
        <time>2010-01-01T01:08:37Z</time>
      </trkpt>
      <trkpt lat="44.08212" lon="3.10773">
        <ele>766</ele>
        <time>2010-01-01T01:08:38Z</time>
      </trkpt>
      <trkpt lat="44.0821" lon="3.10776">
        <ele>766</ele>
        <time>2010-01-01T01:08:39Z</time>
      </trkpt>
      <trkpt lat="44.08207" lon="3.10777">
        <ele>766</ele>
        <time>2010-01-01T01:08:40Z</time>
      </trkpt>
      <trkpt lat="44.08206" lon="3.10779">
        <ele>766</ele>
        <time>2010-01-01T01:08:41Z</time>
      </trkpt>
      <trkpt lat="44.08204" lon="3.10781">
        <ele>766</ele>
        <time>2010-01-01T01:08:42Z</time>
      </trkpt>
      <trkpt lat="44.08201" lon="3.10781">
        <ele>766</ele>
        <time>2010-01-01T01:08:43Z</time>
      </trkpt>
      <trkpt lat="44.08198" lon="3.10783">
        <ele>766</ele>
        <time>2010-01-01T01:08:44Z</time>
      </trkpt>
      <trkpt lat="44.08194" lon="3.10785">
        <ele>766</ele>
        <time>2010-01-01T01:08:46Z</time>
      </trkpt>
      <trkpt lat="44.0819" lon="3.10786">
        <ele>766</ele>
        <time>2010-01-01T01:08:48Z</time>
      </trkpt>
      <trkpt lat="44.08186" lon="3.10789">
        <ele>766</ele>
        <time>2010-01-01T01:08:49Z</time>
      </trkpt>
      <trkpt lat="44.08181" lon="3.10794">
        <ele>766</ele>
        <time>2010-01-01T01:08:52Z</time>
      </trkpt>
      <trkpt lat="44.08176" lon="3.10796">
        <ele>765</ele>
        <time>2010-01-01T01:08:54Z</time>
      </trkpt>
      <trkpt lat="44.08172" lon="3.10798">
        <ele>765</ele>
        <time>2010-01-01T01:08:56Z</time>
      </trkpt>
      <trkpt lat="44.08169" lon="3.10799">
        <ele>765</ele>
        <time>2010-01-01T01:08:57Z</time>
      </trkpt>
      <trkpt lat="44.08165" lon="3.108">
        <ele>764</ele>
        <time>2010-01-01T01:08:58Z</time>
      </trkpt>
      <trkpt lat="44.08161" lon="3.10803">
        <ele>764</ele>
        <time>2010-01-01T01:09:00Z</time>
      </trkpt>
      <trkpt lat="44.08156" lon="3.10805">
        <ele>764</ele>
        <time>2010-01-01T01:09:02Z</time>
      </trkpt>
      <trkpt lat="44.08152" lon="3.10807">
        <ele>764</ele>
        <time>2010-01-01T01:09:04Z</time>
      </trkpt>
      <trkpt lat="44.08147" lon="3.10809">
        <ele>764</ele>
        <time>2010-01-01T01:09:06Z</time>
      </trkpt>
      <trkpt lat="44.08141" lon="3.10811">
        <ele>764</ele>
        <time>2010-01-01T01:09:09Z</time>
      </trkpt>
      <trkpt lat="44.08135" lon="3.10815">
        <ele>764</ele>
        <time>2010-01-01T01:09:11Z</time>
      </trkpt>
      <trkpt lat="44.08129" lon="3.10818">
        <ele>764</ele>
        <time>2010-01-01T01:09:14Z</time>
      </trkpt>
      <trkpt lat="44.08124" lon="3.1082">
        <ele>764</ele>
        <time>2010-01-01T01:09:16Z</time>
      </trkpt>
      <trkpt lat="44.0812" lon="3.10823">
        <ele>764</ele>
        <time>2010-01-01T01:09:18Z</time>
      </trkpt>
      <trkpt lat="44.08118" lon="3.10828">
        <ele>764</ele>
        <time>2010-01-01T01:09:20Z</time>
      </trkpt>
      <trkpt lat="44.08114" lon="3.10836">
        <ele>764</ele>
        <time>2010-01-01T01:09:22Z</time>
      </trkpt>
      <trkpt lat="44.08113" lon="3.10838">
        <ele>764</ele>
        <time>2010-01-01T01:09:23Z</time>
      </trkpt>
      <trkpt lat="44.08112" lon="3.10841">
        <ele>764</ele>
        <time>2010-01-01T01:09:24Z</time>
      </trkpt>
      <trkpt lat="44.08112" lon="3.10844">
        <ele>764</ele>
        <time>2010-01-01T01:09:25Z</time>
      </trkpt>
      <trkpt lat="44.08112" lon="3.10847">
        <ele>764</ele>
        <time>2010-01-01T01:09:26Z</time>
      </trkpt>
      <trkpt lat="44.08111" lon="3.10852">
        <ele>764</ele>
        <time>2010-01-01T01:09:27Z</time>
      </trkpt>
      <trkpt lat="44.08109" lon="3.10856">
        <ele>764</ele>
        <time>2010-01-01T01:09:28Z</time>
      </trkpt>
      <trkpt lat="44.08109" lon="3.1086">
        <ele>764</ele>
        <time>2010-01-01T01:09:29Z</time>
      </trkpt>
      <trkpt lat="44.08108" lon="3.10862">
        <ele>764</ele>
        <time>2010-01-01T01:09:30Z</time>
      </trkpt>
      <trkpt lat="44.08107" lon="3.10865">
        <ele>764</ele>
        <time>2010-01-01T01:09:31Z</time>
      </trkpt>
      <trkpt lat="44.08106" lon="3.10871">
        <ele>764</ele>
        <time>2010-01-01T01:09:33Z</time>
      </trkpt>
      <trkpt lat="44.08109" lon="3.10878">
        <ele>763</ele>
        <time>2010-01-01T01:09:35Z</time>
      </trkpt>
      <trkpt lat="44.08111" lon="3.10887">
        <ele>763</ele>
        <time>2010-01-01T01:09:38Z</time>
      </trkpt>
      <trkpt lat="44.08111" lon="3.10897">
        <ele>762</ele>
        <time>2010-01-01T01:09:41Z</time>
      </trkpt>
      <trkpt lat="44.08108" lon="3.10906">
        <ele>761</ele>
        <time>2010-01-01T01:09:44Z</time>
      </trkpt>
      <trkpt lat="44.08104" lon="3.10916">
        <ele>761</ele>
        <time>2010-01-01T01:09:47Z</time>
      </trkpt>
      <trkpt lat="44.081" lon="3.10924">
        <ele>761</ele>
        <time>2010-01-01T01:09:50Z</time>
      </trkpt>
      <trkpt lat="44.08093" lon="3.10929">
        <ele>761</ele>
        <time>2010-01-01T01:09:53Z</time>
      </trkpt>
      <trkpt lat="44.08087" lon="3.10932">
        <ele>761</ele>
        <time>2010-01-01T01:09:55Z</time>
      </trkpt>
      <trkpt lat="44.08083" lon="3.10936">
        <ele>761</ele>
        <time>2010-01-01T01:09:57Z</time>
      </trkpt>
      <trkpt lat="44.0808" lon="3.10939">
        <ele>761</ele>
        <time>2010-01-01T01:09:59Z</time>
      </trkpt>
      <trkpt lat="44.08078" lon="3.10943">
        <ele>761</ele>
        <time>2010-01-01T01:10:00Z</time>
      </trkpt>
      <trkpt lat="44.08076" lon="3.10947">
        <ele>761</ele>
        <time>2010-01-01T01:10:02Z</time>
      </trkpt>
      <trkpt lat="44.08072" lon="3.10951">
        <ele>761</ele>
        <time>2010-01-01T01:10:03Z</time>
      </trkpt>
      <trkpt lat="44.08068" lon="3.10955">
        <ele>761</ele>
        <time>2010-01-01T01:10:05Z</time>
      </trkpt>
      <trkpt lat="44.08067" lon="3.10962">
        <ele>761</ele>
        <time>2010-01-01T01:10:07Z</time>
      </trkpt>
      <trkpt lat="44.08067" lon="3.10969">
        <ele>761</ele>
        <time>2010-01-01T01:10:09Z</time>
      </trkpt>
      <trkpt lat="44.08066" lon="3.10978">
        <ele>761</ele>
        <time>2010-01-01T01:10:12Z</time>
      </trkpt>
      <trkpt lat="44.08065" lon="3.10987">
        <ele>761</ele>
        <time>2010-01-01T01:10:15Z</time>
      </trkpt>
      <trkpt lat="44.08064" lon="3.10994">
        <ele>761</ele>
        <time>2010-01-01T01:10:17Z</time>
      </trkpt>
      <trkpt lat="44.08063" lon="3.10999">
        <ele>761</ele>
        <time>2010-01-01T01:10:18Z</time>
      </trkpt>
      <trkpt lat="44.08062" lon="3.11004">
        <ele>760</ele>
        <time>2010-01-01T01:10:20Z</time>
      </trkpt>
      <trkpt lat="44.08062" lon="3.11008">
        <ele>760</ele>
        <time>2010-01-01T01:10:21Z</time>
      </trkpt>
      <trkpt lat="44.08062" lon="3.11013">
        <ele>760</ele>
        <time>2010-01-01T01:10:22Z</time>
      </trkpt>
      <trkpt lat="44.08062" lon="3.11018">
        <ele>760</ele>
        <time>2010-01-01T01:10:24Z</time>
      </trkpt>
      <trkpt lat="44.08063" lon="3.11028">
        <ele>760</ele>
        <time>2010-01-01T01:10:27Z</time>
      </trkpt>
      <trkpt lat="44.08063" lon="3.11035">
        <ele>759</ele>
        <time>2010-01-01T01:10:29Z</time>
      </trkpt>
      <trkpt lat="44.08062" lon="3.11042">
        <ele>759</ele>
        <time>2010-01-01T01:10:31Z</time>
      </trkpt>
      <trkpt lat="44.08062" lon="3.11049">
        <ele>759</ele>
        <time>2010-01-01T01:10:33Z</time>
      </trkpt>
      <trkpt lat="44.08062" lon="3.11056">
        <ele>759</ele>
        <time>2010-01-01T01:10:35Z</time>
      </trkpt>
      <trkpt lat="44.08062" lon="3.11063">
        <ele>759</ele>
        <time>2010-01-01T01:10:37Z</time>
      </trkpt>
      <trkpt lat="44.08062" lon="3.1107">
        <ele>759</ele>
        <time>2010-01-01T01:10:39Z</time>
      </trkpt>
      <trkpt lat="44.08062" lon="3.11078">
        <ele>759</ele>
        <time>2010-01-01T01:10:41Z</time>
      </trkpt>
      <trkpt lat="44.08061" lon="3.11086">
        <ele>759</ele>
        <time>2010-01-01T01:10:43Z</time>
      </trkpt>
      <trkpt lat="44.0806" lon="3.11094">
        <ele>759</ele>
        <time>2010-01-01T01:10:46Z</time>
      </trkpt>
      <trkpt lat="44.08061" lon="3.111">
        <ele>759</ele>
        <time>2010-01-01T01:10:48Z</time>
      </trkpt>
      <trkpt lat="44.08062" lon="3.11107">
        <ele>759</ele>
        <time>2010-01-01T01:10:49Z</time>
      </trkpt>
      <trkpt lat="44.08063" lon="3.11112">
        <ele>758</ele>
        <time>2010-01-01T01:10:51Z</time>
      </trkpt>
      <trkpt lat="44.08061" lon="3.11118">
        <ele>758</ele>
        <time>2010-01-01T01:10:53Z</time>
      </trkpt>
      <trkpt lat="44.0806" lon="3.11124">
        <ele>758</ele>
        <time>2010-01-01T01:10:55Z</time>
      </trkpt>
      <trkpt lat="44.0806" lon="3.11129">
        <ele>758</ele>
        <time>2010-01-01T01:10:56Z</time>
      </trkpt>
      <trkpt lat="44.08059" lon="3.11134">
        <ele>758</ele>
        <time>2010-01-01T01:10:58Z</time>
      </trkpt>
      <trkpt lat="44.08058" lon="3.1114">
        <ele>758</ele>
        <time>2010-01-01T01:10:59Z</time>
      </trkpt>
      <trkpt lat="44.08057" lon="3.11145">
        <ele>758</ele>
        <time>2010-01-01T01:11:01Z</time>
      </trkpt>
      <trkpt lat="44.08055" lon="3.11152">
        <ele>758</ele>
        <time>2010-01-01T01:11:03Z</time>
      </trkpt>
      <trkpt lat="44.08054" lon="3.11159">
        <ele>758</ele>
        <time>2010-01-01T01:11:05Z</time>
      </trkpt>
      <trkpt lat="44.08051" lon="3.11166">
        <ele>758</ele>
        <time>2010-01-01T01:11:07Z</time>
      </trkpt>
      <trkpt lat="44.08049" lon="3.11172">
        <ele>758</ele>
        <time>2010-01-01T01:11:09Z</time>
      </trkpt>
      <trkpt lat="44.08046" lon="3.11179">
        <ele>757</ele>
        <time>2010-01-01T01:11:12Z</time>
      </trkpt>
      <trkpt lat="44.08044" lon="3.11186">
        <ele>757</ele>
        <time>2010-01-01T01:11:14Z</time>
      </trkpt>
      <trkpt lat="44.08041" lon="3.11195">
        <ele>757</ele>
        <time>2010-01-01T01:11:17Z</time>
      </trkpt>
      <trkpt lat="44.08039" lon="3.11202">
        <ele>757</ele>
        <time>2010-01-01T01:11:19Z</time>
      </trkpt>
      <trkpt lat="44.08037" lon="3.11207">
        <ele>757</ele>
        <time>2010-01-01T01:11:20Z</time>
      </trkpt>
      <trkpt lat="44.08034" lon="3.11213">
        <ele>757</ele>
        <time>2010-01-01T01:11:23Z</time>
      </trkpt>
      <trkpt lat="44.08032" lon="3.11219">
        <ele>757</ele>
        <time>2010-01-01T01:11:24Z</time>
      </trkpt>
      <trkpt lat="44.08032" lon="3.11226">
        <ele>756</ele>
        <time>2010-01-01T01:11:26Z</time>
      </trkpt>
      <trkpt lat="44.08028" lon="3.11232">
        <ele>757</ele>
        <time>2010-01-01T01:11:29Z</time>
      </trkpt>
      <trkpt lat="44.08024" lon="3.11238">
        <ele>757</ele>
        <time>2010-01-01T01:11:31Z</time>
      </trkpt>
      <trkpt lat="44.08021" lon="3.11243">
        <ele>757</ele>
        <time>2010-01-01T01:11:33Z</time>
      </trkpt>
      <trkpt lat="44.08017" lon="3.11248">
        <ele>757</ele>
        <time>2010-01-01T01:11:35Z</time>
      </trkpt>
      <trkpt lat="44.08014" lon="3.11254">
        <ele>757</ele>
        <time>2010-01-01T01:11:37Z</time>
      </trkpt>
      <trkpt lat="44.0801" lon="3.11258">
        <ele>757</ele>
        <time>2010-01-01T01:11:39Z</time>
      </trkpt>
      <trkpt lat="44.08006" lon="3.11264">
        <ele>757</ele>
        <time>2010-01-01T01:11:41Z</time>
      </trkpt>
      <trkpt lat="44.08002" lon="3.11269">
        <ele>757</ele>
        <time>2010-01-01T01:11:44Z</time>
      </trkpt>
      <trkpt lat="44.07998" lon="3.11274">
        <ele>756</ele>
        <time>2010-01-01T01:11:46Z</time>
      </trkpt>
      <trkpt lat="44.07995" lon="3.11281">
        <ele>756</ele>
        <time>2010-01-01T01:11:48Z</time>
      </trkpt>
      <trkpt lat="44.07991" lon="3.11286">
        <ele>756</ele>
        <time>2010-01-01T01:11:50Z</time>
      </trkpt>
      <trkpt lat="44.07989" lon="3.11291">
        <ele>756</ele>
        <time>2010-01-01T01:11:52Z</time>
      </trkpt>
      <trkpt lat="44.07984" lon="3.11296">
        <ele>756</ele>
        <time>2010-01-01T01:11:54Z</time>
      </trkpt>
      <trkpt lat="44.07981" lon="3.113">
        <ele>756</ele>
        <time>2010-01-01T01:11:56Z</time>
      </trkpt>
      <trkpt lat="44.07977" lon="3.11304">
        <ele>756</ele>
        <time>2010-01-01T01:11:58Z</time>
      </trkpt>
      <trkpt lat="44.07974" lon="3.1131">
        <ele>756</ele>
        <time>2010-01-01T01:12:00Z</time>
      </trkpt>
      <trkpt lat="44.07968" lon="3.11313">
        <ele>755</ele>
        <time>2010-01-01T01:12:02Z</time>
      </trkpt>
      <trkpt lat="44.07961" lon="3.11319">
        <ele>755</ele>
        <time>2010-01-01T01:12:06Z</time>
      </trkpt>
      <trkpt lat="44.07956" lon="3.11326">
        <ele>755</ele>
        <time>2010-01-01T01:12:09Z</time>
      </trkpt>
      <trkpt lat="44.07951" lon="3.11335">
        <ele>755</ele>
        <time>2010-01-01T01:12:12Z</time>
      </trkpt>
      <trkpt lat="44.07947" lon="3.11341">
        <ele>755</ele>
        <time>2010-01-01T01:12:14Z</time>
      </trkpt>
      <trkpt lat="44.07946" lon="3.11349">
        <ele>755</ele>
        <time>2010-01-01T01:12:16Z</time>
      </trkpt>
      <trkpt lat="44.07943" lon="3.11356">
        <ele>755</ele>
        <time>2010-01-01T01:12:19Z</time>
      </trkpt>
      <trkpt lat="44.0794" lon="3.11364">
        <ele>755</ele>
        <time>2010-01-01T01:12:21Z</time>
      </trkpt>
      <trkpt lat="44.07938" lon="3.11372">
        <ele>755</ele>
        <time>2010-01-01T01:12:24Z</time>
      </trkpt>
      <trkpt lat="44.07936" lon="3.11382">
        <ele>755</ele>
        <time>2010-01-01T01:12:27Z</time>
      </trkpt>
      <trkpt lat="44.07935" lon="3.1139">
        <ele>756</ele>
        <time>2010-01-01T01:12:29Z</time>
      </trkpt>
      <trkpt lat="44.07933" lon="3.11398">
        <ele>756</ele>
        <time>2010-01-01T01:12:32Z</time>
      </trkpt>
      <trkpt lat="44.07932" lon="3.11406">
        <ele>756</ele>
        <time>2010-01-01T01:12:34Z</time>
      </trkpt>
      <trkpt lat="44.07929" lon="3.11413">
        <ele>756</ele>
        <time>2010-01-01T01:12:36Z</time>
      </trkpt>
      <trkpt lat="44.07927" lon="3.11422">
        <ele>755</ele>
        <time>2010-01-01T01:12:39Z</time>
      </trkpt>
      <trkpt lat="44.07926" lon="3.1143">
        <ele>755</ele>
        <time>2010-01-01T01:12:41Z</time>
      </trkpt>
      <trkpt lat="44.07925" lon="3.11439">
        <ele>755</ele>
        <time>2010-01-01T01:12:44Z</time>
      </trkpt>
      <trkpt lat="44.07923" lon="3.11447">
        <ele>755</ele>
        <time>2010-01-01T01:12:46Z</time>
      </trkpt>
      <trkpt lat="44.07921" lon="3.11455">
        <ele>755</ele>
        <time>2010-01-01T01:12:49Z</time>
      </trkpt>
      <trkpt lat="44.07917" lon="3.11462">
        <ele>755</ele>
        <time>2010-01-01T01:12:51Z</time>
      </trkpt>
      <trkpt lat="44.07913" lon="3.11466">
        <ele>755</ele>
        <time>2010-01-01T01:12:53Z</time>
      </trkpt>
      <trkpt lat="44.07908" lon="3.11465">
        <ele>755</ele>
        <time>2010-01-01T01:12:55Z</time>
      </trkpt>
      <trkpt lat="44.07903" lon="3.1146">
        <ele>755</ele>
        <time>2010-01-01T01:12:58Z</time>
      </trkpt>
      <trkpt lat="44.07898" lon="3.11453">
        <ele>755</ele>
        <time>2010-01-01T01:13:01Z</time>
      </trkpt>
      <trkpt lat="44.07892" lon="3.11447">
        <ele>755</ele>
        <time>2010-01-01T01:13:04Z</time>
      </trkpt>
      <trkpt lat="44.07887" lon="3.11441">
        <ele>754</ele>
        <time>2010-01-01T01:13:06Z</time>
      </trkpt>
      <trkpt lat="44.07881" lon="3.11435">
        <ele>754</ele>
        <time>2010-01-01T01:13:09Z</time>
      </trkpt>
      <trkpt lat="44.07875" lon="3.11428">
        <ele>754</ele>
        <time>2010-01-01T01:13:12Z</time>
      </trkpt>
      <trkpt lat="44.07868" lon="3.11421">
        <ele>754</ele>
        <time>2010-01-01T01:13:16Z</time>
      </trkpt>
      <trkpt lat="44.07859" lon="3.11415">
        <ele>753</ele>
        <time>2010-01-01T01:13:20Z</time>
      </trkpt>
      <trkpt lat="44.07852" lon="3.11408">
        <ele>753</ele>
        <time>2010-01-01T01:13:23Z</time>
      </trkpt>
      <trkpt lat="44.07844" lon="3.11401">
        <ele>753</ele>
        <time>2010-01-01T01:13:27Z</time>
      </trkpt>
      <trkpt lat="44.07835" lon="3.11392">
        <ele>753</ele>
        <time>2010-01-01T01:13:31Z</time>
      </trkpt>
      <trkpt lat="44.07827" lon="3.11383">
        <ele>753</ele>
        <time>2010-01-01T01:13:36Z</time>
      </trkpt>
      <trkpt lat="44.07818" lon="3.11374">
        <ele>753</ele>
        <time>2010-01-01T01:13:40Z</time>
      </trkpt>
      <trkpt lat="44.07808" lon="3.11366">
        <ele>753</ele>
        <time>2010-01-01T01:13:45Z</time>
      </trkpt>
      <trkpt lat="44.07799" lon="3.11357">
        <ele>753</ele>
        <time>2010-01-01T01:13:49Z</time>
      </trkpt>
      <trkpt lat="44.07789" lon="3.11348">
        <ele>753</ele>
        <time>2010-01-01T01:13:54Z</time>
      </trkpt>
      <trkpt lat="44.0778" lon="3.11339">
        <ele>753</ele>
        <time>2010-01-01T01:13:58Z</time>
      </trkpt>
      <trkpt lat="44.0777" lon="3.1133">
        <ele>753</ele>
        <time>2010-01-01T01:14:03Z</time>
      </trkpt>
      <trkpt lat="44.07761" lon="3.11321">
        <ele>753</ele>
        <time>2010-01-01T01:14:07Z</time>
      </trkpt>
      <trkpt lat="44.07752" lon="3.11311">
        <ele>753</ele>
        <time>2010-01-01T01:14:12Z</time>
      </trkpt>
      <trkpt lat="44.07744" lon="3.11301">
        <ele>754</ele>
        <time>2010-01-01T01:14:16Z</time>
      </trkpt>
      <trkpt lat="44.07737" lon="3.11289">
        <ele>754</ele>
        <time>2010-01-01T01:14:21Z</time>
      </trkpt>
      <trkpt lat="44.07732" lon="3.11274">
        <ele>753</ele>
        <time>2010-01-01T01:14:26Z</time>
      </trkpt>
      <trkpt lat="44.0773" lon="3.11258">
        <ele>753</ele>
        <time>2010-01-01T01:14:30Z</time>
      </trkpt>
      <trkpt lat="44.0773" lon="3.11242">
        <ele>753</ele>
        <time>2010-01-01T01:14:35Z</time>
      </trkpt>
      <trkpt lat="44.07728" lon="3.11226">
        <ele>753</ele>
        <time>2010-01-01T01:14:39Z</time>
      </trkpt>
      <trkpt lat="44.07725" lon="3.1121">
        <ele>753</ele>
        <time>2010-01-01T01:14:44Z</time>
      </trkpt>
      <trkpt lat="44.0772" lon="3.11195">
        <ele>752</ele>
        <time>2010-01-01T01:14:49Z</time>
      </trkpt>
      <trkpt lat="44.07715" lon="3.11179">
        <ele>752</ele>
        <time>2010-01-01T01:14:54Z</time>
      </trkpt>
      <trkpt lat="44.0771" lon="3.11164">
        <ele>752</ele>
        <time>2010-01-01T01:14:59Z</time>
      </trkpt>
      <trkpt lat="44.07704" lon="3.11149">
        <ele>752</ele>
        <time>2010-01-01T01:15:04Z</time>
      </trkpt>
      <trkpt lat="44.07698" lon="3.11134">
        <ele>752</ele>
        <time>2010-01-01T01:15:08Z</time>
      </trkpt>
      <trkpt lat="44.07692" lon="3.11119">
        <ele>751</ele>
        <time>2010-01-01T01:15:13Z</time>
      </trkpt>
      <trkpt lat="44.07686" lon="3.11104">
        <ele>751</ele>
        <time>2010-01-01T01:15:18Z</time>
      </trkpt>
      <trkpt lat="44.0768" lon="3.11089">
        <ele>752</ele>
        <time>2010-01-01T01:15:23Z</time>
      </trkpt>
      <trkpt lat="44.07674" lon="3.11074">
        <ele>752</ele>
        <time>2010-01-01T01:15:28Z</time>
      </trkpt>
      <trkpt lat="44.07669" lon="3.1106">
        <ele>752</ele>
        <time>2010-01-01T01:15:33Z</time>
      </trkpt>
      <trkpt lat="44.07663" lon="3.11046">
        <ele>752</ele>
        <time>2010-01-01T01:15:38Z</time>
      </trkpt>
      <trkpt lat="44.07657" lon="3.11033">
        <ele>752</ele>
        <time>2010-01-01T01:15:42Z</time>
      </trkpt>
      <trkpt lat="44.07652" lon="3.11021">
        <ele>753</ele>
        <time>2010-01-01T01:15:46Z</time>
      </trkpt>
      <trkpt lat="44.07647" lon="3.11009">
        <ele>754</ele>
        <time>2010-01-01T01:15:50Z</time>
      </trkpt>
      <trkpt lat="44.07643" lon="3.11">
        <ele>754</ele>
        <time>2010-01-01T01:15:53Z</time>
      </trkpt>
      <trkpt lat="44.07637" lon="3.10992">
        <ele>754</ele>
        <time>2010-01-01T01:15:56Z</time>
      </trkpt>
      <trkpt lat="44.0763" lon="3.10991">
        <ele>754</ele>
        <time>2010-01-01T01:15:59Z</time>
      </trkpt>
      <trkpt lat="44.07622" lon="3.10992">
        <ele>754</ele>
        <time>2010-01-01T01:16:02Z</time>
      </trkpt>
      <trkpt lat="44.07614" lon="3.10995">
        <ele>754</ele>
        <time>2010-01-01T01:16:05Z</time>
      </trkpt>
      <trkpt lat="44.07606" lon="3.10997">
        <ele>754</ele>
        <time>2010-01-01T01:16:09Z</time>
      </trkpt>
      <trkpt lat="44.07598" lon="3.10999">
        <ele>754</ele>
        <time>2010-01-01T01:16:12Z</time>
      </trkpt>
      <trkpt lat="44.0759" lon="3.11002">
        <ele>754</ele>
        <time>2010-01-01T01:16:15Z</time>
      </trkpt>
      <trkpt lat="44.07582" lon="3.11005">
        <ele>754</ele>
        <time>2010-01-01T01:16:19Z</time>
      </trkpt>
      <trkpt lat="44.07573" lon="3.11008">
        <ele>754</ele>
        <time>2010-01-01T01:16:22Z</time>
      </trkpt>
      <trkpt lat="44.07565" lon="3.1101">
        <ele>754</ele>
        <time>2010-01-01T01:16:26Z</time>
      </trkpt>
      <trkpt lat="44.07556" lon="3.11013">
        <ele>754</ele>
        <time>2010-01-01T01:16:29Z</time>
      </trkpt>
      <trkpt lat="44.07548" lon="3.11016">
        <ele>755</ele>
        <time>2010-01-01T01:16:33Z</time>
      </trkpt>
      <trkpt lat="44.07539" lon="3.11019">
        <ele>756</ele>
        <time>2010-01-01T01:16:36Z</time>
      </trkpt>
      <trkpt lat="44.07531" lon="3.11023">
        <ele>756</ele>
        <time>2010-01-01T01:16:40Z</time>
      </trkpt>
      <trkpt lat="44.07522" lon="3.11027">
        <ele>757</ele>
        <time>2010-01-01T01:16:44Z</time>
      </trkpt>
      <trkpt lat="44.07512" lon="3.11032">
        <ele>756</ele>
        <time>2010-01-01T01:16:48Z</time>
      </trkpt>
      <trkpt lat="44.07503" lon="3.11037">
        <ele>756</ele>
        <time>2010-01-01T01:16:52Z</time>
      </trkpt>
      <trkpt lat="44.07493" lon="3.11041">
        <ele>757</ele>
        <time>2010-01-01T01:16:56Z</time>
      </trkpt>
      <trkpt lat="44.07484" lon="3.11047">
        <ele>757</ele>
        <time>2010-01-01T01:17:00Z</time>
      </trkpt>
      <trkpt lat="44.07475" lon="3.11052">
        <ele>757</ele>
        <time>2010-01-01T01:17:04Z</time>
      </trkpt>
      <trkpt lat="44.07466" lon="3.11057">
        <ele>757</ele>
        <time>2010-01-01T01:17:08Z</time>
      </trkpt>
      <trkpt lat="44.07458" lon="3.11062">
        <ele>757</ele>
        <time>2010-01-01T01:17:11Z</time>
      </trkpt>
      <trkpt lat="44.07449" lon="3.11066">
        <ele>757</ele>
        <time>2010-01-01T01:17:15Z</time>
      </trkpt>
      <trkpt lat="44.0744" lon="3.11071">
        <ele>757</ele>
        <time>2010-01-01T01:17:19Z</time>
      </trkpt>
      <trkpt lat="44.07431" lon="3.11075">
        <ele>758</ele>
        <time>2010-01-01T01:17:23Z</time>
      </trkpt>
      <trkpt lat="44.07422" lon="3.1108">
        <ele>758</ele>
        <time>2010-01-01T01:17:26Z</time>
      </trkpt>
      <trkpt lat="44.07413" lon="3.11086">
        <ele>758</ele>
        <time>2010-01-01T01:17:30Z</time>
      </trkpt>
      <trkpt lat="44.07404" lon="3.11091">
        <ele>758</ele>
        <time>2010-01-01T01:17:34Z</time>
      </trkpt>
      <trkpt lat="44.07395" lon="3.11097">
        <ele>758</ele>
        <time>2010-01-01T01:17:38Z</time>
      </trkpt>
      <trkpt lat="44.07385" lon="3.11102">
        <ele>758</ele>
        <time>2010-01-01T01:17:43Z</time>
      </trkpt>
      <trkpt lat="44.07375" lon="3.11108">
        <ele>758</ele>
        <time>2010-01-01T01:17:47Z</time>
      </trkpt>
      <trkpt lat="44.07365" lon="3.11113">
        <ele>758</ele>
        <time>2010-01-01T01:17:51Z</time>
      </trkpt>
      <trkpt lat="44.07355" lon="3.11119">
        <ele>758</ele>
        <time>2010-01-01T01:17:56Z</time>
      </trkpt>
      <trkpt lat="44.07346" lon="3.11125">
        <ele>758</ele>
        <time>2010-01-01T01:18:00Z</time>
      </trkpt>
      <trkpt lat="44.07337" lon="3.11131">
        <ele>758</ele>
        <time>2010-01-01T01:18:04Z</time>
      </trkpt>
      <trkpt lat="44.07327" lon="3.11137">
        <ele>758</ele>
        <time>2010-01-01T01:18:08Z</time>
      </trkpt>
      <trkpt lat="44.07317" lon="3.11143">
        <ele>758</ele>
        <time>2010-01-01T01:18:12Z</time>
      </trkpt>
      <trkpt lat="44.07307" lon="3.11149">
        <ele>758</ele>
        <time>2010-01-01T01:18:17Z</time>
      </trkpt>
      <trkpt lat="44.07297" lon="3.11155">
        <ele>757</ele>
        <time>2010-01-01T01:18:21Z</time>
      </trkpt>
      <trkpt lat="44.07287" lon="3.11161">
        <ele>757</ele>
        <time>2010-01-01T01:18:26Z</time>
      </trkpt>
      <trkpt lat="44.07276" lon="3.11167">
        <ele>757</ele>
        <time>2010-01-01T01:18:30Z</time>
      </trkpt>
      <trkpt lat="44.07266" lon="3.11173">
        <ele>757</ele>
        <time>2010-01-01T01:18:34Z</time>
      </trkpt>
      <trkpt lat="44.07257" lon="3.11179">
        <ele>757</ele>
        <time>2010-01-01T01:18:39Z</time>
      </trkpt>
      <trkpt lat="44.07247" lon="3.11186">
        <ele>757</ele>
        <time>2010-01-01T01:18:43Z</time>
      </trkpt>
      <trkpt lat="44.07238" lon="3.11193">
        <ele>756</ele>
        <time>2010-01-01T01:18:47Z</time>
      </trkpt>
      <trkpt lat="44.07229" lon="3.11202">
        <ele>756</ele>
        <time>2010-01-01T01:18:51Z</time>
      </trkpt>
      <trkpt lat="44.07221" lon="3.11213">
        <ele>755</ele>
        <time>2010-01-01T01:18:56Z</time>
      </trkpt>
      <trkpt lat="44.07213" lon="3.11224">
        <ele>755</ele>
        <time>2010-01-01T01:19:01Z</time>
      </trkpt>
      <trkpt lat="44.07204" lon="3.11236">
        <ele>755</ele>
        <time>2010-01-01T01:19:05Z</time>
      </trkpt>
      <trkpt lat="44.07197" lon="3.11249">
        <ele>755</ele>
        <time>2010-01-01T01:19:10Z</time>
      </trkpt>
      <trkpt lat="44.07189" lon="3.11262">
        <ele>754</ele>
        <time>2010-01-01T01:19:15Z</time>
      </trkpt>
      <trkpt lat="44.07183" lon="3.11276">
        <ele>754</ele>
        <time>2010-01-01T01:19:20Z</time>
      </trkpt>
      <trkpt lat="44.07176" lon="3.11289">
        <ele>755</ele>
        <time>2010-01-01T01:19:24Z</time>
      </trkpt>
      <trkpt lat="44.07169" lon="3.11302">
        <ele>756</ele>
        <time>2010-01-01T01:19:29Z</time>
      </trkpt>
      <trkpt lat="44.07161" lon="3.11311">
        <ele>757</ele>
        <time>2010-01-01T01:19:33Z</time>
      </trkpt>
      <trkpt lat="44.07151" lon="3.11316">
        <ele>757</ele>
        <time>2010-01-01T01:19:38Z</time>
      </trkpt>
      <trkpt lat="44.07141" lon="3.1132">
        <ele>757</ele>
        <time>2010-01-01T01:19:42Z</time>
      </trkpt>
      <trkpt lat="44.07132" lon="3.11326">
        <ele>757</ele>
        <time>2010-01-01T01:19:46Z</time>
      </trkpt>
      <trkpt lat="44.07124" lon="3.11332">
        <ele>757</ele>
        <time>2010-01-01T01:19:49Z</time>
      </trkpt>
      <trkpt lat="44.07115" lon="3.11337">
        <ele>758</ele>
        <time>2010-01-01T01:19:53Z</time>
      </trkpt>
      <trkpt lat="44.07107" lon="3.11342">
        <ele>758</ele>
        <time>2010-01-01T01:19:57Z</time>
      </trkpt>
      <trkpt lat="44.07099" lon="3.11346">
        <ele>758</ele>
        <time>2010-01-01T01:20:00Z</time>
      </trkpt>
      <trkpt lat="44.07091" lon="3.11349">
        <ele>758</ele>
        <time>2010-01-01T01:20:04Z</time>
      </trkpt>
      <trkpt lat="44.07082" lon="3.11353">
        <ele>759</ele>
        <time>2010-01-01T01:20:07Z</time>
      </trkpt>
      <trkpt lat="44.07074" lon="3.11357">
        <ele>759</ele>
        <time>2010-01-01T01:20:11Z</time>
      </trkpt>
      <trkpt lat="44.07066" lon="3.1136">
        <ele>759</ele>
        <time>2010-01-01T01:20:14Z</time>
      </trkpt>
      <trkpt lat="44.07057" lon="3.11363">
        <ele>759</ele>
        <time>2010-01-01T01:20:17Z</time>
      </trkpt>
      <trkpt lat="44.07049" lon="3.11367">
        <ele>760</ele>
        <time>2010-01-01T01:20:21Z</time>
      </trkpt>
      <trkpt lat="44.0704" lon="3.11372">
        <ele>760</ele>
        <time>2010-01-01T01:20:25Z</time>
      </trkpt>
      <trkpt lat="44.07032" lon="3.11376">
        <ele>760</ele>
        <time>2010-01-01T01:20:28Z</time>
      </trkpt>
      <trkpt lat="44.07023" lon="3.11379">
        <ele>761</ele>
        <time>2010-01-01T01:20:32Z</time>
      </trkpt>
      <trkpt lat="44.07013" lon="3.11382">
        <ele>762</ele>
        <time>2010-01-01T01:20:36Z</time>
      </trkpt>
      <trkpt lat="44.07004" lon="3.11385">
        <ele>762</ele>
        <time>2010-01-01T01:20:40Z</time>
      </trkpt>
      <trkpt lat="44.06994" lon="3.1139">
        <ele>763</ele>
        <time>2010-01-01T01:20:44Z</time>
      </trkpt>
      <trkpt lat="44.06986" lon="3.11394">
        <ele>763</ele>
        <time>2010-01-01T01:20:48Z</time>
      </trkpt>
      <trkpt lat="44.06977" lon="3.11395">
        <ele>763</ele>
        <time>2010-01-01T01:20:51Z</time>
      </trkpt>
      <trkpt lat="44.06968" lon="3.11398">
        <ele>764</ele>
        <time>2010-01-01T01:20:55Z</time>
      </trkpt>
      <trkpt lat="44.06959" lon="3.11401">
        <ele>764</ele>
        <time>2010-01-01T01:20:59Z</time>
      </trkpt>
      <trkpt lat="44.0695" lon="3.11405">
        <ele>764</ele>
        <time>2010-01-01T01:21:02Z</time>
      </trkpt>
      <trkpt lat="44.06943" lon="3.11409">
        <ele>764</ele>
        <time>2010-01-01T01:21:05Z</time>
      </trkpt>
      <trkpt lat="44.06935" lon="3.11411">
        <ele>764</ele>
        <time>2010-01-01T01:21:08Z</time>
      </trkpt>
      <trkpt lat="44.06928" lon="3.11413">
        <ele>764</ele>
        <time>2010-01-01T01:21:11Z</time>
      </trkpt>
      <trkpt lat="44.0692" lon="3.11416">
        <ele>764</ele>
        <time>2010-01-01T01:21:15Z</time>
      </trkpt>
      <trkpt lat="44.06913" lon="3.11418">
        <ele>765</ele>
        <time>2010-01-01T01:21:18Z</time>
      </trkpt>
      <trkpt lat="44.06905" lon="3.1142">
        <ele>765</ele>
        <time>2010-01-01T01:21:21Z</time>
      </trkpt>
      <trkpt lat="44.06897" lon="3.11424">
        <ele>765</ele>
        <time>2010-01-01T01:21:24Z</time>
      </trkpt>
      <trkpt lat="44.06889" lon="3.11427">
        <ele>766</ele>
        <time>2010-01-01T01:21:28Z</time>
      </trkpt>
      <trkpt lat="44.06881" lon="3.1143">
        <ele>767</ele>
        <time>2010-01-01T01:21:31Z</time>
      </trkpt>
      <trkpt lat="44.06873" lon="3.11433">
        <ele>767</ele>
        <time>2010-01-01T01:21:34Z</time>
      </trkpt>
      <trkpt lat="44.06865" lon="3.11436">
        <ele>768</ele>
        <time>2010-01-01T01:21:37Z</time>
      </trkpt>
      <trkpt lat="44.06857" lon="3.1144">
        <ele>769</ele>
        <time>2010-01-01T01:21:41Z</time>
      </trkpt>
      <trkpt lat="44.06849" lon="3.11443">
        <ele>769</ele>
        <time>2010-01-01T01:21:44Z</time>
      </trkpt>
      <trkpt lat="44.06841" lon="3.11446">
        <ele>768</ele>
        <time>2010-01-01T01:21:47Z</time>
      </trkpt>
      <trkpt lat="44.06833" lon="3.1145">
        <ele>768</ele>
        <time>2010-01-01T01:21:51Z</time>
      </trkpt>
      <trkpt lat="44.06825" lon="3.11453">
        <ele>768</ele>
        <time>2010-01-01T01:21:54Z</time>
      </trkpt>
      <trkpt lat="44.06816" lon="3.11457">
        <ele>767</ele>
        <time>2010-01-01T01:21:58Z</time>
      </trkpt>
      <trkpt lat="44.06807" lon="3.1146">
        <ele>767</ele>
        <time>2010-01-01T01:22:02Z</time>
      </trkpt>
      <trkpt lat="44.06799" lon="3.11464">
        <ele>767</ele>
        <time>2010-01-01T01:22:05Z</time>
      </trkpt>
      <trkpt lat="44.0679" lon="3.11467">
        <ele>767</ele>
        <time>2010-01-01T01:22:09Z</time>
      </trkpt>
      <trkpt lat="44.06782" lon="3.1147">
        <ele>767</ele>
        <time>2010-01-01T01:22:12Z</time>
      </trkpt>
      <trkpt lat="44.06774" lon="3.11473">
        <ele>767</ele>
        <time>2010-01-01T01:22:15Z</time>
      </trkpt>
      <trkpt lat="44.06766" lon="3.11476">
        <ele>767</ele>
        <time>2010-01-01T01:22:19Z</time>
      </trkpt>
      <trkpt lat="44.06758" lon="3.11479">
        <ele>767</ele>
        <time>2010-01-01T01:22:22Z</time>
      </trkpt>
      <trkpt lat="44.0675" lon="3.11481">
        <ele>767</ele>
        <time>2010-01-01T01:22:25Z</time>
      </trkpt>
      <trkpt lat="44.06742" lon="3.11484">
        <ele>767</ele>
        <time>2010-01-01T01:22:29Z</time>
      </trkpt>
      <trkpt lat="44.06734" lon="3.11486">
        <ele>767</ele>
        <time>2010-01-01T01:22:32Z</time>
      </trkpt>
      <trkpt lat="44.06726" lon="3.11487">
        <ele>767</ele>
        <time>2010-01-01T01:22:35Z</time>
      </trkpt>
      <trkpt lat="44.06718" lon="3.1149">
        <ele>768</ele>
        <time>2010-01-01T01:22:38Z</time>
      </trkpt>
      <trkpt lat="44.0671" lon="3.11492">
        <ele>768</ele>
        <time>2010-01-01T01:22:42Z</time>
      </trkpt>
      <trkpt lat="44.06702" lon="3.11495">
        <ele>768</ele>
        <time>2010-01-01T01:22:45Z</time>
      </trkpt>
      <trkpt lat="44.06694" lon="3.11499">
        <ele>767</ele>
        <time>2010-01-01T01:22:48Z</time>
      </trkpt>
      <trkpt lat="44.06686" lon="3.11503">
        <ele>767</ele>
        <time>2010-01-01T01:22:52Z</time>
      </trkpt>
      <trkpt lat="44.06677" lon="3.11507">
        <ele>767</ele>
        <time>2010-01-01T01:22:56Z</time>
      </trkpt>
      <trkpt lat="44.06668" lon="3.1151">
        <ele>767</ele>
        <time>2010-01-01T01:22:59Z</time>
      </trkpt>
      <trkpt lat="44.06659" lon="3.11514">
        <ele>766</ele>
        <time>2010-01-01T01:23:03Z</time>
      </trkpt>
      <trkpt lat="44.0665" lon="3.11517">
        <ele>766</ele>
        <time>2010-01-01T01:23:07Z</time>
      </trkpt>
      <trkpt lat="44.0664" lon="3.11521">
        <ele>765</ele>
        <time>2010-01-01T01:23:11Z</time>
      </trkpt>
      <trkpt lat="44.06631" lon="3.11525">
        <ele>766</ele>
        <time>2010-01-01T01:23:15Z</time>
      </trkpt>
      <trkpt lat="44.06622" lon="3.11529">
        <ele>766</ele>
        <time>2010-01-01T01:23:19Z</time>
      </trkpt>
      <trkpt lat="44.06613" lon="3.11532">
        <ele>767</ele>
        <time>2010-01-01T01:23:22Z</time>
      </trkpt>
      <trkpt lat="44.06604" lon="3.11535">
        <ele>767</ele>
        <time>2010-01-01T01:23:26Z</time>
      </trkpt>
      <trkpt lat="44.06597" lon="3.11537">
        <ele>767</ele>
        <time>2010-01-01T01:23:29Z</time>
      </trkpt>
      <trkpt lat="44.06589" lon="3.1154">
        <ele>768</ele>
        <time>2010-01-01T01:23:32Z</time>
      </trkpt>
      <trkpt lat="44.0658" lon="3.11543">
        <ele>768</ele>
        <time>2010-01-01T01:23:36Z</time>
      </trkpt>
      <trkpt lat="44.0657" lon="3.11545">
        <ele>768</ele>
        <time>2010-01-01T01:23:40Z</time>
      </trkpt>
      <trkpt lat="44.06558" lon="3.11544">
        <ele>767</ele>
        <time>2010-01-01T01:23:45Z</time>
      </trkpt>
      <trkpt lat="44.06547" lon="3.11545">
        <ele>766</ele>
        <time>2010-01-01T01:23:49Z</time>
      </trkpt>
      <trkpt lat="44.06537" lon="3.1155">
        <ele>766</ele>
        <time>2010-01-01T01:23:53Z</time>
      </trkpt>
      <trkpt lat="44.06527" lon="3.11556">
        <ele>766</ele>
        <time>2010-01-01T01:23:58Z</time>
      </trkpt>
      <trkpt lat="44.06518" lon="3.11561">
        <ele>766</ele>
        <time>2010-01-01T01:24:02Z</time>
      </trkpt>
      <trkpt lat="44.06508" lon="3.11566">
        <ele>766</ele>
        <time>2010-01-01T01:24:06Z</time>
      </trkpt>
      <trkpt lat="44.06497" lon="3.11569">
        <ele>766</ele>
        <time>2010-01-01T01:24:10Z</time>
      </trkpt>
      <trkpt lat="44.06485" lon="3.11571">
        <ele>766</ele>
        <time>2010-01-01T01:24:15Z</time>
      </trkpt>
      <trkpt lat="44.06473" lon="3.11571">
        <ele>766</ele>
        <time>2010-01-01T01:24:20Z</time>
      </trkpt>
      <trkpt lat="44.06458" lon="3.11571">
        <ele>766</ele>
        <time>2010-01-01T01:24:26Z</time>
      </trkpt>
      <trkpt lat="44.06443" lon="3.1157">
        <ele>765</ele>
        <time>2010-01-01T01:24:32Z</time>
      </trkpt>
      <trkpt lat="44.06426" lon="3.11566">
        <ele>765</ele>
        <time>2010-01-01T01:24:39Z</time>
      </trkpt>
      <trkpt lat="44.0641" lon="3.11559">
        <ele>764</ele>
        <time>2010-01-01T01:24:46Z</time>
      </trkpt>
      <trkpt lat="44.06395" lon="3.11549">
        <ele>762</ele>
        <time>2010-01-01T01:24:52Z</time>
      </trkpt>
      <trkpt lat="44.0638" lon="3.11539">
        <ele>761</ele>
        <time>2010-01-01T01:24:59Z</time>
      </trkpt>
      <trkpt lat="44.06365" lon="3.11533">
        <ele>760</ele>
        <time>2010-01-01T01:25:05Z</time>
      </trkpt>
      <trkpt lat="44.0635" lon="3.1153">
        <ele>759</ele>
        <time>2010-01-01T01:25:11Z</time>
      </trkpt>
      <trkpt lat="44.06336" lon="3.11527">
        <ele>759</ele>
        <time>2010-01-01T01:25:17Z</time>
      </trkpt>
      <trkpt lat="44.06324" lon="3.11522">
        <ele>759</ele>
        <time>2010-01-01T01:25:22Z</time>
      </trkpt>
      <trkpt lat="44.06313" lon="3.11515">
        <ele>760</ele>
        <time>2010-01-01T01:25:27Z</time>
      </trkpt>
      <trkpt lat="44.06304" lon="3.11508">
        <ele>761</ele>
        <time>2010-01-01T01:25:31Z</time>
      </trkpt>
      <trkpt lat="44.06297" lon="3.11503">
        <ele>761</ele>
        <time>2010-01-01T01:25:34Z</time>
      </trkpt>
      <trkpt lat="44.06291" lon="3.11498">
        <ele>762</ele>
        <time>2010-01-01T01:25:37Z</time>
      </trkpt>
      <trkpt lat="44.06285" lon="3.11494">
        <ele>762</ele>
        <time>2010-01-01T01:25:39Z</time>
      </trkpt>
      <trkpt lat="44.0628" lon="3.11489">
        <ele>762</ele>
        <time>2010-01-01T01:25:42Z</time>
      </trkpt>
      <trkpt lat="44.06274" lon="3.11485">
        <ele>763</ele>
        <time>2010-01-01T01:25:45Z</time>
      </trkpt>
      <trkpt lat="44.06269" lon="3.1148">
        <ele>763</ele>
        <time>2010-01-01T01:25:47Z</time>
      </trkpt>
      <trkpt lat="44.06264" lon="3.11475">
        <ele>763</ele>
        <time>2010-01-01T01:25:49Z</time>
      </trkpt>
      <trkpt lat="44.0626" lon="3.1147">
        <ele>763</ele>
        <time>2010-01-01T01:25:52Z</time>
      </trkpt>
      <trkpt lat="44.06256" lon="3.11465">
        <ele>764</ele>
        <time>2010-01-01T01:25:54Z</time>
      </trkpt>
      <trkpt lat="44.06251" lon="3.11459">
        <ele>764</ele>
        <time>2010-01-01T01:25:56Z</time>
      </trkpt>
      <trkpt lat="44.06247" lon="3.11453">
        <ele>764</ele>
        <time>2010-01-01T01:25:59Z</time>
      </trkpt>
      <trkpt lat="44.06244" lon="3.11447">
        <ele>765</ele>
        <time>2010-01-01T01:26:01Z</time>
      </trkpt>
      <trkpt lat="44.06241" lon="3.11441">
        <ele>765</ele>
        <time>2010-01-01T01:26:03Z</time>
      </trkpt>
      <trkpt lat="44.06238" lon="3.11435">
        <ele>765</ele>
        <time>2010-01-01T01:26:05Z</time>
      </trkpt>
      <trkpt lat="44.06235" lon="3.11428">
        <ele>765</ele>
        <time>2010-01-01T01:26:07Z</time>
      </trkpt>
      <trkpt lat="44.06232" lon="3.11421">
        <ele>765</ele>
        <time>2010-01-01T01:26:10Z</time>
      </trkpt>
      <trkpt lat="44.0623" lon="3.11414">
        <ele>765</ele>
        <time>2010-01-01T01:26:12Z</time>
      </trkpt>
      <trkpt lat="44.06228" lon="3.11406">
        <ele>765</ele>
        <time>2010-01-01T01:26:14Z</time>
      </trkpt>
      <trkpt lat="44.06227" lon="3.11399">
        <ele>765</ele>
        <time>2010-01-01T01:26:17Z</time>
      </trkpt>
      <trkpt lat="44.06226" lon="3.1139">
        <ele>764</ele>
        <time>2010-01-01T01:26:19Z</time>
      </trkpt>
      <trkpt lat="44.06225" lon="3.11382">
        <ele>764</ele>
        <time>2010-01-01T01:26:21Z</time>
      </trkpt>
      <trkpt lat="44.06224" lon="3.11373">
        <ele>764</ele>
        <time>2010-01-01T01:26:24Z</time>
      </trkpt>
      <trkpt lat="44.06223" lon="3.11362">
        <ele>764</ele>
        <time>2010-01-01T01:26:27Z</time>
      </trkpt>
      <trkpt lat="44.06221" lon="3.1135">
        <ele>765</ele>
        <time>2010-01-01T01:26:31Z</time>
      </trkpt>
      <trkpt lat="44.06219" lon="3.11337">
        <ele>765</ele>
        <time>2010-01-01T01:26:35Z</time>
      </trkpt>
      <trkpt lat="44.06216" lon="3.11323">
        <ele>764</ele>
        <time>2010-01-01T01:26:39Z</time>
      </trkpt>
      <trkpt lat="44.06213" lon="3.1131">
        <ele>764</ele>
        <time>2010-01-01T01:26:43Z</time>
      </trkpt>
      <trkpt lat="44.0621" lon="3.11297">
        <ele>764</ele>
        <time>2010-01-01T01:26:47Z</time>
      </trkpt>
      <trkpt lat="44.06206" lon="3.11285">
        <ele>764</ele>
        <time>2010-01-01T01:26:51Z</time>
      </trkpt>
      <trkpt lat="44.06202" lon="3.11272">
        <ele>763</ele>
        <time>2010-01-01T01:26:55Z</time>
      </trkpt>
      <trkpt lat="44.06198" lon="3.11259">
        <ele>763</ele>
        <time>2010-01-01T01:26:59Z</time>
      </trkpt>
      <trkpt lat="44.06194" lon="3.11246">
        <ele>764</ele>
        <time>2010-01-01T01:27:03Z</time>
      </trkpt>
      <trkpt lat="44.0619" lon="3.11233">
        <ele>764</ele>
        <time>2010-01-01T01:27:07Z</time>
      </trkpt>
      <trkpt lat="44.06186" lon="3.11222">
        <ele>764</ele>
        <time>2010-01-01T01:27:10Z</time>
      </trkpt>
      <trkpt lat="44.06181" lon="3.1121">
        <ele>765</ele>
        <time>2010-01-01T01:27:14Z</time>
      </trkpt>
      <trkpt lat="44.06177" lon="3.11198">
        <ele>765</ele>
        <time>2010-01-01T01:27:18Z</time>
      </trkpt>
      <trkpt lat="44.06172" lon="3.11188">
        <ele>764</ele>
        <time>2010-01-01T01:27:21Z</time>
      </trkpt>
      <trkpt lat="44.06168" lon="3.11178">
        <ele>764</ele>
        <time>2010-01-01T01:27:25Z</time>
      </trkpt>
      <trkpt lat="44.06165" lon="3.11168">
        <ele>764</ele>
        <time>2010-01-01T01:27:28Z</time>
      </trkpt>
      <trkpt lat="44.06162" lon="3.11157">
        <ele>763</ele>
        <time>2010-01-01T01:27:31Z</time>
      </trkpt>
      <trkpt lat="44.06157" lon="3.11146">
        <ele>763</ele>
        <time>2010-01-01T01:27:35Z</time>
      </trkpt>
      <trkpt lat="44.06151" lon="3.11136">
        <ele>763</ele>
        <time>2010-01-01T01:27:39Z</time>
      </trkpt>
      <trkpt lat="44.06144" lon="3.11125">
        <ele>763</ele>
        <time>2010-01-01T01:27:43Z</time>
      </trkpt>
      <trkpt lat="44.06138" lon="3.11115">
        <ele>764</ele>
        <time>2010-01-01T01:27:47Z</time>
      </trkpt>
      <trkpt lat="44.06133" lon="3.11103">
        <ele>764</ele>
        <time>2010-01-01T01:27:51Z</time>
      </trkpt>
      <trkpt lat="44.06128" lon="3.11091">
        <ele>764</ele>
        <time>2010-01-01T01:27:55Z</time>
      </trkpt>
      <trkpt lat="44.06124" lon="3.11079">
        <ele>764</ele>
        <time>2010-01-01T01:27:59Z</time>
      </trkpt>
      <trkpt lat="44.06119" lon="3.11068">
        <ele>764</ele>
        <time>2010-01-01T01:28:02Z</time>
      </trkpt>
      <trkpt lat="44.06114" lon="3.11058">
        <ele>763</ele>
        <time>2010-01-01T01:28:06Z</time>
      </trkpt>
      <trkpt lat="44.06109" lon="3.11049">
        <ele>763</ele>
        <time>2010-01-01T01:28:09Z</time>
      </trkpt>
      <trkpt lat="44.06103" lon="3.11042">
        <ele>763</ele>
        <time>2010-01-01T01:28:12Z</time>
      </trkpt>
      <trkpt lat="44.06097" lon="3.11034">
        <ele>763</ele>
        <time>2010-01-01T01:28:16Z</time>
      </trkpt>
      <trkpt lat="44.06092" lon="3.11025">
        <ele>763</ele>
        <time>2010-01-01T01:28:19Z</time>
      </trkpt>
      <trkpt lat="44.06086" lon="3.11017">
        <ele>763</ele>
        <time>2010-01-01T01:28:22Z</time>
      </trkpt>
      <trkpt lat="44.06081" lon="3.11009">
        <ele>764</ele>
        <time>2010-01-01T01:28:25Z</time>
      </trkpt>
      <trkpt lat="44.06076" lon="3.11001">
        <ele>764</ele>
        <time>2010-01-01T01:28:28Z</time>
      </trkpt>
      <trkpt lat="44.0607" lon="3.10996">
        <ele>764</ele>
        <time>2010-01-01T01:28:31Z</time>
      </trkpt>
      <trkpt lat="44.06064" lon="3.10991">
        <ele>764</ele>
        <time>2010-01-01T01:28:34Z</time>
      </trkpt>
      <trkpt lat="44.06057" lon="3.10989">
        <ele>765</ele>
        <time>2010-01-01T01:28:36Z</time>
      </trkpt>
      <trkpt lat="44.06051" lon="3.10987">
        <ele>765</ele>
        <time>2010-01-01T01:28:39Z</time>
      </trkpt>
      <trkpt lat="44.06044" lon="3.10986">
        <ele>765</ele>
        <time>2010-01-01T01:28:42Z</time>
      </trkpt>
      <trkpt lat="44.06037" lon="3.10983">
        <ele>766</ele>
        <time>2010-01-01T01:28:45Z</time>
      </trkpt>
      <trkpt lat="44.0603" lon="3.10977">
        <ele>766</ele>
        <time>2010-01-01T01:28:48Z</time>
      </trkpt>
      <trkpt lat="44.06025" lon="3.10969">
        <ele>766</ele>
        <time>2010-01-01T01:28:51Z</time>
      </trkpt>
      <trkpt lat="44.06021" lon="3.1096">
        <ele>766</ele>
        <time>2010-01-01T01:28:54Z</time>
      </trkpt>
      <trkpt lat="44.06017" lon="3.10948">
        <ele>766</ele>
        <time>2010-01-01T01:28:58Z</time>
      </trkpt>
      <trkpt lat="44.06012" lon="3.10935">
        <ele>766</ele>
        <time>2010-01-01T01:29:02Z</time>
      </trkpt>
      <trkpt lat="44.06005" lon="3.10926">
        <ele>766</ele>
        <time>2010-01-01T01:29:06Z</time>
      </trkpt>
      <trkpt lat="44.05998" lon="3.10918">
        <ele>767</ele>
        <time>2010-01-01T01:29:10Z</time>
      </trkpt>
      <trkpt lat="44.05991" lon="3.10911">
        <ele>767</ele>
        <time>2010-01-01T01:29:13Z</time>
      </trkpt>
      <trkpt lat="44.05986" lon="3.10904">
        <ele>767</ele>
        <time>2010-01-01T01:29:16Z</time>
      </trkpt>
      <trkpt lat="44.05982" lon="3.10896">
        <ele>768</ele>
        <time>2010-01-01T01:29:19Z</time>
      </trkpt>
      <trkpt lat="44.05977" lon="3.10889">
        <ele>768</ele>
        <time>2010-01-01T01:29:21Z</time>
      </trkpt>
      <trkpt lat="44.05972" lon="3.10882">
        <ele>768</ele>
        <time>2010-01-01T01:29:24Z</time>
      </trkpt>
      <trkpt lat="44.05966" lon="3.10877">
        <ele>768</ele>
        <time>2010-01-01T01:29:27Z</time>
      </trkpt>
      <trkpt lat="44.0596" lon="3.1087">
        <ele>768</ele>
        <time>2010-01-01T01:29:30Z</time>
      </trkpt>
      <trkpt lat="44.05954" lon="3.10863">
        <ele>767</ele>
        <time>2010-01-01T01:29:33Z</time>
      </trkpt>
      <trkpt lat="44.05947" lon="3.10858">
        <ele>767</ele>
        <time>2010-01-01T01:29:37Z</time>
      </trkpt>
      <trkpt lat="44.0594" lon="3.10854">
        <ele>767</ele>
        <time>2010-01-01T01:29:40Z</time>
      </trkpt>
      <trkpt lat="44.05933" lon="3.10852">
        <ele>767</ele>
        <time>2010-01-01T01:29:43Z</time>
      </trkpt>
      <trkpt lat="44.05925" lon="3.10849">
        <ele>767</ele>
        <time>2010-01-01T01:29:46Z</time>
      </trkpt>
      <trkpt lat="44.05918" lon="3.10845">
        <ele>766</ele>
        <time>2010-01-01T01:29:49Z</time>
      </trkpt>
      <trkpt lat="44.05911" lon="3.10839">
        <ele>766</ele>
        <time>2010-01-01T01:29:52Z</time>
      </trkpt>
      <trkpt lat="44.05903" lon="3.10835">
        <ele>766</ele>
        <time>2010-01-01T01:29:55Z</time>
      </trkpt>
      <trkpt lat="44.05894" lon="3.10835">
        <ele>766</ele>
        <time>2010-01-01T01:29:59Z</time>
      </trkpt>
      <trkpt lat="44.05883" lon="3.1084">
        <ele>765</ele>
        <time>2010-01-01T01:30:04Z</time>
      </trkpt>
      <trkpt lat="44.05871" lon="3.10842">
        <ele>765</ele>
        <time>2010-01-01T01:30:08Z</time>
      </trkpt>
      <trkpt lat="44.05862" lon="3.10841">
        <ele>764</ele>
        <time>2010-01-01T01:30:12Z</time>
      </trkpt>
      <trkpt lat="44.05853" lon="3.10837">
        <ele>763</ele>
        <time>2010-01-01T01:30:16Z</time>
      </trkpt>
      <trkpt lat="44.05843" lon="3.10829">
        <ele>762</ele>
        <time>2010-01-01T01:30:21Z</time>
      </trkpt>
      <trkpt lat="44.05832" lon="3.10822">
        <ele>761</ele>
        <time>2010-01-01T01:30:25Z</time>
      </trkpt>
      <trkpt lat="44.05823" lon="3.10816">
        <ele>760</ele>
        <time>2010-01-01T01:30:29Z</time>
      </trkpt>
      <trkpt lat="44.05815" lon="3.10807">
        <ele>759</ele>
        <time>2010-01-01T01:30:34Z</time>
      </trkpt>
      <trkpt lat="44.05807" lon="3.10795">
        <ele>758</ele>
        <time>2010-01-01T01:30:38Z</time>
      </trkpt>
      <trkpt lat="44.05796" lon="3.10787">
        <ele>757</ele>
        <time>2010-01-01T01:30:43Z</time>
      </trkpt>
      <trkpt lat="44.05784" lon="3.10779">
        <ele>756</ele>
        <time>2010-01-01T01:30:49Z</time>
      </trkpt>
      <trkpt lat="44.05771" lon="3.10773">
        <ele>755</ele>
        <time>2010-01-01T01:30:54Z</time>
      </trkpt>
      <trkpt lat="44.0576" lon="3.10768">
        <ele>755</ele>
        <time>2010-01-01T01:30:59Z</time>
      </trkpt>
      <trkpt lat="44.05753" lon="3.10758">
        <ele>755</ele>
        <time>2010-01-01T01:31:03Z</time>
      </trkpt>
      <trkpt lat="44.05753" lon="3.10746">
        <ele>755</ele>
        <time>2010-01-01T01:31:06Z</time>
      </trkpt>
      <trkpt lat="44.05754" lon="3.10733">
        <ele>755</ele>
        <time>2010-01-01T01:31:10Z</time>
      </trkpt>
      <trkpt lat="44.05755" lon="3.10721">
        <ele>754</ele>
        <time>2010-01-01T01:31:13Z</time>
      </trkpt>
      <trkpt lat="44.05755" lon="3.10708">
        <ele>754</ele>
        <time>2010-01-01T01:31:17Z</time>
      </trkpt>
      <trkpt lat="44.05756" lon="3.10695">
        <ele>754</ele>
        <time>2010-01-01T01:31:21Z</time>
      </trkpt>
      <trkpt lat="44.05756" lon="3.10683">
        <ele>754</ele>
        <time>2010-01-01T01:31:24Z</time>
      </trkpt>
      <trkpt lat="44.05756" lon="3.10672">
        <ele>754</ele>
        <time>2010-01-01T01:31:27Z</time>
      </trkpt>
      <trkpt lat="44.05755" lon="3.10663">
        <ele>754</ele>
        <time>2010-01-01T01:31:30Z</time>
      </trkpt>
      <trkpt lat="44.05753" lon="3.10657">
        <ele>755</ele>
        <time>2010-01-01T01:31:32Z</time>
      </trkpt>
      <trkpt lat="44.05749" lon="3.10653">
        <ele>755</ele>
        <time>2010-01-01T01:31:34Z</time>
      </trkpt>
      <trkpt lat="44.05745" lon="3.1065">
        <ele>755</ele>
        <time>2010-01-01T01:31:36Z</time>
      </trkpt>
      <trkpt lat="44.05741" lon="3.10648">
        <ele>756</ele>
        <time>2010-01-01T01:31:38Z</time>
      </trkpt>
      <trkpt lat="44.05737" lon="3.10646">
        <ele>756</ele>
        <time>2010-01-01T01:31:39Z</time>
      </trkpt>
      <trkpt lat="44.05732" lon="3.10645">
        <ele>756</ele>
        <time>2010-01-01T01:31:41Z</time>
      </trkpt>
      <trkpt lat="44.05728" lon="3.10642">
        <ele>756</ele>
        <time>2010-01-01T01:31:43Z</time>
      </trkpt>
      <trkpt lat="44.05724" lon="3.10638">
        <ele>756</ele>
        <time>2010-01-01T01:31:45Z</time>
      </trkpt>
      <trkpt lat="44.0572" lon="3.10635">
        <ele>757</ele>
        <time>2010-01-01T01:31:47Z</time>
      </trkpt>
      <trkpt lat="44.05715" lon="3.10633">
        <ele>757</ele>
        <time>2010-01-01T01:31:49Z</time>
      </trkpt>
      <trkpt lat="44.05711" lon="3.10632">
        <ele>757</ele>
        <time>2010-01-01T01:31:50Z</time>
      </trkpt>
      <trkpt lat="44.05707" lon="3.10631">
        <ele>757</ele>
        <time>2010-01-01T01:31:52Z</time>
      </trkpt>
      <trkpt lat="44.05702" lon="3.1063">
        <ele>757</ele>
        <time>2010-01-01T01:31:54Z</time>
      </trkpt>
      <trkpt lat="44.05698" lon="3.10629">
        <ele>757</ele>
        <time>2010-01-01T01:31:56Z</time>
      </trkpt>
      <trkpt lat="44.05694" lon="3.10628">
        <ele>758</ele>
        <time>2010-01-01T01:31:57Z</time>
      </trkpt>
      <trkpt lat="44.0569" lon="3.10627">
        <ele>758</ele>
        <time>2010-01-01T01:31:59Z</time>
      </trkpt>
      <trkpt lat="44.05686" lon="3.10626">
        <ele>759</ele>
        <time>2010-01-01T01:32:00Z</time>
      </trkpt>
      <trkpt lat="44.05682" lon="3.10626">
        <ele>759</ele>
        <time>2010-01-01T01:32:02Z</time>
      </trkpt>
      <trkpt lat="44.05678" lon="3.10625">
        <ele>760</ele>
        <time>2010-01-01T01:32:04Z</time>
      </trkpt>
      <trkpt lat="44.05674" lon="3.10624">
        <ele>760</ele>
        <time>2010-01-01T01:32:05Z</time>
      </trkpt>
      <trkpt lat="44.05671" lon="3.10623">
        <ele>761</ele>
        <time>2010-01-01T01:32:07Z</time>
      </trkpt>
      <trkpt lat="44.05668" lon="3.10622">
        <ele>761</ele>
        <time>2010-01-01T01:32:08Z</time>
      </trkpt>
      <trkpt lat="44.05664" lon="3.10621">
        <ele>761</ele>
        <time>2010-01-01T01:32:10Z</time>
      </trkpt>
      <trkpt lat="44.0566" lon="3.10619">
        <ele>762</ele>
        <time>2010-01-01T01:32:11Z</time>
      </trkpt>
      <trkpt lat="44.05657" lon="3.10617">
        <ele>762</ele>
        <time>2010-01-01T01:32:13Z</time>
      </trkpt>
      <trkpt lat="44.05653" lon="3.10615">
        <ele>762</ele>
        <time>2010-01-01T01:32:14Z</time>
      </trkpt>
      <trkpt lat="44.05649" lon="3.10613">
        <ele>763</ele>
        <time>2010-01-01T01:32:16Z</time>
      </trkpt>
      <trkpt lat="44.05646" lon="3.10612">
        <ele>763</ele>
        <time>2010-01-01T01:32:17Z</time>
      </trkpt>
      <trkpt lat="44.05642" lon="3.1061">
        <ele>763</ele>
        <time>2010-01-01T01:32:19Z</time>
      </trkpt>
      <trkpt lat="44.05638" lon="3.10609">
        <ele>764</ele>
        <time>2010-01-01T01:32:21Z</time>
      </trkpt>
      <trkpt lat="44.05634" lon="3.10608">
        <ele>764</ele>
        <time>2010-01-01T01:32:22Z</time>
      </trkpt>
      <trkpt lat="44.0563" lon="3.10607">
        <ele>764</ele>
        <time>2010-01-01T01:32:24Z</time>
      </trkpt>
      <trkpt lat="44.05626" lon="3.10606">
        <ele>764</ele>
        <time>2010-01-01T01:32:25Z</time>
      </trkpt>
      <trkpt lat="44.05622" lon="3.10605">
        <ele>765</ele>
        <time>2010-01-01T01:32:27Z</time>
      </trkpt>
      <trkpt lat="44.05618" lon="3.10604">
        <ele>765</ele>
        <time>2010-01-01T01:32:29Z</time>
      </trkpt>
      <trkpt lat="44.05614" lon="3.10602">
        <ele>765</ele>
        <time>2010-01-01T01:32:30Z</time>
      </trkpt>
      <trkpt lat="44.0561" lon="3.10601">
        <ele>766</ele>
        <time>2010-01-01T01:32:32Z</time>
      </trkpt>
      <trkpt lat="44.05606" lon="3.106">
        <ele>766</ele>
        <time>2010-01-01T01:32:34Z</time>
      </trkpt>
      <trkpt lat="44.05602" lon="3.10598">
        <ele>766</ele>
        <time>2010-01-01T01:32:35Z</time>
      </trkpt>
      <trkpt lat="44.05598" lon="3.10597">
        <ele>766</ele>
        <time>2010-01-01T01:32:37Z</time>
      </trkpt>
      <trkpt lat="44.05594" lon="3.10595">
        <ele>767</ele>
        <time>2010-01-01T01:32:39Z</time>
      </trkpt>
      <trkpt lat="44.0559" lon="3.10594">
        <ele>767</ele>
        <time>2010-01-01T01:32:40Z</time>
      </trkpt>
      <trkpt lat="44.05586" lon="3.10593">
        <ele>767</ele>
        <time>2010-01-01T01:32:42Z</time>
      </trkpt>
      <trkpt lat="44.05582" lon="3.10591">
        <ele>768</ele>
        <time>2010-01-01T01:32:43Z</time>
      </trkpt>
      <trkpt lat="44.05578" lon="3.10591">
        <ele>768</ele>
        <time>2010-01-01T01:32:45Z</time>
      </trkpt>
      <trkpt lat="44.05575" lon="3.10589">
        <ele>768</ele>
        <time>2010-01-01T01:32:47Z</time>
      </trkpt>
      <trkpt lat="44.05571" lon="3.10587">
        <ele>769</ele>
        <time>2010-01-01T01:32:48Z</time>
      </trkpt>
      <trkpt lat="44.05567" lon="3.10585">
        <ele>769</ele>
        <time>2010-01-01T01:32:50Z</time>
      </trkpt>
      <trkpt lat="44.05564" lon="3.10582">
        <ele>769</ele>
        <time>2010-01-01T01:32:51Z</time>
      </trkpt>
      <trkpt lat="44.0556" lon="3.1058">
        <ele>769</ele>
        <time>2010-01-01T01:32:53Z</time>
      </trkpt>
      <trkpt lat="44.05557" lon="3.10578">
        <ele>769</ele>
        <time>2010-01-01T01:32:54Z</time>
      </trkpt>
      <trkpt lat="44.05553" lon="3.10576">
        <ele>769</ele>
        <time>2010-01-01T01:32:56Z</time>
      </trkpt>
      <trkpt lat="44.05549" lon="3.10574">
        <ele>770</ele>
        <time>2010-01-01T01:32:58Z</time>
      </trkpt>
      <trkpt lat="44.05546" lon="3.10572">
        <ele>770</ele>
        <time>2010-01-01T01:32:59Z</time>
      </trkpt>
      <trkpt lat="44.05543" lon="3.10571">
        <ele>771</ele>
        <time>2010-01-01T01:33:00Z</time>
      </trkpt>
      <trkpt lat="44.0554" lon="3.10569">
        <ele>771</ele>
        <time>2010-01-01T01:33:02Z</time>
      </trkpt>
      <trkpt lat="44.05536" lon="3.10568">
        <ele>772</ele>
        <time>2010-01-01T01:33:03Z</time>
      </trkpt>
      <trkpt lat="44.05533" lon="3.10567">
        <ele>772</ele>
        <time>2010-01-01T01:33:05Z</time>
      </trkpt>
      <trkpt lat="44.0553" lon="3.10566">
        <ele>773</ele>
        <time>2010-01-01T01:33:06Z</time>
      </trkpt>
      <trkpt lat="44.05526" lon="3.10566">
        <ele>774</ele>
        <time>2010-01-01T01:33:07Z</time>
      </trkpt>
      <trkpt lat="44.05523" lon="3.10565">
        <ele>775</ele>
        <time>2010-01-01T01:33:09Z</time>
      </trkpt>
      <trkpt lat="44.05519" lon="3.10565">
        <ele>775</ele>
        <time>2010-01-01T01:33:10Z</time>
      </trkpt>
      <trkpt lat="44.05516" lon="3.10565">
        <ele>776</ele>
        <time>2010-01-01T01:33:11Z</time>
      </trkpt>
      <trkpt lat="44.05514" lon="3.10564">
        <ele>776</ele>
        <time>2010-01-01T01:33:12Z</time>
      </trkpt>
      <trkpt lat="44.05511" lon="3.10564">
        <ele>777</ele>
        <time>2010-01-01T01:33:13Z</time>
      </trkpt>
      <trkpt lat="44.05508" lon="3.10564">
        <ele>777</ele>
        <time>2010-01-01T01:33:15Z</time>
      </trkpt>
      <trkpt lat="44.05506" lon="3.10564">
        <ele>778</ele>
        <time>2010-01-01T01:33:16Z</time>
      </trkpt>
      <trkpt lat="44.05503" lon="3.10564">
        <ele>778</ele>
        <time>2010-01-01T01:33:17Z</time>
      </trkpt>
      <trkpt lat="44.055" lon="3.10564">
        <ele>779</ele>
        <time>2010-01-01T01:33:18Z</time>
      </trkpt>
      <trkpt lat="44.05497" lon="3.10563">
        <ele>779</ele>
        <time>2010-01-01T01:33:19Z</time>
      </trkpt>
      <trkpt lat="44.05494" lon="3.10564">
        <ele>780</ele>
        <time>2010-01-01T01:33:20Z</time>
      </trkpt>
      <trkpt lat="44.05492" lon="3.10565">
        <ele>780</ele>
        <time>2010-01-01T01:33:21Z</time>
      </trkpt>
      <trkpt lat="44.05489" lon="3.10566">
        <ele>780</ele>
        <time>2010-01-01T01:33:22Z</time>
      </trkpt>
      <trkpt lat="44.05486" lon="3.10566">
        <ele>781</ele>
        <time>2010-01-01T01:33:23Z</time>
      </trkpt>
      <trkpt lat="44.05483" lon="3.10567">
        <ele>781</ele>
        <time>2010-01-01T01:33:25Z</time>
      </trkpt>
      <trkpt lat="44.0548" lon="3.10566">
        <ele>781</ele>
        <time>2010-01-01T01:33:26Z</time>
      </trkpt>
      <trkpt lat="44.05477" lon="3.10565">
        <ele>782</ele>
        <time>2010-01-01T01:33:27Z</time>
      </trkpt>
      <trkpt lat="44.05474" lon="3.10563">
        <ele>782</ele>
        <time>2010-01-01T01:33:28Z</time>
      </trkpt>
      <trkpt lat="44.05471" lon="3.10561">
        <ele>783</ele>
        <time>2010-01-01T01:33:30Z</time>
      </trkpt>
      <trkpt lat="44.05468" lon="3.1056">
        <ele>783</ele>
        <time>2010-01-01T01:33:31Z</time>
      </trkpt>
      <trkpt lat="44.05464" lon="3.1056">
        <ele>783</ele>
        <time>2010-01-01T01:33:32Z</time>
      </trkpt>
      <trkpt lat="44.05461" lon="3.1056">
        <ele>784</ele>
        <time>2010-01-01T01:33:34Z</time>
      </trkpt>
      <trkpt lat="44.05458" lon="3.10561">
        <ele>784</ele>
        <time>2010-01-01T01:33:35Z</time>
      </trkpt>
      <trkpt lat="44.05456" lon="3.10562">
        <ele>784</ele>
        <time>2010-01-01T01:33:36Z</time>
      </trkpt>
      <trkpt lat="44.05453" lon="3.10564">
        <ele>785</ele>
        <time>2010-01-01T01:33:37Z</time>
      </trkpt>
      <trkpt lat="44.0545" lon="3.10565">
        <ele>785</ele>
        <time>2010-01-01T01:33:38Z</time>
      </trkpt>
      <trkpt lat="44.05447" lon="3.10566">
        <ele>786</ele>
        <time>2010-01-01T01:33:40Z</time>
      </trkpt>
      <trkpt lat="44.05444" lon="3.10567">
        <ele>786</ele>
        <time>2010-01-01T01:33:41Z</time>
      </trkpt>
      <trkpt lat="44.05441" lon="3.10569">
        <ele>786</ele>
        <time>2010-01-01T01:33:42Z</time>
      </trkpt>
      <trkpt lat="44.05438" lon="3.10571">
        <ele>787</ele>
        <time>2010-01-01T01:33:43Z</time>
      </trkpt>
      <trkpt lat="44.05435" lon="3.10573">
        <ele>787</ele>
        <time>2010-01-01T01:33:45Z</time>
      </trkpt>
      <trkpt lat="44.05432" lon="3.10575">
        <ele>787</ele>
        <time>2010-01-01T01:33:46Z</time>
      </trkpt>
      <trkpt lat="44.05429" lon="3.10577">
        <ele>787</ele>
        <time>2010-01-01T01:33:48Z</time>
      </trkpt>
      <trkpt lat="44.05426" lon="3.10579">
        <ele>788</ele>
        <time>2010-01-01T01:33:49Z</time>
      </trkpt>
      <trkpt lat="44.05423" lon="3.1058">
        <ele>788</ele>
        <time>2010-01-01T01:33:50Z</time>
      </trkpt>
      <trkpt lat="44.0542" lon="3.10581">
        <ele>788</ele>
        <time>2010-01-01T01:33:51Z</time>
      </trkpt>
      <trkpt lat="44.05417" lon="3.10583">
        <ele>788</ele>
        <time>2010-01-01T01:33:53Z</time>
      </trkpt>
      <trkpt lat="44.05413" lon="3.10585">
        <ele>789</ele>
        <time>2010-01-01T01:33:54Z</time>
      </trkpt>
      <trkpt lat="44.0541" lon="3.10588">
        <ele>789</ele>
        <time>2010-01-01T01:33:56Z</time>
      </trkpt>
      <trkpt lat="44.05407" lon="3.1059">
        <ele>789</ele>
        <time>2010-01-01T01:33:57Z</time>
      </trkpt>
      <trkpt lat="44.05404" lon="3.10593">
        <ele>790</ele>
        <time>2010-01-01T01:33:59Z</time>
      </trkpt>
      <trkpt lat="44.05401" lon="3.10596">
        <ele>790</ele>
        <time>2010-01-01T01:34:00Z</time>
      </trkpt>
      <trkpt lat="44.05398" lon="3.10598">
        <ele>790</ele>
        <time>2010-01-01T01:34:01Z</time>
      </trkpt>
      <trkpt lat="44.05395" lon="3.106">
        <ele>790</ele>
        <time>2010-01-01T01:34:03Z</time>
      </trkpt>
      <trkpt lat="44.05392" lon="3.10603">
        <ele>791</ele>
        <time>2010-01-01T01:34:04Z</time>
      </trkpt>
      <trkpt lat="44.05389" lon="3.10606">
        <ele>791</ele>
        <time>2010-01-01T01:34:06Z</time>
      </trkpt>
      <trkpt lat="44.05385" lon="3.10609">
        <ele>791</ele>
        <time>2010-01-01T01:34:07Z</time>
      </trkpt>
      <trkpt lat="44.05382" lon="3.10611">
        <ele>792</ele>
        <time>2010-01-01T01:34:09Z</time>
      </trkpt>
      <trkpt lat="44.05379" lon="3.10614">
        <ele>792</ele>
        <time>2010-01-01T01:34:10Z</time>
      </trkpt>
      <trkpt lat="44.05376" lon="3.10617">
        <ele>793</ele>
        <time>2010-01-01T01:34:12Z</time>
      </trkpt>
      <trkpt lat="44.05373" lon="3.10619">
        <ele>793</ele>
        <time>2010-01-01T01:34:13Z</time>
      </trkpt>
      <trkpt lat="44.05369" lon="3.10621">
        <ele>794</ele>
        <time>2010-01-01T01:34:15Z</time>
      </trkpt>
      <trkpt lat="44.05366" lon="3.10623">
        <ele>794</ele>
        <time>2010-01-01T01:34:16Z</time>
      </trkpt>
      <trkpt lat="44.05362" lon="3.10625">
        <ele>794</ele>
        <time>2010-01-01T01:34:18Z</time>
      </trkpt>
      <trkpt lat="44.05359" lon="3.10627">
        <ele>795</ele>
        <time>2010-01-01T01:34:19Z</time>
      </trkpt>
      <trkpt lat="44.05355" lon="3.10628">
        <ele>795</ele>
        <time>2010-01-01T01:34:21Z</time>
      </trkpt>
      <trkpt lat="44.05351" lon="3.1063">
        <ele>796</ele>
        <time>2010-01-01T01:34:22Z</time>
      </trkpt>
      <trkpt lat="44.05348" lon="3.10633">
        <ele>796</ele>
        <time>2010-01-01T01:34:24Z</time>
      </trkpt>
      <trkpt lat="44.05344" lon="3.10634">
        <ele>797</ele>
        <time>2010-01-01T01:34:26Z</time>
      </trkpt>
      <trkpt lat="44.0534" lon="3.10637">
        <ele>797</ele>
        <time>2010-01-01T01:34:27Z</time>
      </trkpt>
      <trkpt lat="44.05337" lon="3.10639">
        <ele>797</ele>
        <time>2010-01-01T01:34:29Z</time>
      </trkpt>
      <trkpt lat="44.05333" lon="3.1064">
        <ele>798</ele>
        <time>2010-01-01T01:34:30Z</time>
      </trkpt>
      <trkpt lat="44.05329" lon="3.10642">
        <ele>798</ele>
        <time>2010-01-01T01:34:32Z</time>
      </trkpt>
      <trkpt lat="44.05326" lon="3.10643">
        <ele>798</ele>
        <time>2010-01-01T01:34:33Z</time>
      </trkpt>
      <trkpt lat="44.05322" lon="3.10644">
        <ele>799</ele>
        <time>2010-01-01T01:34:35Z</time>
      </trkpt>
      <trkpt lat="44.05318" lon="3.10646">
        <ele>799</ele>
        <time>2010-01-01T01:34:36Z</time>
      </trkpt>
      <trkpt lat="44.05315" lon="3.10648">
        <ele>800</ele>
        <time>2010-01-01T01:34:38Z</time>
      </trkpt>
      <trkpt lat="44.05311" lon="3.1065">
        <ele>800</ele>
        <time>2010-01-01T01:34:39Z</time>
      </trkpt>
      <trkpt lat="44.05308" lon="3.10654">
        <ele>800</ele>
        <time>2010-01-01T01:34:41Z</time>
      </trkpt>
      <trkpt lat="44.05307" lon="3.10659">
        <ele>801</ele>
        <time>2010-01-01T01:34:43Z</time>
      </trkpt>
      <trkpt lat="44.05305" lon="3.10664">
        <ele>801</ele>
        <time>2010-01-01T01:34:44Z</time>
      </trkpt>
      <trkpt lat="44.05305" lon="3.10668">
        <ele>802</ele>
        <time>2010-01-01T01:34:45Z</time>
      </trkpt>
      <trkpt lat="44.05305" lon="3.10672">
        <ele>802</ele>
        <time>2010-01-01T01:34:47Z</time>
      </trkpt>
      <trkpt lat="44.05307" lon="3.10676">
        <ele>802</ele>
        <time>2010-01-01T01:34:48Z</time>
      </trkpt>
      <trkpt lat="44.05308" lon="3.1068">
        <ele>802</ele>
        <time>2010-01-01T01:34:49Z</time>
      </trkpt>
      <trkpt lat="44.0531" lon="3.10683">
        <ele>802</ele>
        <time>2010-01-01T01:34:50Z</time>
      </trkpt>
      <trkpt lat="44.05312" lon="3.10687">
        <ele>802</ele>
        <time>2010-01-01T01:34:52Z</time>
      </trkpt>
      <trkpt lat="44.05313" lon="3.10691">
        <ele>802</ele>
        <time>2010-01-01T01:34:53Z</time>
      </trkpt>
      <trkpt lat="44.05314" lon="3.10696">
        <ele>802</ele>
        <time>2010-01-01T01:34:54Z</time>
      </trkpt>
      <trkpt lat="44.05315" lon="3.107">
        <ele>802</ele>
        <time>2010-01-01T01:34:55Z</time>
      </trkpt>
      <trkpt lat="44.05315" lon="3.10704">
        <ele>803</ele>
        <time>2010-01-01T01:34:57Z</time>
      </trkpt>
      <trkpt lat="44.05316" lon="3.10708">
        <ele>803</ele>
        <time>2010-01-01T01:34:58Z</time>
      </trkpt>
      <trkpt lat="44.05316" lon="3.10712">
        <ele>803</ele>
        <time>2010-01-01T01:34:59Z</time>
      </trkpt>
      <trkpt lat="44.05315" lon="3.10717">
        <ele>803</ele>
        <time>2010-01-01T01:35:00Z</time>
      </trkpt>
      <trkpt lat="44.05316" lon="3.10721">
        <ele>803</ele>
        <time>2010-01-01T01:35:02Z</time>
      </trkpt>
      <trkpt lat="44.05317" lon="3.10725">
        <ele>804</ele>
        <time>2010-01-01T01:35:03Z</time>
      </trkpt>
      <trkpt lat="44.05318" lon="3.10729">
        <ele>804</ele>
        <time>2010-01-01T01:35:04Z</time>
      </trkpt>
      <trkpt lat="44.05318" lon="3.10734">
        <ele>804</ele>
        <time>2010-01-01T01:35:05Z</time>
      </trkpt>
      <trkpt lat="44.05318" lon="3.10737">
        <ele>804</ele>
        <time>2010-01-01T01:35:06Z</time>
      </trkpt>
      <trkpt lat="44.05317" lon="3.10741">
        <ele>805</ele>
        <time>2010-01-01T01:35:08Z</time>
      </trkpt>
      <trkpt lat="44.05317" lon="3.10745">
        <ele>805</ele>
        <time>2010-01-01T01:35:09Z</time>
      </trkpt>
      <trkpt lat="44.05317" lon="3.10749">
        <ele>805</ele>
        <time>2010-01-01T01:35:10Z</time>
      </trkpt>
      <trkpt lat="44.05317" lon="3.10753">
        <ele>805</ele>
        <time>2010-01-01T01:35:11Z</time>
      </trkpt>
      <trkpt lat="44.05317" lon="3.10757">
        <ele>806</ele>
        <time>2010-01-01T01:35:12Z</time>
      </trkpt>
      <trkpt lat="44.05317" lon="3.10761">
        <ele>806</ele>
        <time>2010-01-01T01:35:13Z</time>
      </trkpt>
      <trkpt lat="44.05317" lon="3.10765">
        <ele>807</ele>
        <time>2010-01-01T01:35:15Z</time>
      </trkpt>
      <trkpt lat="44.05317" lon="3.1077">
        <ele>807</ele>
        <time>2010-01-01T01:35:16Z</time>
      </trkpt>
      <trkpt lat="44.05316" lon="3.10774">
        <ele>808</ele>
        <time>2010-01-01T01:35:17Z</time>
      </trkpt>
      <trkpt lat="44.05316" lon="3.10778">
        <ele>809</ele>
        <time>2010-01-01T01:35:18Z</time>
      </trkpt>
      <trkpt lat="44.05315" lon="3.10783">
        <ele>809</ele>
        <time>2010-01-01T01:35:20Z</time>
      </trkpt>
      <trkpt lat="44.05314" lon="3.10787">
        <ele>809</ele>
        <time>2010-01-01T01:35:21Z</time>
      </trkpt>
      <trkpt lat="44.05314" lon="3.10791">
        <ele>809</ele>
        <time>2010-01-01T01:35:22Z</time>
      </trkpt>
      <trkpt lat="44.05313" lon="3.10795">
        <ele>810</ele>
        <time>2010-01-01T01:35:23Z</time>
      </trkpt>
      <trkpt lat="44.05312" lon="3.108">
        <ele>810</ele>
        <time>2010-01-01T01:35:25Z</time>
      </trkpt>
      <trkpt lat="44.05311" lon="3.10805">
        <ele>811</ele>
        <time>2010-01-01T01:35:26Z</time>
      </trkpt>
      <trkpt lat="44.0531" lon="3.10809">
        <ele>811</ele>
        <time>2010-01-01T01:35:28Z</time>
      </trkpt>
      <trkpt lat="44.05308" lon="3.10814">
        <ele>811</ele>
        <time>2010-01-01T01:35:29Z</time>
      </trkpt>
      <trkpt lat="44.05308" lon="3.10818">
        <ele>812</ele>
        <time>2010-01-01T01:35:30Z</time>
      </trkpt>
      <trkpt lat="44.05307" lon="3.10823">
        <ele>812</ele>
        <time>2010-01-01T01:35:32Z</time>
      </trkpt>
      <trkpt lat="44.05305" lon="3.10827">
        <ele>812</ele>
        <time>2010-01-01T01:35:33Z</time>
      </trkpt>
      <trkpt lat="44.05304" lon="3.10832">
        <ele>812</ele>
        <time>2010-01-01T01:35:35Z</time>
      </trkpt>
      <trkpt lat="44.05302" lon="3.10836">
        <ele>813</ele>
        <time>2010-01-01T01:35:36Z</time>
      </trkpt>
      <trkpt lat="44.053" lon="3.1084">
        <ele>813</ele>
        <time>2010-01-01T01:35:37Z</time>
      </trkpt>
      <trkpt lat="44.05299" lon="3.10843">
        <ele>813</ele>
        <time>2010-01-01T01:35:38Z</time>
      </trkpt>
      <trkpt lat="44.05299" lon="3.10847">
        <ele>813</ele>
        <time>2010-01-01T01:35:39Z</time>
      </trkpt>
      <trkpt lat="44.05298" lon="3.10851">
        <ele>813</ele>
        <time>2010-01-01T01:35:40Z</time>
      </trkpt>
      <trkpt lat="44.05297" lon="3.10855">
        <ele>813</ele>
        <time>2010-01-01T01:35:42Z</time>
      </trkpt>
      <trkpt lat="44.05296" lon="3.10859">
        <ele>813</ele>
        <time>2010-01-01T01:35:43Z</time>
      </trkpt>
      <trkpt lat="44.05296" lon="3.10863">
        <ele>814</ele>
        <time>2010-01-01T01:35:44Z</time>
      </trkpt>
      <trkpt lat="44.05296" lon="3.10866">
        <ele>814</ele>
        <time>2010-01-01T01:35:45Z</time>
      </trkpt>
      <trkpt lat="44.05295" lon="3.1087">
        <ele>814</ele>
        <time>2010-01-01T01:35:46Z</time>
      </trkpt>
      <trkpt lat="44.05295" lon="3.10874">
        <ele>814</ele>
        <time>2010-01-01T01:35:47Z</time>
      </trkpt>
      <trkpt lat="44.05294" lon="3.10878">
        <ele>815</ele>
        <time>2010-01-01T01:35:48Z</time>
      </trkpt>
      <trkpt lat="44.05294" lon="3.10882">
        <ele>815</ele>
        <time>2010-01-01T01:35:50Z</time>
      </trkpt>
      <trkpt lat="44.05293" lon="3.10886">
        <ele>815</ele>
        <time>2010-01-01T01:35:51Z</time>
      </trkpt>
      <trkpt lat="44.05292" lon="3.1089">
        <ele>816</ele>
        <time>2010-01-01T01:35:52Z</time>
      </trkpt>
      <trkpt lat="44.05291" lon="3.10894">
        <ele>816</ele>
        <time>2010-01-01T01:35:53Z</time>
      </trkpt>
      <trkpt lat="44.05291" lon="3.10898">
        <ele>816</ele>
        <time>2010-01-01T01:35:54Z</time>
      </trkpt>
      <trkpt lat="44.0529" lon="3.10902">
        <ele>817</ele>
        <time>2010-01-01T01:35:56Z</time>
      </trkpt>
      <trkpt lat="44.05289" lon="3.10906">
        <ele>817</ele>
        <time>2010-01-01T01:35:57Z</time>
      </trkpt>
      <trkpt lat="44.05288" lon="3.10909">
        <ele>818</ele>
        <time>2010-01-01T01:35:58Z</time>
      </trkpt>
      <trkpt lat="44.05287" lon="3.10914">
        <ele>818</ele>
        <time>2010-01-01T01:35:59Z</time>
      </trkpt>
      <trkpt lat="44.05286" lon="3.10918">
        <ele>819</ele>
        <time>2010-01-01T01:36:00Z</time>
      </trkpt>
      <trkpt lat="44.05286" lon="3.10922">
        <ele>819</ele>
        <time>2010-01-01T01:36:02Z</time>
      </trkpt>
      <trkpt lat="44.05285" lon="3.10926">
        <ele>819</ele>
        <time>2010-01-01T01:36:03Z</time>
      </trkpt>
      <trkpt lat="44.05283" lon="3.10931">
        <ele>820</ele>
        <time>2010-01-01T01:36:04Z</time>
      </trkpt>
      <trkpt lat="44.05282" lon="3.10936">
        <ele>820</ele>
        <time>2010-01-01T01:36:06Z</time>
      </trkpt>
      <trkpt lat="44.0528" lon="3.10941">
        <ele>820</ele>
        <time>2010-01-01T01:36:07Z</time>
      </trkpt>
      <trkpt lat="44.05279" lon="3.10946">
        <ele>821</ele>
        <time>2010-01-01T01:36:09Z</time>
      </trkpt>
      <trkpt lat="44.05277" lon="3.10951">
        <ele>821</ele>
        <time>2010-01-01T01:36:11Z</time>
      </trkpt>
      <trkpt lat="44.05276" lon="3.10957">
        <ele>822</ele>
        <time>2010-01-01T01:36:12Z</time>
      </trkpt>
      <trkpt lat="44.05274" lon="3.10962">
        <ele>822</ele>
        <time>2010-01-01T01:36:14Z</time>
      </trkpt>
      <trkpt lat="44.05272" lon="3.10968">
        <ele>823</ele>
        <time>2010-01-01T01:36:16Z</time>
      </trkpt>
      <trkpt lat="44.05271" lon="3.10973">
        <ele>824</ele>
        <time>2010-01-01T01:36:18Z</time>
      </trkpt>
      <trkpt lat="44.05269" lon="3.10979">
        <ele>824</ele>
        <time>2010-01-01T01:36:19Z</time>
      </trkpt>
      <trkpt lat="44.05267" lon="3.10984">
        <ele>824</ele>
        <time>2010-01-01T01:36:21Z</time>
      </trkpt>
      <trkpt lat="44.05265" lon="3.10989">
        <ele>824</ele>
        <time>2010-01-01T01:36:23Z</time>
      </trkpt>
      <trkpt lat="44.05262" lon="3.10993">
        <ele>824</ele>
        <time>2010-01-01T01:36:24Z</time>
      </trkpt>
      <trkpt lat="44.05258" lon="3.10996">
        <ele>824</ele>
        <time>2010-01-01T01:36:26Z</time>
      </trkpt>
      <trkpt lat="44.05253" lon="3.10999">
        <ele>824</ele>
        <time>2010-01-01T01:36:28Z</time>
      </trkpt>
      <trkpt lat="44.05248" lon="3.11004">
        <ele>824</ele>
        <time>2010-01-01T01:36:31Z</time>
      </trkpt>
      <trkpt lat="44.05244" lon="3.11011">
        <ele>824</ele>
        <time>2010-01-01T01:36:33Z</time>
      </trkpt>
      <trkpt lat="44.0524" lon="3.11017">
        <ele>824</ele>
        <time>2010-01-01T01:36:36Z</time>
      </trkpt>
      <trkpt lat="44.05235" lon="3.11021">
        <ele>824</ele>
        <time>2010-01-01T01:36:38Z</time>
      </trkpt>
      <trkpt lat="44.0523" lon="3.11025">
        <ele>824</ele>
        <time>2010-01-01T01:36:40Z</time>
      </trkpt>
      <trkpt lat="44.05225" lon="3.11029">
        <ele>824</ele>
        <time>2010-01-01T01:36:43Z</time>
      </trkpt>
      <trkpt lat="44.05221" lon="3.11035">
        <ele>824</ele>
        <time>2010-01-01T01:36:45Z</time>
      </trkpt>
      <trkpt lat="44.05217" lon="3.11041">
        <ele>824</ele>
        <time>2010-01-01T01:36:47Z</time>
      </trkpt>
      <trkpt lat="44.05213" lon="3.11046">
        <ele>825</ele>
        <time>2010-01-01T01:36:49Z</time>
      </trkpt>
      <trkpt lat="44.05209" lon="3.11052">
        <ele>825</ele>
        <time>2010-01-01T01:36:52Z</time>
      </trkpt>
      <trkpt lat="44.05205" lon="3.11058">
        <ele>825</ele>
        <time>2010-01-01T01:36:54Z</time>
      </trkpt>
      <trkpt lat="44.052" lon="3.11063">
        <ele>825</ele>
        <time>2010-01-01T01:36:57Z</time>
      </trkpt>
      <trkpt lat="44.05195" lon="3.11067">
        <ele>825</ele>
        <time>2010-01-01T01:36:59Z</time>
      </trkpt>
      <trkpt lat="44.0519" lon="3.11071">
        <ele>826</ele>
        <time>2010-01-01T01:37:01Z</time>
      </trkpt>
      <trkpt lat="44.05186" lon="3.11074">
        <ele>826</ele>
        <time>2010-01-01T01:37:03Z</time>
      </trkpt>
      <trkpt lat="44.05181" lon="3.11078">
        <ele>827</ele>
        <time>2010-01-01T01:37:05Z</time>
      </trkpt>
      <trkpt lat="44.05177" lon="3.11083">
        <ele>827</ele>
        <time>2010-01-01T01:37:07Z</time>
      </trkpt>
      <trkpt lat="44.05173" lon="3.11088">
        <ele>827</ele>
        <time>2010-01-01T01:37:09Z</time>
      </trkpt>
      <trkpt lat="44.0517" lon="3.11094">
        <ele>828</ele>
        <time>2010-01-01T01:37:12Z</time>
      </trkpt>
      <trkpt lat="44.05166" lon="3.11097">
        <ele>828</ele>
        <time>2010-01-01T01:37:14Z</time>
      </trkpt>
      <trkpt lat="44.05162" lon="3.11101">
        <ele>829</ele>
        <time>2010-01-01T01:37:15Z</time>
      </trkpt>
      <trkpt lat="44.0516" lon="3.11107">
        <ele>829</ele>
        <time>2010-01-01T01:37:17Z</time>
      </trkpt>
      <trkpt lat="44.05158" lon="3.11112">
        <ele>829</ele>
        <time>2010-01-01T01:37:19Z</time>
      </trkpt>
      <trkpt lat="44.05155" lon="3.11117">
        <ele>830</ele>
        <time>2010-01-01T01:37:21Z</time>
      </trkpt>
      <trkpt lat="44.05152" lon="3.11121">
        <ele>830</ele>
        <time>2010-01-01T01:37:22Z</time>
      </trkpt>
      <trkpt lat="44.05149" lon="3.11127">
        <ele>830</ele>
        <time>2010-01-01T01:37:24Z</time>
      </trkpt>
      <trkpt lat="44.05146" lon="3.11131">
        <ele>831</ele>
        <time>2010-01-01T01:37:26Z</time>
      </trkpt>
      <trkpt lat="44.05143" lon="3.11135">
        <ele>832</ele>
        <time>2010-01-01T01:37:28Z</time>
      </trkpt>
      <trkpt lat="44.05139" lon="3.11139">
        <ele>832</ele>
        <time>2010-01-01T01:37:30Z</time>
      </trkpt>
      <trkpt lat="44.05134" lon="3.11142">
        <ele>832</ele>
        <time>2010-01-01T01:37:32Z</time>
      </trkpt>
      <trkpt lat="44.05128" lon="3.11145">
        <ele>832</ele>
        <time>2010-01-01T01:37:35Z</time>
      </trkpt>
      <trkpt lat="44.0512" lon="3.11147">
        <ele>832</ele>
        <time>2010-01-01T01:37:38Z</time>
      </trkpt>
      <trkpt lat="44.05111" lon="3.1115">
        <ele>832</ele>
        <time>2010-01-01T01:37:41Z</time>
      </trkpt>
      <trkpt lat="44.05102" lon="3.11155">
        <ele>831</ele>
        <time>2010-01-01T01:37:46Z</time>
      </trkpt>
      <trkpt lat="44.05093" lon="3.11163">
        <ele>831</ele>
        <time>2010-01-01T01:37:50Z</time>
      </trkpt>
      <trkpt lat="44.05086" lon="3.11171">
        <ele>831</ele>
        <time>2010-01-01T01:37:54Z</time>
      </trkpt>
      <trkpt lat="44.05078" lon="3.11179">
        <ele>830</ele>
        <time>2010-01-01T01:37:57Z</time>
      </trkpt>
      <trkpt lat="44.05068" lon="3.11188">
        <ele>830</ele>
        <time>2010-01-01T01:38:02Z</time>
      </trkpt>
      <trkpt lat="44.05059" lon="3.11199">
        <ele>829</ele>
        <time>2010-01-01T01:38:07Z</time>
      </trkpt>
      <trkpt lat="44.05051" lon="3.11211">
        <ele>829</ele>
        <time>2010-01-01T01:38:12Z</time>
      </trkpt>
      <trkpt lat="44.05042" lon="3.11223">
        <ele>830</ele>
        <time>2010-01-01T01:38:16Z</time>
      </trkpt>
      <trkpt lat="44.05032" lon="3.11231">
        <ele>829</ele>
        <time>2010-01-01T01:38:21Z</time>
      </trkpt>
      <trkpt lat="44.05022" lon="3.11239">
        <ele>829</ele>
        <time>2010-01-01T01:38:26Z</time>
      </trkpt>
      <trkpt lat="44.05013" lon="3.11246">
        <ele>829</ele>
        <time>2010-01-01T01:38:30Z</time>
      </trkpt>
      <trkpt lat="44.05004" lon="3.11254">
        <ele>828</ele>
        <time>2010-01-01T01:38:34Z</time>
      </trkpt>
      <trkpt lat="44.04994" lon="3.11263">
        <ele>828</ele>
        <time>2010-01-01T01:38:39Z</time>
      </trkpt>
      <trkpt lat="44.04986" lon="3.11272">
        <ele>828</ele>
        <time>2010-01-01T01:38:43Z</time>
      </trkpt>
      <trkpt lat="44.04978" lon="3.11281">
        <ele>828</ele>
        <time>2010-01-01T01:38:47Z</time>
      </trkpt>
      <trkpt lat="44.04971" lon="3.11289">
        <ele>828</ele>
        <time>2010-01-01T01:38:51Z</time>
      </trkpt>
      <trkpt lat="44.04965" lon="3.11298">
        <ele>828</ele>
        <time>2010-01-01T01:38:55Z</time>
      </trkpt>
      <trkpt lat="44.0496" lon="3.11309">
        <ele>828</ele>
        <time>2010-01-01T01:38:58Z</time>
      </trkpt>
      <trkpt lat="44.04956" lon="3.11321">
        <ele>828</ele>
        <time>2010-01-01T01:39:02Z</time>
      </trkpt>
      <trkpt lat="44.04953" lon="3.11334">
        <ele>829</ele>
        <time>2010-01-01T01:39:06Z</time>
      </trkpt>
      <trkpt lat="44.04948" lon="3.11348">
        <ele>827</ele>
        <time>2010-01-01T01:39:10Z</time>
      </trkpt>
      <trkpt lat="44.04943" lon="3.11362">
        <ele>826</ele>
        <time>2010-01-01T01:39:15Z</time>
      </trkpt>
      <trkpt lat="44.04938" lon="3.11379">
        <ele>824</ele>
        <time>2010-01-01T01:39:20Z</time>
      </trkpt>
      <trkpt lat="44.04932" lon="3.11394">
        <ele>823</ele>
        <time>2010-01-01T01:39:25Z</time>
      </trkpt>
      <trkpt lat="44.04925" lon="3.11411">
        <ele>823</ele>
        <time>2010-01-01T01:39:31Z</time>
      </trkpt>
      <trkpt lat="44.04918" lon="3.11426">
        <ele>822</ele>
        <time>2010-01-01T01:39:36Z</time>
      </trkpt>
      <trkpt lat="44.04911" lon="3.11442">
        <ele>821</ele>
        <time>2010-01-01T01:39:41Z</time>
      </trkpt>
      <trkpt lat="44.04905" lon="3.11458">
        <ele>820</ele>
        <time>2010-01-01T01:39:46Z</time>
      </trkpt>
      <trkpt lat="44.04901" lon="3.11474">
        <ele>820</ele>
        <time>2010-01-01T01:39:51Z</time>
      </trkpt>
      <trkpt lat="44.04899" lon="3.11491">
        <ele>818</ele>
        <time>2010-01-01T01:39:56Z</time>
      </trkpt>
      <trkpt lat="44.04896" lon="3.11507">
        <ele>816</ele>
        <time>2010-01-01T01:40:01Z</time>
      </trkpt>
      <trkpt lat="44.04892" lon="3.11523">
        <ele>816</ele>
        <time>2010-01-01T01:40:06Z</time>
      </trkpt>
      <trkpt lat="44.04887" lon="3.11539">
        <ele>815</ele>
        <time>2010-01-01T01:40:11Z</time>
      </trkpt>
      <trkpt lat="44.04882" lon="3.11554">
        <ele>815</ele>
        <time>2010-01-01T01:40:16Z</time>
      </trkpt>
      <trkpt lat="44.04875" lon="3.11568">
        <ele>814</ele>
        <time>2010-01-01T01:40:21Z</time>
      </trkpt>
      <trkpt lat="44.04871" lon="3.11587">
        <ele>813</ele>
        <time>2010-01-01T01:40:26Z</time>
      </trkpt>
      <trkpt lat="44.04867" lon="3.11606">
        <ele>812</ele>
        <time>2010-01-01T01:40:32Z</time>
      </trkpt>
      <trkpt lat="44.0486" lon="3.11625">
        <ele>812</ele>
        <time>2010-01-01T01:40:38Z</time>
      </trkpt>
      <trkpt lat="44.04848" lon="3.11639">
        <ele>813</ele>
        <time>2010-01-01T01:40:44Z</time>
      </trkpt>
      <trkpt lat="44.04836" lon="3.11653">
        <ele>814</ele>
        <time>2010-01-01T01:40:51Z</time>
      </trkpt>
      <trkpt lat="44.0483" lon="3.11673">
        <ele>813</ele>
        <time>2010-01-01T01:40:57Z</time>
      </trkpt>
      <trkpt lat="44.04825" lon="3.11696">
        <ele>812</ele>
        <time>2010-01-01T01:41:04Z</time>
      </trkpt>
      <trkpt lat="44.04818" lon="3.11718">
        <ele>811</ele>
        <time>2010-01-01T01:41:11Z</time>
      </trkpt>
      <trkpt lat="44.04812" lon="3.11738">
        <ele>809</ele>
        <time>2010-01-01T01:41:17Z</time>
      </trkpt>
      <trkpt lat="44.04809" lon="3.11758">
        <ele>808</ele>
        <time>2010-01-01T01:41:23Z</time>
      </trkpt>
      <trkpt lat="44.04809" lon="3.11777">
        <ele>806</ele>
        <time>2010-01-01T01:41:28Z</time>
      </trkpt>
      <trkpt lat="44.0481" lon="3.11794">
        <ele>806</ele>
        <time>2010-01-01T01:41:33Z</time>
      </trkpt>
      <trkpt lat="44.04812" lon="3.11811">
        <ele>806</ele>
        <time>2010-01-01T01:41:38Z</time>
      </trkpt>
      <trkpt lat="44.04811" lon="3.11829">
        <ele>806</ele>
        <time>2010-01-01T01:41:43Z</time>
      </trkpt>
      <trkpt lat="44.04808" lon="3.11846">
        <ele>806</ele>
        <time>2010-01-01T01:41:48Z</time>
      </trkpt>
      <trkpt lat="44.04806" lon="3.11864">
        <ele>805</ele>
        <time>2010-01-01T01:41:53Z</time>
      </trkpt>
      <trkpt lat="44.04804" lon="3.11881">
        <ele>805</ele>
        <time>2010-01-01T01:41:58Z</time>
      </trkpt>
      <trkpt lat="44.04802" lon="3.11912">
        <ele>804</ele>
        <time>2010-01-01T01:42:08Z</time>
      </trkpt>
      <trkpt lat="44.04801" lon="3.11928">
        <ele>804</ele>
        <time>2010-01-01T01:42:12Z</time>
      </trkpt>
      <trkpt lat="44.04802" lon="3.11943">
        <ele>804</ele>
        <time>2010-01-01T01:42:17Z</time>
      </trkpt>
      <trkpt lat="44.04804" lon="3.11958">
        <ele>804</ele>
        <time>2010-01-01T01:42:21Z</time>
      </trkpt>
      <trkpt lat="44.04805" lon="3.11973">
        <ele>805</ele>
        <time>2010-01-01T01:42:25Z</time>
      </trkpt>
      <trkpt lat="44.04804" lon="3.11988">
        <ele>805</ele>
        <time>2010-01-01T01:42:29Z</time>
      </trkpt>
      <trkpt lat="44.04804" lon="3.12003">
        <ele>806</ele>
        <time>2010-01-01T01:42:34Z</time>
      </trkpt>
      <trkpt lat="44.04804" lon="3.12017">
        <ele>806</ele>
        <time>2010-01-01T01:42:38Z</time>
      </trkpt>
      <trkpt lat="44.04801" lon="3.1203">
        <ele>805</ele>
        <time>2010-01-01T01:42:42Z</time>
      </trkpt>
      <trkpt lat="44.04801" lon="3.12041">
        <ele>805</ele>
        <time>2010-01-01T01:42:45Z</time>
      </trkpt>
      <trkpt lat="44.04801" lon="3.12048">
        <ele>805</ele>
        <time>2010-01-01T01:42:47Z</time>
      </trkpt>
      <trkpt lat="44.04801" lon="3.12055">
        <ele>805</ele>
        <time>2010-01-01T01:42:49Z</time>
      </trkpt>
      <trkpt lat="44.04801" lon="3.12062">
        <ele>805</ele>
        <time>2010-01-01T01:42:51Z</time>
      </trkpt>
      <trkpt lat="44.04801" lon="3.1207">
        <ele>805</ele>
        <time>2010-01-01T01:42:53Z</time>
      </trkpt>
      <trkpt lat="44.048" lon="3.12079">
        <ele>805</ele>
        <time>2010-01-01T01:42:56Z</time>
      </trkpt>
      <trkpt lat="44.04799" lon="3.12089">
        <ele>805</ele>
        <time>2010-01-01T01:42:59Z</time>
      </trkpt>
      <trkpt lat="44.04797" lon="3.12099">
        <ele>805</ele>
        <time>2010-01-01T01:43:02Z</time>
      </trkpt>
      <trkpt lat="44.04795" lon="3.12109">
        <ele>805</ele>
        <time>2010-01-01T01:43:05Z</time>
      </trkpt>
      <trkpt lat="44.04793" lon="3.12119">
        <ele>805</ele>
        <time>2010-01-01T01:43:08Z</time>
      </trkpt>
      <trkpt lat="44.0479" lon="3.12128">
        <ele>805</ele>
        <time>2010-01-01T01:43:11Z</time>
      </trkpt>
      <trkpt lat="44.04787" lon="3.12138">
        <ele>805</ele>
        <time>2010-01-01T01:43:14Z</time>
      </trkpt>
      <trkpt lat="44.04783" lon="3.12146">
        <ele>805</ele>
        <time>2010-01-01T01:43:17Z</time>
      </trkpt>
      <trkpt lat="44.04778" lon="3.12155">
        <ele>805</ele>
        <time>2010-01-01T01:43:20Z</time>
      </trkpt>
      <trkpt lat="44.04773" lon="3.12163">
        <ele>805</ele>
        <time>2010-01-01T01:43:23Z</time>
      </trkpt>
      <trkpt lat="44.04767" lon="3.12171">
        <ele>805</ele>
        <time>2010-01-01T01:43:26Z</time>
      </trkpt>
      <trkpt lat="44.04762" lon="3.1218">
        <ele>805</ele>
        <time>2010-01-01T01:43:29Z</time>
      </trkpt>
      <trkpt lat="44.04756" lon="3.12188">
        <ele>805</ele>
        <time>2010-01-01T01:43:33Z</time>
      </trkpt>
      <trkpt lat="44.0475" lon="3.12196">
        <ele>805</ele>
        <time>2010-01-01T01:43:36Z</time>
      </trkpt>
      <trkpt lat="44.04745" lon="3.12204">
        <ele>805</ele>
        <time>2010-01-01T01:43:39Z</time>
      </trkpt>
      <trkpt lat="44.04739" lon="3.12213">
        <ele>805</ele>
        <time>2010-01-01T01:43:43Z</time>
      </trkpt>
      <trkpt lat="44.04733" lon="3.12223">
        <ele>804</ele>
        <time>2010-01-01T01:43:46Z</time>
      </trkpt>
      <trkpt lat="44.04723" lon="3.1223">
        <ele>804</ele>
        <time>2010-01-01T01:43:51Z</time>
      </trkpt>
      <trkpt lat="44.04714" lon="3.12239">
        <ele>803</ele>
        <time>2010-01-01T01:43:55Z</time>
      </trkpt>
      <trkpt lat="44.04705" lon="3.12251">
        <ele>802</ele>
        <time>2010-01-01T01:44:00Z</time>
      </trkpt>
      <trkpt lat="44.04696" lon="3.12263">
        <ele>801</ele>
        <time>2010-01-01T01:44:05Z</time>
      </trkpt>
      <trkpt lat="44.04685" lon="3.12273">
        <ele>800</ele>
        <time>2010-01-01T01:44:10Z</time>
      </trkpt>
      <trkpt lat="44.04673" lon="3.12282">
        <ele>800</ele>
        <time>2010-01-01T01:44:16Z</time>
      </trkpt>
      <trkpt lat="44.04662" lon="3.12294">
        <ele>800</ele>
        <time>2010-01-01T01:44:22Z</time>
      </trkpt>
      <trkpt lat="44.04652" lon="3.12309">
        <ele>800</ele>
        <time>2010-01-01T01:44:27Z</time>
      </trkpt>
      <trkpt lat="44.04643" lon="3.12325">
        <ele>800</ele>
        <time>2010-01-01T01:44:33Z</time>
      </trkpt>
      <trkpt lat="44.0463" lon="3.12336">
        <ele>799</ele>
        <time>2010-01-01T01:44:39Z</time>
      </trkpt>
      <trkpt lat="44.0462" lon="3.12351">
        <ele>797</ele>
        <time>2010-01-01T01:44:45Z</time>
      </trkpt>
      <trkpt lat="44.04612" lon="3.12369">
        <ele>796</ele>
        <time>2010-01-01T01:44:51Z</time>
      </trkpt>
      <trkpt lat="44.04601" lon="3.12384">
        <ele>795</ele>
        <time>2010-01-01T01:44:57Z</time>
      </trkpt>
      <trkpt lat="44.04589" lon="3.12397">
        <ele>794</ele>
        <time>2010-01-01T01:45:04Z</time>
      </trkpt>
      <trkpt lat="44.04576" lon="3.12409">
        <ele>793</ele>
        <time>2010-01-01T01:45:10Z</time>
      </trkpt>
      <trkpt lat="44.04563" lon="3.1242">
        <ele>792</ele>
        <time>2010-01-01T01:45:16Z</time>
      </trkpt>
      <trkpt lat="44.0455" lon="3.12431">
        <ele>791</ele>
        <time>2010-01-01T01:45:22Z</time>
      </trkpt>
      <trkpt lat="44.04538" lon="3.12443">
        <ele>791</ele>
        <time>2010-01-01T01:45:28Z</time>
      </trkpt>
      <trkpt lat="44.04527" lon="3.12455">
        <ele>790</ele>
        <time>2010-01-01T01:45:34Z</time>
      </trkpt>
      <trkpt lat="44.04515" lon="3.12467">
        <ele>790</ele>
        <time>2010-01-01T01:45:39Z</time>
      </trkpt>
      <trkpt lat="44.04503" lon="3.12478">
        <ele>789</ele>
        <time>2010-01-01T01:45:45Z</time>
      </trkpt>
      <trkpt lat="44.04491" lon="3.12489">
        <ele>789</ele>
        <time>2010-01-01T01:45:51Z</time>
      </trkpt>
      <trkpt lat="44.04479" lon="3.12499">
        <ele>789</ele>
        <time>2010-01-01T01:45:56Z</time>
      </trkpt>
      <trkpt lat="44.04467" lon="3.12507">
        <ele>789</ele>
        <time>2010-01-01T01:46:02Z</time>
      </trkpt>
      <trkpt lat="44.04454" lon="3.12513">
        <ele>788</ele>
        <time>2010-01-01T01:46:07Z</time>
      </trkpt>
      <trkpt lat="44.04441" lon="3.12513">
        <ele>787</ele>
        <time>2010-01-01T01:46:13Z</time>
      </trkpt>
      <trkpt lat="44.04428" lon="3.1251">
        <ele>787</ele>
        <time>2010-01-01T01:46:18Z</time>
      </trkpt>
      <trkpt lat="44.04418" lon="3.12508">
        <ele>787</ele>
        <time>2010-01-01T01:46:22Z</time>
      </trkpt>
      <trkpt lat="44.04409" lon="3.12513">
        <ele>786</ele>
        <time>2010-01-01T01:46:26Z</time>
      </trkpt>
      <trkpt lat="44.04401" lon="3.1252">
        <ele>786</ele>
        <time>2010-01-01T01:46:30Z</time>
      </trkpt>
      <trkpt lat="44.04394" lon="3.12528">
        <ele>787</ele>
        <time>2010-01-01T01:46:33Z</time>
      </trkpt>
      <trkpt lat="44.04388" lon="3.12538">
        <ele>787</ele>
        <time>2010-01-01T01:46:37Z</time>
      </trkpt>
      <trkpt lat="44.04382" lon="3.12549">
        <ele>787</ele>
        <time>2010-01-01T01:46:41Z</time>
      </trkpt>
      <trkpt lat="44.04376" lon="3.12558">
        <ele>787</ele>
        <time>2010-01-01T01:46:45Z</time>
      </trkpt>
      <trkpt lat="44.04368" lon="3.12564">
        <ele>787</ele>
        <time>2010-01-01T01:46:48Z</time>
      </trkpt>
      <trkpt lat="44.0436" lon="3.1257">
        <ele>787</ele>
        <time>2010-01-01T01:46:52Z</time>
      </trkpt>
      <trkpt lat="44.04351" lon="3.12577">
        <ele>787</ele>
        <time>2010-01-01T01:46:56Z</time>
      </trkpt>
      <trkpt lat="44.04343" lon="3.12586">
        <ele>787</ele>
        <time>2010-01-01T01:47:00Z</time>
      </trkpt>
      <trkpt lat="44.04337" lon="3.12596">
        <ele>787</ele>
        <time>2010-01-01T01:47:04Z</time>
      </trkpt>
      <trkpt lat="44.04331" lon="3.12603">
        <ele>786</ele>
        <time>2010-01-01T01:47:07Z</time>
      </trkpt>
      <trkpt lat="44.04325" lon="3.1261">
        <ele>786</ele>
        <time>2010-01-01T01:47:10Z</time>
      </trkpt>
      <trkpt lat="44.04319" lon="3.12618">
        <ele>786</ele>
        <time>2010-01-01T01:47:13Z</time>
      </trkpt>
      <trkpt lat="44.04314" lon="3.12626">
        <ele>786</ele>
        <time>2010-01-01T01:47:16Z</time>
      </trkpt>
      <trkpt lat="44.04307" lon="3.12636">
        <ele>786</ele>
        <time>2010-01-01T01:47:20Z</time>
      </trkpt>
      <trkpt lat="44.043" lon="3.12643">
        <ele>787</ele>
        <time>2010-01-01T01:47:24Z</time>
      </trkpt>
      <trkpt lat="44.04293" lon="3.1265">
        <ele>787</ele>
        <time>2010-01-01T01:47:27Z</time>
      </trkpt>
      <trkpt lat="44.04288" lon="3.12658">
        <ele>787</ele>
        <time>2010-01-01T01:47:30Z</time>
      </trkpt>
      <trkpt lat="44.04283" lon="3.12667">
        <ele>787</ele>
        <time>2010-01-01T01:47:34Z</time>
      </trkpt>
      <trkpt lat="44.04277" lon="3.12675">
        <ele>787</ele>
        <time>2010-01-01T01:47:37Z</time>
      </trkpt>
      <trkpt lat="44.0427" lon="3.12683">
        <ele>787</ele>
        <time>2010-01-01T01:47:41Z</time>
      </trkpt>
      <trkpt lat="44.04262" lon="3.1269">
        <ele>787</ele>
        <time>2010-01-01T01:47:44Z</time>
      </trkpt>
      <trkpt lat="44.04255" lon="3.12696">
        <ele>788</ele>
        <time>2010-01-01T01:47:48Z</time>
      </trkpt>
      <trkpt lat="44.04248" lon="3.12705">
        <ele>788</ele>
        <time>2010-01-01T01:47:52Z</time>
      </trkpt>
      <trkpt lat="44.0424" lon="3.12714">
        <ele>788</ele>
        <time>2010-01-01T01:47:55Z</time>
      </trkpt>
      <trkpt lat="44.04233" lon="3.12723">
        <ele>788</ele>
        <time>2010-01-01T01:47:59Z</time>
      </trkpt>
      <trkpt lat="44.04226" lon="3.12731">
        <ele>788</ele>
        <time>2010-01-01T01:48:03Z</time>
      </trkpt>
      <trkpt lat="44.0422" lon="3.12739">
        <ele>788</ele>
        <time>2010-01-01T01:48:06Z</time>
      </trkpt>
      <trkpt lat="44.04214" lon="3.12747">
        <ele>788</ele>
        <time>2010-01-01T01:48:10Z</time>
      </trkpt>
      <trkpt lat="44.0421" lon="3.12757">
        <ele>788</ele>
        <time>2010-01-01T01:48:13Z</time>
      </trkpt>
      <trkpt lat="44.04208" lon="3.12769">
        <ele>788</ele>
        <time>2010-01-01T01:48:16Z</time>
      </trkpt>
      <trkpt lat="44.04207" lon="3.1278">
        <ele>788</ele>
        <time>2010-01-01T01:48:20Z</time>
      </trkpt>
      <trkpt lat="44.04206" lon="3.12791">
        <ele>788</ele>
        <time>2010-01-01T01:48:23Z</time>
      </trkpt>
      <trkpt lat="44.04206" lon="3.12802">
        <ele>788</ele>
        <time>2010-01-01T01:48:26Z</time>
      </trkpt>
      <trkpt lat="44.04206" lon="3.12811">
        <ele>788</ele>
        <time>2010-01-01T01:48:29Z</time>
      </trkpt>
      <trkpt lat="44.04206" lon="3.1282">
        <ele>788</ele>
        <time>2010-01-01T01:48:31Z</time>
      </trkpt>
      <trkpt lat="44.04206" lon="3.12827">
        <ele>788</ele>
        <time>2010-01-01T01:48:33Z</time>
      </trkpt>
      <trkpt lat="44.04207" lon="3.12833">
        <ele>788</ele>
        <time>2010-01-01T01:48:35Z</time>
      </trkpt>
      <trkpt lat="44.04208" lon="3.12839">
        <ele>788</ele>
        <time>2010-01-01T01:48:37Z</time>
      </trkpt>
      <trkpt lat="44.04209" lon="3.12847">
        <ele>788</ele>
        <time>2010-01-01T01:48:39Z</time>
      </trkpt>
      <trkpt lat="44.04211" lon="3.12856">
        <ele>788</ele>
        <time>2010-01-01T01:48:42Z</time>
      </trkpt>
      <trkpt lat="44.04211" lon="3.12866">
        <ele>788</ele>
        <time>2010-01-01T01:48:45Z</time>
      </trkpt>
      <trkpt lat="44.04212" lon="3.12876">
        <ele>788</ele>
        <time>2010-01-01T01:48:48Z</time>
      </trkpt>
      <trkpt lat="44.04212" lon="3.12886">
        <ele>788</ele>
        <time>2010-01-01T01:48:51Z</time>
      </trkpt>
      <trkpt lat="44.04212" lon="3.12896">
        <ele>789</ele>
        <time>2010-01-01T01:48:53Z</time>
      </trkpt>
      <trkpt lat="44.04212" lon="3.12907">
        <ele>789</ele>
        <time>2010-01-01T01:48:56Z</time>
      </trkpt>
      <trkpt lat="44.04213" lon="3.12917">
        <ele>789</ele>
        <time>2010-01-01T01:48:59Z</time>
      </trkpt>
      <trkpt lat="44.04214" lon="3.12927">
        <ele>789</ele>
        <time>2010-01-01T01:49:02Z</time>
      </trkpt>
      <trkpt lat="44.04216" lon="3.12936">
        <ele>789</ele>
        <time>2010-01-01T01:49:05Z</time>
      </trkpt>
      <trkpt lat="44.04217" lon="3.12946">
        <ele>789</ele>
        <time>2010-01-01T01:49:08Z</time>
      </trkpt>
      <trkpt lat="44.04219" lon="3.12956">
        <ele>789</ele>
        <time>2010-01-01T01:49:11Z</time>
      </trkpt>
      <trkpt lat="44.04221" lon="3.12966">
        <ele>789</ele>
        <time>2010-01-01T01:49:14Z</time>
      </trkpt>
      <trkpt lat="44.04223" lon="3.12976">
        <ele>789</ele>
        <time>2010-01-01T01:49:17Z</time>
      </trkpt>
      <trkpt lat="44.04226" lon="3.12986">
        <ele>789</ele>
        <time>2010-01-01T01:49:20Z</time>
      </trkpt>
      <trkpt lat="44.0423" lon="3.12997">
        <ele>790</ele>
        <time>2010-01-01T01:49:23Z</time>
      </trkpt>
      <trkpt lat="44.04234" lon="3.13006">
        <ele>790</ele>
        <time>2010-01-01T01:49:27Z</time>
      </trkpt>
      <trkpt lat="44.04237" lon="3.13016">
        <ele>791</ele>
        <time>2010-01-01T01:49:30Z</time>
      </trkpt>
      <trkpt lat="44.04242" lon="3.13025">
        <ele>791</ele>
        <time>2010-01-01T01:49:33Z</time>
      </trkpt>
      <trkpt lat="44.04246" lon="3.13034">
        <ele>791</ele>
        <time>2010-01-01T01:49:36Z</time>
      </trkpt>
      <trkpt lat="44.0425" lon="3.13044">
        <ele>791</ele>
        <time>2010-01-01T01:49:39Z</time>
      </trkpt>
      <trkpt lat="44.04254" lon="3.13053">
        <ele>790</ele>
        <time>2010-01-01T01:49:42Z</time>
      </trkpt>
      <trkpt lat="44.04257" lon="3.13062">
        <ele>791</ele>
        <time>2010-01-01T01:49:45Z</time>
      </trkpt>
      <trkpt lat="44.04261" lon="3.13071">
        <ele>791</ele>
        <time>2010-01-01T01:49:48Z</time>
      </trkpt>
      <trkpt lat="44.04264" lon="3.13081">
        <ele>792</ele>
        <time>2010-01-01T01:49:51Z</time>
      </trkpt>
      <trkpt lat="44.04265" lon="3.13092">
        <ele>792</ele>
        <time>2010-01-01T01:49:54Z</time>
      </trkpt>
      <trkpt lat="44.04267" lon="3.13102">
        <ele>793</ele>
        <time>2010-01-01T01:49:57Z</time>
      </trkpt>
      <trkpt lat="44.04271" lon="3.1311">
        <ele>793</ele>
        <time>2010-01-01T01:50:00Z</time>
      </trkpt>
      <trkpt lat="44.04275" lon="3.13119">
        <ele>794</ele>
        <time>2010-01-01T01:50:03Z</time>
      </trkpt>
      <trkpt lat="44.04279" lon="3.13128">
        <ele>795</ele>
        <time>2010-01-01T01:50:06Z</time>
      </trkpt>
      <trkpt lat="44.04283" lon="3.13135">
        <ele>795</ele>
        <time>2010-01-01T01:50:09Z</time>
      </trkpt>
      <trkpt lat="44.04288" lon="3.13143">
        <ele>795</ele>
        <time>2010-01-01T01:50:12Z</time>
      </trkpt>
      <trkpt lat="44.04293" lon="3.1315">
        <ele>795</ele>
        <time>2010-01-01T01:50:15Z</time>
      </trkpt>
      <trkpt lat="44.04298" lon="3.13157">
        <ele>795</ele>
        <time>2010-01-01T01:50:18Z</time>
      </trkpt>
      <trkpt lat="44.04303" lon="3.13165">
        <ele>796</ele>
        <time>2010-01-01T01:50:21Z</time>
      </trkpt>
      <trkpt lat="44.04308" lon="3.13172">
        <ele>795</ele>
        <time>2010-01-01T01:50:24Z</time>
      </trkpt>
      <trkpt lat="44.04313" lon="3.13178">
        <ele>795</ele>
        <time>2010-01-01T01:50:26Z</time>
      </trkpt>
      <trkpt lat="44.04318" lon="3.13186">
        <ele>795</ele>
        <time>2010-01-01T01:50:29Z</time>
      </trkpt>
      <trkpt lat="44.04324" lon="3.13194">
        <ele>795</ele>
        <time>2010-01-01T01:50:32Z</time>
      </trkpt>
      <trkpt lat="44.04329" lon="3.13202">
        <ele>795</ele>
        <time>2010-01-01T01:50:35Z</time>
      </trkpt>
      <trkpt lat="44.04334" lon="3.1321">
        <ele>795</ele>
        <time>2010-01-01T01:50:39Z</time>
      </trkpt>
      <trkpt lat="44.04339" lon="3.13218">
        <ele>795</ele>
        <time>2010-01-01T01:50:42Z</time>
      </trkpt>
      <trkpt lat="44.04344" lon="3.13225">
        <ele>795</ele>
        <time>2010-01-01T01:50:45Z</time>
      </trkpt>
      <trkpt lat="44.0435" lon="3.13233">
        <ele>795</ele>
        <time>2010-01-01T01:50:48Z</time>
      </trkpt>
      <trkpt lat="44.04355" lon="3.1324">
        <ele>795</ele>
        <time>2010-01-01T01:50:51Z</time>
      </trkpt>
      <trkpt lat="44.0436" lon="3.13247">
        <ele>795</ele>
        <time>2010-01-01T01:50:54Z</time>
      </trkpt>
      <trkpt lat="44.04365" lon="3.13255">
        <ele>796</ele>
        <time>2010-01-01T01:50:57Z</time>
      </trkpt>
      <trkpt lat="44.0437" lon="3.13262">
        <ele>796</ele>
        <time>2010-01-01T01:50:59Z</time>
      </trkpt>
      <trkpt lat="44.04375" lon="3.13268">
        <ele>796</ele>
        <time>2010-01-01T01:51:02Z</time>
      </trkpt>
      <trkpt lat="44.0438" lon="3.13275">
        <ele>796</ele>
        <time>2010-01-01T01:51:05Z</time>
      </trkpt>
      <trkpt lat="44.04385" lon="3.13282">
        <ele>796</ele>
        <time>2010-01-01T01:51:08Z</time>
      </trkpt>
      <trkpt lat="44.0439" lon="3.13289">
        <ele>796</ele>
        <time>2010-01-01T01:51:10Z</time>
      </trkpt>
      <trkpt lat="44.04394" lon="3.13296">
        <ele>796</ele>
        <time>2010-01-01T01:51:13Z</time>
      </trkpt>
      <trkpt lat="44.04399" lon="3.13302">
        <ele>796</ele>
        <time>2010-01-01T01:51:16Z</time>
      </trkpt>
      <trkpt lat="44.04404" lon="3.13307">
        <ele>797</ele>
        <time>2010-01-01T01:51:18Z</time>
      </trkpt>
      <trkpt lat="44.04409" lon="3.13314">
        <ele>797</ele>
        <time>2010-01-01T01:51:21Z</time>
      </trkpt>
      <trkpt lat="44.04413" lon="3.1332">
        <ele>798</ele>
        <time>2010-01-01T01:51:23Z</time>
      </trkpt>
      <trkpt lat="44.04418" lon="3.13326">
        <ele>798</ele>
        <time>2010-01-01T01:51:26Z</time>
      </trkpt>
      <trkpt lat="44.04422" lon="3.13333">
        <ele>798</ele>
        <time>2010-01-01T01:51:29Z</time>
      </trkpt>
      <trkpt lat="44.04427" lon="3.1334">
        <ele>799</ele>
        <time>2010-01-01T01:51:31Z</time>
      </trkpt>
      <trkpt lat="44.04432" lon="3.13346">
        <ele>799</ele>
        <time>2010-01-01T01:51:34Z</time>
      </trkpt>
      <trkpt lat="44.04437" lon="3.13353">
        <ele>799</ele>
        <time>2010-01-01T01:51:37Z</time>
      </trkpt>
      <trkpt lat="44.04442" lon="3.1336">
        <ele>800</ele>
        <time>2010-01-01T01:51:40Z</time>
      </trkpt>
      <trkpt lat="44.04446" lon="3.13366">
        <ele>800</ele>
        <time>2010-01-01T01:51:42Z</time>
      </trkpt>
      <trkpt lat="44.04451" lon="3.13373">
        <ele>800</ele>
        <time>2010-01-01T01:51:45Z</time>
      </trkpt>
      <trkpt lat="44.04456" lon="3.13379">
        <ele>800</ele>
        <time>2010-01-01T01:51:48Z</time>
      </trkpt>
      <trkpt lat="44.04461" lon="3.13386">
        <ele>800</ele>
        <time>2010-01-01T01:51:50Z</time>
      </trkpt>
      <trkpt lat="44.04467" lon="3.13392">
        <ele>800</ele>
        <time>2010-01-01T01:51:53Z</time>
      </trkpt>
      <trkpt lat="44.04472" lon="3.13399">
        <ele>800</ele>
        <time>2010-01-01T01:51:56Z</time>
      </trkpt>
      <trkpt lat="44.04479" lon="3.13406">
        <ele>800</ele>
        <time>2010-01-01T01:52:00Z</time>
      </trkpt>
      <trkpt lat="44.04487" lon="3.13414">
        <ele>800</ele>
        <time>2010-01-01T01:52:03Z</time>
      </trkpt>
      <trkpt lat="44.04495" lon="3.13422">
        <ele>800</ele>
        <time>2010-01-01T01:52:08Z</time>
      </trkpt>
      <trkpt lat="44.04504" lon="3.13429">
        <ele>799</ele>
        <time>2010-01-01T01:52:12Z</time>
      </trkpt>
      <trkpt lat="44.04512" lon="3.13437">
        <ele>799</ele>
        <time>2010-01-01T01:52:16Z</time>
      </trkpt>
      <trkpt lat="44.04522" lon="3.13445">
        <ele>798</ele>
        <time>2010-01-01T01:52:20Z</time>
      </trkpt>
      <trkpt lat="44.04532" lon="3.13452">
        <ele>799</ele>
        <time>2010-01-01T01:52:25Z</time>
      </trkpt>
      <trkpt lat="44.04541" lon="3.13461">
        <ele>799</ele>
        <time>2010-01-01T01:52:29Z</time>
      </trkpt>
      <trkpt lat="44.04549" lon="3.13468">
        <ele>799</ele>
        <time>2010-01-01T01:52:33Z</time>
      </trkpt>
      <trkpt lat="44.04558" lon="3.13475">
        <ele>798</ele>
        <time>2010-01-01T01:52:37Z</time>
      </trkpt>
      <trkpt lat="44.04567" lon="3.13481">
        <ele>798</ele>
        <time>2010-01-01T01:52:41Z</time>
      </trkpt>
      <trkpt lat="44.04576" lon="3.13486">
        <ele>798</ele>
        <time>2010-01-01T01:52:45Z</time>
      </trkpt>
      <trkpt lat="44.04585" lon="3.13494">
        <ele>797</ele>
        <time>2010-01-01T01:52:49Z</time>
      </trkpt>
      <trkpt lat="44.04593" lon="3.13502">
        <ele>797</ele>
        <time>2010-01-01T01:52:53Z</time>
      </trkpt>
      <trkpt lat="44.046" lon="3.13511">
        <ele>797</ele>
        <time>2010-01-01T01:52:57Z</time>
      </trkpt>
      <trkpt lat="44.04608" lon="3.13519">
        <ele>796</ele>
        <time>2010-01-01T01:53:01Z</time>
      </trkpt>
      <trkpt lat="44.04616" lon="3.13527">
        <ele>796</ele>
        <time>2010-01-01T01:53:05Z</time>
      </trkpt>
      <trkpt lat="44.04626" lon="3.13535">
        <ele>795</ele>
        <time>2010-01-01T01:53:09Z</time>
      </trkpt>
      <trkpt lat="44.04636" lon="3.13543">
        <ele>795</ele>
        <time>2010-01-01T01:53:14Z</time>
      </trkpt>
      <trkpt lat="44.04647" lon="3.13552">
        <ele>795</ele>
        <time>2010-01-01T01:53:19Z</time>
      </trkpt>
      <trkpt lat="44.04658" lon="3.13562">
        <ele>795</ele>
        <time>2010-01-01T01:53:24Z</time>
      </trkpt>
      <trkpt lat="44.04669" lon="3.13573">
        <ele>795</ele>
        <time>2010-01-01T01:53:30Z</time>
      </trkpt>
      <trkpt lat="44.04681" lon="3.13582">
        <ele>795</ele>
        <time>2010-01-01T01:53:35Z</time>
      </trkpt>
      <trkpt lat="44.04692" lon="3.13585">
        <ele>795</ele>
        <time>2010-01-01T01:53:40Z</time>
      </trkpt>
      <trkpt lat="44.04702" lon="3.13588">
        <ele>795</ele>
        <time>2010-01-01T01:53:44Z</time>
      </trkpt>
      <trkpt lat="44.04712" lon="3.13591">
        <ele>795</ele>
        <time>2010-01-01T01:53:48Z</time>
      </trkpt>
      <trkpt lat="44.04724" lon="3.13601">
        <ele>795</ele>
        <time>2010-01-01T01:53:53Z</time>
      </trkpt>
      <trkpt lat="44.04724" lon="3.13601">
        <ele>795</ele>
        <time>2010-01-01T01:53:53Z</time>
      </trkpt>
      <trkpt lat="44.04724" lon="3.13601">
        <ele>795</ele>
        <time>2010-01-01T01:53:54Z</time>
      </trkpt>
      <trkpt lat="44.04728" lon="3.13609">
        <ele>795</ele>
        <time>2010-01-01T01:53:56Z</time>
      </trkpt>
      <trkpt lat="44.04733" lon="3.13615">
        <ele>795</ele>
        <time>2010-01-01T01:53:59Z</time>
      </trkpt>
      <trkpt lat="44.04741" lon="3.13623">
        <ele>796</ele>
        <time>2010-01-01T01:54:03Z</time>
      </trkpt>
      <trkpt lat="44.04743" lon="3.13634">
        <ele>796</ele>
        <time>2010-01-01T01:54:06Z</time>
      </trkpt>
      <trkpt lat="44.04738" lon="3.13641">
        <ele>796</ele>
        <time>2010-01-01T01:54:09Z</time>
      </trkpt>
      <trkpt lat="44.04731" lon="3.13648">
        <ele>797</ele>
        <time>2010-01-01T01:54:12Z</time>
      </trkpt>
      <trkpt lat="44.04726" lon="3.13655">
        <ele>797</ele>
        <time>2010-01-01T01:54:16Z</time>
      </trkpt>
      <trkpt lat="44.0472" lon="3.13664">
        <ele>797</ele>
        <time>2010-01-01T01:54:19Z</time>
      </trkpt>
      <trkpt lat="44.04716" lon="3.13674">
        <ele>798</ele>
        <time>2010-01-01T01:54:22Z</time>
      </trkpt>
      <trkpt lat="44.04712" lon="3.13684">
        <ele>799</ele>
        <time>2010-01-01T01:54:25Z</time>
      </trkpt>
      <trkpt lat="44.04707" lon="3.13692">
        <ele>799</ele>
        <time>2010-01-01T01:54:28Z</time>
      </trkpt>
      <trkpt lat="44.04702" lon="3.137">
        <ele>799</ele>
        <time>2010-01-01T01:54:32Z</time>
      </trkpt>
      <trkpt lat="44.04698" lon="3.13708">
        <ele>799</ele>
        <time>2010-01-01T01:54:34Z</time>
      </trkpt>
      <trkpt lat="44.04699" lon="3.13717">
        <ele>800</ele>
        <time>2010-01-01T01:54:37Z</time>
      </trkpt>
      <trkpt lat="44.04704" lon="3.13723">
        <ele>800</ele>
        <time>2010-01-01T01:54:39Z</time>
      </trkpt>
      <trkpt lat="44.04708" lon="3.13727">
        <ele>801</ele>
        <time>2010-01-01T01:54:41Z</time>
      </trkpt>
      <trkpt lat="44.04713" lon="3.1373">
        <ele>802</ele>
        <time>2010-01-01T01:54:43Z</time>
      </trkpt>
      <trkpt lat="44.04718" lon="3.13734">
        <ele>802</ele>
        <time>2010-01-01T01:54:46Z</time>
      </trkpt>
      <trkpt lat="44.04722" lon="3.13736">
        <ele>803</ele>
        <time>2010-01-01T01:54:47Z</time>
      </trkpt>
      <trkpt lat="44.04726" lon="3.1374">
        <ele>803</ele>
        <time>2010-01-01T01:54:49Z</time>
      </trkpt>
      <trkpt lat="44.04729" lon="3.13744">
        <ele>804</ele>
        <time>2010-01-01T01:54:51Z</time>
      </trkpt>
      <trkpt lat="44.04732" lon="3.13748">
        <ele>804</ele>
        <time>2010-01-01T01:54:53Z</time>
      </trkpt>
      <trkpt lat="44.04735" lon="3.13754">
        <ele>805</ele>
        <time>2010-01-01T01:54:55Z</time>
      </trkpt>
      <trkpt lat="44.04736" lon="3.1376">
        <ele>805</ele>
        <time>2010-01-01T01:54:57Z</time>
      </trkpt>
      <trkpt lat="44.04739" lon="3.13766">
        <ele>805</ele>
        <time>2010-01-01T01:54:59Z</time>
      </trkpt>
      <trkpt lat="44.04741" lon="3.13773">
        <ele>805</ele>
        <time>2010-01-01T01:55:01Z</time>
      </trkpt>
      <trkpt lat="44.04743" lon="3.13779">
        <ele>806</ele>
        <time>2010-01-01T01:55:03Z</time>
      </trkpt>
      <trkpt lat="44.04745" lon="3.13787">
        <ele>806</ele>
        <time>2010-01-01T01:55:05Z</time>
      </trkpt>
      <trkpt lat="44.04749" lon="3.13795">
        <ele>806</ele>
        <time>2010-01-01T01:55:08Z</time>
      </trkpt>
      <trkpt lat="44.04754" lon="3.13804">
        <ele>805</ele>
        <time>2010-01-01T01:55:11Z</time>
      </trkpt>
      <trkpt lat="44.04761" lon="3.13814">
        <ele>805</ele>
        <time>2010-01-01T01:55:15Z</time>
      </trkpt>
      <trkpt lat="44.04771" lon="3.13823">
        <ele>805</ele>
        <time>2010-01-01T01:55:20Z</time>
      </trkpt>
      <trkpt lat="44.04782" lon="3.13832">
        <ele>805</ele>
        <time>2010-01-01T01:55:25Z</time>
      </trkpt>
      <trkpt lat="44.04793" lon="3.13843">
        <ele>805</ele>
        <time>2010-01-01T01:55:31Z</time>
      </trkpt>
      <trkpt lat="44.04804" lon="3.13852">
        <ele>805</ele>
        <time>2010-01-01T01:55:36Z</time>
      </trkpt>
      <trkpt lat="44.04813" lon="3.13862">
        <ele>805</ele>
        <time>2010-01-01T01:55:40Z</time>
      </trkpt>
      <trkpt lat="44.0482" lon="3.1387">
        <ele>805</ele>
        <time>2010-01-01T01:55:44Z</time>
      </trkpt>
      <trkpt lat="44.04826" lon="3.13876">
        <ele>805</ele>
        <time>2010-01-01T01:55:47Z</time>
      </trkpt>
      <trkpt lat="44.04832" lon="3.13881">
        <ele>805</ele>
        <time>2010-01-01T01:55:49Z</time>
      </trkpt>
      <trkpt lat="44.04837" lon="3.13886">
        <ele>805</ele>
        <time>2010-01-01T01:55:52Z</time>
      </trkpt>
      <trkpt lat="44.04843" lon="3.13891">
        <ele>806</ele>
        <time>2010-01-01T01:55:55Z</time>
      </trkpt>
      <trkpt lat="44.04848" lon="3.13896">
        <ele>806</ele>
        <time>2010-01-01T01:55:57Z</time>
      </trkpt>
      <trkpt lat="44.04853" lon="3.13901">
        <ele>806</ele>
        <time>2010-01-01T01:56:00Z</time>
      </trkpt>
      <trkpt lat="44.04859" lon="3.13906">
        <ele>806</ele>
        <time>2010-01-01T01:56:02Z</time>
      </trkpt>
      <trkpt lat="44.04864" lon="3.1391">
        <ele>806</ele>
        <time>2010-01-01T01:56:05Z</time>
      </trkpt>
      <trkpt lat="44.0487" lon="3.13914">
        <ele>806</ele>
        <time>2010-01-01T01:56:07Z</time>
      </trkpt>
      <trkpt lat="44.04875" lon="3.13917">
        <ele>807</ele>
        <time>2010-01-01T01:56:10Z</time>
      </trkpt>
      <trkpt lat="44.0488" lon="3.13921">
        <ele>807</ele>
        <time>2010-01-01T01:56:12Z</time>
      </trkpt>
      <trkpt lat="44.04885" lon="3.13926">
        <ele>807</ele>
        <time>2010-01-01T01:56:14Z</time>
      </trkpt>
      <trkpt lat="44.04891" lon="3.13931">
        <ele>807</ele>
        <time>2010-01-01T01:56:17Z</time>
      </trkpt>
      <trkpt lat="44.04896" lon="3.13936">
        <ele>807</ele>
        <time>2010-01-01T01:56:20Z</time>
      </trkpt>
      <trkpt lat="44.04902" lon="3.13942">
        <ele>807</ele>
        <time>2010-01-01T01:56:23Z</time>
      </trkpt>
      <trkpt lat="44.04909" lon="3.13947">
        <ele>807</ele>
        <time>2010-01-01T01:56:26Z</time>
      </trkpt>
      <trkpt lat="44.04917" lon="3.13951">
        <ele>807</ele>
        <time>2010-01-01T01:56:29Z</time>
      </trkpt>
      <trkpt lat="44.04924" lon="3.13956">
        <ele>807</ele>
        <time>2010-01-01T01:56:32Z</time>
      </trkpt>
      <trkpt lat="44.04931" lon="3.13961">
        <ele>807</ele>
        <time>2010-01-01T01:56:36Z</time>
      </trkpt>
      <trkpt lat="44.04939" lon="3.13966">
        <ele>807</ele>
        <time>2010-01-01T01:56:39Z</time>
      </trkpt>
      <trkpt lat="44.04946" lon="3.13971">
        <ele>807</ele>
        <time>2010-01-01T01:56:42Z</time>
      </trkpt>
      <trkpt lat="44.04953" lon="3.13977">
        <ele>807</ele>
        <time>2010-01-01T01:56:45Z</time>
      </trkpt>
      <trkpt lat="44.04959" lon="3.13984">
        <ele>807</ele>
        <time>2010-01-01T01:56:49Z</time>
      </trkpt>
      <trkpt lat="44.04966" lon="3.1399">
        <ele>807</ele>
        <time>2010-01-01T01:56:52Z</time>
      </trkpt>
      <trkpt lat="44.04973" lon="3.13994">
        <ele>808</ele>
        <time>2010-01-01T01:56:55Z</time>
      </trkpt>
      <trkpt lat="44.04981" lon="3.13996">
        <ele>808</ele>
        <time>2010-01-01T01:56:58Z</time>
      </trkpt>
      <trkpt lat="44.04989" lon="3.13999">
        <ele>808</ele>
        <time>2010-01-01T01:57:02Z</time>
      </trkpt>
      <trkpt lat="44.04997" lon="3.14001">
        <ele>808</ele>
        <time>2010-01-01T01:57:05Z</time>
      </trkpt>
      <trkpt lat="44.05004" lon="3.14002">
        <ele>809</ele>
        <time>2010-01-01T01:57:08Z</time>
      </trkpt>
      <trkpt lat="44.05012" lon="3.14005">
        <ele>809</ele>
        <time>2010-01-01T01:57:11Z</time>
      </trkpt>
      <trkpt lat="44.0502" lon="3.14007">
        <ele>810</ele>
        <time>2010-01-01T01:57:14Z</time>
      </trkpt>
      <trkpt lat="44.05028" lon="3.14009">
        <ele>810</ele>
        <time>2010-01-01T01:57:17Z</time>
      </trkpt>
      <trkpt lat="44.05036" lon="3.14011">
        <ele>811</ele>
        <time>2010-01-01T01:57:21Z</time>
      </trkpt>
      <trkpt lat="44.05044" lon="3.14015">
        <ele>811</ele>
        <time>2010-01-01T01:57:24Z</time>
      </trkpt>
      <trkpt lat="44.05051" lon="3.14019">
        <ele>811</ele>
        <time>2010-01-01T01:57:27Z</time>
      </trkpt>
      <trkpt lat="44.05058" lon="3.14024">
        <ele>811</ele>
        <time>2010-01-01T01:57:30Z</time>
      </trkpt>
      <trkpt lat="44.05064" lon="3.14029">
        <ele>812</ele>
        <time>2010-01-01T01:57:33Z</time>
      </trkpt>
      <trkpt lat="44.05071" lon="3.14033">
        <ele>812</ele>
        <time>2010-01-01T01:57:36Z</time>
      </trkpt>
      <trkpt lat="44.05078" lon="3.14037">
        <ele>812</ele>
        <time>2010-01-01T01:57:39Z</time>
      </trkpt>
      <trkpt lat="44.05084" lon="3.14041">
        <ele>812</ele>
        <time>2010-01-01T01:57:42Z</time>
      </trkpt>
      <trkpt lat="44.05091" lon="3.14044">
        <ele>813</ele>
        <time>2010-01-01T01:57:45Z</time>
      </trkpt>
      <trkpt lat="44.05098" lon="3.14046">
        <ele>813</ele>
        <time>2010-01-01T01:57:48Z</time>
      </trkpt>
      <trkpt lat="44.05105" lon="3.1405">
        <ele>813</ele>
        <time>2010-01-01T01:57:50Z</time>
      </trkpt>
      <trkpt lat="44.05111" lon="3.14055">
        <ele>813</ele>
        <time>2010-01-01T01:57:53Z</time>
      </trkpt>
      <trkpt lat="44.05117" lon="3.14059">
        <ele>814</ele>
        <time>2010-01-01T01:57:56Z</time>
      </trkpt>
      <trkpt lat="44.05123" lon="3.14063">
        <ele>814</ele>
        <time>2010-01-01T01:57:59Z</time>
      </trkpt>
      <trkpt lat="44.05129" lon="3.14067">
        <ele>814</ele>
        <time>2010-01-01T01:58:01Z</time>
      </trkpt>
      <trkpt lat="44.05136" lon="3.14072">
        <ele>815</ele>
        <time>2010-01-01T01:58:04Z</time>
      </trkpt>
      <trkpt lat="44.05142" lon="3.14075">
        <ele>815</ele>
        <time>2010-01-01T01:58:07Z</time>
      </trkpt>
      <trkpt lat="44.05148" lon="3.14076">
        <ele>816</ele>
        <time>2010-01-01T01:58:09Z</time>
      </trkpt>
      <trkpt lat="44.05153" lon="3.14077">
        <ele>816</ele>
        <time>2010-01-01T01:58:11Z</time>
      </trkpt>
      <trkpt lat="44.05158" lon="3.14077">
        <ele>817</ele>
        <time>2010-01-01T01:58:14Z</time>
      </trkpt>
      <trkpt lat="44.05165" lon="3.14076">
        <ele>818</ele>
        <time>2010-01-01T01:58:16Z</time>
      </trkpt>
      <trkpt lat="44.05172" lon="3.14076">
        <ele>818</ele>
        <time>2010-01-01T01:58:19Z</time>
      </trkpt>
      <trkpt lat="44.05178" lon="3.14077">
        <ele>819</ele>
        <time>2010-01-01T01:58:22Z</time>
      </trkpt>
      <trkpt lat="44.05185" lon="3.14079">
        <ele>820</ele>
        <time>2010-01-01T01:58:24Z</time>
      </trkpt>
      <trkpt lat="44.05191" lon="3.14081">
        <ele>820</ele>
        <time>2010-01-01T01:58:27Z</time>
      </trkpt>
      <trkpt lat="44.05198" lon="3.14083">
        <ele>820</ele>
        <time>2010-01-01T01:58:29Z</time>
      </trkpt>
      <trkpt lat="44.05204" lon="3.14085">
        <ele>820</ele>
        <time>2010-01-01T01:58:32Z</time>
      </trkpt>
      <trkpt lat="44.0521" lon="3.14085">
        <ele>820</ele>
        <time>2010-01-01T01:58:35Z</time>
      </trkpt>
      <trkpt lat="44.05216" lon="3.14083">
        <ele>820</ele>
        <time>2010-01-01T01:58:37Z</time>
      </trkpt>
      <trkpt lat="44.05223" lon="3.14082">
        <ele>819</ele>
        <time>2010-01-01T01:58:40Z</time>
      </trkpt>
      <trkpt lat="44.05229" lon="3.14082">
        <ele>819</ele>
        <time>2010-01-01T01:58:42Z</time>
      </trkpt>
      <trkpt lat="44.05234" lon="3.14083">
        <ele>819</ele>
        <time>2010-01-01T01:58:44Z</time>
      </trkpt>
      <trkpt lat="44.0524" lon="3.14084">
        <ele>819</ele>
        <time>2010-01-01T01:58:47Z</time>
      </trkpt>
      <trkpt lat="44.05247" lon="3.14083">
        <ele>819</ele>
        <time>2010-01-01T01:58:50Z</time>
      </trkpt>
      <trkpt lat="44.05257" lon="3.14083">
        <ele>818</ele>
        <time>2010-01-01T01:58:54Z</time>
      </trkpt>
      <trkpt lat="44.05269" lon="3.1408">
        <ele>817</ele>
        <time>2010-01-01T01:58:58Z</time>
      </trkpt>
      <trkpt lat="44.05282" lon="3.14075">
        <ele>816</ele>
        <time>2010-01-01T01:59:04Z</time>
      </trkpt>
      <trkpt lat="44.05295" lon="3.14075">
        <ele>815</ele>
        <time>2010-01-01T01:59:09Z</time>
      </trkpt>
      <trkpt lat="44.05308" lon="3.14083">
        <ele>815</ele>
        <time>2010-01-01T01:59:15Z</time>
      </trkpt>
      <trkpt lat="44.05319" lon="3.14094">
        <ele>814</ele>
        <time>2010-01-01T01:59:20Z</time>
      </trkpt>
      <trkpt lat="44.05329" lon="3.14104">
        <ele>814</ele>
        <time>2010-01-01T01:59:25Z</time>
      </trkpt>
      <trkpt lat="44.05336" lon="3.14117">
        <ele>813</ele>
        <time>2010-01-01T01:59:30Z</time>
      </trkpt>
      <trkpt lat="44.0534" lon="3.14132">
        <ele>812</ele>
        <time>2010-01-01T01:59:34Z</time>
      </trkpt>
      <trkpt lat="44.05344" lon="3.14147">
        <ele>811</ele>
        <time>2010-01-01T01:59:39Z</time>
      </trkpt>
      <trkpt lat="44.05351" lon="3.14161">
        <ele>810</ele>
        <time>2010-01-01T01:59:44Z</time>
      </trkpt>
      <trkpt lat="44.0536" lon="3.14172">
        <ele>810</ele>
        <time>2010-01-01T01:59:48Z</time>
      </trkpt>
      <trkpt lat="44.05366" lon="3.14186">
        <ele>809</ele>
        <time>2010-01-01T01:59:53Z</time>
      </trkpt>
      <trkpt lat="44.05371" lon="3.14201">
        <ele>809</ele>
        <time>2010-01-01T01:59:58Z</time>
      </trkpt>
      <trkpt lat="44.05374" lon="3.14218">
        <ele>809</ele>
        <time>2010-01-01T02:00:03Z</time>
      </trkpt>
      <trkpt lat="44.05379" lon="3.14234">
        <ele>808</ele>
        <time>2010-01-01T02:00:08Z</time>
      </trkpt>
      <trkpt lat="44.05383" lon="3.1425">
        <ele>808</ele>
        <time>2010-01-01T02:00:13Z</time>
      </trkpt>
      <trkpt lat="44.05387" lon="3.14268">
        <ele>808</ele>
        <time>2010-01-01T02:00:18Z</time>
      </trkpt>
      <trkpt lat="44.0539" lon="3.14286">
        <ele>808</ele>
        <time>2010-01-01T02:00:24Z</time>
      </trkpt>
      <trkpt lat="44.05392" lon="3.14304">
        <ele>807</ele>
        <time>2010-01-01T02:00:29Z</time>
      </trkpt>
      <trkpt lat="44.05392" lon="3.14322">
        <ele>807</ele>
        <time>2010-01-01T02:00:34Z</time>
      </trkpt>
      <trkpt lat="44.05393" lon="3.14339">
        <ele>806</ele>
        <time>2010-01-01T02:00:39Z</time>
      </trkpt>
      <trkpt lat="44.05393" lon="3.14354">
        <ele>806</ele>
        <time>2010-01-01T02:00:43Z</time>
      </trkpt>
      <trkpt lat="44.05393" lon="3.14368">
        <ele>805</ele>
        <time>2010-01-01T02:00:47Z</time>
      </trkpt>
      <trkpt lat="44.05392" lon="3.14383">
        <ele>805</ele>
        <time>2010-01-01T02:00:52Z</time>
      </trkpt>
      <trkpt lat="44.05393" lon="3.14396">
        <ele>805</ele>
        <time>2010-01-01T02:00:55Z</time>
      </trkpt>
      <trkpt lat="44.05395" lon="3.14409">
        <ele>805</ele>
        <time>2010-01-01T02:00:59Z</time>
      </trkpt>
      <trkpt lat="44.05399" lon="3.14421">
        <ele>805</ele>
        <time>2010-01-01T02:01:03Z</time>
      </trkpt>
      <trkpt lat="44.05402" lon="3.14433">
        <ele>806</ele>
        <time>2010-01-01T02:01:07Z</time>
      </trkpt>
      <trkpt lat="44.05403" lon="3.14446">
        <ele>807</ele>
        <time>2010-01-01T02:01:10Z</time>
      </trkpt>
      <trkpt lat="44.05403" lon="3.14459">
        <ele>808</ele>
        <time>2010-01-01T02:01:14Z</time>
      </trkpt>
      <trkpt lat="44.05403" lon="3.14472">
        <ele>808</ele>
        <time>2010-01-01T02:01:18Z</time>
      </trkpt>
      <trkpt lat="44.05403" lon="3.14485">
        <ele>809</ele>
        <time>2010-01-01T02:01:22Z</time>
      </trkpt>
      <trkpt lat="44.05404" lon="3.14498">
        <ele>810</ele>
        <time>2010-01-01T02:01:25Z</time>
      </trkpt>
      <trkpt lat="44.05405" lon="3.14511">
        <ele>810</ele>
        <time>2010-01-01T02:01:29Z</time>
      </trkpt>
      <trkpt lat="44.05406" lon="3.14523">
        <ele>811</ele>
        <time>2010-01-01T02:01:33Z</time>
      </trkpt>
      <trkpt lat="44.05408" lon="3.14537">
        <ele>811</ele>
        <time>2010-01-01T02:01:37Z</time>
      </trkpt>
      <trkpt lat="44.05409" lon="3.1455">
        <ele>811</ele>
        <time>2010-01-01T02:01:40Z</time>
      </trkpt>
      <trkpt lat="44.0541" lon="3.14563">
        <ele>811</ele>
        <time>2010-01-01T02:01:44Z</time>
      </trkpt>
      <trkpt lat="44.05409" lon="3.14576">
        <ele>812</ele>
        <time>2010-01-01T02:01:48Z</time>
      </trkpt>
      <trkpt lat="44.0541" lon="3.14589">
        <ele>813</ele>
        <time>2010-01-01T02:01:52Z</time>
      </trkpt>
      <trkpt lat="44.0541" lon="3.14601">
        <ele>814</ele>
        <time>2010-01-01T02:01:55Z</time>
      </trkpt>
      <trkpt lat="44.05412" lon="3.14614">
        <ele>815</ele>
        <time>2010-01-01T02:01:59Z</time>
      </trkpt>
      <trkpt lat="44.05412" lon="3.14626">
        <ele>816</ele>
        <time>2010-01-01T02:02:03Z</time>
      </trkpt>
      <trkpt lat="44.0541" lon="3.14638">
        <ele>817</ele>
        <time>2010-01-01T02:02:06Z</time>
      </trkpt>
      <trkpt lat="44.05408" lon="3.14648">
        <ele>818</ele>
        <time>2010-01-01T02:02:09Z</time>
      </trkpt>
      <trkpt lat="44.05407" lon="3.14658">
        <ele>818</ele>
        <time>2010-01-01T02:02:12Z</time>
      </trkpt>
      <trkpt lat="44.05405" lon="3.14667">
        <ele>819</ele>
        <time>2010-01-01T02:02:15Z</time>
      </trkpt>
      <trkpt lat="44.05403" lon="3.14676">
        <ele>819</ele>
        <time>2010-01-01T02:02:17Z</time>
      </trkpt>
      <trkpt lat="44.05402" lon="3.14685">
        <ele>819</ele>
        <time>2010-01-01T02:02:20Z</time>
      </trkpt>
      <trkpt lat="44.05401" lon="3.14694">
        <ele>819</ele>
        <time>2010-01-01T02:02:22Z</time>
      </trkpt>
      <trkpt lat="44.05399" lon="3.14703">
        <ele>820</ele>
        <time>2010-01-01T02:02:25Z</time>
      </trkpt>
      <trkpt lat="44.05397" lon="3.14712">
        <ele>820</ele>
        <time>2010-01-01T02:02:28Z</time>
      </trkpt>
      <trkpt lat="44.05395" lon="3.14722">
        <ele>820</ele>
        <time>2010-01-01T02:02:31Z</time>
      </trkpt>
      <trkpt lat="44.05393" lon="3.14731">
        <ele>820</ele>
        <time>2010-01-01T02:02:34Z</time>
      </trkpt>
      <trkpt lat="44.0539" lon="3.1474">
        <ele>820</ele>
        <time>2010-01-01T02:02:36Z</time>
      </trkpt>
      <trkpt lat="44.05388" lon="3.14749">
        <ele>820</ele>
        <time>2010-01-01T02:02:39Z</time>
      </trkpt>
      <trkpt lat="44.05386" lon="3.14758">
        <ele>820</ele>
        <time>2010-01-01T02:02:42Z</time>
      </trkpt>
      <trkpt lat="44.05384" lon="3.14767">
        <ele>821</ele>
        <time>2010-01-01T02:02:45Z</time>
      </trkpt>
      <trkpt lat="44.05383" lon="3.14777">
        <ele>821</ele>
        <time>2010-01-01T02:02:47Z</time>
      </trkpt>
      <trkpt lat="44.05385" lon="3.14786">
        <ele>821</ele>
        <time>2010-01-01T02:02:50Z</time>
      </trkpt>
      <trkpt lat="44.05386" lon="3.14796">
        <ele>821</ele>
        <time>2010-01-01T02:02:53Z</time>
      </trkpt>
      <trkpt lat="44.05389" lon="3.14805">
        <ele>821</ele>
        <time>2010-01-01T02:02:56Z</time>
      </trkpt>
      <trkpt lat="44.0539" lon="3.14814">
        <ele>822</ele>
        <time>2010-01-01T02:02:59Z</time>
      </trkpt>
      <trkpt lat="44.05393" lon="3.14824">
        <ele>822</ele>
        <time>2010-01-01T02:03:01Z</time>
      </trkpt>
      <trkpt lat="44.05395" lon="3.14833">
        <ele>822</ele>
        <time>2010-01-01T02:03:04Z</time>
      </trkpt>
      <trkpt lat="44.05398" lon="3.14842">
        <ele>823</ele>
        <time>2010-01-01T02:03:07Z</time>
      </trkpt>
      <trkpt lat="44.054" lon="3.1485">
        <ele>823</ele>
        <time>2010-01-01T02:03:10Z</time>
      </trkpt>
      <trkpt lat="44.05403" lon="3.14859">
        <ele>823</ele>
        <time>2010-01-01T02:03:13Z</time>
      </trkpt>
      <trkpt lat="44.05405" lon="3.14869">
        <ele>824</ele>
        <time>2010-01-01T02:03:15Z</time>
      </trkpt>
      <trkpt lat="44.05407" lon="3.14879">
        <ele>824</ele>
        <time>2010-01-01T02:03:18Z</time>
      </trkpt>
      <trkpt lat="44.0541" lon="3.14888">
        <ele>824</ele>
        <time>2010-01-01T02:03:21Z</time>
      </trkpt>
      <trkpt lat="44.05413" lon="3.14897">
        <ele>824</ele>
        <time>2010-01-01T02:03:24Z</time>
      </trkpt>
      <trkpt lat="44.05415" lon="3.14906">
        <ele>824</ele>
        <time>2010-01-01T02:03:27Z</time>
      </trkpt>
      <trkpt lat="44.05417" lon="3.14915">
        <ele>823</ele>
        <time>2010-01-01T02:03:30Z</time>
      </trkpt>
      <trkpt lat="44.0542" lon="3.14925">
        <ele>823</ele>
        <time>2010-01-01T02:03:32Z</time>
      </trkpt>
      <trkpt lat="44.05422" lon="3.14936">
        <ele>823</ele>
        <time>2010-01-01T02:03:36Z</time>
      </trkpt>
      <trkpt lat="44.05421" lon="3.14949">
        <ele>823</ele>
        <time>2010-01-01T02:03:39Z</time>
      </trkpt>
      <trkpt lat="44.05421" lon="3.14961">
        <ele>823</ele>
        <time>2010-01-01T02:03:43Z</time>
      </trkpt>
      <trkpt lat="44.0542" lon="3.14973">
        <ele>823</ele>
        <time>2010-01-01T02:03:47Z</time>
      </trkpt>
      <trkpt lat="44.0542" lon="3.14985">
        <ele>823</ele>
        <time>2010-01-01T02:03:50Z</time>
      </trkpt>
      <trkpt lat="44.05419" lon="3.14999">
        <ele>823</ele>
        <time>2010-01-01T02:03:54Z</time>
      </trkpt>
      <trkpt lat="44.0542" lon="3.15014">
        <ele>824</ele>
        <time>2010-01-01T02:03:58Z</time>
      </trkpt>
      <trkpt lat="44.05421" lon="3.15029">
        <ele>824</ele>
        <time>2010-01-01T02:04:03Z</time>
      </trkpt>
      <trkpt lat="44.05422" lon="3.15044">
        <ele>824</ele>
        <time>2010-01-01T02:04:07Z</time>
      </trkpt>
      <trkpt lat="44.05426" lon="3.15058">
        <ele>824</ele>
        <time>2010-01-01T02:04:11Z</time>
      </trkpt>
      <trkpt lat="44.0543" lon="3.15071">
        <ele>824</ele>
        <time>2010-01-01T02:04:15Z</time>
      </trkpt>
      <trkpt lat="44.05435" lon="3.15084">
        <ele>823</ele>
        <time>2010-01-01T02:04:19Z</time>
      </trkpt>
      <trkpt lat="44.05439" lon="3.15096">
        <ele>823</ele>
        <time>2010-01-01T02:04:23Z</time>
      </trkpt>
      <trkpt lat="44.05443" lon="3.15108">
        <ele>823</ele>
        <time>2010-01-01T02:04:27Z</time>
      </trkpt>
      <trkpt lat="44.05446" lon="3.1512">
        <ele>822</ele>
        <time>2010-01-01T02:04:31Z</time>
      </trkpt>
      <trkpt lat="44.05451" lon="3.15131">
        <ele>822</ele>
        <time>2010-01-01T02:04:35Z</time>
      </trkpt>
      <trkpt lat="44.05456" lon="3.15142">
        <ele>821</ele>
        <time>2010-01-01T02:04:38Z</time>
      </trkpt>
      <trkpt lat="44.05461" lon="3.15154">
        <ele>820</ele>
        <time>2010-01-01T02:04:42Z</time>
      </trkpt>
      <trkpt lat="44.05464" lon="3.15168">
        <ele>820</ele>
        <time>2010-01-01T02:04:47Z</time>
      </trkpt>
      <trkpt lat="44.05466" lon="3.15184">
        <ele>820</ele>
        <time>2010-01-01T02:04:51Z</time>
      </trkpt>
      <trkpt lat="44.05467" lon="3.15201">
        <ele>819</ele>
        <time>2010-01-01T02:04:56Z</time>
      </trkpt>
      <trkpt lat="44.05468" lon="3.15218">
        <ele>819</ele>
        <time>2010-01-01T02:05:01Z</time>
      </trkpt>
      <trkpt lat="44.0547" lon="3.15232">
        <ele>819</ele>
        <time>2010-01-01T02:05:05Z</time>
      </trkpt>
      <trkpt lat="44.05472" lon="3.15241">
        <ele>819</ele>
        <time>2010-01-01T02:05:08Z</time>
      </trkpt>
      <trkpt lat="44.05473" lon="3.15243">
        <ele>819</ele>
        <time>2010-01-01T02:05:09Z</time>
      </trkpt>
      <trkpt lat="44.05473" lon="3.15243">
        <ele>819</ele>
        <time>2010-01-01T02:05:09Z</time>
      </trkpt>
      <trkpt lat="44.05474" lon="3.15244">
        <ele>819</ele>
        <time>2010-01-01T02:05:09Z</time>
      </trkpt>
      <trkpt lat="44.05478" lon="3.15241">
        <ele>819</ele>
        <time>2010-01-01T02:05:11Z</time>
      </trkpt>
      <trkpt lat="44.0548" lon="3.15237">
        <ele>819</ele>
        <time>2010-01-01T02:05:12Z</time>
      </trkpt>
      <trkpt lat="44.05484" lon="3.15233">
        <ele>819</ele>
        <time>2010-01-01T02:05:14Z</time>
      </trkpt>
      <trkpt lat="44.05488" lon="3.15227">
        <ele>819</ele>
        <time>2010-01-01T02:05:17Z</time>
      </trkpt>
      <trkpt lat="44.05492" lon="3.1522">
        <ele>819</ele>
        <time>2010-01-01T02:05:19Z</time>
      </trkpt>
      <trkpt lat="44.05497" lon="3.15214">
        <ele>819</ele>
        <time>2010-01-01T02:05:22Z</time>
      </trkpt>
      <trkpt lat="44.05503" lon="3.15209">
        <ele>818</ele>
        <time>2010-01-01T02:05:24Z</time>
      </trkpt>
      <trkpt lat="44.05509" lon="3.15206">
        <ele>818</ele>
        <time>2010-01-01T02:05:27Z</time>
      </trkpt>
      <trkpt lat="44.05516" lon="3.15202">
        <ele>818</ele>
        <time>2010-01-01T02:05:30Z</time>
      </trkpt>
      <trkpt lat="44.05523" lon="3.15198">
        <ele>818</ele>
        <time>2010-01-01T02:05:33Z</time>
      </trkpt>
      <trkpt lat="44.0553" lon="3.15192">
        <ele>817</ele>
        <time>2010-01-01T02:05:36Z</time>
      </trkpt>
      <trkpt lat="44.05537" lon="3.15185">
        <ele>817</ele>
        <time>2010-01-01T02:05:40Z</time>
      </trkpt>
      <trkpt lat="44.05545" lon="3.15179">
        <ele>817</ele>
        <time>2010-01-01T02:05:43Z</time>
      </trkpt>
      <trkpt lat="44.05552" lon="3.15171">
        <ele>817</ele>
        <time>2010-01-01T02:05:47Z</time>
      </trkpt>
      <trkpt lat="44.05558" lon="3.15161">
        <ele>817</ele>
        <time>2010-01-01T02:05:51Z</time>
      </trkpt>
      <trkpt lat="44.05564" lon="3.15151">
        <ele>817</ele>
        <time>2010-01-01T02:05:55Z</time>
      </trkpt>
      <trkpt lat="44.0557" lon="3.15141">
        <ele>817</ele>
        <time>2010-01-01T02:05:58Z</time>
      </trkpt>
      <trkpt lat="44.05577" lon="3.15131">
        <ele>816</ele>
        <time>2010-01-01T02:06:02Z</time>
      </trkpt>
      <trkpt lat="44.05584" lon="3.15122">
        <ele>815</ele>
        <time>2010-01-01T02:06:06Z</time>
      </trkpt>
      <trkpt lat="44.05592" lon="3.15112">
        <ele>815</ele>
        <time>2010-01-01T02:06:10Z</time>
      </trkpt>
      <trkpt lat="44.05601" lon="3.15105">
        <ele>814</ele>
        <time>2010-01-01T02:06:15Z</time>
      </trkpt>
      <trkpt lat="44.05611" lon="3.15096">
        <ele>813</ele>
        <time>2010-01-01T02:06:19Z</time>
      </trkpt>
      <trkpt lat="44.05619" lon="3.15086">
        <ele>812</ele>
        <time>2010-01-01T02:06:24Z</time>
      </trkpt>
      <trkpt lat="44.05627" lon="3.15076">
        <ele>811</ele>
        <time>2010-01-01T02:06:28Z</time>
      </trkpt>
      <trkpt lat="44.05636" lon="3.15068">
        <ele>811</ele>
        <time>2010-01-01T02:06:32Z</time>
      </trkpt>
      <trkpt lat="44.05645" lon="3.15063">
        <ele>810</ele>
        <time>2010-01-01T02:06:36Z</time>
      </trkpt>
      <trkpt lat="44.05654" lon="3.15058">
        <ele>809</ele>
        <time>2010-01-01T02:06:40Z</time>
      </trkpt>
      <trkpt lat="44.05664" lon="3.15053">
        <ele>809</ele>
        <time>2010-01-01T02:06:44Z</time>
      </trkpt>
      <trkpt lat="44.05674" lon="3.15048">
        <ele>808</ele>
        <time>2010-01-01T02:06:49Z</time>
      </trkpt>
      <trkpt lat="44.05685" lon="3.15043">
        <ele>808</ele>
        <time>2010-01-01T02:06:53Z</time>
      </trkpt>
      <trkpt lat="44.05696" lon="3.1504">
        <ele>807</ele>
        <time>2010-01-01T02:06:58Z</time>
      </trkpt>
      <trkpt lat="44.05707" lon="3.15035">
        <ele>807</ele>
        <time>2010-01-01T02:07:02Z</time>
      </trkpt>
      <trkpt lat="44.05717" lon="3.15029">
        <ele>807</ele>
        <time>2010-01-01T02:07:07Z</time>
      </trkpt>
      <trkpt lat="44.05726" lon="3.15022">
        <ele>807</ele>
        <time>2010-01-01T02:07:11Z</time>
      </trkpt>
      <trkpt lat="44.05733" lon="3.15015">
        <ele>807</ele>
        <time>2010-01-01T02:07:14Z</time>
      </trkpt>
      <trkpt lat="44.0574" lon="3.15007">
        <ele>807</ele>
        <time>2010-01-01T02:07:18Z</time>
      </trkpt>
      <trkpt lat="44.05745" lon="3.14999">
        <ele>806</ele>
        <time>2010-01-01T02:07:21Z</time>
      </trkpt>
      <trkpt lat="44.0575" lon="3.14992">
        <ele>806</ele>
        <time>2010-01-01T02:07:24Z</time>
      </trkpt>
      <trkpt lat="44.05754" lon="3.14983">
        <ele>806</ele>
        <time>2010-01-01T02:07:27Z</time>
      </trkpt>
      <trkpt lat="44.05757" lon="3.14974">
        <ele>806</ele>
        <time>2010-01-01T02:07:30Z</time>
      </trkpt>
      <trkpt lat="44.05759" lon="3.14964">
        <ele>806</ele>
        <time>2010-01-01T02:07:33Z</time>
      </trkpt>
      <trkpt lat="44.05762" lon="3.14954">
        <ele>806</ele>
        <time>2010-01-01T02:07:36Z</time>
      </trkpt>
      <trkpt lat="44.05764" lon="3.14945">
        <ele>806</ele>
        <time>2010-01-01T02:07:38Z</time>
      </trkpt>
      <trkpt lat="44.05768" lon="3.14935">
        <ele>806</ele>
        <time>2010-01-01T02:07:42Z</time>
      </trkpt>
      <trkpt lat="44.05771" lon="3.14925">
        <ele>806</ele>
        <time>2010-01-01T02:07:45Z</time>
      </trkpt>
      <trkpt lat="44.05775" lon="3.14915">
        <ele>807</ele>
        <time>2010-01-01T02:07:48Z</time>
      </trkpt>
      <trkpt lat="44.0578" lon="3.14905">
        <ele>807</ele>
        <time>2010-01-01T02:07:52Z</time>
      </trkpt>
      <trkpt lat="44.05784" lon="3.14895">
        <ele>808</ele>
        <time>2010-01-01T02:07:55Z</time>
      </trkpt>
      <trkpt lat="44.05788" lon="3.14886">
        <ele>809</ele>
        <time>2010-01-01T02:07:58Z</time>
      </trkpt>
      <trkpt lat="44.05793" lon="3.14878">
        <ele>810</ele>
        <time>2010-01-01T02:08:01Z</time>
      </trkpt>
      <trkpt lat="44.05799" lon="3.1487">
        <ele>811</ele>
        <time>2010-01-01T02:08:05Z</time>
      </trkpt>
      <trkpt lat="44.05805" lon="3.14863">
        <ele>811</ele>
        <time>2010-01-01T02:08:08Z</time>
      </trkpt>
      <trkpt lat="44.05811" lon="3.14857">
        <ele>811</ele>
        <time>2010-01-01T02:08:11Z</time>
      </trkpt>
      <trkpt lat="44.05816" lon="3.14851">
        <ele>811</ele>
        <time>2010-01-01T02:08:13Z</time>
      </trkpt>
      <trkpt lat="44.05821" lon="3.14842">
        <ele>811</ele>
        <time>2010-01-01T02:08:16Z</time>
      </trkpt>
      <trkpt lat="44.05826" lon="3.14835">
        <ele>810</ele>
        <time>2010-01-01T02:08:19Z</time>
      </trkpt>
      <trkpt lat="44.05832" lon="3.14828">
        <ele>810</ele>
        <time>2010-01-01T02:08:22Z</time>
      </trkpt>
      <trkpt lat="44.05839" lon="3.14822">
        <ele>810</ele>
        <time>2010-01-01T02:08:26Z</time>
      </trkpt>
      <trkpt lat="44.05846" lon="3.14817">
        <ele>809</ele>
        <time>2010-01-01T02:08:29Z</time>
      </trkpt>
      <trkpt lat="44.05853" lon="3.14813">
        <ele>809</ele>
        <time>2010-01-01T02:08:32Z</time>
      </trkpt>
      <trkpt lat="44.05859" lon="3.14808">
        <ele>809</ele>
        <time>2010-01-01T02:08:34Z</time>
      </trkpt>
      <trkpt lat="44.05865" lon="3.14804">
        <ele>808</ele>
        <time>2010-01-01T02:08:37Z</time>
      </trkpt>
      <trkpt lat="44.05872" lon="3.14798">
        <ele>809</ele>
        <time>2010-01-01T02:08:40Z</time>
      </trkpt>
      <trkpt lat="44.05878" lon="3.14792">
        <ele>809</ele>
        <time>2010-01-01T02:08:44Z</time>
      </trkpt>
      <trkpt lat="44.05883" lon="3.14785">
        <ele>809</ele>
        <time>2010-01-01T02:08:46Z</time>
      </trkpt>
      <trkpt lat="44.05889" lon="3.14778">
        <ele>809</ele>
        <time>2010-01-01T02:08:49Z</time>
      </trkpt>
      <trkpt lat="44.0589" lon="3.14768">
        <ele>809</ele>
        <time>2010-01-01T02:08:52Z</time>
      </trkpt>
      <trkpt lat="44.05892" lon="3.14758">
        <ele>809</ele>
        <time>2010-01-01T02:08:55Z</time>
      </trkpt>
      <trkpt lat="44.05893" lon="3.14748">
        <ele>809</ele>
        <time>2010-01-01T02:08:58Z</time>
      </trkpt>
      <trkpt lat="44.05894" lon="3.14738">
        <ele>809</ele>
        <time>2010-01-01T02:09:01Z</time>
      </trkpt>
      <trkpt lat="44.05896" lon="3.14728">
        <ele>809</ele>
        <time>2010-01-01T02:09:04Z</time>
      </trkpt>
      <trkpt lat="44.05898" lon="3.14718">
        <ele>809</ele>
        <time>2010-01-01T02:09:07Z</time>
      </trkpt>
      <trkpt lat="44.05901" lon="3.14708">
        <ele>808</ele>
        <time>2010-01-01T02:09:10Z</time>
      </trkpt>
      <trkpt lat="44.05904" lon="3.14699">
        <ele>808</ele>
        <time>2010-01-01T02:09:13Z</time>
      </trkpt>
      <trkpt lat="44.05906" lon="3.1469">
        <ele>808</ele>
        <time>2010-01-01T02:09:16Z</time>
      </trkpt>
      <trkpt lat="44.05908" lon="3.14682">
        <ele>807</ele>
        <time>2010-01-01T02:09:18Z</time>
      </trkpt>
      <trkpt lat="44.05911" lon="3.14675">
        <ele>807</ele>
        <time>2010-01-01T02:09:21Z</time>
      </trkpt>
      <trkpt lat="44.05914" lon="3.14667">
        <ele>807</ele>
        <time>2010-01-01T02:09:23Z</time>
      </trkpt>
      <trkpt lat="44.05917" lon="3.14659">
        <ele>806</ele>
        <time>2010-01-01T02:09:26Z</time>
      </trkpt>
      <trkpt lat="44.05921" lon="3.14649">
        <ele>805</ele>
        <time>2010-01-01T02:09:29Z</time>
      </trkpt>
      <trkpt lat="44.05927" lon="3.14641">
        <ele>805</ele>
        <time>2010-01-01T02:09:32Z</time>
      </trkpt>
      <trkpt lat="44.05935" lon="3.14635">
        <ele>804</ele>
        <time>2010-01-01T02:09:36Z</time>
      </trkpt>
      <trkpt lat="44.05942" lon="3.14628">
        <ele>804</ele>
        <time>2010-01-01T02:09:39Z</time>
      </trkpt>
      <trkpt lat="44.0595" lon="3.14625">
        <ele>804</ele>
        <time>2010-01-01T02:09:42Z</time>
      </trkpt>
      <trkpt lat="44.05958" lon="3.14624">
        <ele>804</ele>
        <time>2010-01-01T02:09:46Z</time>
      </trkpt>
      <trkpt lat="44.05966" lon="3.1462">
        <ele>804</ele>
        <time>2010-01-01T02:09:49Z</time>
      </trkpt>
      <trkpt lat="44.05973" lon="3.14613">
        <ele>804</ele>
        <time>2010-01-01T02:09:53Z</time>
      </trkpt>
      <trkpt lat="44.05981" lon="3.14607">
        <ele>804</ele>
        <time>2010-01-01T02:09:56Z</time>
      </trkpt>
      <trkpt lat="44.05988" lon="3.14601">
        <ele>804</ele>
        <time>2010-01-01T02:10:00Z</time>
      </trkpt>
      <trkpt lat="44.05995" lon="3.14596">
        <ele>804</ele>
        <time>2010-01-01T02:10:03Z</time>
      </trkpt>
      <trkpt lat="44.06002" lon="3.1459">
        <ele>804</ele>
        <time>2010-01-01T02:10:06Z</time>
      </trkpt>
      <trkpt lat="44.06009" lon="3.14582">
        <ele>804</ele>
        <time>2010-01-01T02:10:10Z</time>
      </trkpt>
      <trkpt lat="44.06016" lon="3.14576">
        <ele>804</ele>
        <time>2010-01-01T02:10:13Z</time>
      </trkpt>
      <trkpt lat="44.06023" lon="3.14569">
        <ele>803</ele>
        <time>2010-01-01T02:10:16Z</time>
      </trkpt>
      <trkpt lat="44.06029" lon="3.14562">
        <ele>803</ele>
        <time>2010-01-01T02:10:19Z</time>
      </trkpt>
      <trkpt lat="44.06035" lon="3.14556">
        <ele>803</ele>
        <time>2010-01-01T02:10:22Z</time>
      </trkpt>
      <trkpt lat="44.06039" lon="3.1455">
        <ele>803</ele>
        <time>2010-01-01T02:10:25Z</time>
      </trkpt>
      <trkpt lat="44.06042" lon="3.14544">
        <ele>803</ele>
        <time>2010-01-01T02:10:27Z</time>
      </trkpt>
      <trkpt lat="44.06045" lon="3.14537">
        <ele>803</ele>
        <time>2010-01-01T02:10:29Z</time>
      </trkpt>
      <trkpt lat="44.06049" lon="3.14531">
        <ele>803</ele>
        <time>2010-01-01T02:10:32Z</time>
      </trkpt>
      <trkpt lat="44.06054" lon="3.14524">
        <ele>803</ele>
        <time>2010-01-01T02:10:34Z</time>
      </trkpt>
      <trkpt lat="44.06058" lon="3.14517">
        <ele>803</ele>
        <time>2010-01-01T02:10:37Z</time>
      </trkpt>
      <trkpt lat="44.06063" lon="3.1451">
        <ele>803</ele>
        <time>2010-01-01T02:10:40Z</time>
      </trkpt>
      <trkpt lat="44.06067" lon="3.14502">
        <ele>803</ele>
        <time>2010-01-01T02:10:43Z</time>
      </trkpt>
      <trkpt lat="44.06073" lon="3.14497">
        <ele>804</ele>
        <time>2010-01-01T02:10:45Z</time>
      </trkpt>
      <trkpt lat="44.06075" lon="3.14491">
        <ele>804</ele>
        <time>2010-01-01T02:10:47Z</time>
      </trkpt>
      <trkpt lat="44.06078" lon="3.14484">
        <ele>804</ele>
        <time>2010-01-01T02:10:50Z</time>
      </trkpt>
      <trkpt lat="44.06084" lon="3.14477">
        <ele>804</ele>
        <time>2010-01-01T02:10:53Z</time>
      </trkpt>
      <trkpt lat="44.0609" lon="3.14473">
        <ele>804</ele>
        <time>2010-01-01T02:10:56Z</time>
      </trkpt>
      <trkpt lat="44.06097" lon="3.14469">
        <ele>804</ele>
        <time>2010-01-01T02:10:58Z</time>
      </trkpt>
      <trkpt lat="44.06103" lon="3.14467">
        <ele>804</ele>
        <time>2010-01-01T02:11:01Z</time>
      </trkpt>
      <trkpt lat="44.06108" lon="3.1446">
        <ele>803</ele>
        <time>2010-01-01T02:11:04Z</time>
      </trkpt>
      <trkpt lat="44.06113" lon="3.14453">
        <ele>803</ele>
        <time>2010-01-01T02:11:07Z</time>
      </trkpt>
      <trkpt lat="44.06118" lon="3.14445">
        <ele>803</ele>
        <time>2010-01-01T02:11:10Z</time>
      </trkpt>
      <trkpt lat="44.06123" lon="3.14438">
        <ele>803</ele>
        <time>2010-01-01T02:11:12Z</time>
      </trkpt>
      <trkpt lat="44.06129" lon="3.14431">
        <ele>803</ele>
        <time>2010-01-01T02:11:15Z</time>
      </trkpt>
      <trkpt lat="44.06134" lon="3.14424">
        <ele>803</ele>
        <time>2010-01-01T02:11:19Z</time>
      </trkpt>
      <trkpt lat="44.0614" lon="3.14418">
        <ele>804</ele>
        <time>2010-01-01T02:11:21Z</time>
      </trkpt>
      <trkpt lat="44.06146" lon="3.14413">
        <ele>804</ele>
        <time>2010-01-01T02:11:24Z</time>
      </trkpt>
      <trkpt lat="44.06152" lon="3.14408">
        <ele>804</ele>
        <time>2010-01-01T02:11:27Z</time>
      </trkpt>
      <trkpt lat="44.06156" lon="3.14402">
        <ele>804</ele>
        <time>2010-01-01T02:11:29Z</time>
      </trkpt>
      <trkpt lat="44.0616" lon="3.14395">
        <ele>804</ele>
        <time>2010-01-01T02:11:32Z</time>
      </trkpt>
      <trkpt lat="44.06164" lon="3.14387">
        <ele>804</ele>
        <time>2010-01-01T02:11:35Z</time>
      </trkpt>
      <trkpt lat="44.0617" lon="3.1438">
        <ele>805</ele>
        <time>2010-01-01T02:11:38Z</time>
      </trkpt>
      <trkpt lat="44.06175" lon="3.14373">
        <ele>805</ele>
        <time>2010-01-01T02:11:41Z</time>
      </trkpt>
      <trkpt lat="44.06181" lon="3.14369">
        <ele>805</ele>
        <time>2010-01-01T02:11:43Z</time>
      </trkpt>
      <trkpt lat="44.06186" lon="3.14366">
        <ele>806</ele>
        <time>2010-01-01T02:11:45Z</time>
      </trkpt>
      <trkpt lat="44.0619" lon="3.1436">
        <ele>806</ele>
        <time>2010-01-01T02:11:48Z</time>
      </trkpt>
      <trkpt lat="44.06195" lon="3.14354">
        <ele>806</ele>
        <time>2010-01-01T02:11:50Z</time>
      </trkpt>
      <trkpt lat="44.06201" lon="3.14349">
        <ele>806</ele>
        <time>2010-01-01T02:11:53Z</time>
      </trkpt>
      <trkpt lat="44.06207" lon="3.14346">
        <ele>806</ele>
        <time>2010-01-01T02:11:56Z</time>
      </trkpt>
      <trkpt lat="44.06213" lon="3.14344">
        <ele>807</ele>
        <time>2010-01-01T02:11:58Z</time>
      </trkpt>
      <trkpt lat="44.06218" lon="3.14339">
        <ele>807</ele>
        <time>2010-01-01T02:12:01Z</time>
      </trkpt>
      <trkpt lat="44.06224" lon="3.14334">
        <ele>807</ele>
        <time>2010-01-01T02:12:03Z</time>
      </trkpt>
      <trkpt lat="44.06229" lon="3.14329">
        <ele>807</ele>
        <time>2010-01-01T02:12:06Z</time>
      </trkpt>
      <trkpt lat="44.06234" lon="3.14322">
        <ele>807</ele>
        <time>2010-01-01T02:12:09Z</time>
      </trkpt>
      <trkpt lat="44.06239" lon="3.14316">
        <ele>807</ele>
        <time>2010-01-01T02:12:11Z</time>
      </trkpt>
      <trkpt lat="44.06245" lon="3.14311">
        <ele>807</ele>
        <time>2010-01-01T02:12:14Z</time>
      </trkpt>
      <trkpt lat="44.0625" lon="3.14307">
        <ele>808</ele>
        <time>2010-01-01T02:12:16Z</time>
      </trkpt>
      <trkpt lat="44.06253" lon="3.14302">
        <ele>808</ele>
        <time>2010-01-01T02:12:18Z</time>
      </trkpt>
      <trkpt lat="44.06256" lon="3.14296">
        <ele>808</ele>
        <time>2010-01-01T02:12:20Z</time>
      </trkpt>
      <trkpt lat="44.06261" lon="3.1429">
        <ele>808</ele>
        <time>2010-01-01T02:12:23Z</time>
      </trkpt>
      <trkpt lat="44.06266" lon="3.14286">
        <ele>808</ele>
        <time>2010-01-01T02:12:26Z</time>
      </trkpt>
      <trkpt lat="44.06272" lon="3.14282">
        <ele>808</ele>
        <time>2010-01-01T02:12:28Z</time>
      </trkpt>
      <trkpt lat="44.06277" lon="3.14281">
        <ele>808</ele>
        <time>2010-01-01T02:12:30Z</time>
      </trkpt>
      <trkpt lat="44.06283" lon="3.14277">
        <ele>807</ele>
        <time>2010-01-01T02:12:33Z</time>
      </trkpt>
      <trkpt lat="44.06287" lon="3.14273">
        <ele>807</ele>
        <time>2010-01-01T02:12:35Z</time>
      </trkpt>
      <trkpt lat="44.06292" lon="3.14269">
        <ele>807</ele>
        <time>2010-01-01T02:12:37Z</time>
      </trkpt>
      <trkpt lat="44.06298" lon="3.14265">
        <ele>807</ele>
        <time>2010-01-01T02:12:39Z</time>
      </trkpt>
      <trkpt lat="44.06303" lon="3.14262">
        <ele>807</ele>
        <time>2010-01-01T02:12:42Z</time>
      </trkpt>
      <trkpt lat="44.06308" lon="3.14259">
        <ele>807</ele>
        <time>2010-01-01T02:12:44Z</time>
      </trkpt>
      <trkpt lat="44.06313" lon="3.14255">
        <ele>807</ele>
        <time>2010-01-01T02:12:46Z</time>
      </trkpt>
      <trkpt lat="44.06318" lon="3.14252">
        <ele>807</ele>
        <time>2010-01-01T02:12:49Z</time>
      </trkpt>
      <trkpt lat="44.06322" lon="3.14247">
        <ele>807</ele>
        <time>2010-01-01T02:12:51Z</time>
      </trkpt>
      <trkpt lat="44.06325" lon="3.14242">
        <ele>807</ele>
        <time>2010-01-01T02:12:52Z</time>
      </trkpt>
      <trkpt lat="44.06329" lon="3.14239">
        <ele>807</ele>
        <time>2010-01-01T02:12:54Z</time>
      </trkpt>
      <trkpt lat="44.06331" lon="3.14235">
        <ele>807</ele>
        <time>2010-01-01T02:12:56Z</time>
      </trkpt>
      <trkpt lat="44.06333" lon="3.14231">
        <ele>807</ele>
        <time>2010-01-01T02:12:57Z</time>
      </trkpt>
      <trkpt lat="44.06336" lon="3.14227">
        <ele>807</ele>
        <time>2010-01-01T02:12:59Z</time>
      </trkpt>
      <trkpt lat="44.06338" lon="3.14224">
        <ele>808</ele>
        <time>2010-01-01T02:13:00Z</time>
      </trkpt>
      <trkpt lat="44.06341" lon="3.14221">
        <ele>808</ele>
        <time>2010-01-01T02:13:01Z</time>
      </trkpt>
      <trkpt lat="44.06345" lon="3.1422">
        <ele>808</ele>
        <time>2010-01-01T02:13:03Z</time>
      </trkpt>
      <trkpt lat="44.06349" lon="3.14217">
        <ele>809</ele>
        <time>2010-01-01T02:13:05Z</time>
      </trkpt>
      <trkpt lat="44.06353" lon="3.14215">
        <ele>809</ele>
        <time>2010-01-01T02:13:06Z</time>
      </trkpt>
      <trkpt lat="44.06357" lon="3.14212">
        <ele>809</ele>
        <time>2010-01-01T02:13:08Z</time>
      </trkpt>
      <trkpt lat="44.0636" lon="3.1421">
        <ele>809</ele>
        <time>2010-01-01T02:13:10Z</time>
      </trkpt>
      <trkpt lat="44.06364" lon="3.14206">
        <ele>809</ele>
        <time>2010-01-01T02:13:12Z</time>
      </trkpt>
      <trkpt lat="44.06368" lon="3.14201">
        <ele>810</ele>
        <time>2010-01-01T02:13:14Z</time>
      </trkpt>
      <trkpt lat="44.06371" lon="3.14196">
        <ele>810</ele>
        <time>2010-01-01T02:13:16Z</time>
      </trkpt>
      <trkpt lat="44.06374" lon="3.1419">
        <ele>810</ele>
        <time>2010-01-01T02:13:18Z</time>
      </trkpt>
      <trkpt lat="44.06377" lon="3.14183">
        <ele>810</ele>
        <time>2010-01-01T02:13:20Z</time>
      </trkpt>
      <trkpt lat="44.06381" lon="3.14177">
        <ele>810</ele>
        <time>2010-01-01T02:13:22Z</time>
      </trkpt>
      <trkpt lat="44.06385" lon="3.14171">
        <ele>810</ele>
        <time>2010-01-01T02:13:25Z</time>
      </trkpt>
      <trkpt lat="44.0639" lon="3.14166">
        <ele>810</ele>
        <time>2010-01-01T02:13:27Z</time>
      </trkpt>
      <trkpt lat="44.06397" lon="3.14163">
        <ele>810</ele>
        <time>2010-01-01T02:13:30Z</time>
      </trkpt>
      <trkpt lat="44.06402" lon="3.14157">
        <ele>811</ele>
        <time>2010-01-01T02:13:33Z</time>
      </trkpt>
      <trkpt lat="44.06408" lon="3.14152">
        <ele>811</ele>
        <time>2010-01-01T02:13:35Z</time>
      </trkpt>
      <trkpt lat="44.06414" lon="3.14148">
        <ele>811</ele>
        <time>2010-01-01T02:13:38Z</time>
      </trkpt>
      <trkpt lat="44.06422" lon="3.14144">
        <ele>811</ele>
        <time>2010-01-01T02:13:41Z</time>
      </trkpt>
      <trkpt lat="44.0643" lon="3.14141">
        <ele>811</ele>
        <time>2010-01-01T02:13:45Z</time>
      </trkpt>
      <trkpt lat="44.06435" lon="3.14136">
        <ele>811</ele>
        <time>2010-01-01T02:13:47Z</time>
      </trkpt>
      <trkpt lat="44.0644" lon="3.14129">
        <ele>811</ele>
        <time>2010-01-01T02:13:50Z</time>
      </trkpt>
      <trkpt lat="44.06446" lon="3.14124">
        <ele>811</ele>
        <time>2010-01-01T02:13:53Z</time>
      </trkpt>
      <trkpt lat="44.06451" lon="3.14118">
        <ele>811</ele>
        <time>2010-01-01T02:13:56Z</time>
      </trkpt>
      <trkpt lat="44.06453" lon="3.14112">
        <ele>812</ele>
        <time>2010-01-01T02:13:58Z</time>
      </trkpt>
      <trkpt lat="44.06456" lon="3.14106">
        <ele>812</ele>
        <time>2010-01-01T02:14:00Z</time>
      </trkpt>
      <trkpt lat="44.06461" lon="3.14102">
        <ele>811</ele>
        <time>2010-01-01T02:14:02Z</time>
      </trkpt>
      <trkpt lat="44.06467" lon="3.14098">
        <ele>811</ele>
        <time>2010-01-01T02:14:05Z</time>
      </trkpt>
      <trkpt lat="44.06474" lon="3.14096">
        <ele>811</ele>
        <time>2010-01-01T02:14:07Z</time>
      </trkpt>
      <trkpt lat="44.06479" lon="3.14096">
        <ele>810</ele>
        <time>2010-01-01T02:14:09Z</time>
      </trkpt>
      <trkpt lat="44.06484" lon="3.14094">
        <ele>810</ele>
        <time>2010-01-01T02:14:12Z</time>
      </trkpt>
      <trkpt lat="44.06489" lon="3.1409">
        <ele>810</ele>
        <time>2010-01-01T02:14:14Z</time>
      </trkpt>
      <trkpt lat="44.06495" lon="3.14086">
        <ele>810</ele>
        <time>2010-01-01T02:14:17Z</time>
      </trkpt>
      <trkpt lat="44.06501" lon="3.14082">
        <ele>810</ele>
        <time>2010-01-01T02:14:19Z</time>
      </trkpt>
      <trkpt lat="44.06507" lon="3.1408">
        <ele>809</ele>
        <time>2010-01-01T02:14:22Z</time>
      </trkpt>
      <trkpt lat="44.06513" lon="3.14079">
        <ele>809</ele>
        <time>2010-01-01T02:14:24Z</time>
      </trkpt>
      <trkpt lat="44.06518" lon="3.14076">
        <ele>809</ele>
        <time>2010-01-01T02:14:26Z</time>
      </trkpt>
      <trkpt lat="44.06523" lon="3.14075">
        <ele>809</ele>
        <time>2010-01-01T02:14:28Z</time>
      </trkpt>
      <trkpt lat="44.0653" lon="3.14074">
        <ele>809</ele>
        <time>2010-01-01T02:14:31Z</time>
      </trkpt>
      <trkpt lat="44.06537" lon="3.14073">
        <ele>809</ele>
        <time>2010-01-01T02:14:34Z</time>
      </trkpt>
      <trkpt lat="44.06543" lon="3.1407">
        <ele>809</ele>
        <time>2010-01-01T02:14:37Z</time>
      </trkpt>
      <trkpt lat="44.0655" lon="3.14067">
        <ele>809</ele>
        <time>2010-01-01T02:14:40Z</time>
      </trkpt>
      <trkpt lat="44.06557" lon="3.14063">
        <ele>809</ele>
        <time>2010-01-01T02:14:42Z</time>
      </trkpt>
      <trkpt lat="44.06563" lon="3.14059">
        <ele>810</ele>
        <time>2010-01-01T02:14:45Z</time>
      </trkpt>
      <trkpt lat="44.06569" lon="3.14054">
        <ele>810</ele>
        <time>2010-01-01T02:14:48Z</time>
      </trkpt>
      <trkpt lat="44.06575" lon="3.14049">
        <ele>810</ele>
        <time>2010-01-01T02:14:51Z</time>
      </trkpt>
      <trkpt lat="44.06581" lon="3.14044">
        <ele>810</ele>
        <time>2010-01-01T02:14:54Z</time>
      </trkpt>
      <trkpt lat="44.06587" lon="3.14039">
        <ele>810</ele>
        <time>2010-01-01T02:14:56Z</time>
      </trkpt>
      <trkpt lat="44.06591" lon="3.14032">
        <ele>809</ele>
        <time>2010-01-01T02:14:59Z</time>
      </trkpt>
      <trkpt lat="44.06595" lon="3.14025">
        <ele>809</ele>
        <time>2010-01-01T02:15:02Z</time>
      </trkpt>
      <trkpt lat="44.06599" lon="3.14016">
        <ele>808</ele>
        <time>2010-01-01T02:15:04Z</time>
      </trkpt>
      <trkpt lat="44.06603" lon="3.14006">
        <ele>807</ele>
        <time>2010-01-01T02:15:08Z</time>
      </trkpt>
      <trkpt lat="44.06605" lon="3.13996">
        <ele>806</ele>
        <time>2010-01-01T02:15:11Z</time>
      </trkpt>
      <trkpt lat="44.06607" lon="3.13985">
        <ele>806</ele>
        <time>2010-01-01T02:15:14Z</time>
      </trkpt>
      <trkpt lat="44.06609" lon="3.13976">
        <ele>805</ele>
        <time>2010-01-01T02:15:17Z</time>
      </trkpt>
      <trkpt lat="44.06609" lon="3.13967">
        <ele>805</ele>
        <time>2010-01-01T02:15:19Z</time>
      </trkpt>
      <trkpt lat="44.06611" lon="3.13958">
        <ele>805</ele>
        <time>2010-01-01T02:15:22Z</time>
      </trkpt>
      <trkpt lat="44.06615" lon="3.13948">
        <ele>805</ele>
        <time>2010-01-01T02:15:25Z</time>
      </trkpt>
      <trkpt lat="44.06621" lon="3.13935">
        <ele>804</ele>
        <time>2010-01-01T02:15:30Z</time>
      </trkpt>
      <trkpt lat="44.06625" lon="3.13921">
        <ele>804</ele>
        <time>2010-01-01T02:15:34Z</time>
      </trkpt>
      <trkpt lat="44.06629" lon="3.13909">
        <ele>804</ele>
        <time>2010-01-01T02:15:38Z</time>
      </trkpt>
      <trkpt lat="44.06634" lon="3.13898">
        <ele>804</ele>
        <time>2010-01-01T02:15:41Z</time>
      </trkpt>
      <trkpt lat="44.0664" lon="3.13888">
        <ele>804</ele>
        <time>2010-01-01T02:15:45Z</time>
      </trkpt>
      <trkpt lat="44.06647" lon="3.1388">
        <ele>804</ele>
        <time>2010-01-01T02:15:49Z</time>
      </trkpt>
      <trkpt lat="44.06653" lon="3.13871">
        <ele>804</ele>
        <time>2010-01-01T02:15:53Z</time>
      </trkpt>
      <trkpt lat="44.06657" lon="3.13861">
        <ele>804</ele>
        <time>2010-01-01T02:15:56Z</time>
      </trkpt>
      <trkpt lat="44.06663" lon="3.13854">
        <ele>804</ele>
        <time>2010-01-01T02:15:59Z</time>
      </trkpt>
      <trkpt lat="44.06668" lon="3.13846">
        <ele>804</ele>
        <time>2010-01-01T02:16:02Z</time>
      </trkpt>
      <trkpt lat="44.06674" lon="3.13838">
        <ele>805</ele>
        <time>2010-01-01T02:16:05Z</time>
      </trkpt>
      <trkpt lat="44.0668" lon="3.13831">
        <ele>805</ele>
        <time>2010-01-01T02:16:08Z</time>
      </trkpt>
      <trkpt lat="44.06686" lon="3.13823">
        <ele>805</ele>
        <time>2010-01-01T02:16:12Z</time>
      </trkpt>
      <trkpt lat="44.06691" lon="3.13817">
        <ele>805</ele>
        <time>2010-01-01T02:16:14Z</time>
      </trkpt>
      <trkpt lat="44.06698" lon="3.13813">
        <ele>805</ele>
        <time>2010-01-01T02:16:17Z</time>
      </trkpt>
      <trkpt lat="44.06704" lon="3.13808">
        <ele>804</ele>
        <time>2010-01-01T02:16:20Z</time>
      </trkpt>
      <trkpt lat="44.0671" lon="3.13802">
        <ele>804</ele>
        <time>2010-01-01T02:16:23Z</time>
      </trkpt>
      <trkpt lat="44.06715" lon="3.13796">
        <ele>804</ele>
        <time>2010-01-01T02:16:26Z</time>
      </trkpt>
      <trkpt lat="44.0672" lon="3.13793">
        <ele>804</ele>
        <time>2010-01-01T02:16:28Z</time>
      </trkpt>
      <trkpt lat="44.06724" lon="3.13791">
        <ele>803</ele>
        <time>2010-01-01T02:16:30Z</time>
      </trkpt>
      <trkpt lat="44.06727" lon="3.1379">
        <ele>803</ele>
        <time>2010-01-01T02:16:31Z</time>
      </trkpt>
      <trkpt lat="44.06731" lon="3.1379">
        <ele>803</ele>
        <time>2010-01-01T02:16:33Z</time>
      </trkpt>
      <trkpt lat="44.06734" lon="3.13787">
        <ele>803</ele>
        <time>2010-01-01T02:16:34Z</time>
      </trkpt>
      <trkpt lat="44.06736" lon="3.13783">
        <ele>803</ele>
        <time>2010-01-01T02:16:35Z</time>
      </trkpt>
      <trkpt lat="44.0674" lon="3.13781">
        <ele>803</ele>
        <time>2010-01-01T02:16:37Z</time>
      </trkpt>
      <trkpt lat="44.06744" lon="3.13777">
        <ele>803</ele>
        <time>2010-01-01T02:16:39Z</time>
      </trkpt>
      <trkpt lat="44.06748" lon="3.13774">
        <ele>803</ele>
        <time>2010-01-01T02:16:41Z</time>
      </trkpt>
      <trkpt lat="44.0675" lon="3.13771">
        <ele>803</ele>
        <time>2010-01-01T02:16:42Z</time>
      </trkpt>
      <trkpt lat="44.06753" lon="3.13767">
        <ele>803</ele>
        <time>2010-01-01T02:16:44Z</time>
      </trkpt>
      <trkpt lat="44.06756" lon="3.13761">
        <ele>803</ele>
        <time>2010-01-01T02:16:46Z</time>
      </trkpt>
      <trkpt lat="44.06757" lon="3.13757">
        <ele>803</ele>
        <time>2010-01-01T02:16:47Z</time>
      </trkpt>
      <trkpt lat="44.06759" lon="3.13753">
        <ele>803</ele>
        <time>2010-01-01T02:16:48Z</time>
      </trkpt>
      <trkpt lat="44.0676" lon="3.13748">
        <ele>803</ele>
        <time>2010-01-01T02:16:50Z</time>
      </trkpt>
      <trkpt lat="44.06761" lon="3.13741">
        <ele>803</ele>
        <time>2010-01-01T02:16:52Z</time>
      </trkpt>
      <trkpt lat="44.06761" lon="3.13735">
        <ele>803</ele>
        <time>2010-01-01T02:16:53Z</time>
      </trkpt>
      <trkpt lat="44.0676" lon="3.13729">
        <ele>803</ele>
        <time>2010-01-01T02:16:55Z</time>
      </trkpt>
      <trkpt lat="44.0676" lon="3.13723">
        <ele>802</ele>
        <time>2010-01-01T02:16:57Z</time>
      </trkpt>
      <trkpt lat="44.06761" lon="3.13717">
        <ele>802</ele>
        <time>2010-01-01T02:16:59Z</time>
      </trkpt>
      <trkpt lat="44.06762" lon="3.13713">
        <ele>802</ele>
        <time>2010-01-01T02:17:00Z</time>
      </trkpt>
      <trkpt lat="44.06761" lon="3.13709">
        <ele>803</ele>
        <time>2010-01-01T02:17:01Z</time>
      </trkpt>
      <trkpt lat="44.06761" lon="3.13705">
        <ele>803</ele>
        <time>2010-01-01T02:17:03Z</time>
      </trkpt>
      <trkpt lat="44.06762" lon="3.137">
        <ele>803</ele>
        <time>2010-01-01T02:17:04Z</time>
      </trkpt>
      <trkpt lat="44.06763" lon="3.13695">
        <ele>803</ele>
        <time>2010-01-01T02:17:05Z</time>
      </trkpt>
      <trkpt lat="44.06764" lon="3.1369">
        <ele>802</ele>
        <time>2010-01-01T02:17:07Z</time>
      </trkpt>
      <trkpt lat="44.06764" lon="3.13684">
        <ele>802</ele>
        <time>2010-01-01T02:17:09Z</time>
      </trkpt>
      <trkpt lat="44.06763" lon="3.13677">
        <ele>802</ele>
        <time>2010-01-01T02:17:11Z</time>
      </trkpt>
      <trkpt lat="44.06761" lon="3.13672">
        <ele>802</ele>
        <time>2010-01-01T02:17:12Z</time>
      </trkpt>
      <trkpt lat="44.0676" lon="3.13667">
        <ele>802</ele>
        <time>2010-01-01T02:17:14Z</time>
      </trkpt>
      <trkpt lat="44.0676" lon="3.1366">
        <ele>802</ele>
        <time>2010-01-01T02:17:16Z</time>
      </trkpt>
      <trkpt lat="44.0676" lon="3.13659">
        <ele>802</ele>
        <time>2010-01-01T02:17:16Z</time>
      </trkpt>
      <trkpt lat="44.06758" lon="3.1365">
        <ele>802</ele>
        <time>2010-01-01T02:17:19Z</time>
      </trkpt>
      <trkpt lat="44.06757" lon="3.13646">
        <ele>802</ele>
        <time>2010-01-01T02:17:20Z</time>
      </trkpt>
      <trkpt lat="44.06758" lon="3.13642">
        <ele>802</ele>
        <time>2010-01-01T02:17:21Z</time>
      </trkpt>
      <trkpt lat="44.06759" lon="3.13636">
        <ele>802</ele>
        <time>2010-01-01T02:17:23Z</time>
      </trkpt>
      <trkpt lat="44.0676" lon="3.13631">
        <ele>802</ele>
        <time>2010-01-01T02:17:25Z</time>
      </trkpt>
      <trkpt lat="44.0676" lon="3.13624">
        <ele>802</ele>
        <time>2010-01-01T02:17:27Z</time>
      </trkpt>
      <trkpt lat="44.0676" lon="3.13619">
        <ele>802</ele>
        <time>2010-01-01T02:17:28Z</time>
      </trkpt>
      <trkpt lat="44.06763" lon="3.13615">
        <ele>802</ele>
        <time>2010-01-01T02:17:30Z</time>
      </trkpt>
      <trkpt lat="44.06764" lon="3.13608">
        <ele>802</ele>
        <time>2010-01-01T02:17:31Z</time>
      </trkpt>
      <trkpt lat="44.06763" lon="3.13603">
        <ele>802</ele>
        <time>2010-01-01T02:17:33Z</time>
      </trkpt>
      <trkpt lat="44.06764" lon="3.13599">
        <ele>802</ele>
        <time>2010-01-01T02:17:34Z</time>
      </trkpt>
      <trkpt lat="44.06764" lon="3.13595">
        <ele>801</ele>
        <time>2010-01-01T02:17:35Z</time>
      </trkpt>
      <trkpt lat="44.06764" lon="3.1359">
        <ele>801</ele>
        <time>2010-01-01T02:17:37Z</time>
      </trkpt>
      <trkpt lat="44.06765" lon="3.13584">
        <ele>801</ele>
        <time>2010-01-01T02:17:39Z</time>
      </trkpt>
      <trkpt lat="44.06766" lon="3.13576">
        <ele>801</ele>
        <time>2010-01-01T02:17:41Z</time>
      </trkpt>
      <trkpt lat="44.06768" lon="3.1357">
        <ele>801</ele>
        <time>2010-01-01T02:17:43Z</time>
      </trkpt>
      <trkpt lat="44.06767" lon="3.13564">
        <ele>801</ele>
        <time>2010-01-01T02:17:45Z</time>
      </trkpt>
      <trkpt lat="44.06771" lon="3.13557">
        <ele>801</ele>
        <time>2010-01-01T02:17:47Z</time>
      </trkpt>
      <trkpt lat="44.06778" lon="3.13554">
        <ele>800</ele>
        <time>2010-01-01T02:17:50Z</time>
      </trkpt>
      <trkpt lat="44.06786" lon="3.1355">
        <ele>800</ele>
        <time>2010-01-01T02:17:53Z</time>
      </trkpt>
      <trkpt lat="44.06792" lon="3.13543">
        <ele>800</ele>
        <time>2010-01-01T02:17:57Z</time>
      </trkpt>
      <trkpt lat="44.06799" lon="3.13536">
        <ele>800</ele>
        <time>2010-01-01T02:18:00Z</time>
      </trkpt>
      <trkpt lat="44.06805" lon="3.1353">
        <ele>800</ele>
        <time>2010-01-01T02:18:03Z</time>
      </trkpt>
      <trkpt lat="44.06813" lon="3.13526">
        <ele>799</ele>
        <time>2010-01-01T02:18:06Z</time>
      </trkpt>
      <trkpt lat="44.06821" lon="3.13522">
        <ele>799</ele>
        <time>2010-01-01T02:18:10Z</time>
      </trkpt>
      <trkpt lat="44.06827" lon="3.13517">
        <ele>799</ele>
        <time>2010-01-01T02:18:13Z</time>
      </trkpt>
      <trkpt lat="44.06833" lon="3.1351">
        <ele>799</ele>
        <time>2010-01-01T02:18:16Z</time>
      </trkpt>
      <trkpt lat="44.06838" lon="3.13504">
        <ele>798</ele>
        <time>2010-01-01T02:18:18Z</time>
      </trkpt>
      <trkpt lat="44.06843" lon="3.13499">
        <ele>797</ele>
        <time>2010-01-01T02:18:21Z</time>
      </trkpt>
      <trkpt lat="44.06847" lon="3.13495">
        <ele>797</ele>
        <time>2010-01-01T02:18:23Z</time>
      </trkpt>
      <trkpt lat="44.06853" lon="3.13493">
        <ele>796</ele>
        <time>2010-01-01T02:18:25Z</time>
      </trkpt>
      <trkpt lat="44.06859" lon="3.13489">
        <ele>795</ele>
        <time>2010-01-01T02:18:28Z</time>
      </trkpt>
      <trkpt lat="44.06866" lon="3.13484">
        <ele>794</ele>
        <time>2010-01-01T02:18:31Z</time>
      </trkpt>
      <trkpt lat="44.06873" lon="3.13479">
        <ele>793</ele>
        <time>2010-01-01T02:18:34Z</time>
      </trkpt>
      <trkpt lat="44.06881" lon="3.13477">
        <ele>793</ele>
        <time>2010-01-01T02:18:37Z</time>
      </trkpt>
      <trkpt lat="44.06888" lon="3.13472">
        <ele>793</ele>
        <time>2010-01-01T02:18:40Z</time>
      </trkpt>
      <trkpt lat="44.06893" lon="3.13465">
        <ele>792</ele>
        <time>2010-01-01T02:18:44Z</time>
      </trkpt>
      <trkpt lat="44.06899" lon="3.13457">
        <ele>791</ele>
        <time>2010-01-01T02:18:47Z</time>
      </trkpt>
      <trkpt lat="44.06903" lon="3.13447">
        <ele>791</ele>
        <time>2010-01-01T02:18:50Z</time>
      </trkpt>
      <trkpt lat="44.06907" lon="3.13436">
        <ele>790</ele>
        <time>2010-01-01T02:18:54Z</time>
      </trkpt>
      <trkpt lat="44.06912" lon="3.13426">
        <ele>790</ele>
        <time>2010-01-01T02:18:57Z</time>
      </trkpt>
      <trkpt lat="44.06917" lon="3.13414">
        <ele>790</ele>
        <time>2010-01-01T02:19:01Z</time>
      </trkpt>
      <trkpt lat="44.06922" lon="3.13403">
        <ele>790</ele>
        <time>2010-01-01T02:19:05Z</time>
      </trkpt>
      <trkpt lat="44.06926" lon="3.13392">
        <ele>790</ele>
        <time>2010-01-01T02:19:08Z</time>
      </trkpt>
      <trkpt lat="44.06929" lon="3.13384">
        <ele>789</ele>
        <time>2010-01-01T02:19:11Z</time>
      </trkpt>
      <trkpt lat="44.06933" lon="3.13374">
        <ele>789</ele>
        <time>2010-01-01T02:19:14Z</time>
      </trkpt>
      <trkpt lat="44.06937" lon="3.13368">
        <ele>789</ele>
        <time>2010-01-01T02:19:16Z</time>
      </trkpt>
      <trkpt lat="44.06938" lon="3.13366">
        <ele>789</ele>
        <time>2010-01-01T02:19:17Z</time>
      </trkpt>
      <trkpt lat="44.06941" lon="3.13364">
        <ele>789</ele>
        <time>2010-01-01T02:19:18Z</time>
      </trkpt>
      <trkpt lat="44.06943" lon="3.13362">
        <ele>789</ele>
        <time>2010-01-01T02:19:20Z</time>
      </trkpt>
      <trkpt lat="44.06945" lon="3.13358">
        <ele>788</ele>
        <time>2010-01-01T02:19:21Z</time>
      </trkpt>
      <trkpt lat="44.06948" lon="3.13356">
        <ele>788</ele>
        <time>2010-01-01T02:19:22Z</time>
      </trkpt>
      <trkpt lat="44.06952" lon="3.13355">
        <ele>788</ele>
        <time>2010-01-01T02:19:24Z</time>
      </trkpt>
      <trkpt lat="44.06956" lon="3.13353">
        <ele>788</ele>
        <time>2010-01-01T02:19:26Z</time>
      </trkpt>
      <trkpt lat="44.06959" lon="3.13351">
        <ele>788</ele>
        <time>2010-01-01T02:19:27Z</time>
      </trkpt>
      <trkpt lat="44.06963" lon="3.13347">
        <ele>787</ele>
        <time>2010-01-01T02:19:29Z</time>
      </trkpt>
      <trkpt lat="44.06966" lon="3.13344">
        <ele>787</ele>
        <time>2010-01-01T02:19:30Z</time>
      </trkpt>
      <trkpt lat="44.06967" lon="3.13343">
        <ele>787</ele>
        <time>2010-01-01T02:19:31Z</time>
      </trkpt>
      <trkpt lat="44.06967" lon="3.13341">
        <ele>787</ele>
        <time>2010-01-01T02:19:31Z</time>
      </trkpt>
      <trkpt lat="44.06968" lon="3.13341">
        <ele>787</ele>
        <time>2010-01-01T02:19:32Z</time>
      </trkpt>
      <trkpt lat="44.06967" lon="3.13341">
        <ele>787</ele>
        <time>2010-01-01T02:19:32Z</time>
      </trkpt>
      <trkpt lat="44.06971" lon="3.13339">
        <ele>787</ele>
        <time>2010-01-01T02:19:33Z</time>
      </trkpt>
      <trkpt lat="44.06975" lon="3.13336">
        <ele>787</ele>
        <time>2010-01-01T02:19:35Z</time>
      </trkpt>
      <trkpt lat="44.06976" lon="3.1333">
        <ele>786</ele>
        <time>2010-01-01T02:19:37Z</time>
      </trkpt>
      <trkpt lat="44.06977" lon="3.13322">
        <ele>786</ele>
        <time>2010-01-01T02:19:39Z</time>
      </trkpt>
      <trkpt lat="44.0698" lon="3.13312">
        <ele>786</ele>
        <time>2010-01-01T02:19:42Z</time>
      </trkpt>
      <trkpt lat="44.06984" lon="3.13303">
        <ele>786</ele>
        <time>2010-01-01T02:19:45Z</time>
      </trkpt>
      <trkpt lat="44.06987" lon="3.13295">
        <ele>786</ele>
        <time>2010-01-01T02:19:48Z</time>
      </trkpt>
      <trkpt lat="44.06987" lon="3.13289">
        <ele>786</ele>
        <time>2010-01-01T02:19:49Z</time>
      </trkpt>
      <trkpt lat="44.06986" lon="3.13284">
        <ele>786</ele>
        <time>2010-01-01T02:19:51Z</time>
      </trkpt>
      <trkpt lat="44.06986" lon="3.13277">
        <ele>785</ele>
        <time>2010-01-01T02:19:53Z</time>
      </trkpt>
      <trkpt lat="44.06986" lon="3.13269">
        <ele>785</ele>
        <time>2010-01-01T02:19:56Z</time>
      </trkpt>
      <trkpt lat="44.06988" lon="3.13262">
        <ele>785</ele>
        <time>2010-01-01T02:19:58Z</time>
      </trkpt>
      <trkpt lat="44.06988" lon="3.13255">
        <ele>785</ele>
        <time>2010-01-01T02:20:00Z</time>
      </trkpt>
      <trkpt lat="44.06987" lon="3.13248">
        <ele>784</ele>
        <time>2010-01-01T02:20:02Z</time>
      </trkpt>
      <trkpt lat="44.06988" lon="3.13241">
        <ele>784</ele>
        <time>2010-01-01T02:20:04Z</time>
      </trkpt>
      <trkpt lat="44.0699" lon="3.13236">
        <ele>784</ele>
        <time>2010-01-01T02:20:05Z</time>
      </trkpt>
      <trkpt lat="44.06989" lon="3.13229">
        <ele>783</ele>
        <time>2010-01-01T02:20:07Z</time>
      </trkpt>
      <trkpt lat="44.06988" lon="3.1322">
        <ele>783</ele>
        <time>2010-01-01T02:20:10Z</time>
      </trkpt>
      <trkpt lat="44.06988" lon="3.1321">
        <ele>782</ele>
        <time>2010-01-01T02:20:13Z</time>
      </trkpt>
      <trkpt lat="44.0699" lon="3.13199">
        <ele>781</ele>
        <time>2010-01-01T02:20:16Z</time>
      </trkpt>
      <trkpt lat="44.06992" lon="3.13189">
        <ele>781</ele>
        <time>2010-01-01T02:20:19Z</time>
      </trkpt>
      <trkpt lat="44.06996" lon="3.13177">
        <ele>780</ele>
        <time>2010-01-01T02:20:23Z</time>
      </trkpt>
      <trkpt lat="44.07" lon="3.13166">
        <ele>779</ele>
        <time>2010-01-01T02:20:26Z</time>
      </trkpt>
      <trkpt lat="44.07005" lon="3.13154">
        <ele>778</ele>
        <time>2010-01-01T02:20:30Z</time>
      </trkpt>
      <trkpt lat="44.07008" lon="3.13142">
        <ele>777</ele>
        <time>2010-01-01T02:20:34Z</time>
      </trkpt>
      <trkpt lat="44.07013" lon="3.13136">
        <ele>777</ele>
        <time>2010-01-01T02:20:37Z</time>
      </trkpt>
      <trkpt lat="44.07018" lon="3.13132">
        <ele>777</ele>
        <time>2010-01-01T02:20:39Z</time>
      </trkpt>
      <trkpt lat="44.07024" lon="3.13129">
        <ele>777</ele>
        <time>2010-01-01T02:20:42Z</time>
      </trkpt>
      <trkpt lat="44.0703" lon="3.13127">
        <ele>777</ele>
        <time>2010-01-01T02:20:44Z</time>
      </trkpt>
      <trkpt lat="44.07035" lon="3.13124">
        <ele>777</ele>
        <time>2010-01-01T02:20:46Z</time>
      </trkpt>
      <trkpt lat="44.07041" lon="3.13121">
        <ele>777</ele>
        <time>2010-01-01T02:20:49Z</time>
      </trkpt>
      <trkpt lat="44.07047" lon="3.13118">
        <ele>777</ele>
        <time>2010-01-01T02:20:51Z</time>
      </trkpt>
      <trkpt lat="44.07054" lon="3.13116">
        <ele>777</ele>
        <time>2010-01-01T02:20:54Z</time>
      </trkpt>
      <trkpt lat="44.07061" lon="3.13114">
        <ele>777</ele>
        <time>2010-01-01T02:20:57Z</time>
      </trkpt>
      <trkpt lat="44.07068" lon="3.13115">
        <ele>777</ele>
        <time>2010-01-01T02:21:00Z</time>
      </trkpt>
      <trkpt lat="44.07079" lon="3.13115">
        <ele>777</ele>
        <time>2010-01-01T02:21:04Z</time>
      </trkpt>
      <trkpt lat="44.07091" lon="3.13117">
        <ele>776</ele>
        <time>2010-01-01T02:21:09Z</time>
      </trkpt>
      <trkpt lat="44.07103" lon="3.13119">
        <ele>775</ele>
        <time>2010-01-01T02:21:14Z</time>
      </trkpt>
      <trkpt lat="44.07114" lon="3.13121">
        <ele>775</ele>
        <time>2010-01-01T02:21:18Z</time>
      </trkpt>
      <trkpt lat="44.07125" lon="3.13122">
        <ele>774</ele>
        <time>2010-01-01T02:21:23Z</time>
      </trkpt>
      <trkpt lat="44.07134" lon="3.13122">
        <ele>773</ele>
        <time>2010-01-01T02:21:27Z</time>
      </trkpt>
      <trkpt lat="44.07145" lon="3.1312">
        <ele>773</ele>
        <time>2010-01-01T02:21:31Z</time>
      </trkpt>
      <trkpt lat="44.07154" lon="3.13117">
        <ele>772</ele>
        <time>2010-01-01T02:21:35Z</time>
      </trkpt>
      <trkpt lat="44.07162" lon="3.13115">
        <ele>772</ele>
        <time>2010-01-01T02:21:38Z</time>
      </trkpt>
      <trkpt lat="44.07169" lon="3.13113">
        <ele>772</ele>
        <time>2010-01-01T02:21:41Z</time>
      </trkpt>
      <trkpt lat="44.07176" lon="3.13113">
        <ele>772</ele>
        <time>2010-01-01T02:21:44Z</time>
      </trkpt>
      <trkpt lat="44.07185" lon="3.13114">
        <ele>772</ele>
        <time>2010-01-01T02:21:47Z</time>
      </trkpt>
      <trkpt lat="44.07193" lon="3.13116">
        <ele>773</ele>
        <time>2010-01-01T02:21:50Z</time>
      </trkpt>
      <trkpt lat="44.07201" lon="3.1312">
        <ele>774</ele>
        <time>2010-01-01T02:21:54Z</time>
      </trkpt>
      <trkpt lat="44.0721" lon="3.13125">
        <ele>775</ele>
        <time>2010-01-01T02:21:58Z</time>
      </trkpt>
      <trkpt lat="44.0722" lon="3.13129">
        <ele>775</ele>
        <time>2010-01-01T02:22:02Z</time>
      </trkpt>
      <trkpt lat="44.07229" lon="3.13134">
        <ele>775</ele>
        <time>2010-01-01T02:22:06Z</time>
      </trkpt>
      <trkpt lat="44.07239" lon="3.13137">
        <ele>775</ele>
        <time>2010-01-01T02:22:10Z</time>
      </trkpt>
      <trkpt lat="44.07248" lon="3.1314">
        <ele>774</ele>
        <time>2010-01-01T02:22:13Z</time>
      </trkpt>
      <trkpt lat="44.07257" lon="3.13144">
        <ele>773</ele>
        <time>2010-01-01T02:22:17Z</time>
      </trkpt>
      <trkpt lat="44.07265" lon="3.13148">
        <ele>773</ele>
        <time>2010-01-01T02:22:21Z</time>
      </trkpt>
      <trkpt lat="44.07271" lon="3.13154">
        <ele>772</ele>
        <time>2010-01-01T02:22:24Z</time>
      </trkpt>
      <trkpt lat="44.07277" lon="3.13159">
        <ele>772</ele>
        <time>2010-01-01T02:22:26Z</time>
      </trkpt>
      <trkpt lat="44.07283" lon="3.13164">
        <ele>772</ele>
        <time>2010-01-01T02:22:29Z</time>
      </trkpt>
      <trkpt lat="44.07288" lon="3.13168">
        <ele>773</ele>
        <time>2010-01-01T02:22:32Z</time>
      </trkpt>
      <trkpt lat="44.07295" lon="3.13169">
        <ele>773</ele>
        <time>2010-01-01T02:22:34Z</time>
      </trkpt>
      <trkpt lat="44.07302" lon="3.1317">
        <ele>773</ele>
        <time>2010-01-01T02:22:37Z</time>
      </trkpt>
      <trkpt lat="44.07306" lon="3.13171">
        <ele>773</ele>
        <time>2010-01-01T02:22:39Z</time>
      </trkpt>
      <trkpt lat="44.0731" lon="3.13173">
        <ele>773</ele>
        <time>2010-01-01T02:22:40Z</time>
      </trkpt>
      <trkpt lat="44.07313" lon="3.13174">
        <ele>773</ele>
        <time>2010-01-01T02:22:42Z</time>
      </trkpt>
      <trkpt lat="44.07316" lon="3.13171">
        <ele>773</ele>
        <time>2010-01-01T02:22:43Z</time>
      </trkpt>
      <trkpt lat="44.07318" lon="3.13168">
        <ele>772</ele>
        <time>2010-01-01T02:22:44Z</time>
      </trkpt>
      <trkpt lat="44.07322" lon="3.13168">
        <ele>772</ele>
        <time>2010-01-01T02:22:46Z</time>
      </trkpt>
      <trkpt lat="44.07328" lon="3.13166">
        <ele>772</ele>
        <time>2010-01-01T02:22:48Z</time>
      </trkpt>
      <trkpt lat="44.07333" lon="3.13164">
        <ele>771</ele>
        <time>2010-01-01T02:22:50Z</time>
      </trkpt>
      <trkpt lat="44.07339" lon="3.13159">
        <ele>771</ele>
        <time>2010-01-01T02:22:53Z</time>
      </trkpt>
      <trkpt lat="44.07345" lon="3.13153">
        <ele>771</ele>
        <time>2010-01-01T02:22:56Z</time>
      </trkpt>
      <trkpt lat="44.07349" lon="3.13148">
        <ele>770</ele>
        <time>2010-01-01T02:22:58Z</time>
      </trkpt>
      <trkpt lat="44.07352" lon="3.13145">
        <ele>770</ele>
        <time>2010-01-01T02:23:00Z</time>
      </trkpt>
      <trkpt lat="44.07357" lon="3.13141">
        <ele>770</ele>
        <time>2010-01-01T02:23:02Z</time>
      </trkpt>
      <trkpt lat="44.07364" lon="3.13137">
        <ele>770</ele>
        <time>2010-01-01T02:23:05Z</time>
      </trkpt>
      <trkpt lat="44.07372" lon="3.13132">
        <ele>770</ele>
        <time>2010-01-01T02:23:08Z</time>
      </trkpt>
      <trkpt lat="44.0738" lon="3.13126">
        <ele>770</ele>
        <time>2010-01-01T02:23:12Z</time>
      </trkpt>
      <trkpt lat="44.07388" lon="3.13121">
        <ele>771</ele>
        <time>2010-01-01T02:23:15Z</time>
      </trkpt>
      <trkpt lat="44.07395" lon="3.13116">
        <ele>771</ele>
        <time>2010-01-01T02:23:19Z</time>
      </trkpt>
      <trkpt lat="44.07402" lon="3.1311">
        <ele>771</ele>
        <time>2010-01-01T02:23:22Z</time>
      </trkpt>
      <trkpt lat="44.07409" lon="3.13104">
        <ele>771</ele>
        <time>2010-01-01T02:23:25Z</time>
      </trkpt>
      <trkpt lat="44.07416" lon="3.13099">
        <ele>770</ele>
        <time>2010-01-01T02:23:28Z</time>
      </trkpt>
      <trkpt lat="44.07423" lon="3.13094">
        <ele>770</ele>
        <time>2010-01-01T02:23:32Z</time>
      </trkpt>
      <trkpt lat="44.07429" lon="3.13088">
        <ele>769</ele>
        <time>2010-01-01T02:23:35Z</time>
      </trkpt>
      <trkpt lat="44.07436" lon="3.13083">
        <ele>768</ele>
        <time>2010-01-01T02:23:38Z</time>
      </trkpt>
      <trkpt lat="44.07443" lon="3.13078">
        <ele>768</ele>
        <time>2010-01-01T02:23:41Z</time>
      </trkpt>
      <trkpt lat="44.0745" lon="3.13074">
        <ele>768</ele>
        <time>2010-01-01T02:23:44Z</time>
      </trkpt>
      <trkpt lat="44.07457" lon="3.1307">
        <ele>768</ele>
        <time>2010-01-01T02:23:47Z</time>
      </trkpt>
      <trkpt lat="44.07464" lon="3.13067">
        <ele>768</ele>
        <time>2010-01-01T02:23:50Z</time>
      </trkpt>
      <trkpt lat="44.07472" lon="3.13064">
        <ele>768</ele>
        <time>2010-01-01T02:23:53Z</time>
      </trkpt>
      <trkpt lat="44.07479" lon="3.13061">
        <ele>768</ele>
        <time>2010-01-01T02:23:56Z</time>
      </trkpt>
      <trkpt lat="44.07486" lon="3.13059">
        <ele>768</ele>
        <time>2010-01-01T02:23:59Z</time>
      </trkpt>
      <trkpt lat="44.07492" lon="3.13058">
        <ele>768</ele>
        <time>2010-01-01T02:24:02Z</time>
      </trkpt>
      <trkpt lat="44.07499" lon="3.13058">
        <ele>769</ele>
        <time>2010-01-01T02:24:04Z</time>
      </trkpt>
      <trkpt lat="44.07505" lon="3.13058">
        <ele>768</ele>
        <time>2010-01-01T02:24:07Z</time>
      </trkpt>
      <trkpt lat="44.0751" lon="3.13058">
        <ele>767</ele>
        <time>2010-01-01T02:24:09Z</time>
      </trkpt>
      <trkpt lat="44.07515" lon="3.13058">
        <ele>767</ele>
        <time>2010-01-01T02:24:11Z</time>
      </trkpt>
      <trkpt lat="44.0752" lon="3.13058">
        <ele>766</ele>
        <time>2010-01-01T02:24:12Z</time>
      </trkpt>
      <trkpt lat="44.07527" lon="3.13059">
        <ele>766</ele>
        <time>2010-01-01T02:24:15Z</time>
      </trkpt>
      <trkpt lat="44.07535" lon="3.1306">
        <ele>765</ele>
        <time>2010-01-01T02:24:19Z</time>
      </trkpt>
      <trkpt lat="44.07543" lon="3.1306">
        <ele>764</ele>
        <time>2010-01-01T02:24:22Z</time>
      </trkpt>
      <trkpt lat="44.0755" lon="3.13058">
        <ele>763</ele>
        <time>2010-01-01T02:24:25Z</time>
      </trkpt>
      <trkpt lat="44.07558" lon="3.13055">
        <ele>762</ele>
        <time>2010-01-01T02:24:28Z</time>
      </trkpt>
      <trkpt lat="44.07564" lon="3.13052">
        <ele>761</ele>
        <time>2010-01-01T02:24:31Z</time>
      </trkpt>
      <trkpt lat="44.0757" lon="3.1305">
        <ele>761</ele>
        <time>2010-01-01T02:24:33Z</time>
      </trkpt>
      <trkpt lat="44.07577" lon="3.13047">
        <ele>760</ele>
        <time>2010-01-01T02:24:36Z</time>
      </trkpt>
      <trkpt lat="44.07583" lon="3.13043">
        <ele>759</ele>
        <time>2010-01-01T02:24:39Z</time>
      </trkpt>
      <trkpt lat="44.07588" lon="3.13039">
        <ele>758</ele>
        <time>2010-01-01T02:24:41Z</time>
      </trkpt>
      <trkpt lat="44.07594" lon="3.13032">
        <ele>757</ele>
        <time>2010-01-01T02:24:44Z</time>
      </trkpt>
      <trkpt lat="44.07599" lon="3.13026">
        <ele>757</ele>
        <time>2010-01-01T02:24:47Z</time>
      </trkpt>
      <trkpt lat="44.07606" lon="3.13021">
        <ele>757</ele>
        <time>2010-01-01T02:24:50Z</time>
      </trkpt>
      <trkpt lat="44.07613" lon="3.13014">
        <ele>756</ele>
        <time>2010-01-01T02:24:53Z</time>
      </trkpt>
      <trkpt lat="44.07619" lon="3.13008">
        <ele>756</ele>
        <time>2010-01-01T02:24:56Z</time>
      </trkpt>
      <trkpt lat="44.07623" lon="3.13008">
        <ele>756</ele>
        <time>2010-01-01T02:24:58Z</time>
      </trkpt>
      <trkpt lat="44.07627" lon="3.13012">
        <ele>755</ele>
        <time>2010-01-01T02:25:00Z</time>
      </trkpt>
      <trkpt lat="44.07628" lon="3.1302">
        <ele>755</ele>
        <time>2010-01-01T02:25:02Z</time>
      </trkpt>
      <trkpt lat="44.07626" lon="3.13028">
        <ele>755</ele>
        <time>2010-01-01T02:25:05Z</time>
      </trkpt>
      <trkpt lat="44.07626" lon="3.13039">
        <ele>756</ele>
        <time>2010-01-01T02:25:08Z</time>
      </trkpt>
      <trkpt lat="44.07624" lon="3.13051">
        <ele>756</ele>
        <time>2010-01-01T02:25:11Z</time>
      </trkpt>
      <trkpt lat="44.07624" lon="3.13061">
        <ele>756</ele>
        <time>2010-01-01T02:25:14Z</time>
      </trkpt>
      <trkpt lat="44.07623" lon="3.13072">
        <ele>756</ele>
        <time>2010-01-01T02:25:18Z</time>
      </trkpt>
      <trkpt lat="44.07621" lon="3.13083">
        <ele>755</ele>
        <time>2010-01-01T02:25:21Z</time>
      </trkpt>
      <trkpt lat="44.0762" lon="3.13095">
        <ele>755</ele>
        <time>2010-01-01T02:25:24Z</time>
      </trkpt>
      <trkpt lat="44.0762" lon="3.13105">
        <ele>754</ele>
        <time>2010-01-01T02:25:27Z</time>
      </trkpt>
      <trkpt lat="44.07617" lon="3.13115">
        <ele>754</ele>
        <time>2010-01-01T02:25:30Z</time>
      </trkpt>
      <trkpt lat="44.07616" lon="3.13125">
        <ele>753</ele>
        <time>2010-01-01T02:25:33Z</time>
      </trkpt>
      <trkpt lat="44.07614" lon="3.1314">
        <ele>753</ele>
        <time>2010-01-01T02:25:37Z</time>
      </trkpt>
      <trkpt lat="44.07613" lon="3.13151">
        <ele>753</ele>
        <time>2010-01-01T02:25:41Z</time>
      </trkpt>
      <trkpt lat="44.07613" lon="3.13159">
        <ele>753</ele>
        <time>2010-01-01T02:25:43Z</time>
      </trkpt>
      <trkpt lat="44.07608" lon="3.13171">
        <ele>754</ele>
        <time>2010-01-01T02:25:47Z</time>
      </trkpt>
      <trkpt lat="44.07603" lon="3.13187">
        <ele>754</ele>
        <time>2010-01-01T02:25:52Z</time>
      </trkpt>
      <trkpt lat="44.076" lon="3.13198">
        <ele>754</ele>
        <time>2010-01-01T02:25:55Z</time>
      </trkpt>
      <trkpt lat="44.07597" lon="3.1321">
        <ele>754</ele>
        <time>2010-01-01T02:25:59Z</time>
      </trkpt>
      <trkpt lat="44.07595" lon="3.13222">
        <ele>753</ele>
        <time>2010-01-01T02:26:02Z</time>
      </trkpt>
      <trkpt lat="44.07591" lon="3.13233">
        <ele>754</ele>
        <time>2010-01-01T02:26:06Z</time>
      </trkpt>
      <trkpt lat="44.07588" lon="3.13245">
        <ele>754</ele>
        <time>2010-01-01T02:26:10Z</time>
      </trkpt>
      <trkpt lat="44.07584" lon="3.13259">
        <ele>755</ele>
        <time>2010-01-01T02:26:14Z</time>
      </trkpt>
      <trkpt lat="44.07581" lon="3.13271">
        <ele>755</ele>
        <time>2010-01-01T02:26:18Z</time>
      </trkpt>
      <trkpt lat="44.0758" lon="3.13281">
        <ele>756</ele>
        <time>2010-01-01T02:26:21Z</time>
      </trkpt>
      <trkpt lat="44.07577" lon="3.13293">
        <ele>756</ele>
        <time>2010-01-01T02:26:24Z</time>
      </trkpt>
      <trkpt lat="44.0757" lon="3.13308">
        <ele>756</ele>
        <time>2010-01-01T02:26:29Z</time>
      </trkpt>
      <trkpt lat="44.0757" lon="3.13319">
        <ele>755</ele>
        <time>2010-01-01T02:26:33Z</time>
      </trkpt>
      <trkpt lat="44.07568" lon="3.13328">
        <ele>755</ele>
        <time>2010-01-01T02:26:35Z</time>
      </trkpt>
      <trkpt lat="44.07561" lon="3.13341">
        <ele>756</ele>
        <time>2010-01-01T02:26:40Z</time>
      </trkpt>
      <trkpt lat="44.07557" lon="3.13354">
        <ele>756</ele>
        <time>2010-01-01T02:26:44Z</time>
      </trkpt>
      <trkpt lat="44.07552" lon="3.13368">
        <ele>755</ele>
        <time>2010-01-01T02:26:48Z</time>
      </trkpt>
      <trkpt lat="44.07547" lon="3.1338">
        <ele>755</ele>
        <time>2010-01-01T02:26:53Z</time>
      </trkpt>
      <trkpt lat="44.07541" lon="3.13394">
        <ele>754</ele>
        <time>2010-01-01T02:26:57Z</time>
      </trkpt>
      <trkpt lat="44.07535" lon="3.13407">
        <ele>754</ele>
        <time>2010-01-01T02:27:01Z</time>
      </trkpt>
      <trkpt lat="44.0753" lon="3.1342">
        <ele>753</ele>
        <time>2010-01-01T02:27:06Z</time>
      </trkpt>
      <trkpt lat="44.07528" lon="3.13426">
        <ele>753</ele>
        <time>2010-01-01T02:27:08Z</time>
      </trkpt>
      <trkpt lat="44.07524" lon="3.13434">
        <ele>752</ele>
        <time>2010-01-01T02:27:11Z</time>
      </trkpt>
      <trkpt lat="44.0752" lon="3.13445">
        <ele>752</ele>
        <time>2010-01-01T02:27:14Z</time>
      </trkpt>
      <trkpt lat="44.07518" lon="3.13453">
        <ele>752</ele>
        <time>2010-01-01T02:27:16Z</time>
      </trkpt>
      <trkpt lat="44.07513" lon="3.13462">
        <ele>752</ele>
        <time>2010-01-01T02:27:20Z</time>
      </trkpt>
      <trkpt lat="44.07504" lon="3.13477">
        <ele>752</ele>
        <time>2010-01-01T02:27:26Z</time>
      </trkpt>
      <trkpt lat="44.07496" lon="3.13489">
        <ele>753</ele>
        <time>2010-01-01T02:27:30Z</time>
      </trkpt>
      <trkpt lat="44.07489" lon="3.13499">
        <ele>753</ele>
        <time>2010-01-01T02:27:34Z</time>
      </trkpt>
      <trkpt lat="44.07481" lon="3.13512">
        <ele>752</ele>
        <time>2010-01-01T02:27:39Z</time>
      </trkpt>
      <trkpt lat="44.07477" lon="3.13521">
        <ele>750</ele>
        <time>2010-01-01T02:27:42Z</time>
      </trkpt>
      <trkpt lat="44.07474" lon="3.1353">
        <ele>749</ele>
        <time>2010-01-01T02:27:45Z</time>
      </trkpt>
      <trkpt lat="44.07471" lon="3.13539">
        <ele>748</ele>
        <time>2010-01-01T02:27:48Z</time>
      </trkpt>
      <trkpt lat="44.07465" lon="3.13544">
        <ele>747</ele>
        <time>2010-01-01T02:27:51Z</time>
      </trkpt>
      <trkpt lat="44.07459" lon="3.13548">
        <ele>747</ele>
        <time>2010-01-01T02:27:53Z</time>
      </trkpt>
      <trkpt lat="44.07453" lon="3.13549">
        <ele>747</ele>
        <time>2010-01-01T02:27:56Z</time>
      </trkpt>
      <trkpt lat="44.07446" lon="3.13551">
        <ele>747</ele>
        <time>2010-01-01T02:27:59Z</time>
      </trkpt>
      <trkpt lat="44.07439" lon="3.13553">
        <ele>747</ele>
        <time>2010-01-01T02:28:02Z</time>
      </trkpt>
      <trkpt lat="44.07432" lon="3.13555">
        <ele>748</ele>
        <time>2010-01-01T02:28:04Z</time>
      </trkpt>
      <trkpt lat="44.07429" lon="3.13558">
        <ele>748</ele>
        <time>2010-01-01T02:28:06Z</time>
      </trkpt>
      <trkpt lat="44.07428" lon="3.13559">
        <ele>748</ele>
        <time>2010-01-01T02:28:06Z</time>
      </trkpt>
      <trkpt lat="44.07425" lon="3.13562">
        <ele>748</ele>
        <time>2010-01-01T02:28:08Z</time>
      </trkpt>
      <trkpt lat="44.07424" lon="3.13564">
        <ele>748</ele>
        <time>2010-01-01T02:28:09Z</time>
      </trkpt>
      <trkpt lat="44.07421" lon="3.13567">
        <ele>747</ele>
        <time>2010-01-01T02:28:10Z</time>
      </trkpt>
      <trkpt lat="44.07419" lon="3.13571">
        <ele>747</ele>
        <time>2010-01-01T02:28:11Z</time>
      </trkpt>
      <trkpt lat="44.07417" lon="3.13573">
        <ele>747</ele>
        <time>2010-01-01T02:28:12Z</time>
      </trkpt>
      <trkpt lat="44.07416" lon="3.13574">
        <ele>747</ele>
        <time>2010-01-01T02:28:13Z</time>
      </trkpt>
      <trkpt lat="44.07414" lon="3.13577">
        <ele>747</ele>
        <time>2010-01-01T02:28:14Z</time>
      </trkpt>
      <trkpt lat="44.07411" lon="3.13581">
        <ele>747</ele>
        <time>2010-01-01T02:28:16Z</time>
      </trkpt>
      <trkpt lat="44.07409" lon="3.13585">
        <ele>747</ele>
        <time>2010-01-01T02:28:17Z</time>
      </trkpt>
      <trkpt lat="44.07407" lon="3.13588">
        <ele>746</ele>
        <time>2010-01-01T02:28:18Z</time>
      </trkpt>
      <trkpt lat="44.07404" lon="3.13594">
        <ele>746</ele>
        <time>2010-01-01T02:28:20Z</time>
      </trkpt>
      <trkpt lat="44.074" lon="3.13599">
        <ele>746</ele>
        <time>2010-01-01T02:28:22Z</time>
      </trkpt>
      <trkpt lat="44.07395" lon="3.13605">
        <ele>747</ele>
        <time>2010-01-01T02:28:25Z</time>
      </trkpt>
      <trkpt lat="44.07391" lon="3.1361">
        <ele>747</ele>
        <time>2010-01-01T02:28:27Z</time>
      </trkpt>
      <trkpt lat="44.07389" lon="3.13614">
        <ele>747</ele>
        <time>2010-01-01T02:28:29Z</time>
      </trkpt>
      <trkpt lat="44.07384" lon="3.13622">
        <ele>747</ele>
        <time>2010-01-01T02:28:32Z</time>
      </trkpt>
      <trkpt lat="44.07381" lon="3.1363">
        <ele>747</ele>
        <time>2010-01-01T02:28:34Z</time>
      </trkpt>
      <trkpt lat="44.07374" lon="3.13639">
        <ele>747</ele>
        <time>2010-01-01T02:28:38Z</time>
      </trkpt>
      <trkpt lat="44.07369" lon="3.13646">
        <ele>748</ele>
        <time>2010-01-01T02:28:41Z</time>
      </trkpt>
      <trkpt lat="44.07367" lon="3.1365">
        <ele>748</ele>
        <time>2010-01-01T02:28:42Z</time>
      </trkpt>
      <trkpt lat="44.07362" lon="3.13658">
        <ele>748</ele>
        <time>2010-01-01T02:28:45Z</time>
      </trkpt>
      <trkpt lat="44.07361" lon="3.1366">
        <ele>748</ele>
        <time>2010-01-01T02:28:46Z</time>
      </trkpt>
      <trkpt lat="44.07357" lon="3.13664">
        <ele>748</ele>
        <time>2010-01-01T02:28:48Z</time>
      </trkpt>
      <trkpt lat="44.07351" lon="3.13672">
        <ele>749</ele>
        <time>2010-01-01T02:28:51Z</time>
      </trkpt>
      <trkpt lat="44.0735" lon="3.13679">
        <ele>749</ele>
        <time>2010-01-01T02:28:53Z</time>
      </trkpt>
      <trkpt lat="44.07347" lon="3.13687">
        <ele>750</ele>
        <time>2010-01-01T02:28:56Z</time>
      </trkpt>
      <trkpt lat="44.07347" lon="3.1369">
        <ele>750</ele>
        <time>2010-01-01T02:28:57Z</time>
      </trkpt>
      <trkpt lat="44.07348" lon="3.13691">
        <ele>750</ele>
        <time>2010-01-01T02:28:57Z</time>
      </trkpt>
      <trkpt lat="44.0735" lon="3.13691">
        <ele>750</ele>
        <time>2010-01-01T02:28:58Z</time>
      </trkpt>
      <trkpt lat="44.0735" lon="3.13692">
        <ele>750</ele>
        <time>2010-01-01T02:28:58Z</time>
      </trkpt>
      <trkpt lat="44.0735" lon="3.13692">
        <ele>750</ele>
        <time>2010-01-01T02:28:58Z</time>
      </trkpt>
      <trkpt lat="44.07354" lon="3.13692">
        <ele>749</ele>
        <time>2010-01-01T02:29:00Z</time>
      </trkpt>
      <trkpt lat="44.07354" lon="3.13693">
        <ele>749</ele>
        <time>2010-01-01T02:29:00Z</time>
      </trkpt>
      <trkpt lat="44.07354" lon="3.13693">
        <ele>749</ele>
        <time>2010-01-01T02:29:00Z</time>
      </trkpt>
      <trkpt lat="44.07354" lon="3.13692">
        <ele>749</ele>
        <time>2010-01-01T02:29:00Z</time>
      </trkpt>
      <trkpt lat="44.07363" lon="3.13688">
        <ele>748</ele>
        <time>2010-01-01T02:29:04Z</time>
      </trkpt>
      <trkpt lat="44.0737" lon="3.13686">
        <ele>747</ele>
        <time>2010-01-01T02:29:07Z</time>
      </trkpt>
      <trkpt lat="44.07376" lon="3.13684">
        <ele>746</ele>
        <time>2010-01-01T02:29:10Z</time>
      </trkpt>
      <trkpt lat="44.0738" lon="3.13683">
        <ele>745</ele>
        <time>2010-01-01T02:29:11Z</time>
      </trkpt>
      <trkpt lat="44.07388" lon="3.13681">
        <ele>744</ele>
        <time>2010-01-01T02:29:14Z</time>
      </trkpt>
      <trkpt lat="44.07398" lon="3.13679">
        <ele>742</ele>
        <time>2010-01-01T02:29:19Z</time>
      </trkpt>
      <trkpt lat="44.0741" lon="3.13675">
        <ele>740</ele>
        <time>2010-01-01T02:29:23Z</time>
      </trkpt>
      <trkpt lat="44.07419" lon="3.13672">
        <ele>738</ele>
        <time>2010-01-01T02:29:27Z</time>
      </trkpt>
      <trkpt lat="44.07427" lon="3.13668">
        <ele>736</ele>
        <time>2010-01-01T02:29:31Z</time>
      </trkpt>
      <trkpt lat="44.07437" lon="3.13662">
        <ele>734</ele>
        <time>2010-01-01T02:29:35Z</time>
      </trkpt>
      <trkpt lat="44.07447" lon="3.13659">
        <ele>733</ele>
        <time>2010-01-01T02:29:39Z</time>
      </trkpt>
      <trkpt lat="44.07455" lon="3.13655">
        <ele>732</ele>
        <time>2010-01-01T02:29:42Z</time>
      </trkpt>
      <trkpt lat="44.07463" lon="3.13651">
        <ele>731</ele>
        <time>2010-01-01T02:29:46Z</time>
      </trkpt>
      <trkpt lat="44.07473" lon="3.1365">
        <ele>731</ele>
        <time>2010-01-01T02:29:50Z</time>
      </trkpt>
      <trkpt lat="44.07482" lon="3.13654">
        <ele>730</ele>
        <time>2010-01-01T02:29:53Z</time>
      </trkpt>
      <trkpt lat="44.07488" lon="3.13663">
        <ele>728</ele>
        <time>2010-01-01T02:29:57Z</time>
      </trkpt>
      <trkpt lat="44.07491" lon="3.13677">
        <ele>727</ele>
        <time>2010-01-01T02:30:01Z</time>
      </trkpt>
      <trkpt lat="44.07497" lon="3.13679">
        <ele>726</ele>
        <time>2010-01-01T02:30:04Z</time>
      </trkpt>
      <trkpt lat="44.07505" lon="3.13685">
        <ele>725</ele>
        <time>2010-01-01T02:30:07Z</time>
      </trkpt>
      <trkpt lat="44.07513" lon="3.13694">
        <ele>724</ele>
        <time>2010-01-01T02:30:11Z</time>
      </trkpt>
      <trkpt lat="44.07521" lon="3.13694">
        <ele>723</ele>
        <time>2010-01-01T02:30:14Z</time>
      </trkpt>
      <trkpt lat="44.07531" lon="3.13695">
        <ele>722</ele>
        <time>2010-01-01T02:30:19Z</time>
      </trkpt>
      <trkpt lat="44.07542" lon="3.13693">
        <ele>721</ele>
        <time>2010-01-01T02:30:23Z</time>
      </trkpt>
      <trkpt lat="44.07552" lon="3.13691">
        <ele>720</ele>
        <time>2010-01-01T02:30:27Z</time>
      </trkpt>
      <trkpt lat="44.07563" lon="3.13689">
        <ele>719</ele>
        <time>2010-01-01T02:30:32Z</time>
      </trkpt>
      <trkpt lat="44.07571" lon="3.13691">
        <ele>717</ele>
        <time>2010-01-01T02:30:35Z</time>
      </trkpt>
      <trkpt lat="44.07576" lon="3.13694">
        <ele>716</ele>
        <time>2010-01-01T02:30:37Z</time>
      </trkpt>
      <trkpt lat="44.07579" lon="3.13695">
        <ele>715</ele>
        <time>2010-01-01T02:30:39Z</time>
      </trkpt>
      <trkpt lat="44.07587" lon="3.13701">
        <ele>714</ele>
        <time>2010-01-01T02:30:42Z</time>
      </trkpt>
      <trkpt lat="44.07589" lon="3.13711">
        <ele>715</ele>
        <time>2010-01-01T02:30:45Z</time>
      </trkpt>
      <trkpt lat="44.07595" lon="3.1371">
        <ele>714</ele>
        <time>2010-01-01T02:30:47Z</time>
      </trkpt>
      <trkpt lat="44.07601" lon="3.13709">
        <ele>713</ele>
        <time>2010-01-01T02:30:50Z</time>
      </trkpt>
      <trkpt lat="44.0761" lon="3.13714">
        <ele>712</ele>
        <time>2010-01-01T02:30:54Z</time>
      </trkpt>
      <trkpt lat="44.07619" lon="3.13717">
        <ele>711</ele>
        <time>2010-01-01T02:30:58Z</time>
      </trkpt>
      <trkpt lat="44.07627" lon="3.13717">
        <ele>710</ele>
        <time>2010-01-01T02:31:01Z</time>
      </trkpt>
      <trkpt lat="44.07634" lon="3.13716">
        <ele>710</ele>
        <time>2010-01-01T02:31:04Z</time>
      </trkpt>
      <trkpt lat="44.07642" lon="3.13717">
        <ele>710</ele>
        <time>2010-01-01T02:31:07Z</time>
      </trkpt>
      <trkpt lat="44.07648" lon="3.13719">
        <ele>709</ele>
        <time>2010-01-01T02:31:09Z</time>
      </trkpt>
      <trkpt lat="44.07656" lon="3.1372">
        <ele>708</ele>
        <time>2010-01-01T02:31:12Z</time>
      </trkpt>
      <trkpt lat="44.07664" lon="3.13726">
        <ele>708</ele>
        <time>2010-01-01T02:31:16Z</time>
      </trkpt>
      <trkpt lat="44.07674" lon="3.13734">
        <ele>707</ele>
        <time>2010-01-01T02:31:20Z</time>
      </trkpt>
      <trkpt lat="44.07682" lon="3.13741">
        <ele>707</ele>
        <time>2010-01-01T02:31:24Z</time>
      </trkpt>
      <trkpt lat="44.07691" lon="3.13745">
        <ele>706</ele>
        <time>2010-01-01T02:31:28Z</time>
      </trkpt>
      <trkpt lat="44.07703" lon="3.13744">
        <ele>705</ele>
        <time>2010-01-01T02:31:33Z</time>
      </trkpt>
      <trkpt lat="44.07712" lon="3.13742">
        <ele>703</ele>
        <time>2010-01-01T02:31:37Z</time>
      </trkpt>
      <trkpt lat="44.07718" lon="3.1374">
        <ele>703</ele>
        <time>2010-01-01T02:31:39Z</time>
      </trkpt>
      <trkpt lat="44.07724" lon="3.13737">
        <ele>702</ele>
        <time>2010-01-01T02:31:42Z</time>
      </trkpt>
      <trkpt lat="44.07734" lon="3.13735">
        <ele>702</ele>
        <time>2010-01-01T02:31:46Z</time>
      </trkpt>
      <trkpt lat="44.07743" lon="3.13741">
        <ele>701</ele>
        <time>2010-01-01T02:31:49Z</time>
      </trkpt>
      <trkpt lat="44.07744" lon="3.1375">
        <ele>700</ele>
        <time>2010-01-01T02:31:52Z</time>
      </trkpt>
      <trkpt lat="44.07746" lon="3.13758">
        <ele>700</ele>
        <time>2010-01-01T02:31:55Z</time>
      </trkpt>
      <trkpt lat="44.07751" lon="3.13764">
        <ele>699</ele>
        <time>2010-01-01T02:31:57Z</time>
      </trkpt>
      <trkpt lat="44.07757" lon="3.13769">
        <ele>699</ele>
        <time>2010-01-01T02:32:00Z</time>
      </trkpt>
      <trkpt lat="44.07762" lon="3.13766">
        <ele>699</ele>
        <time>2010-01-01T02:32:02Z</time>
      </trkpt>
      <trkpt lat="44.0777" lon="3.13759">
        <ele>699</ele>
        <time>2010-01-01T02:32:06Z</time>
      </trkpt>
      <trkpt lat="44.07779" lon="3.13752">
        <ele>698</ele>
        <time>2010-01-01T02:32:10Z</time>
      </trkpt>
      <trkpt lat="44.07788" lon="3.1375">
        <ele>697</ele>
        <time>2010-01-01T02:32:14Z</time>
      </trkpt>
      <trkpt lat="44.07797" lon="3.13755">
        <ele>697</ele>
        <time>2010-01-01T02:32:18Z</time>
      </trkpt>
      <trkpt lat="44.07806" lon="3.13758">
        <ele>696</ele>
        <time>2010-01-01T02:32:21Z</time>
      </trkpt>
      <trkpt lat="44.07814" lon="3.13757">
        <ele>697</ele>
        <time>2010-01-01T02:32:25Z</time>
      </trkpt>
      <trkpt lat="44.07822" lon="3.13752">
        <ele>696</ele>
        <time>2010-01-01T02:32:28Z</time>
      </trkpt>
      <trkpt lat="44.07829" lon="3.13747">
        <ele>696</ele>
        <time>2010-01-01T02:32:31Z</time>
      </trkpt>
      <trkpt lat="44.07835" lon="3.13739">
        <ele>696</ele>
        <time>2010-01-01T02:32:35Z</time>
      </trkpt>
      <trkpt lat="44.0784" lon="3.13733">
        <ele>696</ele>
        <time>2010-01-01T02:32:37Z</time>
      </trkpt>
      <trkpt lat="44.07847" lon="3.13729">
        <ele>695</ele>
        <time>2010-01-01T02:32:40Z</time>
      </trkpt>
      <trkpt lat="44.07852" lon="3.13723">
        <ele>695</ele>
        <time>2010-01-01T02:32:43Z</time>
      </trkpt>
      <trkpt lat="44.07859" lon="3.13716">
        <ele>695</ele>
        <time>2010-01-01T02:32:46Z</time>
      </trkpt>
      <trkpt lat="44.07866" lon="3.13706">
        <ele>694</ele>
        <time>2010-01-01T02:32:50Z</time>
      </trkpt>
      <trkpt lat="44.07875" lon="3.13696">
        <ele>694</ele>
        <time>2010-01-01T02:32:55Z</time>
      </trkpt>
      <trkpt lat="44.07884" lon="3.13686">
        <ele>694</ele>
        <time>2010-01-01T02:33:00Z</time>
      </trkpt>
      <trkpt lat="44.07891" lon="3.13671">
        <ele>693</ele>
        <time>2010-01-01T02:33:05Z</time>
      </trkpt>
      <trkpt lat="44.07896" lon="3.13666">
        <ele>692</ele>
        <time>2010-01-01T02:33:07Z</time>
      </trkpt>
      <trkpt lat="44.07905" lon="3.13665">
        <ele>691</ele>
        <time>2010-01-01T02:33:11Z</time>
      </trkpt>
      <trkpt lat="44.07914" lon="3.13663">
        <ele>690</ele>
        <time>2010-01-01T02:33:14Z</time>
      </trkpt>
      <trkpt lat="44.07922" lon="3.13661">
        <ele>689</ele>
        <time>2010-01-01T02:33:17Z</time>
      </trkpt>
      <trkpt lat="44.07929" lon="3.13661">
        <ele>689</ele>
        <time>2010-01-01T02:33:20Z</time>
      </trkpt>
      <trkpt lat="44.07937" lon="3.1366">
        <ele>688</ele>
        <time>2010-01-01T02:33:24Z</time>
      </trkpt>
      <trkpt lat="44.07947" lon="3.13656">
        <ele>688</ele>
        <time>2010-01-01T02:33:28Z</time>
      </trkpt>
      <trkpt lat="44.07954" lon="3.13651">
        <ele>688</ele>
        <time>2010-01-01T02:33:31Z</time>
      </trkpt>
      <trkpt lat="44.07959" lon="3.13654">
        <ele>687</ele>
        <time>2010-01-01T02:33:33Z</time>
      </trkpt>
      <trkpt lat="44.07962" lon="3.13657">
        <ele>686</ele>
        <time>2010-01-01T02:33:34Z</time>
      </trkpt>
      <trkpt lat="44.07964" lon="3.13661">
        <ele>685</ele>
        <time>2010-01-01T02:33:36Z</time>
      </trkpt>
      <trkpt lat="44.07968" lon="3.13666">
        <ele>684</ele>
        <time>2010-01-01T02:33:38Z</time>
      </trkpt>
      <trkpt lat="44.07973" lon="3.1367">
        <ele>684</ele>
        <time>2010-01-01T02:33:40Z</time>
      </trkpt>
      <trkpt lat="44.07978" lon="3.13675">
        <ele>684</ele>
        <time>2010-01-01T02:33:43Z</time>
      </trkpt>
      <trkpt lat="44.07984" lon="3.13681">
        <ele>685</ele>
        <time>2010-01-01T02:33:46Z</time>
      </trkpt>
      <trkpt lat="44.07991" lon="3.13686">
        <ele>685</ele>
        <time>2010-01-01T02:33:49Z</time>
      </trkpt>
      <trkpt lat="44.07997" lon="3.1369">
        <ele>685</ele>
        <time>2010-01-01T02:33:52Z</time>
      </trkpt>
      <trkpt lat="44.08003" lon="3.13695">
        <ele>685</ele>
        <time>2010-01-01T02:33:54Z</time>
      </trkpt>
      <trkpt lat="44.08008" lon="3.13699">
        <ele>686</ele>
        <time>2010-01-01T02:33:57Z</time>
      </trkpt>
      <trkpt lat="44.08014" lon="3.13701">
        <ele>687</ele>
        <time>2010-01-01T02:33:59Z</time>
      </trkpt>
      <trkpt lat="44.08019" lon="3.13704">
        <ele>687</ele>
        <time>2010-01-01T02:34:01Z</time>
      </trkpt>
      <trkpt lat="44.08024" lon="3.13705">
        <ele>687</ele>
        <time>2010-01-01T02:34:03Z</time>
      </trkpt>
      <trkpt lat="44.08028" lon="3.13707">
        <ele>687</ele>
        <time>2010-01-01T02:34:05Z</time>
      </trkpt>
      <trkpt lat="44.08033" lon="3.13708">
        <ele>687</ele>
        <time>2010-01-01T02:34:07Z</time>
      </trkpt>
      <trkpt lat="44.08039" lon="3.1371">
        <ele>687</ele>
        <time>2010-01-01T02:34:09Z</time>
      </trkpt>
      <trkpt lat="44.08045" lon="3.13712">
        <ele>687</ele>
        <time>2010-01-01T02:34:12Z</time>
      </trkpt>
      <trkpt lat="44.08051" lon="3.13714">
        <ele>687</ele>
        <time>2010-01-01T02:34:14Z</time>
      </trkpt>
      <trkpt lat="44.08056" lon="3.13717">
        <ele>687</ele>
        <time>2010-01-01T02:34:17Z</time>
      </trkpt>
      <trkpt lat="44.08061" lon="3.13722">
        <ele>689</ele>
        <time>2010-01-01T02:34:19Z</time>
      </trkpt>
      <trkpt lat="44.08067" lon="3.13727">
        <ele>691</ele>
        <time>2010-01-01T02:34:22Z</time>
      </trkpt>
      <trkpt lat="44.08072" lon="3.13729">
        <ele>691</ele>
        <time>2010-01-01T02:34:24Z</time>
      </trkpt>
      <trkpt lat="44.08077" lon="3.13727">
        <ele>692</ele>
        <time>2010-01-01T02:34:26Z</time>
      </trkpt>
      <trkpt lat="44.08083" lon="3.13724">
        <ele>692</ele>
        <time>2010-01-01T02:34:29Z</time>
      </trkpt>
      <trkpt lat="44.08088" lon="3.13717">
        <ele>691</ele>
        <time>2010-01-01T02:34:31Z</time>
      </trkpt>
      <trkpt lat="44.0809" lon="3.1371">
        <ele>690</ele>
        <time>2010-01-01T02:34:34Z</time>
      </trkpt>
      <trkpt lat="44.08091" lon="3.13702">
        <ele>689</ele>
        <time>2010-01-01T02:34:36Z</time>
      </trkpt>
      <trkpt lat="44.08093" lon="3.13692">
        <ele>687</ele>
        <time>2010-01-01T02:34:39Z</time>
      </trkpt>
      <trkpt lat="44.08096" lon="3.13681">
        <ele>685</ele>
        <time>2010-01-01T02:34:42Z</time>
      </trkpt>
      <trkpt lat="44.08098" lon="3.13671">
        <ele>684</ele>
        <time>2010-01-01T02:34:45Z</time>
      </trkpt>
      <trkpt lat="44.08101" lon="3.13663">
        <ele>683</ele>
        <time>2010-01-01T02:34:48Z</time>
      </trkpt>
      <trkpt lat="44.08104" lon="3.13655">
        <ele>683</ele>
        <time>2010-01-01T02:34:51Z</time>
      </trkpt>
      <trkpt lat="44.08107" lon="3.13646">
        <ele>683</ele>
        <time>2010-01-01T02:34:53Z</time>
      </trkpt>
      <trkpt lat="44.0811" lon="3.13638">
        <ele>682</ele>
        <time>2010-01-01T02:34:56Z</time>
      </trkpt>
      <trkpt lat="44.08114" lon="3.13631">
        <ele>683</ele>
        <time>2010-01-01T02:34:59Z</time>
      </trkpt>
      <trkpt lat="44.08117" lon="3.13622">
        <ele>683</ele>
        <time>2010-01-01T02:35:01Z</time>
      </trkpt>
      <trkpt lat="44.08121" lon="3.13615">
        <ele>684</ele>
        <time>2010-01-01T02:35:04Z</time>
      </trkpt>
      <trkpt lat="44.08125" lon="3.13606">
        <ele>683</ele>
        <time>2010-01-01T02:35:07Z</time>
      </trkpt>
      <trkpt lat="44.08129" lon="3.13597">
        <ele>683</ele>
        <time>2010-01-01T02:35:10Z</time>
      </trkpt>
      <trkpt lat="44.08133" lon="3.13589">
        <ele>683</ele>
        <time>2010-01-01T02:35:13Z</time>
      </trkpt>
      <trkpt lat="44.08136" lon="3.13585">
        <ele>683</ele>
        <time>2010-01-01T02:35:15Z</time>
      </trkpt>
      <trkpt lat="44.08137" lon="3.13583">
        <ele>683</ele>
        <time>2010-01-01T02:35:15Z</time>
      </trkpt>
      <trkpt lat="44.08138" lon="3.13581">
        <ele>683</ele>
        <time>2010-01-01T02:35:16Z</time>
      </trkpt>
      <trkpt lat="44.08138" lon="3.1358">
        <ele>682</ele>
        <time>2010-01-01T02:35:16Z</time>
      </trkpt>
      <trkpt lat="44.08137" lon="3.13579">
        <ele>682</ele>
        <time>2010-01-01T02:35:17Z</time>
      </trkpt>
      <trkpt lat="44.08138" lon="3.13579">
        <ele>682</ele>
        <time>2010-01-01T02:35:17Z</time>
      </trkpt>
      <trkpt lat="44.08138" lon="3.13578">
        <ele>682</ele>
        <time>2010-01-01T02:35:17Z</time>
      </trkpt>
      <trkpt lat="44.08142" lon="3.13571">
        <ele>682</ele>
        <time>2010-01-01T02:35:19Z</time>
      </trkpt>
      <trkpt lat="44.08145" lon="3.13565">
        <ele>682</ele>
        <time>2010-01-01T02:35:22Z</time>
      </trkpt>
      <trkpt lat="44.08148" lon="3.13557">
        <ele>681</ele>
        <time>2010-01-01T02:35:24Z</time>
      </trkpt>
      <trkpt lat="44.08151" lon="3.13549">
        <ele>681</ele>
        <time>2010-01-01T02:35:27Z</time>
      </trkpt>
      <trkpt lat="44.08155" lon="3.13543">
        <ele>681</ele>
        <time>2010-01-01T02:35:29Z</time>
      </trkpt>
      <trkpt lat="44.08159" lon="3.13535">
        <ele>680</ele>
        <time>2010-01-01T02:35:32Z</time>
      </trkpt>
      <trkpt lat="44.08163" lon="3.13526">
        <ele>680</ele>
        <time>2010-01-01T02:35:35Z</time>
      </trkpt>
      <trkpt lat="44.08167" lon="3.13517">
        <ele>679</ele>
        <time>2010-01-01T02:35:38Z</time>
      </trkpt>
      <trkpt lat="44.0817" lon="3.13507">
        <ele>679</ele>
        <time>2010-01-01T02:35:41Z</time>
      </trkpt>
      <trkpt lat="44.08174" lon="3.13498">
        <ele>679</ele>
        <time>2010-01-01T02:35:44Z</time>
      </trkpt>
      <trkpt lat="44.08177" lon="3.13489">
        <ele>678</ele>
        <time>2010-01-01T02:35:47Z</time>
      </trkpt>
      <trkpt lat="44.0818" lon="3.13481">
        <ele>678</ele>
        <time>2010-01-01T02:35:50Z</time>
      </trkpt>
      <trkpt lat="44.08182" lon="3.13472">
        <ele>678</ele>
        <time>2010-01-01T02:35:52Z</time>
      </trkpt>
      <trkpt lat="44.08184" lon="3.13462">
        <ele>678</ele>
        <time>2010-01-01T02:35:55Z</time>
      </trkpt>
      <trkpt lat="44.08185" lon="3.13452">
        <ele>678</ele>
        <time>2010-01-01T02:35:58Z</time>
      </trkpt>
      <trkpt lat="44.08187" lon="3.13441">
        <ele>678</ele>
        <time>2010-01-01T02:36:01Z</time>
      </trkpt>
      <trkpt lat="44.08188" lon="3.1343">
        <ele>677</ele>
        <time>2010-01-01T02:36:05Z</time>
      </trkpt>
      <trkpt lat="44.08189" lon="3.1342">
        <ele>677</ele>
        <time>2010-01-01T02:36:08Z</time>
      </trkpt>
      <trkpt lat="44.08188" lon="3.13413">
        <ele>676</ele>
        <time>2010-01-01T02:36:10Z</time>
      </trkpt>
      <trkpt lat="44.08189" lon="3.13407">
        <ele>676</ele>
        <time>2010-01-01T02:36:12Z</time>
      </trkpt>
      <trkpt lat="44.08192" lon="3.13399">
        <ele>676</ele>
        <time>2010-01-01T02:36:14Z</time>
      </trkpt>
      <trkpt lat="44.08194" lon="3.13391">
        <ele>676</ele>
        <time>2010-01-01T02:36:16Z</time>
      </trkpt>
      <trkpt lat="44.08197" lon="3.13382">
        <ele>675</ele>
        <time>2010-01-01T02:36:19Z</time>
      </trkpt>
      <trkpt lat="44.08201" lon="3.13372">
        <ele>675</ele>
        <time>2010-01-01T02:36:23Z</time>
      </trkpt>
      <trkpt lat="44.08203" lon="3.13363">
        <ele>674</ele>
        <time>2010-01-01T02:36:25Z</time>
      </trkpt>
      <trkpt lat="44.08207" lon="3.13355">
        <ele>674</ele>
        <time>2010-01-01T02:36:28Z</time>
      </trkpt>
      <trkpt lat="44.0821" lon="3.13346">
        <ele>674</ele>
        <time>2010-01-01T02:36:31Z</time>
      </trkpt>
      <trkpt lat="44.08212" lon="3.13337">
        <ele>674</ele>
        <time>2010-01-01T02:36:33Z</time>
      </trkpt>
      <trkpt lat="44.08214" lon="3.13332">
        <ele>673</ele>
        <time>2010-01-01T02:36:35Z</time>
      </trkpt>
      <trkpt lat="44.08214" lon="3.13323">
        <ele>672</ele>
        <time>2010-01-01T02:36:38Z</time>
      </trkpt>
      <trkpt lat="44.08216" lon="3.13312">
        <ele>670</ele>
        <time>2010-01-01T02:36:41Z</time>
      </trkpt>
      <trkpt lat="44.08219" lon="3.133">
        <ele>670</ele>
        <time>2010-01-01T02:36:45Z</time>
      </trkpt>
      <trkpt lat="44.08223" lon="3.13288">
        <ele>670</ele>
        <time>2010-01-01T02:36:48Z</time>
      </trkpt>
      <trkpt lat="44.08227" lon="3.13276">
        <ele>671</ele>
        <time>2010-01-01T02:36:52Z</time>
      </trkpt>
      <trkpt lat="44.0823" lon="3.13264">
        <ele>670</ele>
        <time>2010-01-01T02:36:56Z</time>
      </trkpt>
      <trkpt lat="44.08234" lon="3.13252">
        <ele>670</ele>
        <time>2010-01-01T02:37:00Z</time>
      </trkpt>
      <trkpt lat="44.08237" lon="3.13241">
        <ele>668</ele>
        <time>2010-01-01T02:37:03Z</time>
      </trkpt>
      <trkpt lat="44.0824" lon="3.1323">
        <ele>667</ele>
        <time>2010-01-01T02:37:06Z</time>
      </trkpt>
      <trkpt lat="44.08245" lon="3.13221">
        <ele>666</ele>
        <time>2010-01-01T02:37:10Z</time>
      </trkpt>
      <trkpt lat="44.08251" lon="3.13212">
        <ele>664</ele>
        <time>2010-01-01T02:37:13Z</time>
      </trkpt>
      <trkpt lat="44.08257" lon="3.13204">
        <ele>664</ele>
        <time>2010-01-01T02:37:17Z</time>
      </trkpt>
      <trkpt lat="44.08264" lon="3.13197">
        <ele>663</ele>
        <time>2010-01-01T02:37:20Z</time>
      </trkpt>
      <trkpt lat="44.08268" lon="3.13189">
        <ele>661</ele>
        <time>2010-01-01T02:37:23Z</time>
      </trkpt>
      <trkpt lat="44.0827" lon="3.13183">
        <ele>660</ele>
        <time>2010-01-01T02:37:25Z</time>
      </trkpt>
      <trkpt lat="44.08272" lon="3.13176">
        <ele>658</ele>
        <time>2010-01-01T02:37:27Z</time>
      </trkpt>
      <trkpt lat="44.08275" lon="3.13169">
        <ele>656</ele>
        <time>2010-01-01T02:37:29Z</time>
      </trkpt>
      <trkpt lat="44.08277" lon="3.13161">
        <ele>653</ele>
        <time>2010-01-01T02:37:32Z</time>
      </trkpt>
      <trkpt lat="44.08281" lon="3.13152">
        <ele>649</ele>
        <time>2010-01-01T02:37:35Z</time>
      </trkpt>
      <trkpt lat="44.08287" lon="3.13148">
        <ele>648</ele>
        <time>2010-01-01T02:37:37Z</time>
      </trkpt>
      <trkpt lat="44.08292" lon="3.1315">
        <ele>649</ele>
        <time>2010-01-01T02:37:39Z</time>
      </trkpt>
      <trkpt lat="44.08299" lon="3.13151">
        <ele>650</ele>
        <time>2010-01-01T02:37:42Z</time>
      </trkpt>
      <trkpt lat="44.08305" lon="3.13152">
        <ele>650</ele>
        <time>2010-01-01T02:37:44Z</time>
      </trkpt>
      <trkpt lat="44.08312" lon="3.13153">
        <ele>651</ele>
        <time>2010-01-01T02:37:47Z</time>
      </trkpt>
      <trkpt lat="44.08318" lon="3.13158">
        <ele>653</ele>
        <time>2010-01-01T02:37:50Z</time>
      </trkpt>
      <trkpt lat="44.08324" lon="3.13161">
        <ele>654</ele>
        <time>2010-01-01T02:37:53Z</time>
      </trkpt>
      <trkpt lat="44.0833" lon="3.13162">
        <ele>655</ele>
        <time>2010-01-01T02:37:55Z</time>
      </trkpt>
      <trkpt lat="44.08336" lon="3.13162">
        <ele>655</ele>
        <time>2010-01-01T02:37:57Z</time>
      </trkpt>
      <trkpt lat="44.08341" lon="3.13162">
        <ele>654</ele>
        <time>2010-01-01T02:38:00Z</time>
      </trkpt>
      <trkpt lat="44.08346" lon="3.13163">
        <ele>653</ele>
        <time>2010-01-01T02:38:01Z</time>
      </trkpt>
      <trkpt lat="44.08347" lon="3.13159">
        <ele>650</ele>
        <time>2010-01-01T02:38:02Z</time>
      </trkpt>
      <trkpt lat="44.08344" lon="3.13155">
        <ele>648</ele>
        <time>2010-01-01T02:38:04Z</time>
      </trkpt>
      <trkpt lat="44.08338" lon="3.13155">
        <ele>649</ele>
        <time>2010-01-01T02:38:06Z</time>
      </trkpt>
      <trkpt lat="44.08335" lon="3.13152">
        <ele>648</ele>
        <time>2010-01-01T02:38:08Z</time>
      </trkpt>
      <trkpt lat="44.08331" lon="3.1315">
        <ele>647</ele>
        <time>2010-01-01T02:38:10Z</time>
      </trkpt>
      <trkpt lat="44.08327" lon="3.13148">
        <ele>647</ele>
        <time>2010-01-01T02:38:11Z</time>
      </trkpt>
      <trkpt lat="44.08327" lon="3.13144">
        <ele>644</ele>
        <time>2010-01-01T02:38:12Z</time>
      </trkpt>
      <trkpt lat="44.08327" lon="3.13144">
        <ele>644</ele>
        <time>2010-01-01T02:38:13Z</time>
      </trkpt>
      <trkpt lat="44.08331" lon="3.13142">
        <ele>642</ele>
        <time>2010-01-01T02:38:14Z</time>
      </trkpt>
      <trkpt lat="44.08335" lon="3.13144">
        <ele>642</ele>
        <time>2010-01-01T02:38:16Z</time>
      </trkpt>
      <trkpt lat="44.0834" lon="3.13143">
        <ele>640</ele>
        <time>2010-01-01T02:38:18Z</time>
      </trkpt>
      <trkpt lat="44.08345" lon="3.13141">
        <ele>638</ele>
        <time>2010-01-01T02:38:20Z</time>
      </trkpt>
      <trkpt lat="44.0835" lon="3.13141">
        <ele>637</ele>
        <time>2010-01-01T02:38:22Z</time>
      </trkpt>
      <trkpt lat="44.08355" lon="3.13139">
        <ele>634</ele>
        <time>2010-01-01T02:38:24Z</time>
      </trkpt>
      <trkpt lat="44.0836" lon="3.13139">
        <ele>633</ele>
        <time>2010-01-01T02:38:26Z</time>
      </trkpt>
      <trkpt lat="44.08366" lon="3.13137">
        <ele>632</ele>
        <time>2010-01-01T02:38:28Z</time>
      </trkpt>
      <trkpt lat="44.08371" lon="3.13136">
        <ele>631</ele>
        <time>2010-01-01T02:38:31Z</time>
      </trkpt>
      <trkpt lat="44.08377" lon="3.13136">
        <ele>632</ele>
        <time>2010-01-01T02:38:33Z</time>
      </trkpt>
      <trkpt lat="44.08383" lon="3.13135">
        <ele>632</ele>
        <time>2010-01-01T02:38:35Z</time>
      </trkpt>
      <trkpt lat="44.08387" lon="3.13135">
        <ele>632</ele>
        <time>2010-01-01T02:38:37Z</time>
      </trkpt>
      <trkpt lat="44.08392" lon="3.13136">
        <ele>633</ele>
        <time>2010-01-01T02:38:39Z</time>
      </trkpt>
      <trkpt lat="44.08398" lon="3.13137">
        <ele>633</ele>
        <time>2010-01-01T02:38:41Z</time>
      </trkpt>
      <trkpt lat="44.08403" lon="3.13137">
        <ele>633</ele>
        <time>2010-01-01T02:38:43Z</time>
      </trkpt>
      <trkpt lat="44.08408" lon="3.13136">
        <ele>633</ele>
        <time>2010-01-01T02:38:46Z</time>
      </trkpt>
      <trkpt lat="44.08413" lon="3.13135">
        <ele>632</ele>
        <time>2010-01-01T02:38:47Z</time>
      </trkpt>
      <trkpt lat="44.08418" lon="3.13134">
        <ele>632</ele>
        <time>2010-01-01T02:38:49Z</time>
      </trkpt>
      <trkpt lat="44.08423" lon="3.13133">
        <ele>630</ele>
        <time>2010-01-01T02:38:52Z</time>
      </trkpt>
      <trkpt lat="44.08427" lon="3.13134">
        <ele>630</ele>
        <time>2010-01-01T02:38:53Z</time>
      </trkpt>
      <trkpt lat="44.08432" lon="3.13134">
        <ele>629</ele>
        <time>2010-01-01T02:38:55Z</time>
      </trkpt>
      <trkpt lat="44.08439" lon="3.13133">
        <ele>628</ele>
        <time>2010-01-01T02:38:58Z</time>
      </trkpt>
      <trkpt lat="44.08446" lon="3.13131">
        <ele>626</ele>
        <time>2010-01-01T02:39:01Z</time>
      </trkpt>
      <trkpt lat="44.08451" lon="3.13129">
        <ele>625</ele>
        <time>2010-01-01T02:39:03Z</time>
      </trkpt>
      <trkpt lat="44.08457" lon="3.13128">
        <ele>624</ele>
        <time>2010-01-01T02:39:05Z</time>
      </trkpt>
      <trkpt lat="44.08463" lon="3.13126">
        <ele>624</ele>
        <time>2010-01-01T02:39:08Z</time>
      </trkpt>
      <trkpt lat="44.08469" lon="3.13124">
        <ele>623</ele>
        <time>2010-01-01T02:39:10Z</time>
      </trkpt>
      <trkpt lat="44.08474" lon="3.1312">
        <ele>620</ele>
        <time>2010-01-01T02:39:13Z</time>
      </trkpt>
      <trkpt lat="44.0848" lon="3.13116">
        <ele>618</ele>
        <time>2010-01-01T02:39:15Z</time>
      </trkpt>
      <trkpt lat="44.08487" lon="3.13114">
        <ele>616</ele>
        <time>2010-01-01T02:39:18Z</time>
      </trkpt>
      <trkpt lat="44.08493" lon="3.13111">
        <ele>615</ele>
        <time>2010-01-01T02:39:21Z</time>
      </trkpt>
      <trkpt lat="44.085" lon="3.13109">
        <ele>613</ele>
        <time>2010-01-01T02:39:23Z</time>
      </trkpt>
      <trkpt lat="44.08508" lon="3.13106">
        <ele>612</ele>
        <time>2010-01-01T02:39:27Z</time>
      </trkpt>
      <trkpt lat="44.08514" lon="3.13105">
        <ele>611</ele>
        <time>2010-01-01T02:39:29Z</time>
      </trkpt>
      <trkpt lat="44.08521" lon="3.13103">
        <ele>611</ele>
        <time>2010-01-01T02:39:32Z</time>
      </trkpt>
      <trkpt lat="44.08527" lon="3.13103">
        <ele>610</ele>
        <time>2010-01-01T02:39:35Z</time>
      </trkpt>
      <trkpt lat="44.08533" lon="3.13102">
        <ele>609</ele>
        <time>2010-01-01T02:39:37Z</time>
      </trkpt>
      <trkpt lat="44.08539" lon="3.13101">
        <ele>608</ele>
        <time>2010-01-01T02:39:39Z</time>
      </trkpt>
      <trkpt lat="44.08544" lon="3.131">
        <ele>607</ele>
        <time>2010-01-01T02:39:41Z</time>
      </trkpt>
      <trkpt lat="44.08549" lon="3.131">
        <ele>606</ele>
        <time>2010-01-01T02:39:43Z</time>
      </trkpt>
      <trkpt lat="44.08556" lon="3.13098">
        <ele>605</ele>
        <time>2010-01-01T02:39:46Z</time>
      </trkpt>
      <trkpt lat="44.08562" lon="3.13097">
        <ele>604</ele>
        <time>2010-01-01T02:39:49Z</time>
      </trkpt>
      <trkpt lat="44.08568" lon="3.13095">
        <ele>603</ele>
        <time>2010-01-01T02:39:51Z</time>
      </trkpt>
      <trkpt lat="44.08574" lon="3.13093">
        <ele>601</ele>
        <time>2010-01-01T02:39:54Z</time>
      </trkpt>
      <trkpt lat="44.08581" lon="3.13092">
        <ele>600</ele>
        <time>2010-01-01T02:39:56Z</time>
      </trkpt>
      <trkpt lat="44.08586" lon="3.1309">
        <ele>598</ele>
        <time>2010-01-01T02:39:59Z</time>
      </trkpt>
      <trkpt lat="44.08592" lon="3.13088">
        <ele>596</ele>
        <time>2010-01-01T02:40:01Z</time>
      </trkpt>
      <trkpt lat="44.08598" lon="3.13086">
        <ele>594</ele>
        <time>2010-01-01T02:40:03Z</time>
      </trkpt>
      <trkpt lat="44.08604" lon="3.13086">
        <ele>592</ele>
        <time>2010-01-01T02:40:06Z</time>
      </trkpt>
      <trkpt lat="44.0861" lon="3.13085">
        <ele>591</ele>
        <time>2010-01-01T02:40:08Z</time>
      </trkpt>
      <trkpt lat="44.08616" lon="3.13083">
        <ele>589</ele>
        <time>2010-01-01T02:40:11Z</time>
      </trkpt>
      <trkpt lat="44.08623" lon="3.13084">
        <ele>588</ele>
        <time>2010-01-01T02:40:13Z</time>
      </trkpt>
      <trkpt lat="44.08629" lon="3.13084">
        <ele>587</ele>
        <time>2010-01-01T02:40:16Z</time>
      </trkpt>
      <trkpt lat="44.08635" lon="3.13085">
        <ele>587</ele>
        <time>2010-01-01T02:40:18Z</time>
      </trkpt>
      <trkpt lat="44.08642" lon="3.13085">
        <ele>586</ele>
        <time>2010-01-01T02:40:21Z</time>
      </trkpt>
      <trkpt lat="44.08648" lon="3.13086">
        <ele>585</ele>
        <time>2010-01-01T02:40:24Z</time>
      </trkpt>
      <trkpt lat="44.08654" lon="3.13089">
        <ele>586</ele>
        <time>2010-01-01T02:40:26Z</time>
      </trkpt>
      <trkpt lat="44.08659" lon="3.1309">
        <ele>586</ele>
        <time>2010-01-01T02:40:28Z</time>
      </trkpt>
      <trkpt lat="44.08664" lon="3.1309">
        <ele>585</ele>
        <time>2010-01-01T02:40:30Z</time>
      </trkpt>
      <trkpt lat="44.08671" lon="3.13089">
        <ele>584</ele>
        <time>2010-01-01T02:40:33Z</time>
      </trkpt>
      <trkpt lat="44.08677" lon="3.13087">
        <ele>582</ele>
        <time>2010-01-01T02:40:36Z</time>
      </trkpt>
      <trkpt lat="44.08683" lon="3.13085">
        <ele>580</ele>
        <time>2010-01-01T02:40:38Z</time>
      </trkpt>
      <trkpt lat="44.0869" lon="3.13083">
        <ele>578</ele>
        <time>2010-01-01T02:40:41Z</time>
      </trkpt>
      <trkpt lat="44.08696" lon="3.1308">
        <ele>576</ele>
        <time>2010-01-01T02:40:43Z</time>
      </trkpt>
      <trkpt lat="44.08703" lon="3.1308">
        <ele>575</ele>
        <time>2010-01-01T02:40:46Z</time>
      </trkpt>
      <trkpt lat="44.08711" lon="3.13078">
        <ele>574</ele>
        <time>2010-01-01T02:40:49Z</time>
      </trkpt>
      <trkpt lat="44.08719" lon="3.13076">
        <ele>573</ele>
        <time>2010-01-01T02:40:52Z</time>
      </trkpt>
      <trkpt lat="44.08726" lon="3.13073">
        <ele>571</ele>
        <time>2010-01-01T02:40:55Z</time>
      </trkpt>
      <trkpt lat="44.08732" lon="3.1307">
        <ele>570</ele>
        <time>2010-01-01T02:40:58Z</time>
      </trkpt>
      <trkpt lat="44.08739" lon="3.13067">
        <ele>568</ele>
        <time>2010-01-01T02:41:01Z</time>
      </trkpt>
      <trkpt lat="44.08746" lon="3.13064">
        <ele>566</ele>
        <time>2010-01-01T02:41:04Z</time>
      </trkpt>
      <trkpt lat="44.08753" lon="3.1306">
        <ele>564</ele>
        <time>2010-01-01T02:41:07Z</time>
      </trkpt>
      <trkpt lat="44.0876" lon="3.13057">
        <ele>563</ele>
        <time>2010-01-01T02:41:10Z</time>
      </trkpt>
      <trkpt lat="44.08767" lon="3.13055">
        <ele>562</ele>
        <time>2010-01-01T02:41:13Z</time>
      </trkpt>
      <trkpt lat="44.08773" lon="3.13054">
        <ele>562</ele>
        <time>2010-01-01T02:41:15Z</time>
      </trkpt>
      <trkpt lat="44.08779" lon="3.13053">
        <ele>561</ele>
        <time>2010-01-01T02:41:18Z</time>
      </trkpt>
      <trkpt lat="44.08787" lon="3.13053">
        <ele>560</ele>
        <time>2010-01-01T02:41:21Z</time>
      </trkpt>
      <trkpt lat="44.08793" lon="3.13054">
        <ele>560</ele>
        <time>2010-01-01T02:41:23Z</time>
      </trkpt>
      <trkpt lat="44.08799" lon="3.13055">
        <ele>560</ele>
        <time>2010-01-01T02:41:26Z</time>
      </trkpt>
      <trkpt lat="44.08806" lon="3.13055">
        <ele>559</ele>
        <time>2010-01-01T02:41:28Z</time>
      </trkpt>
      <trkpt lat="44.08813" lon="3.13055">
        <ele>557</ele>
        <time>2010-01-01T02:41:31Z</time>
      </trkpt>
      <trkpt lat="44.0882" lon="3.13056">
        <ele>555</ele>
        <time>2010-01-01T02:41:34Z</time>
      </trkpt>
      <trkpt lat="44.08828" lon="3.13057">
        <ele>553</ele>
        <time>2010-01-01T02:41:37Z</time>
      </trkpt>
      <trkpt lat="44.08836" lon="3.13058">
        <ele>552</ele>
        <time>2010-01-01T02:41:40Z</time>
      </trkpt>
      <trkpt lat="44.08841" lon="3.13058">
        <ele>550</ele>
        <time>2010-01-01T02:41:43Z</time>
      </trkpt>
      <trkpt lat="44.08848" lon="3.1306">
        <ele>549</ele>
        <time>2010-01-01T02:41:45Z</time>
      </trkpt>
      <trkpt lat="44.08856" lon="3.13062">
        <ele>548</ele>
        <time>2010-01-01T02:41:49Z</time>
      </trkpt>
      <trkpt lat="44.08862" lon="3.13064">
        <ele>547</ele>
        <time>2010-01-01T02:41:51Z</time>
      </trkpt>
      <trkpt lat="44.0887" lon="3.13065">
        <ele>546</ele>
        <time>2010-01-01T02:41:54Z</time>
      </trkpt>
      <trkpt lat="44.08877" lon="3.13066">
        <ele>545</ele>
        <time>2010-01-01T02:41:57Z</time>
      </trkpt>
      <trkpt lat="44.08883" lon="3.13066">
        <ele>545</ele>
        <time>2010-01-01T02:42:00Z</time>
      </trkpt>
      <trkpt lat="44.08892" lon="3.13066">
        <ele>544</ele>
        <time>2010-01-01T02:42:03Z</time>
      </trkpt>
      <trkpt lat="44.08898" lon="3.13069">
        <ele>544</ele>
        <time>2010-01-01T02:42:06Z</time>
      </trkpt>
      <trkpt lat="44.089" lon="3.13077">
        <ele>546</ele>
        <time>2010-01-01T02:42:08Z</time>
      </trkpt>
      <trkpt lat="44.08903" lon="3.13085">
        <ele>548</ele>
        <time>2010-01-01T02:42:11Z</time>
      </trkpt>
      <trkpt lat="44.08908" lon="3.13087">
        <ele>548</ele>
        <time>2010-01-01T02:42:13Z</time>
      </trkpt>
      <trkpt lat="44.08915" lon="3.13084">
        <ele>547</ele>
        <time>2010-01-01T02:42:16Z</time>
      </trkpt>
      <trkpt lat="44.08922" lon="3.13081">
        <ele>545</ele>
        <time>2010-01-01T02:42:19Z</time>
      </trkpt>
      <trkpt lat="44.08926" lon="3.13077">
        <ele>544</ele>
        <time>2010-01-01T02:42:21Z</time>
      </trkpt>
      <trkpt lat="44.08932" lon="3.13071">
        <ele>541</ele>
        <time>2010-01-01T02:42:24Z</time>
      </trkpt>
      <trkpt lat="44.08938" lon="3.13065">
        <ele>539</ele>
        <time>2010-01-01T02:42:27Z</time>
      </trkpt>
      <trkpt lat="44.08945" lon="3.13059">
        <ele>537</ele>
        <time>2010-01-01T02:42:30Z</time>
      </trkpt>
      <trkpt lat="44.0895" lon="3.13053">
        <ele>535</ele>
        <time>2010-01-01T02:42:33Z</time>
      </trkpt>
      <trkpt lat="44.08956" lon="3.13046">
        <ele>533</ele>
        <time>2010-01-01T02:42:36Z</time>
      </trkpt>
      <trkpt lat="44.08961" lon="3.13041">
        <ele>532</ele>
        <time>2010-01-01T02:42:38Z</time>
      </trkpt>
      <trkpt lat="44.08966" lon="3.13037">
        <ele>531</ele>
        <time>2010-01-01T02:42:40Z</time>
      </trkpt>
      <trkpt lat="44.08973" lon="3.13032">
        <ele>529</ele>
        <time>2010-01-01T02:42:44Z</time>
      </trkpt>
      <trkpt lat="44.08981" lon="3.13027">
        <ele>527</ele>
        <time>2010-01-01T02:42:47Z</time>
      </trkpt>
      <trkpt lat="44.08989" lon="3.13022">
        <ele>525</ele>
        <time>2010-01-01T02:42:51Z</time>
      </trkpt>
      <trkpt lat="44.08997" lon="3.13019">
        <ele>524</ele>
        <time>2010-01-01T02:42:54Z</time>
      </trkpt>
      <trkpt lat="44.09004" lon="3.13015">
        <ele>523</ele>
        <time>2010-01-01T02:42:57Z</time>
      </trkpt>
      <trkpt lat="44.09009" lon="3.1301">
        <ele>522</ele>
        <time>2010-01-01T02:42:59Z</time>
      </trkpt>
      <trkpt lat="44.09015" lon="3.13007">
        <ele>521</ele>
        <time>2010-01-01T02:43:02Z</time>
      </trkpt>
      <trkpt lat="44.09021" lon="3.13003">
        <ele>520</ele>
        <time>2010-01-01T02:43:05Z</time>
      </trkpt>
      <trkpt lat="44.09027" lon="3.12999">
        <ele>518</ele>
        <time>2010-01-01T02:43:07Z</time>
      </trkpt>
      <trkpt lat="44.09033" lon="3.12995">
        <ele>517</ele>
        <time>2010-01-01T02:43:10Z</time>
      </trkpt>
      <trkpt lat="44.09037" lon="3.12993">
        <ele>516</ele>
        <time>2010-01-01T02:43:12Z</time>
      </trkpt>
      <trkpt lat="44.09042" lon="3.12991">
        <ele>515</ele>
        <time>2010-01-01T02:43:14Z</time>
      </trkpt>
      <trkpt lat="44.09047" lon="3.12989">
        <ele>514</ele>
        <time>2010-01-01T02:43:16Z</time>
      </trkpt>
      <trkpt lat="44.09052" lon="3.12988">
        <ele>512</ele>
        <time>2010-01-01T02:43:18Z</time>
      </trkpt>
      <trkpt lat="44.0906" lon="3.12986">
        <ele>510</ele>
        <time>2010-01-01T02:43:21Z</time>
      </trkpt>
      <trkpt lat="44.09067" lon="3.12984">
        <ele>508</ele>
        <time>2010-01-01T02:43:24Z</time>
      </trkpt>
      <trkpt lat="44.09074" lon="3.12985">
        <ele>507</ele>
        <time>2010-01-01T02:43:27Z</time>
      </trkpt>
      <trkpt lat="44.09081" lon="3.12987">
        <ele>506</ele>
        <time>2010-01-01T02:43:30Z</time>
      </trkpt>
      <trkpt lat="44.09086" lon="3.12993">
        <ele>506</ele>
        <time>2010-01-01T02:43:32Z</time>
      </trkpt>
      <trkpt lat="44.09089" lon="3.12999">
        <ele>506</ele>
        <time>2010-01-01T02:43:34Z</time>
      </trkpt>
      <trkpt lat="44.09093" lon="3.13003">
        <ele>507</ele>
        <time>2010-01-01T02:43:36Z</time>
      </trkpt>
      <trkpt lat="44.09098" lon="3.13007">
        <ele>507</ele>
        <time>2010-01-01T02:43:39Z</time>
      </trkpt>
      <trkpt lat="44.09103" lon="3.13011">
        <ele>507</ele>
        <time>2010-01-01T02:43:41Z</time>
      </trkpt>
      <trkpt lat="44.09111" lon="3.13012">
        <ele>506</ele>
        <time>2010-01-01T02:43:44Z</time>
      </trkpt>
      <trkpt lat="44.09118" lon="3.13012">
        <ele>504</ele>
        <time>2010-01-01T02:43:47Z</time>
      </trkpt>
      <trkpt lat="44.09125" lon="3.1301">
        <ele>502</ele>
        <time>2010-01-01T02:43:50Z</time>
      </trkpt>
      <trkpt lat="44.0913" lon="3.13007">
        <ele>501</ele>
        <time>2010-01-01T02:43:52Z</time>
      </trkpt>
      <trkpt lat="44.09135" lon="3.13005">
        <ele>499</ele>
        <time>2010-01-01T02:43:54Z</time>
      </trkpt>
      <trkpt lat="44.09141" lon="3.13002">
        <ele>497</ele>
        <time>2010-01-01T02:43:56Z</time>
      </trkpt>
      <trkpt lat="44.09147" lon="3.13001">
        <ele>497</ele>
        <time>2010-01-01T02:43:59Z</time>
      </trkpt>
      <trkpt lat="44.09153" lon="3.12999">
        <ele>497</ele>
        <time>2010-01-01T02:44:02Z</time>
      </trkpt>
      <trkpt lat="44.09161" lon="3.12999">
        <ele>497</ele>
        <time>2010-01-01T02:44:05Z</time>
      </trkpt>
      <trkpt lat="44.09167" lon="3.12999">
        <ele>497</ele>
        <time>2010-01-01T02:44:07Z</time>
      </trkpt>
      <trkpt lat="44.09173" lon="3.13">
        <ele>497</ele>
        <time>2010-01-01T02:44:10Z</time>
      </trkpt>
      <trkpt lat="44.09179" lon="3.13">
        <ele>497</ele>
        <time>2010-01-01T02:44:12Z</time>
      </trkpt>
      <trkpt lat="44.09186" lon="3.12998">
        <ele>497</ele>
        <time>2010-01-01T02:44:15Z</time>
      </trkpt>
      <trkpt lat="44.09193" lon="3.12996">
        <ele>496</ele>
        <time>2010-01-01T02:44:18Z</time>
      </trkpt>
      <trkpt lat="44.092" lon="3.12992">
        <ele>495</ele>
        <time>2010-01-01T02:44:21Z</time>
      </trkpt>
      <trkpt lat="44.09205" lon="3.12986">
        <ele>493</ele>
        <time>2010-01-01T02:44:23Z</time>
      </trkpt>
      <trkpt lat="44.09211" lon="3.12981">
        <ele>491</ele>
        <time>2010-01-01T02:44:26Z</time>
      </trkpt>
      <trkpt lat="44.09218" lon="3.12977">
        <ele>489</ele>
        <time>2010-01-01T02:44:29Z</time>
      </trkpt>
      <trkpt lat="44.09226" lon="3.12972">
        <ele>487</ele>
        <time>2010-01-01T02:44:33Z</time>
      </trkpt>
      <trkpt lat="44.09233" lon="3.12969">
        <ele>486</ele>
        <time>2010-01-01T02:44:36Z</time>
      </trkpt>
      <trkpt lat="44.0924" lon="3.12965">
        <ele>484</ele>
        <time>2010-01-01T02:44:39Z</time>
      </trkpt>
      <trkpt lat="44.09247" lon="3.1296">
        <ele>483</ele>
        <time>2010-01-01T02:44:42Z</time>
      </trkpt>
      <trkpt lat="44.09254" lon="3.12955">
        <ele>481</ele>
        <time>2010-01-01T02:44:45Z</time>
      </trkpt>
      <trkpt lat="44.0926" lon="3.1295">
        <ele>480</ele>
        <time>2010-01-01T02:44:48Z</time>
      </trkpt>
      <trkpt lat="44.09268" lon="3.12948">
        <ele>478</ele>
        <time>2010-01-01T02:44:51Z</time>
      </trkpt>
      <trkpt lat="44.09273" lon="3.12945">
        <ele>477</ele>
        <time>2010-01-01T02:44:53Z</time>
      </trkpt>
      <trkpt lat="44.09271" lon="3.12942">
        <ele>477</ele>
        <time>2010-01-01T02:44:55Z</time>
      </trkpt>
      <trkpt lat="44.09267" lon="3.1294">
        <ele>478</ele>
        <time>2010-01-01T02:44:56Z</time>
      </trkpt>
      <trkpt lat="44.09266" lon="3.12938">
        <ele>478</ele>
        <time>2010-01-01T02:44:57Z</time>
      </trkpt>
      <trkpt lat="44.09266" lon="3.12932">
        <ele>478</ele>
        <time>2010-01-01T02:44:59Z</time>
      </trkpt>
      <trkpt lat="44.09269" lon="3.12929">
        <ele>477</ele>
        <time>2010-01-01T02:45:00Z</time>
      </trkpt>
      <trkpt lat="44.09271" lon="3.12925">
        <ele>477</ele>
        <time>2010-01-01T02:45:02Z</time>
      </trkpt>
      <trkpt lat="44.09275" lon="3.12924">
        <ele>476</ele>
        <time>2010-01-01T02:45:03Z</time>
      </trkpt>
      <trkpt lat="44.09277" lon="3.12922">
        <ele>476</ele>
        <time>2010-01-01T02:45:04Z</time>
      </trkpt>
      <trkpt lat="44.09282" lon="3.1292">
        <ele>475</ele>
        <time>2010-01-01T02:45:06Z</time>
      </trkpt>
      <trkpt lat="44.09287" lon="3.12918">
        <ele>475</ele>
        <time>2010-01-01T02:45:08Z</time>
      </trkpt>
      <trkpt lat="44.09291" lon="3.12916">
        <ele>474</ele>
        <time>2010-01-01T02:45:10Z</time>
      </trkpt>
      <trkpt lat="44.09297" lon="3.12915">
        <ele>474</ele>
        <time>2010-01-01T02:45:13Z</time>
      </trkpt>
      <trkpt lat="44.09306" lon="3.12917">
        <ele>472</ele>
        <time>2010-01-01T02:45:16Z</time>
      </trkpt>
      <trkpt lat="44.09314" lon="3.1292">
        <ele>471</ele>
        <time>2010-01-01T02:45:19Z</time>
      </trkpt>
      <trkpt lat="44.09322" lon="3.1292">
        <ele>469</ele>
        <time>2010-01-01T02:45:22Z</time>
      </trkpt>
      <trkpt lat="44.09329" lon="3.1292">
        <ele>468</ele>
        <time>2010-01-01T02:45:25Z</time>
      </trkpt>
      <trkpt lat="44.09332" lon="3.12922">
        <ele>467</ele>
        <time>2010-01-01T02:45:27Z</time>
      </trkpt>
      <trkpt lat="44.09334" lon="3.12921">
        <ele>467</ele>
        <time>2010-01-01T02:45:27Z</time>
      </trkpt>
      <trkpt lat="44.09337" lon="3.12922">
        <ele>466</ele>
        <time>2010-01-01T02:45:29Z</time>
      </trkpt>
      <trkpt lat="44.09341" lon="3.12922">
        <ele>466</ele>
        <time>2010-01-01T02:45:30Z</time>
      </trkpt>
      <trkpt lat="44.09345" lon="3.12923">
        <ele>466</ele>
        <time>2010-01-01T02:45:32Z</time>
      </trkpt>
      <trkpt lat="44.09352" lon="3.12924">
        <ele>465</ele>
        <time>2010-01-01T02:45:35Z</time>
      </trkpt>
      <trkpt lat="44.09358" lon="3.12925">
        <ele>465</ele>
        <time>2010-01-01T02:45:37Z</time>
      </trkpt>
      <trkpt lat="44.09364" lon="3.12925">
        <ele>464</ele>
        <time>2010-01-01T02:45:39Z</time>
      </trkpt>
      <trkpt lat="44.09368" lon="3.12927">
        <ele>464</ele>
        <time>2010-01-01T02:45:41Z</time>
      </trkpt>
      <trkpt lat="44.09376" lon="3.12928">
        <ele>463</ele>
        <time>2010-01-01T02:45:44Z</time>
      </trkpt>
      <trkpt lat="44.09382" lon="3.12929">
        <ele>463</ele>
        <time>2010-01-01T02:45:47Z</time>
      </trkpt>
      <trkpt lat="44.09387" lon="3.12932">
        <ele>462</ele>
        <time>2010-01-01T02:45:49Z</time>
      </trkpt>
      <trkpt lat="44.09392" lon="3.12932">
        <ele>462</ele>
        <time>2010-01-01T02:45:51Z</time>
      </trkpt>
      <trkpt lat="44.09397" lon="3.12932">
        <ele>462</ele>
        <time>2010-01-01T02:45:53Z</time>
      </trkpt>
      <trkpt lat="44.09404" lon="3.12933">
        <ele>462</ele>
        <time>2010-01-01T02:45:56Z</time>
      </trkpt>
      <trkpt lat="44.09411" lon="3.12935">
        <ele>461</ele>
        <time>2010-01-01T02:45:59Z</time>
      </trkpt>
      <trkpt lat="44.09417" lon="3.12937">
        <ele>461</ele>
        <time>2010-01-01T02:46:01Z</time>
      </trkpt>
      <trkpt lat="44.09423" lon="3.12935">
        <ele>460</ele>
        <time>2010-01-01T02:46:03Z</time>
      </trkpt>
      <trkpt lat="44.0943" lon="3.12936">
        <ele>458</ele>
        <time>2010-01-01T02:46:06Z</time>
      </trkpt>
      <trkpt lat="44.09434" lon="3.12937">
        <ele>457</ele>
        <time>2010-01-01T02:46:08Z</time>
      </trkpt>
      <trkpt lat="44.09437" lon="3.12938">
        <ele>457</ele>
        <time>2010-01-01T02:46:09Z</time>
      </trkpt>
      <trkpt lat="44.09433" lon="3.12939">
        <ele>458</ele>
        <time>2010-01-01T02:46:11Z</time>
      </trkpt>
      <trkpt lat="44.09438" lon="3.12939">
        <ele>456</ele>
        <time>2010-01-01T02:46:13Z</time>
      </trkpt>
      <trkpt lat="44.09443" lon="3.1294">
        <ele>455</ele>
        <time>2010-01-01T02:46:15Z</time>
      </trkpt>
      <trkpt lat="44.0945" lon="3.1294">
        <ele>456</ele>
        <time>2010-01-01T02:46:18Z</time>
      </trkpt>
      <trkpt lat="44.09456" lon="3.12944">
        <ele>457</ele>
        <time>2010-01-01T02:46:21Z</time>
      </trkpt>
      <trkpt lat="44.0946" lon="3.12946">
        <ele>459</ele>
        <time>2010-01-01T02:46:22Z</time>
      </trkpt>
      <trkpt lat="44.09465" lon="3.12946">
        <ele>460</ele>
        <time>2010-01-01T02:46:24Z</time>
      </trkpt>
      <trkpt lat="44.09468" lon="3.12945">
        <ele>461</ele>
        <time>2010-01-01T02:46:25Z</time>
      </trkpt>
      <trkpt lat="44.09473" lon="3.12943">
        <ele>461</ele>
        <time>2010-01-01T02:46:28Z</time>
      </trkpt>
      <trkpt lat="44.09471" lon="3.12941">
        <ele>460</ele>
        <time>2010-01-01T02:46:29Z</time>
      </trkpt>
      <trkpt lat="44.09473" lon="3.12935">
        <ele>458</ele>
        <time>2010-01-01T02:46:30Z</time>
      </trkpt>
      <trkpt lat="44.09476" lon="3.12933">
        <ele>457</ele>
        <time>2010-01-01T02:46:32Z</time>
      </trkpt>
      <trkpt lat="44.09479" lon="3.12931">
        <ele>456</ele>
        <time>2010-01-01T02:46:33Z</time>
      </trkpt>
      <trkpt lat="44.09482" lon="3.12926">
        <ele>454</ele>
        <time>2010-01-01T02:46:35Z</time>
      </trkpt>
      <trkpt lat="44.09486" lon="3.12919">
        <ele>452</ele>
        <time>2010-01-01T02:46:37Z</time>
      </trkpt>
      <trkpt lat="44.09491" lon="3.12913">
        <ele>450</ele>
        <time>2010-01-01T02:46:40Z</time>
      </trkpt>
      <trkpt lat="44.09495" lon="3.12905">
        <ele>447</ele>
        <time>2010-01-01T02:46:43Z</time>
      </trkpt>
      <trkpt lat="44.09501" lon="3.12898">
        <ele>444</ele>
        <time>2010-01-01T02:46:46Z</time>
      </trkpt>
      <trkpt lat="44.09507" lon="3.12891">
        <ele>442</ele>
        <time>2010-01-01T02:46:49Z</time>
      </trkpt>
      <trkpt lat="44.09513" lon="3.12884">
        <ele>441</ele>
        <time>2010-01-01T02:46:52Z</time>
      </trkpt>
      <trkpt lat="44.09516" lon="3.12882">
        <ele>441</ele>
        <time>2010-01-01T02:46:54Z</time>
      </trkpt>
      <trkpt lat="44.09519" lon="3.12878">
        <ele>440</ele>
        <time>2010-01-01T02:46:55Z</time>
      </trkpt>
      <trkpt lat="44.09523" lon="3.12873">
        <ele>439</ele>
        <time>2010-01-01T02:46:57Z</time>
      </trkpt>
      <trkpt lat="44.09523" lon="3.12871">
        <ele>439</ele>
        <time>2010-01-01T02:46:58Z</time>
      </trkpt>
      <trkpt lat="44.09526" lon="3.12868">
        <ele>439</ele>
        <time>2010-01-01T02:46:59Z</time>
      </trkpt>
      <trkpt lat="44.09527" lon="3.12865">
        <ele>438</ele>
        <time>2010-01-01T02:47:00Z</time>
      </trkpt>
      <trkpt lat="44.09527" lon="3.1286">
        <ele>437</ele>
        <time>2010-01-01T02:47:02Z</time>
      </trkpt>
      <trkpt lat="44.09528" lon="3.12857">
        <ele>437</ele>
        <time>2010-01-01T02:47:03Z</time>
      </trkpt>
      <trkpt lat="44.09527" lon="3.12853">
        <ele>437</ele>
        <time>2010-01-01T02:47:04Z</time>
      </trkpt>
      <trkpt lat="44.09529" lon="3.1285">
        <ele>436</ele>
        <time>2010-01-01T02:47:05Z</time>
      </trkpt>
      <trkpt lat="44.09533" lon="3.12846">
        <ele>436</ele>
        <time>2010-01-01T02:47:07Z</time>
      </trkpt>
      <trkpt lat="44.09537" lon="3.12842">
        <ele>435</ele>
        <time>2010-01-01T02:47:09Z</time>
      </trkpt>
      <trkpt lat="44.09539" lon="3.12838">
        <ele>434</ele>
        <time>2010-01-01T02:47:10Z</time>
      </trkpt>
      <trkpt lat="44.09541" lon="3.12834">
        <ele>434</ele>
        <time>2010-01-01T02:47:12Z</time>
      </trkpt>
      <trkpt lat="44.09542" lon="3.1283">
        <ele>434</ele>
        <time>2010-01-01T02:47:13Z</time>
      </trkpt>
      <trkpt lat="44.09545" lon="3.12828">
        <ele>434</ele>
        <time>2010-01-01T02:47:14Z</time>
      </trkpt>
      <trkpt lat="44.09547" lon="3.12827">
        <ele>434</ele>
        <time>2010-01-01T02:47:15Z</time>
      </trkpt>
      <trkpt lat="44.0955" lon="3.12825">
        <ele>434</ele>
        <time>2010-01-01T02:47:16Z</time>
      </trkpt>
      <trkpt lat="44.09551" lon="3.12824">
        <ele>434</ele>
        <time>2010-01-01T02:47:17Z</time>
      </trkpt>
      <trkpt lat="44.09554" lon="3.12822">
        <ele>434</ele>
        <time>2010-01-01T02:47:18Z</time>
      </trkpt>
      <trkpt lat="44.09561" lon="3.12823">
        <ele>434</ele>
        <time>2010-01-01T02:47:21Z</time>
      </trkpt>
      <trkpt lat="44.0957" lon="3.12822">
        <ele>433</ele>
        <time>2010-01-01T02:47:25Z</time>
      </trkpt>
      <trkpt lat="44.0958" lon="3.12823">
        <ele>433</ele>
        <time>2010-01-01T02:47:29Z</time>
      </trkpt>
      <trkpt lat="44.09585" lon="3.1282">
        <ele>433</ele>
        <time>2010-01-01T02:47:31Z</time>
      </trkpt>
      <trkpt lat="44.09589" lon="3.12817">
        <ele>432</ele>
        <time>2010-01-01T02:47:33Z</time>
      </trkpt>
      <trkpt lat="44.09592" lon="3.12814">
        <ele>432</ele>
        <time>2010-01-01T02:47:34Z</time>
      </trkpt>
      <trkpt lat="44.09596" lon="3.12811">
        <ele>432</ele>
        <time>2010-01-01T02:47:36Z</time>
      </trkpt>
      <trkpt lat="44.096" lon="3.1281">
        <ele>431</ele>
        <time>2010-01-01T02:47:38Z</time>
      </trkpt>
      <trkpt lat="44.09605" lon="3.12808">
        <ele>431</ele>
        <time>2010-01-01T02:47:40Z</time>
      </trkpt>
      <trkpt lat="44.09609" lon="3.12806">
        <ele>431</ele>
        <time>2010-01-01T02:47:41Z</time>
      </trkpt>
      <trkpt lat="44.09615" lon="3.12803">
        <ele>431</ele>
        <time>2010-01-01T02:47:44Z</time>
      </trkpt>
      <trkpt lat="44.09622" lon="3.12801">
        <ele>430</ele>
        <time>2010-01-01T02:47:47Z</time>
      </trkpt>
      <trkpt lat="44.09627" lon="3.128">
        <ele>430</ele>
        <time>2010-01-01T02:47:49Z</time>
      </trkpt>
      <trkpt lat="44.09631" lon="3.12798">
        <ele>430</ele>
        <time>2010-01-01T02:47:51Z</time>
      </trkpt>
      <trkpt lat="44.09635" lon="3.12796">
        <ele>430</ele>
        <time>2010-01-01T02:47:52Z</time>
      </trkpt>
      <trkpt lat="44.09641" lon="3.12795">
        <ele>429</ele>
        <time>2010-01-01T02:47:55Z</time>
      </trkpt>
      <trkpt lat="44.09648" lon="3.12791">
        <ele>428</ele>
        <time>2010-01-01T02:47:57Z</time>
      </trkpt>
      <trkpt lat="44.09652" lon="3.12787">
        <ele>427</ele>
        <time>2010-01-01T02:48:00Z</time>
      </trkpt>
      <trkpt lat="44.09657" lon="3.12786">
        <ele>427</ele>
        <time>2010-01-01T02:48:02Z</time>
      </trkpt>
      <trkpt lat="44.09663" lon="3.12785">
        <ele>426</ele>
        <time>2010-01-01T02:48:04Z</time>
      </trkpt>
      <trkpt lat="44.09667" lon="3.12783">
        <ele>425</ele>
        <time>2010-01-01T02:48:06Z</time>
      </trkpt>
      <trkpt lat="44.09671" lon="3.12781">
        <ele>425</ele>
        <time>2010-01-01T02:48:08Z</time>
      </trkpt>
      <trkpt lat="44.09675" lon="3.1278">
        <ele>425</ele>
        <time>2010-01-01T02:48:09Z</time>
      </trkpt>
      <trkpt lat="44.09679" lon="3.12781">
        <ele>424</ele>
        <time>2010-01-01T02:48:11Z</time>
      </trkpt>
      <trkpt lat="44.09683" lon="3.12782">
        <ele>424</ele>
        <time>2010-01-01T02:48:12Z</time>
      </trkpt>
      <trkpt lat="44.09686" lon="3.12784">
        <ele>424</ele>
        <time>2010-01-01T02:48:14Z</time>
      </trkpt>
      <trkpt lat="44.09689" lon="3.12783">
        <ele>423</ele>
        <time>2010-01-01T02:48:15Z</time>
      </trkpt>
      <trkpt lat="44.09692" lon="3.12781">
        <ele>423</ele>
        <time>2010-01-01T02:48:16Z</time>
      </trkpt>
      <trkpt lat="44.09696" lon="3.1278">
        <ele>423</ele>
        <time>2010-01-01T02:48:18Z</time>
      </trkpt>
      <trkpt lat="44.09697" lon="3.12781">
        <ele>423</ele>
        <time>2010-01-01T02:48:18Z</time>
      </trkpt>
      <trkpt lat="44.09698" lon="3.12782">
        <ele>423</ele>
        <time>2010-01-01T02:48:19Z</time>
      </trkpt>
      <trkpt lat="44.097" lon="3.12784">
        <ele>423</ele>
        <time>2010-01-01T02:48:20Z</time>
      </trkpt>
      <trkpt lat="44.09702" lon="3.12785">
        <ele>423</ele>
        <time>2010-01-01T02:48:21Z</time>
      </trkpt>
      <trkpt lat="44.09706" lon="3.12786">
        <ele>424</ele>
        <time>2010-01-01T02:48:22Z</time>
      </trkpt>
      <trkpt lat="44.09709" lon="3.12788">
        <ele>424</ele>
        <time>2010-01-01T02:48:24Z</time>
      </trkpt>
      <trkpt lat="44.09714" lon="3.12791">
        <ele>423</ele>
        <time>2010-01-01T02:48:26Z</time>
      </trkpt>
      <trkpt lat="44.09718" lon="3.12793">
        <ele>423</ele>
        <time>2010-01-01T02:48:28Z</time>
      </trkpt>
      <trkpt lat="44.09725" lon="3.12797">
        <ele>423</ele>
        <time>2010-01-01T02:48:31Z</time>
      </trkpt>
      <trkpt lat="44.0973" lon="3.12804">
        <ele>422</ele>
        <time>2010-01-01T02:48:33Z</time>
      </trkpt>
      <trkpt lat="44.09732" lon="3.1281">
        <ele>421</ele>
        <time>2010-01-01T02:48:35Z</time>
      </trkpt>
      <trkpt lat="44.09735" lon="3.12814">
        <ele>420</ele>
        <time>2010-01-01T02:48:37Z</time>
      </trkpt>
      <trkpt lat="44.0974" lon="3.12817">
        <ele>420</ele>
        <time>2010-01-01T02:48:39Z</time>
      </trkpt>
      <trkpt lat="44.09742" lon="3.12822">
        <ele>419</ele>
        <time>2010-01-01T02:48:41Z</time>
      </trkpt>
      <trkpt lat="44.09746" lon="3.12825">
        <ele>418</ele>
        <time>2010-01-01T02:48:43Z</time>
      </trkpt>
      <trkpt lat="44.09755" lon="3.12828">
        <ele>418</ele>
        <time>2010-01-01T02:48:46Z</time>
      </trkpt>
      <trkpt lat="44.0976" lon="3.1283">
        <ele>417</ele>
        <time>2010-01-01T02:48:48Z</time>
      </trkpt>
      <trkpt lat="44.09777" lon="3.1284">
        <ele>417</ele>
        <time>2010-01-01T02:48:56Z</time>
      </trkpt>
      <trkpt lat="44.09806" lon="3.12846">
        <ele>413</ele>
        <time>2010-01-01T02:49:07Z</time>
      </trkpt>
      <trkpt lat="44.09854" lon="3.12831">
        <ele>405</ele>
        <time>2010-01-01T02:49:27Z</time>
      </trkpt>
      <trkpt lat="44.09857" lon="3.12829">
        <ele>404</ele>
        <time>2010-01-01T02:49:28Z</time>
      </trkpt>
      <trkpt lat="44.09859" lon="3.12827">
        <ele>404</ele>
        <time>2010-01-01T02:49:29Z</time>
      </trkpt>
      <trkpt lat="44.09865" lon="3.12824">
        <ele>404</ele>
        <time>2010-01-01T02:49:32Z</time>
      </trkpt>
      <trkpt lat="44.0987" lon="3.1282">
        <ele>403</ele>
        <time>2010-01-01T02:49:34Z</time>
      </trkpt>
      <trkpt lat="44.09873" lon="3.12819">
        <ele>403</ele>
        <time>2010-01-01T02:49:36Z</time>
      </trkpt>
      <trkpt lat="44.09877" lon="3.12817">
        <ele>403</ele>
        <time>2010-01-01T02:49:37Z</time>
      </trkpt>
      <trkpt lat="44.09881" lon="3.12814">
        <ele>402</ele>
        <time>2010-01-01T02:49:39Z</time>
      </trkpt>
      <trkpt lat="44.09884" lon="3.1281">
        <ele>400</ele>
        <time>2010-01-01T02:49:41Z</time>
      </trkpt>
      <trkpt lat="44.09889" lon="3.12808">
        <ele>399</ele>
        <time>2010-01-01T02:49:43Z</time>
      </trkpt>
      <trkpt lat="44.09894" lon="3.12806">
        <ele>399</ele>
        <time>2010-01-01T02:49:45Z</time>
      </trkpt>
      <trkpt lat="44.09902" lon="3.12803">
        <ele>399</ele>
        <time>2010-01-01T02:49:48Z</time>
      </trkpt>
      <trkpt lat="44.09912" lon="3.128">
        <ele>398</ele>
        <time>2010-01-01T02:49:52Z</time>
      </trkpt>
      <trkpt lat="44.09918" lon="3.12795">
        <ele>398</ele>
        <time>2010-01-01T02:49:55Z</time>
      </trkpt>
      <trkpt lat="44.09923" lon="3.12794">
        <ele>397</ele>
        <time>2010-01-01T02:49:57Z</time>
      </trkpt>
      <trkpt lat="44.09927" lon="3.12792">
        <ele>397</ele>
        <time>2010-01-01T02:49:59Z</time>
      </trkpt>
      <trkpt lat="44.09932" lon="3.12789">
        <ele>396</ele>
        <time>2010-01-01T02:50:01Z</time>
      </trkpt>
      <trkpt lat="44.09936" lon="3.12787">
        <ele>395</ele>
        <time>2010-01-01T02:50:03Z</time>
      </trkpt>
      <trkpt lat="44.09937" lon="3.12786">
        <ele>395</ele>
        <time>2010-01-01T02:50:03Z</time>
      </trkpt>
      <trkpt lat="44.09938" lon="3.12785">
        <ele>394</ele>
        <time>2010-01-01T02:50:03Z</time>
      </trkpt>
      <trkpt lat="44.09938" lon="3.12785">
        <ele>394</ele>
        <time>2010-01-01T02:50:04Z</time>
      </trkpt>
      <trkpt lat="44.09949" lon="3.12772">
        <ele>392</ele>
        <time>2010-01-01T02:50:09Z</time>
      </trkpt>
      <trkpt lat="44.09966" lon="3.12767">
        <ele>389</ele>
        <time>2010-01-01T02:50:16Z</time>
      </trkpt>
      <trkpt lat="44.09981" lon="3.12762">
        <ele>387</ele>
        <time>2010-01-01T02:50:23Z</time>
      </trkpt>
      <trkpt lat="44.09997" lon="3.12758">
        <ele>386</ele>
        <time>2010-01-01T02:50:29Z</time>
      </trkpt>
      <trkpt lat="44.10012" lon="3.12752">
        <ele>384</ele>
        <time>2010-01-01T02:50:35Z</time>
      </trkpt>
      <trkpt lat="44.10027" lon="3.12748">
        <ele>383</ele>
        <time>2010-01-01T02:50:41Z</time>
      </trkpt>
      <trkpt lat="44.10047" lon="3.1274">
        <ele>381</ele>
        <time>2010-01-01T02:50:50Z</time>
      </trkpt>
      <trkpt lat="44.10061" lon="3.12736">
        <ele>379</ele>
        <time>2010-01-01T02:50:56Z</time>
      </trkpt>
      <trkpt lat="44.1007" lon="3.12732">
        <ele>377</ele>
        <time>2010-01-01T02:50:59Z</time>
      </trkpt>
      <trkpt lat="44.10082" lon="3.12727">
        <ele>376</ele>
        <time>2010-01-01T02:51:04Z</time>
      </trkpt>
      <trkpt lat="44.10089" lon="3.12716">
        <ele>374</ele>
        <time>2010-01-01T02:51:09Z</time>
      </trkpt>
      <trkpt lat="44.10096" lon="3.12702">
        <ele>373</ele>
        <time>2010-01-01T02:51:13Z</time>
      </trkpt>
      <trkpt lat="44.10095" lon="3.12667">
        <ele>372</ele>
        <time>2010-01-01T02:51:23Z</time>
      </trkpt>
      <trkpt lat="44.1009" lon="3.1264">
        <ele>373</ele>
        <time>2010-01-01T02:51:31Z</time>
      </trkpt>
      <trkpt lat="44.10087" lon="3.12616">
        <ele>373</ele>
        <time>2010-01-01T02:51:38Z</time>
      </trkpt>
      <trkpt lat="44.10085" lon="3.12601">
        <ele>373</ele>
        <time>2010-01-01T02:51:43Z</time>
      </trkpt>
      <trkpt lat="44.10083" lon="3.12584">
        <ele>374</ele>
        <time>2010-01-01T02:51:48Z</time>
      </trkpt>
      <trkpt lat="44.10082" lon="3.12567">
        <ele>374</ele>
        <time>2010-01-01T02:51:52Z</time>
      </trkpt>
      <trkpt lat="44.1008" lon="3.1255">
        <ele>373</ele>
        <time>2010-01-01T02:51:57Z</time>
      </trkpt>
      <trkpt lat="44.1008" lon="3.12533">
        <ele>373</ele>
        <time>2010-01-01T02:52:02Z</time>
      </trkpt>
      <trkpt lat="44.10079" lon="3.12519">
        <ele>371</ele>
        <time>2010-01-01T02:52:07Z</time>
      </trkpt>
      <trkpt lat="44.10078" lon="3.12505">
        <ele>370</ele>
        <time>2010-01-01T02:52:10Z</time>
      </trkpt>
      <trkpt lat="44.10077" lon="3.12492">
        <ele>369</ele>
        <time>2010-01-01T02:52:14Z</time>
      </trkpt>
      <trkpt lat="44.10077" lon="3.12476">
        <ele>368</ele>
        <time>2010-01-01T02:52:19Z</time>
      </trkpt>
      <trkpt lat="44.10075" lon="3.12455">
        <ele>367</ele>
        <time>2010-01-01T02:52:25Z</time>
      </trkpt>
      <trkpt lat="44.10075" lon="3.12442">
        <ele>367</ele>
        <time>2010-01-01T02:52:29Z</time>
      </trkpt>
      <trkpt lat="44.10075" lon="3.12428">
        <ele>367</ele>
        <time>2010-01-01T02:52:33Z</time>
      </trkpt>
      <trkpt lat="44.10074" lon="3.12412">
        <ele>368</ele>
        <time>2010-01-01T02:52:37Z</time>
      </trkpt>
      <trkpt lat="44.10072" lon="3.12396">
        <ele>368</ele>
        <time>2010-01-01T02:52:42Z</time>
      </trkpt>
      <trkpt lat="44.10071" lon="3.12383">
        <ele>368</ele>
        <time>2010-01-01T02:52:46Z</time>
      </trkpt>
      <trkpt lat="44.1007" lon="3.12368">
        <ele>368</ele>
        <time>2010-01-01T02:52:50Z</time>
      </trkpt>
      <trkpt lat="44.10068" lon="3.12352">
        <ele>368</ele>
        <time>2010-01-01T02:52:55Z</time>
      </trkpt>
      <trkpt lat="44.10066" lon="3.1234">
        <ele>368</ele>
        <time>2010-01-01T02:52:58Z</time>
      </trkpt>
      <trkpt lat="44.10064" lon="3.12323">
        <ele>368</ele>
        <time>2010-01-01T02:53:03Z</time>
      </trkpt>
      <trkpt lat="44.10063" lon="3.12306">
        <ele>368</ele>
        <time>2010-01-01T02:53:08Z</time>
      </trkpt>
      <trkpt lat="44.10061" lon="3.12292">
        <ele>369</ele>
        <time>2010-01-01T02:53:12Z</time>
      </trkpt>
      <trkpt lat="44.10058" lon="3.12276">
        <ele>370</ele>
        <time>2010-01-01T02:53:17Z</time>
      </trkpt>
      <trkpt lat="44.10058" lon="3.12263">
        <ele>370</ele>
        <time>2010-01-01T02:53:21Z</time>
      </trkpt>
      <trkpt lat="44.10054" lon="3.12245">
        <ele>371</ele>
        <time>2010-01-01T02:53:26Z</time>
      </trkpt>
      <trkpt lat="44.10051" lon="3.12226">
        <ele>370</ele>
        <time>2010-01-01T02:53:32Z</time>
      </trkpt>
      <trkpt lat="44.10048" lon="3.12206">
        <ele>370</ele>
        <time>2010-01-01T02:53:38Z</time>
      </trkpt>
      <trkpt lat="44.10045" lon="3.12192">
        <ele>370</ele>
        <time>2010-01-01T02:53:42Z</time>
      </trkpt>
      <trkpt lat="44.10043" lon="3.1218">
        <ele>370</ele>
        <time>2010-01-01T02:53:45Z</time>
      </trkpt>
      <trkpt lat="44.1004" lon="3.12165">
        <ele>370</ele>
        <time>2010-01-01T02:53:50Z</time>
      </trkpt>
      <trkpt lat="44.10039" lon="3.12152">
        <ele>370</ele>
        <time>2010-01-01T02:53:54Z</time>
      </trkpt>
      <trkpt lat="44.10039" lon="3.12142">
        <ele>370</ele>
        <time>2010-01-01T02:53:57Z</time>
      </trkpt>
      <trkpt lat="44.10037" lon="3.12131">
        <ele>370</ele>
        <time>2010-01-01T02:54:00Z</time>
      </trkpt>
      <trkpt lat="44.10036" lon="3.12118">
        <ele>369</ele>
        <time>2010-01-01T02:54:04Z</time>
      </trkpt>
      <trkpt lat="44.10035" lon="3.12109">
        <ele>369</ele>
        <time>2010-01-01T02:54:06Z</time>
      </trkpt>
      <trkpt lat="44.10032" lon="3.12093">
        <ele>370</ele>
        <time>2010-01-01T02:54:11Z</time>
      </trkpt>
      <trkpt lat="44.10031" lon="3.12079">
        <ele>370</ele>
        <time>2010-01-01T02:54:15Z</time>
      </trkpt>
      <trkpt lat="44.10028" lon="3.12069">
        <ele>370</ele>
        <time>2010-01-01T02:54:18Z</time>
      </trkpt>
      <trkpt lat="44.10026" lon="3.12056">
        <ele>371</ele>
        <time>2010-01-01T02:54:22Z</time>
      </trkpt>
      <trkpt lat="44.10024" lon="3.12044">
        <ele>372</ele>
        <time>2010-01-01T02:54:25Z</time>
      </trkpt>
      <trkpt lat="44.10023" lon="3.12033">
        <ele>373</ele>
        <time>2010-01-01T02:54:29Z</time>
      </trkpt>
      <trkpt lat="44.10021" lon="3.12018">
        <ele>374</ele>
        <time>2010-01-01T02:54:33Z</time>
      </trkpt>
      <trkpt lat="44.1002" lon="3.12004">
        <ele>375</ele>
        <time>2010-01-01T02:54:37Z</time>
      </trkpt>
      <trkpt lat="44.1002" lon="3.11992">
        <ele>374</ele>
        <time>2010-01-01T02:54:40Z</time>
      </trkpt>
      <trkpt lat="44.1002" lon="3.11981">
        <ele>374</ele>
        <time>2010-01-01T02:54:44Z</time>
      </trkpt>
      <trkpt lat="44.1002" lon="3.11967">
        <ele>373</ele>
        <time>2010-01-01T02:54:48Z</time>
      </trkpt>
      <trkpt lat="44.1002" lon="3.11954">
        <ele>372</ele>
        <time>2010-01-01T02:54:51Z</time>
      </trkpt>
      <trkpt lat="44.10019" lon="3.11944">
        <ele>371</ele>
        <time>2010-01-01T02:54:54Z</time>
      </trkpt>
      <trkpt lat="44.1002" lon="3.11932">
        <ele>370</ele>
        <time>2010-01-01T02:54:58Z</time>
      </trkpt>
      <trkpt lat="44.10018" lon="3.11923">
        <ele>369</ele>
        <time>2010-01-01T02:55:00Z</time>
      </trkpt>
      <trkpt lat="44.10018" lon="3.11916">
        <ele>368</ele>
        <time>2010-01-01T02:55:02Z</time>
      </trkpt>
      <trkpt lat="44.10031" lon="3.11908">
        <ele>367</ele>
        <time>2010-01-01T02:55:08Z</time>
      </trkpt>
      <trkpt lat="44.10032" lon="3.119">
        <ele>366</ele>
        <time>2010-01-01T02:55:11Z</time>
      </trkpt>
      <trkpt lat="44.1003" lon="3.11865">
        <ele>364</ele>
        <time>2010-01-01T02:55:21Z</time>
      </trkpt>
      <trkpt lat="44.10029" lon="3.11836">
        <ele>364</ele>
        <time>2010-01-01T02:55:29Z</time>
      </trkpt>
      <trkpt lat="44.10028" lon="3.11796">
        <ele>364</ele>
        <time>2010-01-01T02:55:40Z</time>
      </trkpt>
      <trkpt lat="44.10018" lon="3.1176">
        <ele>364</ele>
        <time>2010-01-01T02:55:52Z</time>
      </trkpt>
      <trkpt lat="44.10011" lon="3.11726">
        <ele>366</ele>
        <time>2010-01-01T02:56:02Z</time>
      </trkpt>
      <trkpt lat="44.1002" lon="3.11701">
        <ele>367</ele>
        <time>2010-01-01T02:56:10Z</time>
      </trkpt>
      <trkpt lat="44.10019" lon="3.11685">
        <ele>368</ele>
        <time>2010-01-01T02:56:14Z</time>
      </trkpt>
      <trkpt lat="44.10012" lon="3.11658">
        <ele>367</ele>
        <time>2010-01-01T02:56:23Z</time>
      </trkpt>
      <trkpt lat="44.10003" lon="3.11612">
        <ele>367</ele>
        <time>2010-01-01T02:56:36Z</time>
      </trkpt>
      <trkpt lat="44.09997" lon="3.11584">
        <ele>367</ele>
        <time>2010-01-01T02:56:45Z</time>
      </trkpt>
      <trkpt lat="44.09994" lon="3.11572">
        <ele>368</ele>
        <time>2010-01-01T02:56:48Z</time>
      </trkpt>
      <trkpt lat="44.09981" lon="3.11548">
        <ele>368</ele>
        <time>2010-01-01T02:56:57Z</time>
      </trkpt>
      <trkpt lat="44.0997" lon="3.11529">
        <ele>367</ele>
        <time>2010-01-01T02:57:04Z</time>
      </trkpt>
      <trkpt lat="44.0996" lon="3.11515">
        <ele>367</ele>
        <time>2010-01-01T02:57:10Z</time>
      </trkpt>
      <trkpt lat="44.09952" lon="3.115">
        <ele>367</ele>
        <time>2010-01-01T02:57:15Z</time>
      </trkpt>
      <trkpt lat="44.09951" lon="3.11486">
        <ele>366</ele>
        <time>2010-01-01T02:57:19Z</time>
      </trkpt>
      <trkpt lat="44.09953" lon="3.11473">
        <ele>366</ele>
        <time>2010-01-01T02:57:23Z</time>
      </trkpt>
      <trkpt lat="44.09958" lon="3.11455">
        <ele>366</ele>
        <time>2010-01-01T02:57:29Z</time>
      </trkpt>
      <trkpt lat="44.09957" lon="3.11436">
        <ele>366</ele>
        <time>2010-01-01T02:57:34Z</time>
      </trkpt>
      <trkpt lat="44.09952" lon="3.11419">
        <ele>366</ele>
        <time>2010-01-01T02:57:39Z</time>
      </trkpt>
      <trkpt lat="44.09946" lon="3.11406">
        <ele>366</ele>
        <time>2010-01-01T02:57:44Z</time>
      </trkpt>
      <trkpt lat="44.09933" lon="3.11389">
        <ele>367</ele>
        <time>2010-01-01T02:57:51Z</time>
      </trkpt>
      <trkpt lat="44.09927" lon="3.11383">
        <ele>367</ele>
        <time>2010-01-01T02:57:54Z</time>
      </trkpt>
      <trkpt lat="44.0992" lon="3.11375">
        <ele>367</ele>
        <time>2010-01-01T02:57:57Z</time>
      </trkpt>
      <trkpt lat="44.09915" lon="3.11368">
        <ele>367</ele>
        <time>2010-01-01T02:58:00Z</time>
      </trkpt>
      <trkpt lat="44.09911" lon="3.11357">
        <ele>366</ele>
        <time>2010-01-01T02:58:04Z</time>
      </trkpt>
      <trkpt lat="44.09905" lon="3.11342">
        <ele>365</ele>
        <time>2010-01-01T02:58:09Z</time>
      </trkpt>
      <trkpt lat="44.09899" lon="3.11332">
        <ele>365</ele>
        <time>2010-01-01T02:58:13Z</time>
      </trkpt>
      <trkpt lat="44.09891" lon="3.11323">
        <ele>365</ele>
        <time>2010-01-01T02:58:17Z</time>
      </trkpt>
      <trkpt lat="44.09883" lon="3.11318">
        <ele>365</ele>
        <time>2010-01-01T02:58:20Z</time>
      </trkpt>
      <trkpt lat="44.09875" lon="3.11313">
        <ele>365</ele>
        <time>2010-01-01T02:58:24Z</time>
      </trkpt>
      <trkpt lat="44.09865" lon="3.11308">
        <ele>365</ele>
        <time>2010-01-01T02:58:28Z</time>
      </trkpt>
      <trkpt lat="44.09857" lon="3.11308">
        <ele>366</ele>
        <time>2010-01-01T02:58:31Z</time>
      </trkpt>
      <trkpt lat="44.09842" lon="3.11311">
        <ele>367</ele>
        <time>2010-01-01T02:58:37Z</time>
      </trkpt>
      <trkpt lat="44.09831" lon="3.11308">
        <ele>368</ele>
        <time>2010-01-01T02:58:42Z</time>
      </trkpt>
      <trkpt lat="44.09819" lon="3.11306">
        <ele>370</ele>
        <time>2010-01-01T02:58:46Z</time>
      </trkpt>
      <trkpt lat="44.09812" lon="3.11296">
        <ele>371</ele>
        <time>2010-01-01T02:58:51Z</time>
      </trkpt>
      <trkpt lat="44.09807" lon="3.11278">
        <ele>372</ele>
        <time>2010-01-01T02:58:56Z</time>
      </trkpt>
      <trkpt lat="44.09806" lon="3.11256">
        <ele>372</ele>
        <time>2010-01-01T02:59:02Z</time>
      </trkpt>
      <trkpt lat="44.09806" lon="3.11232">
        <ele>370</ele>
        <time>2010-01-01T02:59:09Z</time>
      </trkpt>
      <trkpt lat="44.09805" lon="3.11215">
        <ele>370</ele>
        <time>2010-01-01T02:59:14Z</time>
      </trkpt>
      <trkpt lat="44.09806" lon="3.112">
        <ele>370</ele>
        <time>2010-01-01T02:59:19Z</time>
      </trkpt>
      <trkpt lat="44.09808" lon="3.11184">
        <ele>371</ele>
        <time>2010-01-01T02:59:23Z</time>
      </trkpt>
      <trkpt lat="44.09811" lon="3.11171">
        <ele>371</ele>
        <time>2010-01-01T02:59:27Z</time>
      </trkpt>
      <trkpt lat="44.09816" lon="3.11155">
        <ele>371</ele>
        <time>2010-01-01T02:59:32Z</time>
      </trkpt>
      <trkpt lat="44.0982" lon="3.11141">
        <ele>370</ele>
        <time>2010-01-01T02:59:37Z</time>
      </trkpt>
      <trkpt lat="44.09823" lon="3.11124">
        <ele>371</ele>
        <time>2010-01-01T02:59:42Z</time>
      </trkpt>
      <trkpt lat="44.09822" lon="3.11108">
        <ele>372</ele>
        <time>2010-01-01T02:59:46Z</time>
      </trkpt>
      <trkpt lat="44.0982" lon="3.11098">
        <ele>373</ele>
        <time>2010-01-01T02:59:49Z</time>
      </trkpt>
      <trkpt lat="44.0981" lon="3.11094">
        <ele>376</ele>
        <time>2010-01-01T02:59:53Z</time>
      </trkpt>
      <trkpt lat="44.09799" lon="3.11106">
        <ele>377</ele>
        <time>2010-01-01T02:59:59Z</time>
      </trkpt>
      <trkpt lat="44.0979" lon="3.11119">
        <ele>379</ele>
        <time>2010-01-01T03:00:04Z</time>
      </trkpt>
      <trkpt lat="44.09778" lon="3.1113">
        <ele>381</ele>
        <time>2010-01-01T03:00:10Z</time>
      </trkpt>
      <trkpt lat="44.09765" lon="3.11135">
        <ele>384</ele>
        <time>2010-01-01T03:00:15Z</time>
      </trkpt>
      <trkpt lat="44.09754" lon="3.11136">
        <ele>387</ele>
        <time>2010-01-01T03:00:19Z</time>
      </trkpt>
      <trkpt lat="44.09741" lon="3.11143">
        <ele>391</ele>
        <time>2010-01-01T03:00:25Z</time>
      </trkpt>
      <trkpt lat="44.09733" lon="3.11151">
        <ele>393</ele>
        <time>2010-01-01T03:00:29Z</time>
      </trkpt>
      <trkpt lat="44.09726" lon="3.11163">
        <ele>395</ele>
        <time>2010-01-01T03:00:34Z</time>
      </trkpt>
      <trkpt lat="44.09722" lon="3.11179">
        <ele>395</ele>
        <time>2010-01-01T03:00:38Z</time>
      </trkpt>
      <trkpt lat="44.09719" lon="3.1119">
        <ele>396</ele>
        <time>2010-01-01T03:00:42Z</time>
      </trkpt>
      <trkpt lat="44.09712" lon="3.11193">
        <ele>398</ele>
        <time>2010-01-01T03:00:45Z</time>
      </trkpt>
      <trkpt lat="44.09706" lon="3.11191">
        <ele>400</ele>
        <time>2010-01-01T03:00:47Z</time>
      </trkpt>
      <trkpt lat="44.09699" lon="3.11181">
        <ele>403</ele>
        <time>2010-01-01T03:00:51Z</time>
      </trkpt>
      <trkpt lat="44.09693" lon="3.11167">
        <ele>404</ele>
        <time>2010-01-01T03:00:56Z</time>
      </trkpt>
      <trkpt lat="44.09685" lon="3.11149">
        <ele>407</ele>
        <time>2010-01-01T03:01:02Z</time>
      </trkpt>
      <trkpt lat="44.09685" lon="3.1113">
        <ele>408</ele>
        <time>2010-01-01T03:01:07Z</time>
      </trkpt>
      <trkpt lat="44.09684" lon="3.11112">
        <ele>410</ele>
        <time>2010-01-01T03:01:13Z</time>
      </trkpt>
      <trkpt lat="44.09684" lon="3.11092">
        <ele>410</ele>
        <time>2010-01-01T03:01:18Z</time>
      </trkpt>
      <trkpt lat="44.09689" lon="3.11074">
        <ele>409</ele>
        <time>2010-01-01T03:01:24Z</time>
      </trkpt>
      <trkpt lat="44.09702" lon="3.11061">
        <ele>407</ele>
        <time>2010-01-01T03:01:30Z</time>
      </trkpt>
      <trkpt lat="44.09717" lon="3.11051">
        <ele>404</ele>
        <time>2010-01-01T03:01:37Z</time>
      </trkpt>
      <trkpt lat="44.09729" lon="3.11043">
        <ele>402</ele>
        <time>2010-01-01T03:01:42Z</time>
      </trkpt>
      <trkpt lat="44.09736" lon="3.1103">
        <ele>401</ele>
        <time>2010-01-01T03:01:47Z</time>
      </trkpt>
      <trkpt lat="44.09742" lon="3.11012">
        <ele>402</ele>
        <time>2010-01-01T03:01:53Z</time>
      </trkpt>
      <trkpt lat="44.09746" lon="3.10992">
        <ele>402</ele>
        <time>2010-01-01T03:01:58Z</time>
      </trkpt>
      <trkpt lat="44.09749" lon="3.10971">
        <ele>403</ele>
        <time>2010-01-01T03:02:05Z</time>
      </trkpt>
      <trkpt lat="44.09744" lon="3.10956">
        <ele>403</ele>
        <time>2010-01-01T03:02:09Z</time>
      </trkpt>
      <trkpt lat="44.09739" lon="3.10938">
        <ele>403</ele>
        <time>2010-01-01T03:02:15Z</time>
      </trkpt>
      <trkpt lat="44.09743" lon="3.10917">
        <ele>402</ele>
        <time>2010-01-01T03:02:21Z</time>
      </trkpt>
      <trkpt lat="44.09752" lon="3.10886">
        <ele>399</ele>
        <time>2010-01-01T03:02:31Z</time>
      </trkpt>
      <trkpt lat="44.09755" lon="3.1085">
        <ele>398</ele>
        <time>2010-01-01T03:02:41Z</time>
      </trkpt>
      <trkpt lat="44.09758" lon="3.1081">
        <ele>399</ele>
        <time>2010-01-01T03:02:53Z</time>
      </trkpt>
      <trkpt lat="44.09756" lon="3.10768">
        <ele>403</ele>
        <time>2010-01-01T03:03:05Z</time>
      </trkpt>
      <trkpt lat="44.09757" lon="3.10732">
        <ele>404</ele>
        <time>2010-01-01T03:03:15Z</time>
      </trkpt>
      <trkpt lat="44.09765" lon="3.10705">
        <ele>401</ele>
        <time>2010-01-01T03:03:23Z</time>
      </trkpt>
      <trkpt lat="44.09776" lon="3.10675">
        <ele>399</ele>
        <time>2010-01-01T03:03:33Z</time>
      </trkpt>
      <trkpt lat="44.09784" lon="3.10647">
        <ele>397</ele>
        <time>2010-01-01T03:03:42Z</time>
      </trkpt>
      <trkpt lat="44.098" lon="3.10621">
        <ele>392</ele>
        <time>2010-01-01T03:03:51Z</time>
      </trkpt>
      <trkpt lat="44.09812" lon="3.10601">
        <ele>390</ele>
        <time>2010-01-01T03:03:59Z</time>
      </trkpt>
      <trkpt lat="44.09816" lon="3.10574">
        <ele>391</ele>
        <time>2010-01-01T03:04:07Z</time>
      </trkpt>
      <trkpt lat="44.09816" lon="3.10546">
        <ele>392</ele>
        <time>2010-01-01T03:04:15Z</time>
      </trkpt>
      <trkpt lat="44.09817" lon="3.10521">
        <ele>392</ele>
        <time>2010-01-01T03:04:22Z</time>
      </trkpt>
      <trkpt lat="44.09823" lon="3.10495">
        <ele>391</ele>
        <time>2010-01-01T03:04:30Z</time>
      </trkpt>
      <trkpt lat="44.09833" lon="3.10467">
        <ele>388</ele>
        <time>2010-01-01T03:04:39Z</time>
      </trkpt>
      <trkpt lat="44.09842" lon="3.10439">
        <ele>384</ele>
        <time>2010-01-01T03:04:48Z</time>
      </trkpt>
      <trkpt lat="44.09847" lon="3.10414">
        <ele>383</ele>
        <time>2010-01-01T03:04:55Z</time>
      </trkpt>
      <trkpt lat="44.09853" lon="3.10388">
        <ele>382</ele>
        <time>2010-01-01T03:05:03Z</time>
      </trkpt>
      <trkpt lat="44.09857" lon="3.10363">
        <ele>383</ele>
        <time>2010-01-01T03:05:11Z</time>
      </trkpt>
      <trkpt lat="44.09863" lon="3.10336">
        <ele>382</ele>
        <time>2010-01-01T03:05:19Z</time>
      </trkpt>
      <trkpt lat="44.09869" lon="3.10305">
        <ele>381</ele>
        <time>2010-01-01T03:05:28Z</time>
      </trkpt>
      <trkpt lat="44.09871" lon="3.1027">
        <ele>381</ele>
        <time>2010-01-01T03:05:38Z</time>
      </trkpt>
      <trkpt lat="44.0987" lon="3.10245">
        <ele>381</ele>
        <time>2010-01-01T03:05:45Z</time>
      </trkpt>
      <trkpt lat="44.09871" lon="3.10215">
        <ele>381</ele>
        <time>2010-01-01T03:05:54Z</time>
      </trkpt>
      <trkpt lat="44.09874" lon="3.10187">
        <ele>380</ele>
        <time>2010-01-01T03:06:02Z</time>
      </trkpt>
      <trkpt lat="44.09872" lon="3.10158">
        <ele>381</ele>
        <time>2010-01-01T03:06:10Z</time>
      </trkpt>
      <trkpt lat="44.09867" lon="3.10141">
        <ele>382</ele>
        <time>2010-01-01T03:06:16Z</time>
      </trkpt>
      <trkpt lat="44.0987" lon="3.10115">
        <ele>381</ele>
        <time>2010-01-01T03:06:23Z</time>
      </trkpt>
      <trkpt lat="44.09871" lon="3.10074">
        <ele>381</ele>
        <time>2010-01-01T03:06:35Z</time>
      </trkpt>
      <trkpt lat="44.09872" lon="3.10041">
        <ele>380</ele>
        <time>2010-01-01T03:06:44Z</time>
      </trkpt>
      <trkpt lat="44.09873" lon="3.09986">
        <ele>376</ele>
        <time>2010-01-01T03:07:00Z</time>
      </trkpt>
      <trkpt lat="44.09869" lon="3.0992">
        <ele>370</ele>
        <time>2010-01-01T03:07:19Z</time>
      </trkpt>
      <trkpt lat="44.09868" lon="3.09867">
        <ele>364</ele>
        <time>2010-01-01T03:07:35Z</time>
      </trkpt>
      <trkpt lat="44.09867" lon="3.09822">
        <ele>363</ele>
        <time>2010-01-01T03:07:47Z</time>
      </trkpt>
      <trkpt lat="44.09865" lon="3.09781">
        <ele>363</ele>
        <time>2010-01-01T03:07:59Z</time>
      </trkpt>
      <trkpt lat="44.09866" lon="3.09753">
        <ele>362</ele>
        <time>2010-01-01T03:08:07Z</time>
      </trkpt>
      <trkpt lat="44.09857" lon="3.09711">
        <ele>360</ele>
        <time>2010-01-01T03:08:20Z</time>
      </trkpt>
      <trkpt lat="44.09853" lon="3.09669">
        <ele>360</ele>
        <time>2010-01-01T03:08:32Z</time>
      </trkpt>
      <trkpt lat="44.09853" lon="3.09633">
        <ele>359</ele>
        <time>2010-01-01T03:08:42Z</time>
      </trkpt>
      <trkpt lat="44.09857" lon="3.09607">
        <ele>360</ele>
        <time>2010-01-01T03:08:50Z</time>
      </trkpt>
      <trkpt lat="44.09863" lon="3.09595">
        <ele>360</ele>
        <time>2010-01-01T03:08:54Z</time>
      </trkpt>
      <trkpt lat="44.09874" lon="3.09573">
        <ele>360</ele>
        <time>2010-01-01T03:09:02Z</time>
      </trkpt>
      <trkpt lat="44.09884" lon="3.09559">
        <ele>360</ele>
        <time>2010-01-01T03:09:08Z</time>
      </trkpt>
      <trkpt lat="44.09904" lon="3.0954">
        <ele>360</ele>
        <time>2010-01-01T03:09:17Z</time>
      </trkpt>
      <trkpt lat="44.09915" lon="3.09524">
        <ele>360</ele>
        <time>2010-01-01T03:09:24Z</time>
      </trkpt>
      <trkpt lat="44.09927" lon="3.09502">
        <ele>360</ele>
        <time>2010-01-01T03:09:32Z</time>
      </trkpt>
      <trkpt lat="44.09935" lon="3.0948">
        <ele>359</ele>
        <time>2010-01-01T03:09:39Z</time>
      </trkpt>
      <trkpt lat="44.0994" lon="3.09455">
        <ele>359</ele>
        <time>2010-01-01T03:09:46Z</time>
      </trkpt>
      <trkpt lat="44.09935" lon="3.09429">
        <ele>360</ele>
        <time>2010-01-01T03:09:54Z</time>
      </trkpt>
      <trkpt lat="44.09948" lon="3.09424">
        <ele>360</ele>
        <time>2010-01-01T03:09:59Z</time>
      </trkpt>
      <trkpt lat="44.09957" lon="3.0941">
        <ele>361</ele>
        <time>2010-01-01T03:10:05Z</time>
      </trkpt>
      <trkpt lat="44.09967" lon="3.09391">
        <ele>361</ele>
        <time>2010-01-01T03:10:12Z</time>
      </trkpt>
      <trkpt lat="44.09974" lon="3.09376">
        <ele>361</ele>
        <time>2010-01-01T03:10:16Z</time>
      </trkpt>
      <trkpt lat="44.09971" lon="3.09361">
        <ele>362</ele>
        <time>2010-01-01T03:10:21Z</time>
      </trkpt>
      <trkpt lat="44.0997" lon="3.0935">
        <ele>362</ele>
        <time>2010-01-01T03:10:24Z</time>
      </trkpt>
      <trkpt lat="44.09967" lon="3.09334">
        <ele>362</ele>
        <time>2010-01-01T03:10:29Z</time>
      </trkpt>
      <trkpt lat="44.09978" lon="3.09331">
        <ele>362</ele>
        <time>2010-01-01T03:10:33Z</time>
      </trkpt>
      <trkpt lat="44.09988" lon="3.09326">
        <ele>362</ele>
        <time>2010-01-01T03:10:37Z</time>
      </trkpt>
      <trkpt lat="44.10001" lon="3.09321">
        <ele>361</ele>
        <time>2010-01-01T03:10:43Z</time>
      </trkpt>
      <trkpt lat="44.10006" lon="3.09311">
        <ele>361</ele>
        <time>2010-01-01T03:10:46Z</time>
      </trkpt>
      <trkpt lat="44.10014" lon="3.09297">
        <ele>361</ele>
        <time>2010-01-01T03:10:51Z</time>
      </trkpt>
      <trkpt lat="44.10021" lon="3.09282">
        <ele>359</ele>
        <time>2010-01-01T03:10:56Z</time>
      </trkpt>
      <trkpt lat="44.10031" lon="3.09274">
        <ele>358</ele>
        <time>2010-01-01T03:11:01Z</time>
      </trkpt>
      <trkpt lat="44.10041" lon="3.09266">
        <ele>359</ele>
        <time>2010-01-01T03:11:05Z</time>
      </trkpt>
      <trkpt lat="44.10052" lon="3.09255">
        <ele>359</ele>
        <time>2010-01-01T03:11:11Z</time>
      </trkpt>
      <trkpt lat="44.10062" lon="3.09235">
        <ele>361</ele>
        <time>2010-01-01T03:11:18Z</time>
      </trkpt>
      <trkpt lat="44.1007" lon="3.09224">
        <ele>361</ele>
        <time>2010-01-01T03:11:22Z</time>
      </trkpt>
      <trkpt lat="44.10074" lon="3.09214">
        <ele>362</ele>
        <time>2010-01-01T03:11:26Z</time>
      </trkpt>
      <trkpt lat="44.10076" lon="3.09199">
        <ele>362</ele>
        <time>2010-01-01T03:11:30Z</time>
      </trkpt>
      <trkpt lat="44.10078" lon="3.09184">
        <ele>362</ele>
        <time>2010-01-01T03:11:35Z</time>
      </trkpt>
      <trkpt lat="44.10081" lon="3.09172">
        <ele>362</ele>
        <time>2010-01-01T03:11:38Z</time>
      </trkpt>
      <trkpt lat="44.10087" lon="3.0916">
        <ele>362</ele>
        <time>2010-01-01T03:11:43Z</time>
      </trkpt>
      <trkpt lat="44.10095" lon="3.09154">
        <ele>362</ele>
        <time>2010-01-01T03:11:46Z</time>
      </trkpt>
      <trkpt lat="44.10105" lon="3.09145">
        <ele>363</ele>
        <time>2010-01-01T03:11:51Z</time>
      </trkpt>
      <trkpt lat="44.10115" lon="3.09136">
        <ele>364</ele>
        <time>2010-01-01T03:11:56Z</time>
      </trkpt>
      <trkpt lat="44.10123" lon="3.09129">
        <ele>364</ele>
        <time>2010-01-01T03:12:00Z</time>
      </trkpt>
      <trkpt lat="44.10128" lon="3.09122">
        <ele>365</ele>
        <time>2010-01-01T03:12:02Z</time>
      </trkpt>
      <trkpt lat="44.10134" lon="3.09118">
        <ele>366</ele>
        <time>2010-01-01T03:12:05Z</time>
      </trkpt>
      <trkpt lat="44.10138" lon="3.09113">
        <ele>366</ele>
        <time>2010-01-01T03:12:07Z</time>
      </trkpt>
      <trkpt lat="44.10143" lon="3.0911">
        <ele>366</ele>
        <time>2010-01-01T03:12:09Z</time>
      </trkpt>
      <trkpt lat="44.10146" lon="3.09117">
        <ele>365</ele>
        <time>2010-01-01T03:12:12Z</time>
      </trkpt>
      <trkpt lat="44.1015" lon="3.09123">
        <ele>364</ele>
        <time>2010-01-01T03:12:14Z</time>
      </trkpt>
      <trkpt lat="44.10157" lon="3.09128">
        <ele>363</ele>
        <time>2010-01-01T03:12:17Z</time>
      </trkpt>
      <trkpt lat="44.10164" lon="3.09132">
        <ele>362</ele>
        <time>2010-01-01T03:12:20Z</time>
      </trkpt>
      <trkpt lat="44.10171" lon="3.09137">
        <ele>362</ele>
        <time>2010-01-01T03:12:23Z</time>
      </trkpt>
      <trkpt lat="44.10176" lon="3.09138">
        <ele>361</ele>
        <time>2010-01-01T03:12:25Z</time>
      </trkpt>
      <trkpt lat="44.10189" lon="3.09131">
        <ele>361</ele>
        <time>2010-01-01T03:12:31Z</time>
      </trkpt>
      <trkpt lat="44.10218" lon="3.09117">
        <ele>361</ele>
        <time>2010-01-01T03:12:43Z</time>
      </trkpt>
      <trkpt lat="44.10228" lon="3.09113">
        <ele>360</ele>
        <time>2010-01-01T03:12:47Z</time>
      </trkpt>
      <trkpt lat="44.10236" lon="3.09108">
        <ele>360</ele>
        <time>2010-01-01T03:12:51Z</time>
      </trkpt>
      <trkpt lat="44.1024" lon="3.09106">
        <ele>360</ele>
        <time>2010-01-01T03:12:53Z</time>
      </trkpt>
      <trkpt lat="44.10243" lon="3.09097">
        <ele>360</ele>
        <time>2010-01-01T03:12:55Z</time>
      </trkpt>
      <trkpt lat="44.10253" lon="3.09102">
        <ele>359</ele>
        <time>2010-01-01T03:13:00Z</time>
      </trkpt>
      <trkpt lat="44.10262" lon="3.09104">
        <ele>359</ele>
        <time>2010-01-01T03:13:03Z</time>
      </trkpt>
      <trkpt lat="44.10276" lon="3.09109">
        <ele>359</ele>
        <time>2010-01-01T03:13:09Z</time>
      </trkpt>
      <trkpt lat="44.10282" lon="3.09099">
        <ele>359</ele>
        <time>2010-01-01T03:13:12Z</time>
      </trkpt>
      <trkpt lat="44.10289" lon="3.09084">
        <ele>359</ele>
        <time>2010-01-01T03:13:18Z</time>
      </trkpt>
      <trkpt lat="44.10297" lon="3.09068">
        <ele>360</ele>
        <time>2010-01-01T03:13:23Z</time>
      </trkpt>
      <trkpt lat="44.10303" lon="3.09053">
        <ele>360</ele>
        <time>2010-01-01T03:13:28Z</time>
      </trkpt>
      <trkpt lat="44.10309" lon="3.09037">
        <ele>361</ele>
        <time>2010-01-01T03:13:33Z</time>
      </trkpt>
      <trkpt lat="44.10314" lon="3.09021">
        <ele>362</ele>
        <time>2010-01-01T03:13:39Z</time>
      </trkpt>
      <trkpt lat="44.10316" lon="3.09003">
        <ele>361</ele>
        <time>2010-01-01T03:13:44Z</time>
      </trkpt>
      <trkpt lat="44.10318" lon="3.08987">
        <ele>360</ele>
        <time>2010-01-01T03:13:49Z</time>
      </trkpt>
      <trkpt lat="44.10317" lon="3.0897">
        <ele>359</ele>
        <time>2010-01-01T03:13:53Z</time>
      </trkpt>
      <trkpt lat="44.10315" lon="3.08957">
        <ele>359</ele>
        <time>2010-01-01T03:13:57Z</time>
      </trkpt>
      <trkpt lat="44.10311" lon="3.08942">
        <ele>358</ele>
        <time>2010-01-01T03:14:02Z</time>
      </trkpt>
      <trkpt lat="44.10308" lon="3.08925">
        <ele>356</ele>
        <time>2010-01-01T03:14:07Z</time>
      </trkpt>
      <trkpt lat="44.10307" lon="3.0891">
        <ele>356</ele>
        <time>2010-01-01T03:14:11Z</time>
      </trkpt>
      <trkpt lat="44.10304" lon="3.08894">
        <ele>355</ele>
        <time>2010-01-01T03:14:16Z</time>
      </trkpt>
      <trkpt lat="44.103" lon="3.08875">
        <ele>355</ele>
        <time>2010-01-01T03:14:22Z</time>
      </trkpt>
      <trkpt lat="44.10296" lon="3.08864">
        <ele>355</ele>
        <time>2010-01-01T03:14:25Z</time>
      </trkpt>
      <trkpt lat="44.10293" lon="3.08853">
        <ele>356</ele>
        <time>2010-01-01T03:14:28Z</time>
      </trkpt>
      <trkpt lat="44.10286" lon="3.0884">
        <ele>356</ele>
        <time>2010-01-01T03:14:33Z</time>
      </trkpt>
      <trkpt lat="44.10279" lon="3.08828">
        <ele>356</ele>
        <time>2010-01-01T03:14:37Z</time>
      </trkpt>
      <trkpt lat="44.10262" lon="3.08798">
        <ele>357</ele>
        <time>2010-01-01T03:14:49Z</time>
      </trkpt>
      <trkpt lat="44.10286" lon="3.08792">
        <ele>357</ele>
        <time>2010-01-01T03:14:58Z</time>
      </trkpt>
      <trkpt lat="44.10291" lon="3.0879">
        <ele>357</ele>
        <time>2010-01-01T03:15:00Z</time>
      </trkpt>
      <trkpt lat="44.10296" lon="3.08789">
        <ele>356</ele>
        <time>2010-01-01T03:15:03Z</time>
      </trkpt>
      <trkpt lat="44.103" lon="3.08787">
        <ele>356</ele>
        <time>2010-01-01T03:15:04Z</time>
      </trkpt>
      <trkpt lat="44.10306" lon="3.0879">
        <ele>356</ele>
        <time>2010-01-01T03:15:07Z</time>
      </trkpt>
      <trkpt lat="44.10311" lon="3.08798">
        <ele>356</ele>
        <time>2010-01-01T03:15:10Z</time>
      </trkpt>
      <trkpt lat="44.10316" lon="3.08804">
        <ele>356</ele>
        <time>2010-01-01T03:15:12Z</time>
      </trkpt>
      <trkpt lat="44.1032" lon="3.08805">
        <ele>356</ele>
        <time>2010-01-01T03:15:14Z</time>
      </trkpt>
    </trkseg>
  </trk>
</gpx>